GFSMA_prec_precacc_018.txt.gz
Total_Precipitation_Accumulation
0.00 0.00 0.00 0.00 0.00 0.00 0.00 0.00 0.00 0.00 0.00 0.00 0.00 0.00 0.00 0.00 0.00 0.00 0.00 0.00 0.00 0.00 0.00 0.00 0.01 0.01 0.02 0.04 0.07 0.11 0.10 0.08 0.08 0.07 0.05 0.04 0.05 0.06 0.08 0.10 0.12 0.12 0.12
0.00 0.00 0.00 0.00 0.00 0.00 0.00 0.00 0.00 0.00 0.00 0.00 0.00 0.00 0.00 0.00 0.00 0.00 0.00 0.00 0.00 0.00 0.00 0.00 0.01 0.01 0.02 0.04 0.05 0.08 0.08 0.08 0.07 0.07 0.07 0.07 0.08 0.10 0.11 0.12 0.13 0.13 0.16
0.00 0.00 0.00 0.00 0.00 0.00 0.00 0.00 0.00 0.00 0.00 0.00 0.00 0.00 0.00 0.00 0.00 0.00 0.00 0.00 0.00 0.00 0.00 0.00 0.01 0.02 0.02 0.01 0.02 0.05 0.08 0.09 0.08 0.08 0.08 0.08 0.09 0.11 0.13 0.15 0.16 0.15 0.15
0.00 0.00 0.00 0.00 0.00 0.00 0.00 0.00 0.00 0.00 0.00 0.00 0.00 0.00 0.00 0.00 0.00 0.00 0.00 0.00 0.00 0.00 0.00 0.00 0.01 0.01 0.01 0.01 0.02 0.05 0.08 0.10 0.10 0.09 0.09 0.08 0.09 0.11 0.13 0.15 0.16 0.18 0.20
0.00 0.00 0.00 0.00 0.00 0.00 0.00 0.00 0.00 0.00 0.00 0.00 0.00 0.00 0.00 0.00 0.00 0.00 0.00 0.00 0.00 0.00 0.00 0.00 0.00 0.00 0.01 0.03 0.04 0.04 0.06 0.10 0.12 0.12 0.13 0.13 0.12 0.14 0.19 0.21 0.22 0.21 0.21
0.00 0.00 0.00 0.00 0.00 0.00 0.00 0.00 0.00 0.00 0.00 0.00 0.00 0.00 0.00 0.00 0.00 0.00 0.00 0.00 0.00 0.00 0.00 0.00 0.00 0.00 0.02 0.04 0.08 0.06 0.05 0.07 0.10 0.12 0.14 0.16 0.18 0.18 0.16 0.18 0.20 0.22 0.23
0.00 0.00 0.00 0.00 0.00 0.00 0.00 0.00 0.00 0.00 0.00 0.00 0.00 0.00 0.00 0.00 0.00 0.00 0.00 0.00 0.00 0.00 0.00 0.00 0.00 0.01 0.05 0.07 0.08 0.08 0.09 0.09 0.12 0.17 0.18 0.15 0.13 0.14 0.16 0.18 0.20 0.22 0.22
0.00 0.00 0.00 0.00 0.00 0.00 0.00 0.00 0.00 0.00 0.00 0.00 0.00 0.00 0.00 0.00 0.00 0.00 0.00 0.00 0.00 0.00 0.00 0.00 0.01 0.02 0.03 0.05 0.05 0.04 0.02 0.01 0.02 0.06 0.09 0.12 0.14 0.13 0.14 0.16 0.16 0.19 0.25
0.00 0.00 0.00 0.00 0.00 0.00 0.00 0.00 0.00 0.00 0.00 0.00 0.00 0.00 0.00 0.00 0.00 0.00 0.00 0.00 0.00 0.00 0.00 0.00 0.00 0.00 0.00 0.00 0.00 0.00 0.00 0.02 0.01 0.02 0.05 0.08 0.11 0.12 0.13 0.16 0.18 0.22 0.25
0.00 0.00 0.00 0.00 0.00 0.00 0.00 0.00 0.00 0.00 0.00 0.00 0.00 0.00 0.00 0.00 0.00 0.00 0.00 0.00 0.00 0.00 0.00 0.00 0.00 0.00 0.00 0.00 0.00 0.00 0.01 0.03 0.03 0.03 0.06 0.09 0.12 0.16 0.22 0.25 0.26 0.33 0.44
0.00 0.00 0.00 0.00 0.00 0.00 0.00 0.00 0.00 0.00 0.00 0.00 0.00 0.00 0.00 0.00 0.00 0.00 0.00 0.00 0.00 0.00 0.00 0.00 0.00 0.00 0.00 0.00 0.00 0.01 0.04 0.02 0.02 0.02 0.03 0.05 0.09 0.19 0.24 0.33 0.47 0.68 0.80
0.00 0.00 0.00 0.00 0.00 0.00 0.00 0.00 0.00 0.00 0.00 0.00 0.00 0.00 0.00 0.00 0.00 0.00 0.00 0.00 0.00 0.00 0.00 0.00 0.00 0.00 0.00 0.00 0.00 0.00 0.00 0.00 0.00 0.00 0.00 0.02 0.07 0.09 0.15 0.28 0.40 0.48 0.70
0.00 0.00 0.00 0.00 0.00 0.00 0.00 0.00 0.00 0.00 0.00 0.00 0.00 0.00 0.00 0.00 0.00 0.00 0.00 0.00 0.00 0.00 0.00 0.00 0.00 0.00 0.00 0.00 0.00 0.00 0.00 0.00 0.00 0.00 0.00 0.00 0.00 0.01 0.01 0.05 0.15 0.16 0.14
0.00 0.00 0.00 0.00 0.00 0.00 0.00 0.00 0.00 0.00 0.00 0.00 0.00 0.00 0.00 0.00 0.00 0.00 0.00 0.00 0.00 0.00 0.00 0.00 0.00 0.00 0.00 0.00 0.00 0.00 0.00 0.00 0.00 0.00 0.00 0.00 0.00 0.00 0.00 0.00 0.02 0.05 0.07
0.00 0.00 0.00 0.00 0.00 0.00 0.00 0.00 0.00 0.00 0.00 0.00 0.00 0.00 0.00 0.00 0.00 0.00 0.00 0.00 0.00 0.00 0.00 0.00 0.00 0.00 0.00 0.00 0.00 0.00 0.00 0.00 0.00 0.00 0.00 0.00 0.00 0.00 0.01 0.01 0.01 0.02 0.02
0.00 0.00 0.00 0.00 0.00 0.00 0.00 0.00 0.00 0.00 0.00 0.00 0.00 0.00 0.00 0.00 0.00 0.00 0.00 0.00 0.00 0.00 0.00 0.00 0.00 0.00 0.00 0.00 0.00 0.00 0.00 0.00 0.00 0.00 0.01 0.01 0.01 0.02 0.02 0.01 0.01 0.02 0.03
0.00 0.00 0.00 0.00 0.00 0.00 0.00 0.00 0.00 0.00 0.00 0.00 0.00 0.00 0.00 0.00 0.00 0.00 0.00 0.00 0.00 0.00 0.00 0.00 0.00 0.00 0.00 0.00 0.00 0.00 0.00 0.01 0.02 0.02 0.01 0.01 0.01 0.00 0.00 0.00 0.02 0.04 0.04
0.00 0.00 0.00 0.00 0.00 0.00 0.00 0.00 0.00 0.00 0.00 0.00 0.00 0.00 0.00 0.00 0.00 0.00 0.00 0.00 0.00 0.00 0.00 0.02 0.00 0.00 0.00 0.00 0.00 0.00 0.01 0.02 0.01 0.00 0.00 0.00 0.00 0.00 0.01 0.02 0.05 0.07 0.09
0.00 0.00 0.00 0.00 0.00 0.00 0.00 0.00 0.00 0.00 0.00 0.00 0.00 0.00 0.00 0.00 0.00 0.00 0.00 0.00 0.00 0.00 0.01 0.03 0.00 0.00 0.00 0.02 0.04 0.01 0.00 0.00 0.00 0.00 0.00 0.00 0.01 0.01 0.02 0.04 0.07 0.09 0.11
0.00 0.00 0.00 0.00 0.00 0.00 0.00 0.00 0.00 0.00 0.00 0.00 0.00 0.00 0.00 0.00 0.00 0.00 0.00 0.00 0.01 0.01 0.00 0.02 0.08 0.08 0.10 0.06 0.03 0.01 0.00 0.00 0.00 0.00 0.00 0.01 0.02 0.04 0.05 0.05 0.03 0.02 0.01
0.00 0.00 0.00 0.00 0.00 0.00 0.00 0.00 0.00 0.00 0.00 0.00 0.00 0.00 0.00 0.00 0.00 0.00 0.01 0.01 0.02 0.03 0.13 0.24 0.22 0.20 0.10 0.02 0.00 0.00 0.01 0.01 0.02 0.01 0.01 0.02 0.03 0.02 0.00 0.00 0.00 0.01 0.02
0.00 0.00 0.00 0.00 0.00 0.00 0.00 0.00 0.00 0.00 0.00 0.00 0.00 0.00 0.00 0.00 0.00 0.00 0.01 0.02 0.05 0.16 0.23 0.34 0.29 0.10 0.01 0.00 0.01 0.04 0.14 0.10 0.06 0.00 0.03 0.02 0.00 0.00 0.00 0.00 0.02 0.03 0.04
0.00 0.00 0.00 0.00 0.00 0.00 0.00 0.00 0.00 0.00 0.00 0.00 0.00 0.00 0.00 0.00 0.00 0.00 0.00 0.05 0.15 0.20 0.20 0.10 0.02 0.01 0.02 0.05 0.18 0.17 0.09 0.07 0.04 0.01 0.05 0.06 0.01 0.01 0.01 0.01 0.01 0.01 0.03
0.00 0.00 0.00 0.00 0.00 0.00 0.00 0.00 0.00 0.00 0.00 0.00 0.00 0.00 0.00 0.00 0.01 0.02 0.07 0.17 0.12 0.08 0.01 0.00 0.01 0.02 0.06 0.06 0.05 0.05 0.05 0.07 0.04 0.01 0.03 0.13 0.02 0.01 0.00 0.00 0.01 0.01 0.03
0.00 0.00 0.00 0.00 0.00 0.00 0.00 0.00 0.00 0.00 0.00 0.00 0.00 0.00 0.02 0.02 0.01 0.09 0.12 0.19 0.06 0.00 0.00 0.01 0.06 0.04 0.01 0.00 0.01 0.11 0.17 0.15 0.10 0.01 0.01 0.08 0.04 0.02 0.01 0.00 0.00 0.04 0.06
0.00 0.00 0.00 0.00 0.00 0.00 0.00 0.00 0.00 0.00 0.00 0.00 0.00 0.00 0.01 0.02 0.05 0.18 0.11 0.03 0.01 0.01 0.05 0.05 0.01 0.00 0.00 0.00 0.01 0.04 0.17 0.38 0.18 0.11 0.01 0.20 0.11 0.07 0.23 0.02 0.01 0.02 0.01

GFSMA_prec_precacc_021.txt.gz
Total_Precipitation_Accumulation
0.00 0.00 0.00 0.00 0.00 0.00 0.00 0.00 0.00 0.00 0.00 0.00 0.00 0.00 0.00 0.00 0.00 0.00 0.00 0.00 0.00 0.00 0.00 0.00 0.01 0.01 0.02 0.04 0.07 0.11 0.10 0.08 0.08 0.07 0.05 0.04 0.05 0.06 0.08 0.10 0.12 0.12 0.12
0.00 0.00 0.00 0.00 0.00 0.00 0.00 0.00 0.00 0.00 0.00 0.00 0.00 0.00 0.00 0.00 0.00 0.00 0.00 0.00 0.00 0.00 0.00 0.00 0.01 0.01 0.02 0.04 0.05 0.08 0.08 0.08 0.07 0.07 0.07 0.07 0.08 0.10 0.11 0.12 0.13 0.13 0.16
0.00 0.00 0.00 0.00 0.00 0.00 0.00 0.00 0.00 0.00 0.00 0.00 0.00 0.00 0.00 0.00 0.00 0.00 0.00 0.00 0.00 0.00 0.00 0.00 0.01 0.02 0.02 0.01 0.02 0.05 0.08 0.09 0.08 0.08 0.08 0.08 0.09 0.11 0.13 0.15 0.16 0.15 0.15
0.00 0.00 0.00 0.00 0.00 0.00 0.00 0.00 0.00 0.00 0.00 0.00 0.00 0.00 0.00 0.00 0.00 0.00 0.00 0.00 0.00 0.00 0.00 0.00 0.01 0.01 0.01 0.01 0.02 0.05 0.08 0.10 0.10 0.09 0.09 0.08 0.09 0.11 0.13 0.15 0.16 0.18 0.20
0.00 0.00 0.00 0.00 0.00 0.00 0.00 0.00 0.00 0.00 0.00 0.00 0.00 0.00 0.00 0.00 0.00 0.00 0.00 0.00 0.00 0.00 0.00 0.00 0.00 0.00 0.01 0.03 0.04 0.04 0.06 0.10 0.12 0.12 0.13 0.13 0.12 0.14 0.19 0.21 0.22 0.21 0.21
0.00 0.00 0.00 0.00 0.00 0.00 0.00 0.00 0.00 0.00 0.00 0.00 0.00 0.00 0.00 0.00 0.00 0.00 0.00 0.00 0.00 0.00 0.00 0.00 0.00 0.00 0.02 0.04 0.08 0.06 0.05 0.07 0.10 0.12 0.14 0.16 0.18 0.18 0.16 0.18 0.20 0.22 0.23
0.00 0.00 0.00 0.00 0.00 0.00 0.00 0.00 0.00 0.00 0.00 0.00 0.00 0.00 0.00 0.00 0.00 0.00 0.00 0.00 0.00 0.00 0.00 0.00 0.00 0.01 0.05 0.07 0.08 0.08 0.09 0.09 0.12 0.17 0.18 0.15 0.13 0.14 0.16 0.18 0.20 0.22 0.22
0.00 0.00 0.00 0.00 0.00 0.00 0.00 0.00 0.00 0.00 0.00 0.00 0.00 0.00 0.00 0.00 0.00 0.00 0.00 0.00 0.00 0.00 0.00 0.00 0.01 0.02 0.03 0.05 0.05 0.04 0.02 0.01 0.02 0.06 0.09 0.12 0.14 0.13 0.14 0.16 0.16 0.19 0.25
0.00 0.00 0.00 0.00 0.00 0.00 0.00 0.00 0.00 0.00 0.00 0.00 0.00 0.00 0.00 0.00 0.00 0.00 0.00 0.00 0.00 0.00 0.00 0.00 0.00 0.00 0.00 0.00 0.00 0.00 0.00 0.02 0.01 0.02 0.05 0.08 0.11 0.12 0.13 0.16 0.18 0.22 0.25
0.00 0.00 0.00 0.00 0.00 0.00 0.00 0.00 0.00 0.00 0.00 0.00 0.00 0.00 0.00 0.00 0.00 0.00 0.00 0.00 0.00 0.00 0.00 0.00 0.00 0.00 0.00 0.00 0.00 0.00 0.01 0.03 0.03 0.03 0.06 0.09 0.12 0.16 0.22 0.25 0.26 0.33 0.44
0.00 0.00 0.00 0.00 0.00 0.00 0.00 0.00 0.00 0.00 0.00 0.00 0.00 0.00 0.00 0.00 0.00 0.00 0.00 0.00 0.00 0.00 0.00 0.00 0.00 0.00 0.00 0.00 0.00 0.01 0.04 0.02 0.02 0.02 0.03 0.05 0.09 0.19 0.24 0.33 0.47 0.68 0.80
0.00 0.00 0.00 0.00 0.00 0.00 0.00 0.00 0.00 0.00 0.00 0.00 0.00 0.00 0.00 0.00 0.00 0.00 0.00 0.00 0.00 0.00 0.00 0.00 0.00 0.00 0.00 0.00 0.00 0.00 0.00 0.00 0.00 0.00 0.00 0.02 0.07 0.09 0.15 0.28 0.40 0.48 0.70
0.00 0.00 0.00 0.00 0.00 0.00 0.00 0.00 0.00 0.00 0.00 0.00 0.00 0.00 0.00 0.00 0.00 0.00 0.00 0.00 0.00 0.00 0.00 0.00 0.00 0.00 0.00 0.00 0.00 0.00 0.00 0.00 0.00 0.00 0.00 0.00 0.00 0.01 0.01 0.05 0.15 0.16 0.16
0.00 0.00 0.00 0.00 0.00 0.00 0.00 0.00 0.00 0.00 0.00 0.00 0.00 0.00 0.00 0.00 0.00 0.00 0.00 0.00 0.00 0.00 0.00 0.00 0.00 0.00 0.00 0.00 0.00 0.00 0.00 0.00 0.00 0.00 0.00 0.00 0.00 0.00 0.00 0.00 0.03 0.07 0.10
0.00 0.00 0.00 0.00 0.00 0.00 0.00 0.00 0.00 0.00 0.00 0.00 0.00 0.00 0.00 0.00 0.00 0.00 0.00 0.00 0.00 0.00 0.00 0.00 0.00 0.00 0.00 0.00 0.00 0.00 0.00 0.00 0.00 0.00 0.00 0.00 0.00 0.01 0.01 0.02 0.03 0.04 0.04
0.00 0.00 0.00 0.00 0.00 0.00 0.00 0.00 0.00 0.00 0.00 0.00 0.00 0.00 0.00 0.00 0.00 0.00 0.00 0.00 0.00 0.00 0.00 0.00 0.00 0.00 0.00 0.00 0.00 0.00 0.00 0.00 0.00 0.00 0.01 0.01 0.02 0.03 0.02 0.01 0.01 0.02 0.03
0.00 0.00 0.00 0.00 0.00 0.00 0.00 0.00 0.00 0.00 0.00 0.00 0.00 0.00 0.00 0.00 0.00 0.00 0.00 0.00 0.00 0.00 0.00 0.00 0.00 0.00 0.00 0.00 0.00 0.00 0.00 0.01 0.02 0.02 0.02 0.01 0.02 0.00 0.00 0.00 0.03 0.05 0.06
0.00 0.00 0.00 0.00 0.00 0.00 0.00 0.00 0.00 0.00 0.00 0.00 0.00 0.00 0.00 0.00 0.00 0.00 0.00 0.00 0.00 0.00 0.00 0.02 0.00 0.00 0.00 0.00 0.00 0.00 0.01 0.02 0.01 0.00 0.00 0.00 0.00 0.00 0.01 0.02 0.05 0.09 0.11
0.00 0.00 0.00 0.00 0.00 0.00 0.00 0.00 0.00 0.00 0.00 0.00 0.00 0.00 0.00 0.00 0.00 0.00 0.00 0.00 0.00 0.00 0.01 0.03 0.00 0.00 0.00 0.02 0.04 0.01 0.00 0.00 0.00 0.00 0.00 0.00 0.01 0.01 0.02 0.04 0.07 0.10 0.12
0.00 0.00 0.00 0.00 0.00 0.00 0.00 0.00 0.00 0.00 0.00 0.00 0.00 0.00 0.00 0.00 0.00 0.00 0.00 0.00 0.01 0.01 0.00 0.02 0.10 0.11 0.12 0.06 0.03 0.01 0.00 0.00 0.00 0.00 0.00 0.01 0.02 0.04 0.05 0.05 0.03 0.02 0.01
0.00 0.00 0.00 0.00 0.00 0.00 0.00 0.00 0.00 0.00 0.00 0.00 0.00 0.00 0.00 0.00 0.00 0.00 0.01 0.01 0.02 0.03 0.16 0.30 0.25 0.20 0.10 0.02 0.00 0.00 0.01 0.02 0.02 0.01 0.01 0.02 0.03 0.02 0.00 0.00 0.00 0.01 0.02
0.00 0.00 0.00 0.00 0.00 0.00 0.00 0.00 0.00 0.00 0.00 0.00 0.00 0.00 0.00 0.00 0.00 0.00 0.01 0.02 0.06 0.20 0.28 0.35 0.29 0.10 0.01 0.00 0.01 0.05 0.15 0.11 0.06 0.00 0.03 0.02 0.00 0.00 0.00 0.00 0.02 0.03 0.04
0.00 0.00 0.00 0.00 0.00 0.00 0.00 0.00 0.00 0.00 0.00 0.00 0.00 0.00 0.00 0.00 0.00 0.00 0.00 0.06 0.17 0.22 0.20 0.10 0.02 0.01 0.02 0.05 0.21 0.19 0.09 0.07 0.04 0.01 0.05 0.06 0.01 0.01 0.01 0.01 0.01 0.01 0.03
0.00 0.00 0.00 0.00 0.00 0.00 0.00 0.00 0.00 0.00 0.00 0.00 0.00 0.00 0.00 0.00 0.01 0.03 0.07 0.19 0.13 0.08 0.01 0.00 0.01 0.03 0.07 0.08 0.05 0.05 0.06 0.08 0.04 0.01 0.03 0.14 0.02 0.01 0.00 0.00 0.01 0.01 0.03
0.00 0.00 0.00 0.00 0.00 0.00 0.00 0.00 0.00 0.00 0.00 0.00 0.00 0.00 0.02 0.02 0.02 0.09 0.14 0.19 0.06 0.00 0.00 0.01 0.06 0.04 0.01 0.00 0.01 0.12 0.19 0.16 0.10 0.01 0.01 0.09 0.04 0.02 0.01 0.00 0.00 0.04 0.06
0.00 0.00 0.00 0.00 0.00 0.00 0.00 0.00 0.00 0.00 0.00 0.00 0.00 0.00 0.01 0.02 0.05 0.20 0.12 0.03 0.01 0.01 0.07 0.06 0.01 0.00 0.00 0.00 0.01 0.04 0.18 0.43 0.19 0.13 0.01 0.23 0.12 0.08 0.27 0.03 0.01 0.02 0.01

GFSMA_prec_precacc_024.txt.gz
Total_Precipitation_Accumulation
0.00 0.00 0.00 0.00 0.00 0.00 0.00 0.00 0.00 0.00 0.00 0.00 0.00 0.00 0.00 0.00 0.00 0.00 0.00 0.00 0.00 0.00 0.00 0.00 0.01 0.01 0.02 0.04 0.07 0.11 0.10 0.08 0.08 0.07 0.05 0.04 0.05 0.06 0.08 0.10 0.12 0.12 0.12
0.00 0.00 0.00 0.00 0.00 0.00 0.00 0.00 0.00 0.00 0.00 0.00 0.00 0.00 0.00 0.00 0.00 0.00 0.00 0.00 0.00 0.00 0.00 0.00 0.01 0.01 0.02 0.04 0.05 0.08 0.08 0.08 0.07 0.07 0.07 0.07 0.08 0.10 0.11 0.12 0.13 0.13 0.16
0.00 0.00 0.00 0.00 0.00 0.00 0.00 0.00 0.00 0.00 0.00 0.00 0.00 0.00 0.00 0.00 0.00 0.00 0.00 0.00 0.00 0.00 0.00 0.00 0.01 0.02 0.02 0.01 0.02 0.05 0.08 0.09 0.08 0.08 0.08 0.08 0.09 0.11 0.13 0.15 0.16 0.15 0.15
0.00 0.00 0.00 0.00 0.00 0.00 0.00 0.00 0.00 0.00 0.00 0.00 0.00 0.00 0.00 0.00 0.00 0.00 0.00 0.00 0.00 0.00 0.00 0.00 0.01 0.01 0.01 0.01 0.02 0.05 0.08 0.10 0.10 0.09 0.09 0.08 0.09 0.11 0.13 0.15 0.16 0.18 0.20
0.00 0.00 0.00 0.00 0.00 0.00 0.00 0.00 0.00 0.00 0.00 0.00 0.00 0.00 0.00 0.00 0.00 0.00 0.00 0.00 0.00 0.00 0.00 0.00 0.00 0.00 0.01 0.03 0.04 0.04 0.06 0.10 0.12 0.12 0.13 0.13 0.12 0.14 0.19 0.21 0.22 0.21 0.21
0.00 0.00 0.00 0.00 0.00 0.00 0.00 0.00 0.00 0.00 0.00 0.00 0.00 0.00 0.00 0.00 0.00 0.00 0.00 0.00 0.00 0.00 0.00 0.00 0.00 0.00 0.02 0.04 0.08 0.06 0.05 0.07 0.10 0.12 0.14 0.16 0.18 0.18 0.16 0.18 0.20 0.22 0.23
0.00 0.00 0.00 0.00 0.00 0.00 0.00 0.00 0.00 0.00 0.00 0.00 0.00 0.00 0.00 0.00 0.00 0.00 0.00 0.00 0.00 0.00 0.00 0.00 0.00 0.01 0.05 0.07 0.08 0.08 0.09 0.09 0.12 0.17 0.18 0.15 0.13 0.14 0.16 0.18 0.20 0.22 0.22
0.00 0.00 0.00 0.00 0.00 0.00 0.00 0.00 0.00 0.00 0.00 0.00 0.00 0.00 0.00 0.00 0.00 0.00 0.00 0.00 0.00 0.00 0.00 0.00 0.01 0.02 0.03 0.05 0.05 0.04 0.02 0.01 0.02 0.06 0.09 0.12 0.14 0.13 0.14 0.16 0.16 0.19 0.25
0.00 0.00 0.00 0.00 0.00 0.00 0.00 0.00 0.00 0.00 0.00 0.00 0.00 0.00 0.00 0.00 0.00 0.00 0.00 0.00 0.00 0.00 0.00 0.00 0.00 0.00 0.00 0.00 0.00 0.00 0.00 0.02 0.01 0.02 0.05 0.08 0.11 0.12 0.13 0.16 0.18 0.22 0.25
0.00 0.00 0.00 0.00 0.00 0.00 0.00 0.00 0.00 0.00 0.00 0.00 0.00 0.00 0.00 0.00 0.00 0.00 0.00 0.00 0.00 0.00 0.00 0.00 0.00 0.00 0.00 0.00 0.00 0.00 0.01 0.03 0.03 0.03 0.06 0.09 0.12 0.16 0.22 0.25 0.26 0.33 0.44
0.00 0.00 0.00 0.00 0.00 0.00 0.00 0.00 0.00 0.00 0.00 0.00 0.00 0.00 0.00 0.00 0.00 0.00 0.00 0.00 0.00 0.00 0.00 0.00 0.00 0.00 0.00 0.00 0.00 0.01 0.04 0.02 0.02 0.02 0.03 0.05 0.09 0.19 0.24 0.33 0.47 0.68 0.80
0.00 0.00 0.00 0.00 0.00 0.00 0.00 0.00 0.00 0.00 0.00 0.00 0.00 0.00 0.00 0.00 0.00 0.00 0.00 0.00 0.00 0.00 0.00 0.00 0.00 0.00 0.00 0.00 0.00 0.00 0.00 0.00 0.00 0.00 0.00 0.02 0.07 0.09 0.15 0.28 0.40 0.48 0.70
0.00 0.00 0.00 0.00 0.00 0.00 0.00 0.00 0.00 0.00 0.00 0.00 0.00 0.00 0.00 0.00 0.00 0.00 0.00 0.00 0.00 0.00 0.00 0.00 0.00 0.00 0.00 0.00 0.00 0.00 0.00 0.00 0.00 0.00 0.00 0.00 0.00 0.01 0.01 0.05 0.15 0.17 0.16
0.00 0.00 0.00 0.00 0.00 0.00 0.00 0.00 0.00 0.00 0.00 0.00 0.00 0.00 0.00 0.00 0.00 0.00 0.00 0.00 0.00 0.00 0.00 0.00 0.00 0.00 0.00 0.00 0.00 0.00 0.00 0.00 0.00 0.00 0.00 0.00 0.00 0.00 0.00 0.00 0.03 0.08 0.13
0.00 0.00 0.00 0.00 0.00 0.00 0.00 0.00 0.00 0.00 0.00 0.00 0.00 0.00 0.00 0.00 0.00 0.00 0.00 0.00 0.00 0.00 0.00 0.00 0.00 0.00 0.00 0.00 0.00 0.00 0.00 0.00 0.00 0.00 0.00 0.00 0.00 0.01 0.01 0.02 0.04 0.07 0.07
0.00 0.00 0.00 0.00 0.00 0.00 0.00 0.00 0.00 0.00 0.00 0.00 0.00 0.00 0.00 0.00 0.00 0.00 0.00 0.00 0.00 0.00 0.00 0.00 0.00 0.00 0.00 0.00 0.00 0.00 0.00 0.00 0.00 0.00 0.01 0.01 0.02 0.03 0.02 0.02 0.02 0.02 0.03
0.00 0.00 0.00 0.00 0.00 0.00 0.00 0.00 0.00 0.00 0.00 0.00 0.00 0.00 0.00 0.00 0.00 0.00 0.00 0.00 0.00 0.00 0.00 0.00 0.00 0.00 0.00 0.00 0.00 0.00 0.00 0.01 0.02 0.02 0.02 0.01 0.02 0.00 0.00 0.01 0.03 0.05 0.06
0.00 0.00 0.00 0.00 0.00 0.00 0.00 0.00 0.00 0.00 0.00 0.00 0.00 0.00 0.00 0.00 0.00 0.00 0.00 0.00 0.00 0.00 0.00 0.02 0.00 0.00 0.00 0.00 0.00 0.00 0.01 0.02 0.01 0.00 0.00 0.00 0.00 0.00 0.01 0.02 0.05 0.09 0.12
0.00 0.00 0.00 0.00 0.00 0.00 0.00 0.00 0.00 0.00 0.00 0.00 0.00 0.00 0.00 0.00 0.00 0.00 0.00 0.00 0.00 0.00 0.01 0.03 0.01 0.00 0.00 0.02 0.04 0.01 0.00 0.00 0.00 0.00 0.00 0.00 0.01 0.01 0.02 0.04 0.07 0.10 0.12
0.00 0.00 0.00 0.00 0.00 0.00 0.00 0.00 0.00 0.00 0.00 0.00 0.00 0.00 0.00 0.00 0.00 0.00 0.00 0.00 0.01 0.01 0.01 0.02 0.11 0.13 0.12 0.06 0.03 0.01 0.00 0.00 0.00 0.00 0.00 0.01 0.02 0.04 0.05 0.05 0.03 0.02 0.01
0.00 0.00 0.00 0.00 0.00 0.00 0.00 0.00 0.00 0.00 0.00 0.00 0.00 0.00 0.00 0.00 0.00 0.00 0.01 0.01 0.02 0.04 0.17 0.33 0.29 0.22 0.10 0.02 0.00 0.00 0.01 0.02 0.02 0.01 0.01 0.02 0.03 0.02 0.00 0.00 0.00 0.01 0.02
0.00 0.00 0.00 0.00 0.00 0.00 0.00 0.00 0.00 0.00 0.00 0.00 0.00 0.00 0.00 0.00 0.00 0.00 0.01 0.03 0.06 0.22 0.31 0.38 0.30 0.10 0.01 0.00 0.01 0.05 0.16 0.12 0.07 0.00 0.03 0.02 0.00 0.00 0.00 0.00 0.02 0.03 0.04
0.00 0.00 0.00 0.00 0.00 0.00 0.00 0.00 0.00 0.00 0.00 0.00 0.00 0.00 0.00 0.00 0.00 0.00 0.01 0.06 0.18 0.24 0.22 0.11 0.03 0.01 0.02 0.05 0.23 0.21 0.10 0.08 0.05 0.01 0.05 0.06 0.01 0.01 0.01 0.01 0.01 0.01 0.03
0.00 0.00 0.00 0.00 0.00 0.00 0.00 0.00 0.00 0.00 0.00 0.00 0.00 0.00 0.00 0.00 0.01 0.03 0.08 0.21 0.14 0.08 0.01 0.00 0.01 0.03 0.08 0.09 0.07 0.06 0.07 0.09 0.05 0.01 0.03 0.14 0.02 0.01 0.00 0.00 0.01 0.01 0.03
0.00 0.00 0.00 0.00 0.00 0.00 0.00 0.00 0.00 0.00 0.00 0.00 0.00 0.00 0.02 0.02 0.02 0.10 0.15 0.21 0.07 0.00 0.00 0.01 0.07 0.04 0.01 0.00 0.01 0.13 0.19 0.18 0.11 0.01 0.01 0.09 0.04 0.02 0.01 0.00 0.00 0.04 0.06
0.00 0.00 0.00 0.00 0.00 0.00 0.00 0.00 0.00 0.00 0.00 0.00 0.00 0.00 0.01 0.02 0.05 0.21 0.13 0.03 0.01 0.01 0.07 0.06 0.01 0.00 0.00 0.00 0.01 0.04 0.19 0.46 0.21 0.14 0.01 0.24 0.13 0.09 0.29 0.03 0.01 0.02 0.01

GFSMA_prec_precacc_027.txt.gz
Total_Precipitation_Accumulation
0.00 0.00 0.00 0.00 0.00 0.00 0.00 0.00 0.00 0.00 0.00 0.00 0.00 0.00 0.00 0.00 0.00 0.00 0.00 0.00 0.00 0.00 0.00 0.00 0.01 0.01 0.02 0.04 0.07 0.11 0.10 0.08 0.08 0.07 0.05 0.04 0.05 0.06 0.08 0.10 0.12 0.12 0.12
0.00 0.00 0.00 0.00 0.00 0.00 0.00 0.00 0.00 0.00 0.00 0.00 0.00 0.00 0.00 0.00 0.00 0.00 0.00 0.00 0.00 0.00 0.00 0.00 0.01 0.01 0.02 0.04 0.05 0.08 0.08 0.08 0.07 0.07 0.07 0.07 0.08 0.10 0.11 0.12 0.13 0.13 0.16
0.00 0.00 0.00 0.00 0.00 0.00 0.00 0.00 0.00 0.00 0.00 0.00 0.00 0.00 0.00 0.00 0.00 0.00 0.00 0.00 0.00 0.00 0.00 0.00 0.01 0.02 0.02 0.01 0.02 0.05 0.08 0.09 0.08 0.08 0.08 0.08 0.09 0.11 0.13 0.15 0.16 0.15 0.15
0.00 0.00 0.00 0.00 0.00 0.00 0.00 0.00 0.00 0.00 0.00 0.00 0.00 0.00 0.00 0.00 0.00 0.00 0.00 0.00 0.00 0.00 0.00 0.00 0.01 0.01 0.01 0.01 0.02 0.05 0.08 0.10 0.10 0.09 0.09 0.08 0.09 0.11 0.13 0.15 0.16 0.18 0.20
0.00 0.00 0.00 0.00 0.00 0.00 0.00 0.00 0.00 0.00 0.00 0.00 0.00 0.00 0.00 0.00 0.00 0.00 0.00 0.00 0.00 0.00 0.00 0.00 0.00 0.00 0.01 0.03 0.04 0.04 0.06 0.10 0.12 0.12 0.13 0.13 0.12 0.14 0.19 0.21 0.22 0.21 0.21
0.00 0.00 0.00 0.00 0.00 0.00 0.00 0.00 0.00 0.00 0.00 0.00 0.00 0.00 0.00 0.00 0.00 0.00 0.00 0.00 0.00 0.00 0.00 0.00 0.00 0.00 0.02 0.04 0.08 0.06 0.05 0.07 0.10 0.12 0.14 0.16 0.18 0.18 0.16 0.18 0.20 0.22 0.23
0.00 0.00 0.00 0.00 0.00 0.00 0.00 0.00 0.00 0.00 0.00 0.00 0.00 0.00 0.00 0.00 0.00 0.00 0.00 0.00 0.00 0.00 0.00 0.00 0.00 0.01 0.05 0.07 0.08 0.08 0.09 0.09 0.12 0.17 0.18 0.15 0.13 0.14 0.16 0.18 0.20 0.22 0.22
0.00 0.00 0.00 0.00 0.00 0.00 0.00 0.00 0.00 0.00 0.00 0.00 0.00 0.00 0.00 0.00 0.00 0.00 0.00 0.00 0.00 0.00 0.00 0.00 0.01 0.02 0.03 0.05 0.05 0.04 0.02 0.01 0.02 0.06 0.09 0.12 0.14 0.13 0.14 0.16 0.16 0.19 0.25
0.00 0.00 0.00 0.00 0.00 0.00 0.00 0.00 0.00 0.00 0.00 0.00 0.00 0.00 0.00 0.00 0.00 0.00 0.00 0.00 0.00 0.00 0.00 0.00 0.00 0.00 0.00 0.00 0.00 0.00 0.00 0.02 0.01 0.02 0.05 0.08 0.11 0.12 0.13 0.16 0.18 0.22 0.25
0.00 0.00 0.00 0.00 0.00 0.00 0.00 0.00 0.00 0.00 0.00 0.00 0.00 0.00 0.00 0.00 0.00 0.00 0.00 0.00 0.00 0.00 0.00 0.00 0.00 0.00 0.00 0.00 0.00 0.00 0.01 0.03 0.03 0.03 0.06 0.09 0.12 0.16 0.22 0.25 0.26 0.33 0.44
0.00 0.00 0.00 0.00 0.00 0.00 0.00 0.00 0.00 0.00 0.00 0.00 0.00 0.00 0.00 0.00 0.00 0.00 0.00 0.00 0.00 0.00 0.00 0.00 0.00 0.00 0.00 0.00 0.00 0.01 0.04 0.02 0.02 0.02 0.03 0.05 0.09 0.19 0.24 0.33 0.47 0.68 0.80
0.00 0.00 0.00 0.00 0.00 0.00 0.00 0.00 0.00 0.00 0.00 0.00 0.00 0.00 0.00 0.00 0.00 0.00 0.00 0.00 0.00 0.00 0.00 0.00 0.00 0.00 0.00 0.00 0.00 0.00 0.00 0.00 0.00 0.00 0.00 0.02 0.07 0.09 0.15 0.28 0.40 0.48 0.70
0.00 0.00 0.00 0.00 0.00 0.00 0.00 0.00 0.00 0.00 0.00 0.00 0.00 0.00 0.00 0.00 0.00 0.00 0.00 0.00 0.00 0.00 0.00 0.00 0.00 0.00 0.00 0.00 0.00 0.00 0.00 0.00 0.00 0.00 0.00 0.00 0.00 0.01 0.01 0.05 0.15 0.17 0.17
0.00 0.00 0.00 0.00 0.00 0.00 0.00 0.00 0.00 0.00 0.00 0.00 0.00 0.00 0.00 0.00 0.00 0.00 0.00 0.00 0.00 0.00 0.00 0.00 0.00 0.00 0.00 0.00 0.00 0.00 0.00 0.00 0.00 0.00 0.00 0.00 0.00 0.00 0.00 0.00 0.03 0.09 0.14
0.00 0.00 0.00 0.00 0.00 0.00 0.00 0.00 0.00 0.00 0.00 0.00 0.00 0.00 0.00 0.00 0.00 0.00 0.00 0.00 0.00 0.00 0.00 0.00 0.00 0.00 0.00 0.00 0.00 0.00 0.00 0.00 0.00 0.00 0.00 0.00 0.00 0.01 0.01 0.02 0.04 0.07 0.07
0.00 0.00 0.00 0.00 0.00 0.00 0.00 0.00 0.00 0.00 0.00 0.00 0.00 0.00 0.00 0.00 0.00 0.00 0.00 0.00 0.00 0.00 0.00 0.00 0.00 0.00 0.00 0.00 0.00 0.00 0.00 0.00 0.00 0.00 0.01 0.01 0.02 0.03 0.02 0.02 0.02 0.02 0.03
0.00 0.00 0.00 0.00 0.00 0.00 0.00 0.00 0.00 0.00 0.00 0.00 0.00 0.00 0.00 0.00 0.00 0.00 0.00 0.00 0.00 0.00 0.00 0.00 0.00 0.00 0.00 0.00 0.00 0.00 0.00 0.01 0.02 0.02 0.02 0.01 0.02 0.00 0.00 0.01 0.03 0.06 0.06
0.00 0.00 0.00 0.00 0.00 0.00 0.00 0.00 0.00 0.00 0.00 0.00 0.00 0.00 0.00 0.00 0.00 0.00 0.00 0.00 0.00 0.00 0.00 0.02 0.00 0.00 0.00 0.00 0.00 0.00 0.01 0.02 0.01 0.00 0.00 0.00 0.00 0.00 0.01 0.02 0.05 0.09 0.12
0.00 0.00 0.00 0.00 0.00 0.00 0.00 0.00 0.00 0.00 0.00 0.00 0.00 0.00 0.00 0.00 0.00 0.00 0.00 0.00 0.00 0.00 0.01 0.03 0.01 0.00 0.00 0.03 0.04 0.01 0.00 0.00 0.00 0.00 0.00 0.00 0.01 0.01 0.02 0.04 0.07 0.10 0.13
0.00 0.00 0.00 0.00 0.00 0.00 0.00 0.00 0.00 0.00 0.00 0.00 0.00 0.00 0.00 0.00 0.00 0.00 0.00 0.00 0.01 0.01 0.01 0.02 0.12 0.13 0.13 0.07 0.03 0.01 0.00 0.00 0.00 0.00 0.00 0.01 0.02 0.04 0.05 0.05 0.03 0.02 0.01
0.00 0.00 0.00 0.00 0.00 0.00 0.00 0.00 0.00 0.00 0.00 0.00 0.00 0.00 0.00 0.00 0.00 0.00 0.01 0.01 0.02 0.04 0.18 0.34 0.30 0.23 0.10 0.02 0.00 0.00 0.01 0.02 0.02 0.01 0.01 0.02 0.03 0.02 0.00 0.00 0.00 0.01 0.02
0.00 0.00 0.00 0.00 0.00 0.00 0.00 0.00 0.00 0.00 0.00 0.00 0.00 0.00 0.00 0.00 0.00 0.00 0.01 0.03 0.06 0.23 0.33 0.41 0.33 0.12 0.01 0.00 0.01 0.05 0.16 0.14 0.08 0.00 0.03 0.02 0.00 0.00 0.00 0.00 0.02 0.03 0.04
0.00 0.00 0.00 0.00 0.00 0.00 0.00 0.00 0.00 0.00 0.00 0.00 0.00 0.00 0.00 0.00 0.00 0.00 0.01 0.06 0.18 0.25 0.23 0.13 0.03 0.01 0.02 0.05 0.23 0.22 0.11 0.09 0.05 0.01 0.05 0.07 0.01 0.01 0.01 0.01 0.01 0.01 0.03
0.00 0.00 0.00 0.00 0.00 0.00 0.00 0.00 0.00 0.00 0.00 0.00 0.00 0.00 0.00 0.00 0.01 0.03 0.08 0.21 0.15 0.09 0.01 0.00 0.01 0.03 0.08 0.09 0.08 0.08 0.07 0.09 0.05 0.01 0.03 0.14 0.02 0.01 0.00 0.00 0.01 0.01 0.03
0.00 0.00 0.00 0.00 0.00 0.00 0.00 0.00 0.00 0.00 0.00 0.00 0.00 0.00 0.02 0.02 0.02 0.10 0.15 0.22 0.07 0.00 0.00 0.01 0.07 0.05 0.01 0.00 0.01 0.13 0.20 0.18 0.12 0.01 0.01 0.09 0.04 0.02 0.01 0.00 0.00 0.04 0.06
0.00 0.00 0.00 0.00 0.00 0.00 0.00 0.00 0.00 0.00 0.00 0.00 0.00 0.00 0.01 0.02 0.05 0.21 0.13 0.03 0.01 0.01 0.07 0.06 0.01 0.00 0.00 0.00 0.01 0.04 0.19 0.50 0.22 0.15 0.01 0.24 0.14 0.09 0.31 0.03 0.01 0.02 0.01

GFSMA_prec_precacc_030.txt.gz
Total_Precipitation_Accumulation
0.00 0.00 0.00 0.00 0.00 0.00 0.00 0.00 0.00 0.00 0.00 0.00 0.00 0.00 0.00 0.00 0.00 0.00 0.00 0.00 0.00 0.00 0.00 0.00 0.01 0.01 0.02 0.04 0.07 0.11 0.10 0.08 0.08 0.07 0.05 0.04 0.05 0.06 0.08 0.10 0.12 0.12 0.12
0.00 0.00 0.00 0.00 0.00 0.00 0.00 0.00 0.00 0.00 0.00 0.00 0.00 0.00 0.00 0.00 0.00 0.00 0.00 0.00 0.00 0.00 0.00 0.00 0.01 0.01 0.02 0.04 0.05 0.08 0.08 0.08 0.07 0.07 0.07 0.07 0.08 0.10 0.11 0.12 0.13 0.13 0.16
0.00 0.00 0.00 0.00 0.00 0.00 0.00 0.00 0.00 0.00 0.00 0.00 0.00 0.00 0.00 0.00 0.00 0.00 0.00 0.00 0.00 0.00 0.00 0.00 0.01 0.02 0.02 0.01 0.02 0.05 0.08 0.09 0.08 0.08 0.08 0.08 0.09 0.11 0.13 0.15 0.16 0.15 0.15
0.00 0.00 0.00 0.00 0.00 0.00 0.00 0.00 0.00 0.00 0.00 0.00 0.00 0.00 0.00 0.00 0.00 0.00 0.00 0.00 0.00 0.00 0.00 0.00 0.01 0.01 0.01 0.01 0.02 0.05 0.08 0.10 0.10 0.09 0.09 0.08 0.09 0.11 0.13 0.15 0.16 0.18 0.20
0.00 0.00 0.00 0.00 0.00 0.00 0.00 0.00 0.00 0.00 0.00 0.00 0.00 0.00 0.00 0.00 0.00 0.00 0.00 0.00 0.00 0.00 0.00 0.00 0.00 0.00 0.01 0.03 0.04 0.04 0.06 0.10 0.12 0.12 0.13 0.13 0.12 0.14 0.19 0.21 0.22 0.21 0.21
0.00 0.00 0.00 0.00 0.00 0.00 0.00 0.00 0.00 0.00 0.00 0.00 0.00 0.00 0.00 0.00 0.00 0.00 0.00 0.00 0.00 0.00 0.00 0.00 0.00 0.00 0.02 0.04 0.08 0.06 0.05 0.07 0.10 0.12 0.14 0.16 0.18 0.18 0.16 0.18 0.20 0.22 0.23
0.00 0.00 0.00 0.00 0.00 0.00 0.00 0.00 0.00 0.00 0.00 0.00 0.00 0.00 0.00 0.00 0.00 0.00 0.00 0.00 0.00 0.00 0.00 0.00 0.00 0.01 0.05 0.07 0.08 0.08 0.09 0.09 0.12 0.17 0.18 0.15 0.13 0.14 0.16 0.18 0.20 0.22 0.22
0.00 0.00 0.00 0.00 0.00 0.00 0.00 0.00 0.00 0.00 0.00 0.00 0.00 0.00 0.00 0.00 0.00 0.00 0.00 0.00 0.00 0.00 0.00 0.00 0.01 0.02 0.03 0.05 0.05 0.04 0.02 0.01 0.02 0.06 0.09 0.12 0.14 0.13 0.14 0.16 0.16 0.19 0.25
0.00 0.00 0.00 0.00 0.00 0.00 0.00 0.00 0.00 0.00 0.00 0.00 0.00 0.00 0.00 0.00 0.00 0.00 0.00 0.00 0.00 0.00 0.00 0.00 0.00 0.00 0.00 0.00 0.00 0.00 0.00 0.02 0.01 0.02 0.05 0.08 0.11 0.12 0.13 0.16 0.18 0.22 0.25
0.00 0.00 0.00 0.00 0.00 0.00 0.00 0.00 0.00 0.00 0.00 0.00 0.00 0.00 0.00 0.00 0.00 0.00 0.00 0.00 0.00 0.00 0.00 0.00 0.00 0.00 0.00 0.00 0.00 0.00 0.01 0.03 0.03 0.03 0.06 0.09 0.12 0.16 0.22 0.25 0.26 0.33 0.44
0.01 0.00 0.00 0.00 0.00 0.00 0.00 0.00 0.00 0.00 0.00 0.00 0.00 0.00 0.00 0.00 0.00 0.00 0.00 0.00 0.00 0.00 0.00 0.00 0.00 0.00 0.00 0.00 0.00 0.01 0.04 0.02 0.02 0.02 0.03 0.05 0.09 0.19 0.24 0.33 0.48 0.69 0.80
0.01 0.00 0.00 0.00 0.00 0.00 0.00 0.00 0.00 0.00 0.00 0.00 0.00 0.00 0.00 0.00 0.00 0.00 0.00 0.00 0.00 0.00 0.00 0.00 0.00 0.00 0.00 0.00 0.00 0.00 0.00 0.00 0.00 0.00 0.00 0.02 0.07 0.09 0.15 0.28 0.40 0.48 0.71
0.01 0.00 0.00 0.00 0.00 0.00 0.00 0.00 0.00 0.00 0.00 0.00 0.00 0.00 0.00 0.00 0.00 0.00 0.00 0.00 0.00 0.00 0.00 0.00 0.00 0.00 0.00 0.00 0.00 0.00 0.00 0.00 0.00 0.00 0.00 0.00 0.01 0.02 0.01 0.05 0.15 0.17 0.17
0.02 0.01 0.00 0.00 0.00 0.00 0.00 0.00 0.00 0.00 0.00 0.00 0.00 0.00 0.00 0.00 0.00 0.00 0.00 0.00 0.00 0.00 0.00 0.00 0.00 0.00 0.00 0.00 0.00 0.00 0.00 0.00 0.00 0.00 0.00 0.00 0.00 0.00 0.00 0.00 0.03 0.09 0.14
0.01 0.00 0.00 0.00 0.00 0.00 0.00 0.00 0.00 0.00 0.00 0.00 0.00 0.00 0.00 0.00 0.00 0.00 0.00 0.00 0.00 0.00 0.00 0.00 0.00 0.00 0.00 0.00 0.00 0.00 0.00 0.00 0.00 0.00 0.00 0.00 0.00 0.01 0.01 0.02 0.04 0.07 0.08
0.00 0.00 0.00 0.00 0.00 0.00 0.00 0.00 0.00 0.00 0.00 0.00 0.00 0.00 0.00 0.00 0.00 0.00 0.00 0.00 0.00 0.00 0.00 0.00 0.00 0.00 0.00 0.00 0.00 0.00 0.00 0.00 0.00 0.00 0.01 0.01 0.02 0.03 0.02 0.02 0.02 0.02 0.04
0.00 0.00 0.00 0.00 0.00 0.00 0.00 0.00 0.00 0.00 0.00 0.00 0.00 0.00 0.00 0.00 0.00 0.00 0.00 0.00 0.00 0.00 0.00 0.00 0.00 0.00 0.00 0.00 0.00 0.00 0.00 0.01 0.02 0.02 0.02 0.01 0.02 0.00 0.00 0.01 0.03 0.06 0.06
0.00 0.00 0.00 0.00 0.00 0.00 0.00 0.00 0.00 0.00 0.00 0.00 0.00 0.00 0.00 0.00 0.00 0.00 0.00 0.00 0.00 0.00 0.00 0.02 0.00 0.00 0.00 0.00 0.00 0.00 0.01 0.02 0.01 0.00 0.00 0.00 0.00 0.00 0.01 0.02 0.06 0.09 0.12
0.00 0.00 0.00 0.00 0.00 0.00 0.00 0.00 0.00 0.00 0.00 0.00 0.00 0.00 0.00 0.00 0.00 0.00 0.00 0.00 0.00 0.00 0.01 0.03 0.01 0.00 0.00 0.03 0.04 0.01 0.00 0.00 0.00 0.00 0.00 0.00 0.01 0.01 0.02 0.04 0.07 0.10 0.13
0.00 0.00 0.00 0.00 0.00 0.00 0.00 0.00 0.00 0.00 0.00 0.00 0.00 0.00 0.00 0.00 0.00 0.00 0.00 0.00 0.01 0.01 0.01 0.02 0.12 0.13 0.13 0.07 0.03 0.01 0.00 0.00 0.00 0.00 0.00 0.01 0.02 0.04 0.05 0.05 0.03 0.02 0.01
0.00 0.00 0.00 0.00 0.00 0.00 0.00 0.00 0.00 0.00 0.00 0.00 0.00 0.00 0.00 0.00 0.00 0.00 0.01 0.01 0.02 0.04 0.18 0.34 0.30 0.24 0.11 0.02 0.00 0.00 0.01 0.02 0.02 0.01 0.01 0.02 0.03 0.02 0.00 0.00 0.00 0.01 0.02
0.00 0.00 0.00 0.00 0.00 0.00 0.00 0.00 0.00 0.00 0.00 0.00 0.00 0.00 0.00 0.00 0.00 0.00 0.01 0.03 0.06 0.23 0.33 0.42 0.34 0.14 0.01 0.00 0.01 0.05 0.16 0.14 0.09 0.00 0.03 0.02 0.00 0.00 0.00 0.00 0.02 0.03 0.04
0.00 0.00 0.00 0.00 0.00 0.00 0.00 0.00 0.00 0.00 0.00 0.00 0.00 0.00 0.00 0.00 0.00 0.00 0.01 0.06 0.19 0.25 0.24 0.13 0.04 0.01 0.02 0.05 0.23 0.23 0.12 0.10 0.06 0.01 0.05 0.07 0.01 0.01 0.01 0.01 0.01 0.01 0.03
0.00 0.00 0.00 0.00 0.00 0.00 0.00 0.00 0.00 0.00 0.00 0.00 0.00 0.00 0.00 0.00 0.01 0.03 0.08 0.21 0.15 0.09 0.01 0.00 0.01 0.03 0.08 0.09 0.08 0.12 0.11 0.10 0.05 0.01 0.03 0.14 0.02 0.01 0.00 0.00 0.01 0.01 0.03
0.00 0.00 0.00 0.00 0.00 0.00 0.00 0.00 0.00 0.00 0.00 0.00 0.00 0.00 0.02 0.02 0.02 0.10 0.16 0.22 0.07 0.00 0.00 0.01 0.07 0.05 0.01 0.00 0.01 0.13 0.20 0.19 0.12 0.01 0.01 0.09 0.04 0.02 0.01 0.00 0.00 0.04 0.06
0.00 0.00 0.00 0.00 0.00 0.00 0.00 0.00 0.00 0.00 0.00 0.00 0.00 0.00 0.01 0.02 0.05 0.21 0.14 0.03 0.01 0.01 0.07 0.06 0.01 0.00 0.00 0.00 0.01 0.04 0.19 0.53 0.23 0.16 0.01 0.26 0.15 0.10 0.33 0.03 0.01 0.02 0.01

GFSMA_prec_precacc_033.txt.gz
Total_Precipitation_Accumulation
0.00 0.00 0.00 0.00 0.00 0.00 0.00 0.00 0.00 0.00 0.00 0.00 0.00 0.00 0.00 0.00 0.00 0.00 0.00 0.00 0.00 0.00 0.00 0.00 0.01 0.01 0.02 0.04 0.07 0.11 0.10 0.08 0.08 0.07 0.05 0.04 0.05 0.06 0.08 0.10 0.12 0.12 0.12
0.00 0.00 0.00 0.00 0.00 0.00 0.00 0.00 0.00 0.00 0.00 0.00 0.00 0.00 0.00 0.00 0.00 0.00 0.00 0.00 0.00 0.00 0.00 0.00 0.01 0.01 0.02 0.04 0.05 0.08 0.08 0.08 0.07 0.07 0.07 0.07 0.08 0.10 0.11 0.12 0.13 0.13 0.16
0.00 0.00 0.00 0.00 0.00 0.00 0.00 0.00 0.00 0.00 0.00 0.00 0.00 0.00 0.00 0.00 0.00 0.00 0.00 0.00 0.00 0.00 0.00 0.00 0.01 0.02 0.02 0.01 0.02 0.05 0.08 0.09 0.08 0.08 0.08 0.08 0.09 0.11 0.13 0.15 0.16 0.15 0.15
0.00 0.00 0.00 0.00 0.00 0.00 0.00 0.00 0.00 0.00 0.00 0.00 0.00 0.00 0.00 0.00 0.00 0.00 0.00 0.00 0.00 0.00 0.00 0.00 0.01 0.01 0.01 0.01 0.02 0.05 0.08 0.10 0.10 0.09 0.09 0.08 0.09 0.11 0.13 0.15 0.16 0.18 0.20
0.00 0.00 0.00 0.00 0.00 0.00 0.00 0.00 0.00 0.00 0.00 0.00 0.00 0.00 0.00 0.00 0.00 0.00 0.00 0.00 0.00 0.00 0.00 0.00 0.00 0.00 0.01 0.03 0.04 0.04 0.06 0.10 0.12 0.12 0.13 0.13 0.12 0.14 0.19 0.21 0.22 0.21 0.21
0.00 0.00 0.00 0.00 0.00 0.00 0.00 0.00 0.00 0.00 0.00 0.00 0.00 0.00 0.00 0.00 0.00 0.00 0.00 0.00 0.00 0.00 0.00 0.00 0.00 0.00 0.02 0.04 0.08 0.06 0.05 0.07 0.10 0.12 0.14 0.16 0.18 0.18 0.16 0.18 0.20 0.22 0.23
0.00 0.00 0.00 0.00 0.00 0.00 0.00 0.00 0.00 0.00 0.00 0.00 0.00 0.00 0.00 0.00 0.00 0.00 0.00 0.00 0.00 0.00 0.00 0.00 0.00 0.01 0.05 0.07 0.08 0.08 0.09 0.09 0.12 0.17 0.18 0.15 0.13 0.14 0.16 0.18 0.20 0.22 0.22
0.00 0.00 0.00 0.00 0.00 0.00 0.00 0.00 0.00 0.00 0.00 0.00 0.00 0.00 0.00 0.00 0.00 0.00 0.00 0.00 0.00 0.00 0.00 0.00 0.01 0.02 0.03 0.05 0.05 0.04 0.02 0.01 0.02 0.06 0.09 0.12 0.14 0.13 0.14 0.16 0.16 0.19 0.25
0.01 0.00 0.00 0.00 0.00 0.00 0.00 0.00 0.00 0.00 0.00 0.00 0.00 0.00 0.00 0.00 0.00 0.00 0.00 0.00 0.00 0.00 0.00 0.00 0.00 0.00 0.00 0.00 0.00 0.00 0.00 0.02 0.01 0.02 0.05 0.08 0.11 0.12 0.13 0.16 0.18 0.22 0.25
0.01 0.00 0.00 0.00 0.00 0.00 0.00 0.00 0.00 0.00 0.00 0.00 0.00 0.00 0.00 0.00 0.00 0.00 0.00 0.00 0.00 0.00 0.00 0.00 0.00 0.00 0.00 0.00 0.00 0.00 0.01 0.03 0.03 0.03 0.06 0.09 0.12 0.16 0.22 0.25 0.26 0.33 0.44
0.03 0.02 0.01 0.00 0.00 0.00 0.00 0.00 0.00 0.00 0.00 0.00 0.00 0.00 0.00 0.00 0.00 0.00 0.00 0.00 0.00 0.00 0.00 0.00 0.00 0.00 0.00 0.00 0.00 0.01 0.04 0.02 0.02 0.02 0.03 0.05 0.09 0.19 0.24 0.33 0.48 0.69 0.80
0.05 0.02 0.01 0.01 0.00 0.00 0.00 0.00 0.00 0.00 0.00 0.00 0.00 0.00 0.00 0.00 0.00 0.00 0.00 0.00 0.00 0.00 0.00 0.00 0.00 0.00 0.00 0.00 0.00 0.00 0.00 0.00 0.00 0.00 0.00 0.02 0.07 0.09 0.15 0.28 0.40 0.48 0.71
0.03 0.02 0.01 0.01 0.01 0.00 0.00 0.00 0.00 0.00 0.00 0.00 0.00 0.00 0.00 0.00 0.00 0.00 0.00 0.00 0.00 0.00 0.00 0.00 0.00 0.00 0.00 0.00 0.00 0.00 0.00 0.00 0.00 0.00 0.00 0.00 0.01 0.02 0.01 0.05 0.15 0.17 0.17
0.03 0.02 0.02 0.01 0.01 0.00 0.00 0.00 0.00 0.00 0.00 0.00 0.00 0.00 0.00 0.00 0.00 0.00 0.00 0.00 0.00 0.00 0.00 0.00 0.00 0.00 0.00 0.00 0.00 0.00 0.00 0.00 0.00 0.00 0.00 0.00 0.00 0.00 0.00 0.00 0.03 0.09 0.15
0.02 0.02 0.02 0.01 0.01 0.00 0.00 0.00 0.00 0.00 0.00 0.00 0.00 0.00 0.00 0.00 0.00 0.00 0.00 0.00 0.00 0.00 0.00 0.00 0.00 0.00 0.00 0.00 0.00 0.00 0.00 0.00 0.00 0.00 0.00 0.00 0.00 0.01 0.02 0.02 0.04 0.07 0.08
0.00 0.01 0.02 0.01 0.01 0.00 0.00 0.00 0.00 0.00 0.00 0.00 0.00 0.00 0.00 0.00 0.00 0.00 0.00 0.00 0.00 0.00 0.00 0.00 0.00 0.00 0.00 0.00 0.00 0.00 0.00 0.00 0.00 0.00 0.01 0.01 0.02 0.03 0.02 0.02 0.02 0.02 0.04
0.01 0.01 0.01 0.01 0.00 0.00 0.00 0.00 0.00 0.00 0.00 0.00 0.00 0.00 0.00 0.00 0.00 0.00 0.00 0.00 0.00 0.00 0.00 0.00 0.00 0.00 0.00 0.00 0.00 0.00 0.00 0.01 0.02 0.02 0.02 0.01 0.02 0.00 0.00 0.01 0.03 0.06 0.06
0.02 0.01 0.02 0.00 0.00 0.00 0.00 0.00 0.00 0.00 0.00 0.00 0.00 0.00 0.00 0.00 0.00 0.00 0.00 0.00 0.00 0.00 0.00 0.02 0.00 0.00 0.00 0.00 0.00 0.00 0.01 0.02 0.01 0.00 0.00 0.00 0.00 0.00 0.01 0.02 0.06 0.09 0.12
0.02 0.01 0.00 0.00 0.00 0.00 0.00 0.00 0.00 0.00 0.00 0.00 0.00 0.00 0.00 0.00 0.00 0.00 0.00 0.00 0.00 0.00 0.01 0.03 0.01 0.00 0.00 0.03 0.04 0.01 0.00 0.00 0.00 0.00 0.00 0.00 0.01 0.01 0.02 0.04 0.07 0.10 0.13
0.01 0.01 0.00 0.00 0.00 0.00 0.00 0.00 0.00 0.00 0.00 0.00 0.00 0.00 0.00 0.00 0.00 0.00 0.00 0.00 0.01 0.01 0.01 0.02 0.12 0.13 0.13 0.07 0.03 0.01 0.00 0.00 0.00 0.00 0.00 0.01 0.02 0.04 0.05 0.05 0.03 0.02 0.01
0.01 0.00 0.01 0.01 0.00 0.00 0.00 0.00 0.00 0.00 0.00 0.00 0.00 0.00 0.00 0.00 0.00 0.00 0.01 0.01 0.02 0.04 0.18 0.34 0.30 0.24 0.11 0.03 0.00 0.00 0.01 0.02 0.02 0.01 0.01 0.02 0.03 0.02 0.00 0.00 0.00 0.01 0.02
0.07 0.05 0.04 0.02 0.00 0.01 0.02 0.01 0.00 0.00 0.00 0.00 0.00 0.00 0.00 0.00 0.00 0.00 0.01 0.03 0.06 0.23 0.33 0.42 0.34 0.14 0.02 0.00 0.01 0.05 0.16 0.14 0.09 0.00 0.03 0.02 0.00 0.00 0.00 0.00 0.02 0.03 0.04
0.09 0.10 0.09 0.08 0.07 0.03 0.00 0.00 0.00 0.00 0.00 0.00 0.00 0.00 0.00 0.00 0.00 0.00 0.01 0.06 0.19 0.25 0.24 0.14 0.04 0.01 0.02 0.05 0.23 0.23 0.13 0.12 0.07 0.01 0.05 0.07 0.01 0.01 0.01 0.01 0.01 0.01 0.03
0.17 0.07 0.04 0.01 0.00 0.00 0.00 0.00 0.00 0.00 0.00 0.00 0.00 0.00 0.00 0.00 0.01 0.03 0.08 0.21 0.15 0.09 0.01 0.00 0.01 0.03 0.08 0.09 0.08 0.15 0.13 0.10 0.05 0.01 0.03 0.14 0.02 0.01 0.00 0.00 0.01 0.01 0.03
0.04 0.01 0.00 0.00 0.00 0.00 0.00 0.00 0.00 0.00 0.00 0.00 0.00 0.00 0.02 0.02 0.02 0.10 0.16 0.22 0.07 0.00 0.00 0.01 0.07 0.05 0.02 0.01 0.01 0.13 0.20 0.19 0.12 0.01 0.01 0.09 0.04 0.02 0.01 0.00 0.00 0.04 0.06
0.00 0.00 0.00 0.00 0.00 0.00 0.00 0.00 0.00 0.00 0.00 0.00 0.00 0.00 0.01 0.02 0.05 0.21 0.14 0.04 0.01 0.01 0.07 0.06 0.01 0.00 0.00 0.00 0.01 0.04 0.19 0.54 0.25 0.17 0.01 0.27 0.15 0.11 0.34 0.03 0.01 0.02 0.01

GFSMA_prec_precacc_036.txt.gz
Total_Precipitation_Accumulation
0.00 0.00 0.00 0.00 0.00 0.00 0.00 0.00 0.00 0.00 0.00 0.00 0.00 0.00 0.00 0.00 0.00 0.00 0.00 0.00 0.00 0.00 0.00 0.00 0.01 0.01 0.02 0.04 0.07 0.11 0.10 0.08 0.08 0.07 0.05 0.04 0.05 0.06 0.08 0.10 0.12 0.12 0.12
0.00 0.00 0.00 0.00 0.00 0.00 0.00 0.00 0.00 0.00 0.00 0.00 0.00 0.00 0.00 0.00 0.00 0.00 0.00 0.00 0.00 0.00 0.00 0.00 0.01 0.01 0.02 0.04 0.05 0.08 0.08 0.08 0.07 0.07 0.07 0.07 0.08 0.10 0.11 0.12 0.13 0.13 0.16
0.00 0.00 0.00 0.00 0.00 0.00 0.00 0.00 0.00 0.00 0.00 0.00 0.00 0.00 0.00 0.00 0.00 0.00 0.00 0.00 0.00 0.00 0.00 0.00 0.01 0.02 0.02 0.01 0.02 0.05 0.08 0.09 0.08 0.08 0.08 0.08 0.09 0.11 0.13 0.15 0.16 0.15 0.15
0.00 0.00 0.00 0.00 0.00 0.00 0.00 0.00 0.00 0.00 0.00 0.00 0.00 0.00 0.00 0.00 0.00 0.00 0.00 0.00 0.00 0.00 0.00 0.00 0.01 0.01 0.01 0.01 0.02 0.05 0.08 0.10 0.10 0.09 0.09 0.08 0.09 0.11 0.13 0.15 0.16 0.18 0.20
0.00 0.00 0.00 0.00 0.00 0.00 0.00 0.00 0.00 0.00 0.00 0.00 0.00 0.00 0.00 0.00 0.00 0.00 0.00 0.00 0.00 0.00 0.00 0.00 0.00 0.00 0.01 0.03 0.04 0.04 0.06 0.10 0.12 0.12 0.13 0.13 0.12 0.14 0.19 0.21 0.22 0.21 0.21
0.00 0.00 0.00 0.00 0.00 0.00 0.00 0.00 0.00 0.00 0.00 0.00 0.00 0.00 0.00 0.00 0.00 0.00 0.00 0.00 0.00 0.00 0.00 0.00 0.00 0.00 0.02 0.04 0.08 0.06 0.05 0.07 0.10 0.12 0.14 0.16 0.18 0.18 0.16 0.18 0.20 0.22 0.23
0.02 0.01 0.00 0.00 0.00 0.00 0.00 0.00 0.00 0.00 0.00 0.00 0.00 0.00 0.00 0.00 0.00 0.00 0.00 0.00 0.00 0.00 0.00 0.00 0.00 0.01 0.05 0.07 0.08 0.08 0.09 0.09 0.12 0.17 0.18 0.15 0.13 0.14 0.16 0.18 0.20 0.22 0.22
0.05 0.03 0.00 0.00 0.00 0.00 0.00 0.00 0.00 0.00 0.00 0.00 0.00 0.00 0.00 0.00 0.00 0.00 0.00 0.00 0.00 0.00 0.00 0.00 0.01 0.02 0.03 0.05 0.05 0.04 0.02 0.01 0.02 0.06 0.09 0.12 0.14 0.13 0.14 0.16 0.16 0.19 0.25
0.09 0.06 0.01 0.00 0.00 0.00 0.00 0.00 0.00 0.00 0.00 0.00 0.00 0.00 0.00 0.00 0.00 0.00 0.00 0.00 0.00 0.00 0.00 0.00 0.00 0.00 0.00 0.00 0.00 0.00 0.00 0.02 0.01 0.02 0.05 0.08 0.11 0.12 0.13 0.16 0.18 0.22 0.25
0.10 0.04 0.01 0.02 0.01 0.00 0.00 0.00 0.00 0.00 0.00 0.00 0.00 0.00 0.00 0.00 0.00 0.00 0.00 0.00 0.00 0.00 0.00 0.00 0.00 0.00 0.00 0.00 0.00 0.00 0.01 0.03 0.03 0.03 0.06 0.09 0.12 0.16 0.22 0.25 0.26 0.33 0.44
0.09 0.07 0.04 0.02 0.01 0.00 0.00 0.00 0.00 0.00 0.00 0.00 0.00 0.00 0.00 0.00 0.00 0.00 0.00 0.00 0.00 0.00 0.00 0.00 0.00 0.00 0.00 0.00 0.00 0.01 0.04 0.02 0.02 0.02 0.03 0.05 0.09 0.19 0.24 0.33 0.48 0.69 0.80
0.09 0.06 0.05 0.04 0.02 0.00 0.00 0.00 0.00 0.00 0.00 0.00 0.00 0.00 0.00 0.00 0.00 0.00 0.00 0.00 0.00 0.00 0.00 0.00 0.00 0.00 0.00 0.00 0.00 0.00 0.00 0.00 0.00 0.00 0.00 0.02 0.07 0.09 0.15 0.28 0.40 0.48 0.71
0.06 0.04 0.04 0.03 0.02 0.01 0.01 0.00 0.00 0.00 0.00 0.00 0.00 0.00 0.00 0.00 0.00 0.00 0.00 0.00 0.00 0.00 0.00 0.00 0.00 0.00 0.00 0.00 0.00 0.00 0.00 0.00 0.00 0.00 0.00 0.00 0.01 0.02 0.01 0.05 0.15 0.17 0.17
0.06 0.04 0.04 0.04 0.02 0.01 0.01 0.00 0.00 0.00 0.00 0.00 0.00 0.00 0.00 0.00 0.00 0.00 0.00 0.00 0.00 0.00 0.00 0.00 0.00 0.00 0.00 0.00 0.00 0.00 0.00 0.00 0.00 0.00 0.00 0.00 0.00 0.00 0.00 0.00 0.03 0.09 0.15
0.05 0.05 0.05 0.03 0.02 0.01 0.01 0.00 0.00 0.00 0.00 0.00 0.00 0.00 0.00 0.00 0.00 0.00 0.00 0.00 0.00 0.00 0.00 0.00 0.00 0.00 0.00 0.00 0.00 0.00 0.00 0.00 0.00 0.00 0.00 0.00 0.00 0.01 0.02 0.02 0.04 0.07 0.08
0.04 0.04 0.04 0.02 0.02 0.01 0.00 0.00 0.00 0.00 0.00 0.00 0.00 0.00 0.00 0.00 0.00 0.00 0.00 0.00 0.00 0.00 0.00 0.00 0.00 0.00 0.00 0.00 0.00 0.00 0.00 0.00 0.00 0.00 0.01 0.01 0.02 0.03 0.02 0.02 0.02 0.02 0.04
0.02 0.02 0.01 0.02 0.01 0.01 0.01 0.02 0.03 0.01 0.00 0.00 0.00 0.00 0.00 0.00 0.00 0.00 0.00 0.00 0.00 0.00 0.00 0.00 0.00 0.00 0.00 0.00 0.00 0.00 0.00 0.01 0.02 0.02 0.02 0.01 0.02 0.00 0.00 0.01 0.03 0.06 0.07
0.02 0.02 0.02 0.01 0.01 0.02 0.05 0.08 0.07 0.01 0.00 0.00 0.00 0.00 0.00 0.00 0.00 0.00 0.00 0.00 0.00 0.00 0.00 0.02 0.00 0.00 0.00 0.00 0.00 0.00 0.01 0.02 0.01 0.00 0.00 0.00 0.00 0.00 0.01 0.02 0.06 0.09 0.13
0.02 0.01 0.01 0.02 0.04 0.07 0.08 0.04 0.02 0.00 0.00 0.00 0.00 0.00 0.00 0.00 0.00 0.00 0.00 0.00 0.00 0.00 0.01 0.03 0.01 0.00 0.00 0.03 0.04 0.01 0.00 0.00 0.00 0.00 0.00 0.00 0.01 0.01 0.02 0.04 0.08 0.10 0.13
0.01 0.01 0.02 0.02 0.02 0.01 0.01 0.00 0.00 0.00 0.00 0.00 0.01 0.01 0.00 0.00 0.00 0.00 0.00 0.00 0.01 0.01 0.01 0.02 0.12 0.13 0.13 0.07 0.03 0.01 0.00 0.00 0.00 0.00 0.00 0.01 0.02 0.04 0.05 0.05 0.03 0.02 0.01
0.01 0.01 0.02 0.03 0.05 0.04 0.03 0.01 0.03 0.05 0.06 0.05 0.02 0.00 0.00 0.00 0.00 0.00 0.01 0.01 0.02 0.04 0.18 0.34 0.30 0.24 0.11 0.03 0.00 0.00 0.01 0.02 0.02 0.01 0.01 0.02 0.03 0.02 0.00 0.00 0.00 0.01 0.02
0.09 0.10 0.11 0.09 0.07 0.08 0.11 0.13 0.11 0.06 0.02 0.00 0.00 0.00 0.00 0.00 0.00 0.00 0.01 0.03 0.06 0.23 0.33 0.42 0.34 0.14 0.02 0.00 0.01 0.05 0.16 0.14 0.09 0.00 0.03 0.02 0.00 0.00 0.00 0.00 0.02 0.03 0.04
0.16 0.22 0.25 0.30 0.29 0.24 0.16 0.06 0.01 0.00 0.00 0.00 0.00 0.00 0.00 0.00 0.00 0.00 0.01 0.06 0.19 0.25 0.24 0.14 0.04 0.01 0.02 0.05 0.23 0.23 0.13 0.14 0.08 0.01 0.05 0.07 0.01 0.01 0.01 0.01 0.01 0.01 0.03
0.39 0.35 0.36 0.28 0.15 0.05 0.01 0.00 0.00 0.00 0.00 0.00 0.00 0.00 0.00 0.00 0.01 0.03 0.08 0.21 0.15 0.09 0.01 0.00 0.01 0.03 0.08 0.09 0.09 0.19 0.16 0.11 0.05 0.01 0.03 0.14 0.02 0.01 0.00 0.00 0.01 0.01 0.03
0.23 0.15 0.08 0.03 0.02 0.01 0.00 0.00 0.00 0.00 0.00 0.00 0.00 0.00 0.02 0.02 0.02 0.10 0.16 0.22 0.07 0.00 0.00 0.01 0.07 0.05 0.02 0.01 0.01 0.13 0.20 0.19 0.13 0.01 0.01 0.09 0.04 0.02 0.01 0.00 0.00 0.04 0.06
0.04 0.01 0.00 0.00 0.00 0.00 0.00 0.00 0.00 0.00 0.00 0.00 0.00 0.00 0.01 0.02 0.05 0.21 0.14 0.04 0.01 0.01 0.07 0.06 0.01 0.00 0.00 0.00 0.01 0.04 0.19 0.55 0.25 0.19 0.01 0.28 0.16 0.11 0.35 0.03 0.01 0.02 0.01

GFSMA_prec_precacc_039.txt.gz
Total_Precipitation_Accumulation
0.00 0.00 0.00 0.00 0.00 0.00 0.00 0.00 0.00 0.00 0.00 0.00 0.00 0.00 0.00 0.00 0.00 0.00 0.00 0.00 0.00 0.00 0.00 0.00 0.01 0.01 0.02 0.04 0.07 0.11 0.10 0.08 0.08 0.07 0.05 0.04 0.05 0.06 0.08 0.10 0.12 0.12 0.12
0.00 0.00 0.00 0.00 0.00 0.00 0.00 0.00 0.00 0.00 0.00 0.00 0.00 0.00 0.00 0.00 0.00 0.00 0.00 0.00 0.00 0.00 0.00 0.00 0.01 0.01 0.02 0.04 0.05 0.08 0.08 0.08 0.07 0.07 0.07 0.07 0.08 0.10 0.11 0.12 0.13 0.13 0.16
0.00 0.00 0.00 0.00 0.00 0.00 0.00 0.00 0.00 0.00 0.00 0.00 0.00 0.00 0.00 0.00 0.00 0.00 0.00 0.00 0.00 0.00 0.00 0.00 0.01 0.02 0.02 0.01 0.02 0.05 0.08 0.09 0.08 0.08 0.08 0.08 0.09 0.11 0.13 0.15 0.16 0.15 0.15
0.00 0.00 0.00 0.00 0.00 0.00 0.00 0.00 0.00 0.00 0.00 0.00 0.00 0.00 0.00 0.00 0.00 0.00 0.00 0.00 0.00 0.00 0.00 0.00 0.01 0.01 0.01 0.01 0.02 0.05 0.08 0.10 0.10 0.09 0.09 0.08 0.09 0.11 0.13 0.15 0.16 0.18 0.20
0.00 0.00 0.00 0.00 0.00 0.00 0.00 0.00 0.00 0.00 0.00 0.00 0.00 0.00 0.00 0.00 0.00 0.00 0.00 0.00 0.00 0.00 0.00 0.00 0.00 0.00 0.01 0.03 0.04 0.04 0.06 0.10 0.12 0.12 0.13 0.13 0.12 0.14 0.19 0.21 0.22 0.21 0.21
0.00 0.00 0.00 0.00 0.00 0.00 0.00 0.00 0.00 0.00 0.00 0.00 0.00 0.00 0.00 0.00 0.00 0.00 0.00 0.00 0.00 0.00 0.00 0.00 0.00 0.00 0.02 0.04 0.08 0.06 0.05 0.07 0.10 0.12 0.14 0.16 0.18 0.18 0.16 0.18 0.20 0.22 0.23
0.07 0.04 0.00 0.00 0.00 0.00 0.00 0.00 0.00 0.00 0.00 0.00 0.00 0.00 0.00 0.00 0.00 0.00 0.00 0.00 0.00 0.00 0.00 0.00 0.00 0.01 0.05 0.07 0.08 0.08 0.09 0.09 0.12 0.17 0.18 0.15 0.13 0.14 0.16 0.18 0.20 0.22 0.22
0.14 0.08 0.01 0.00 0.00 0.00 0.00 0.00 0.00 0.00 0.00 0.00 0.00 0.00 0.00 0.00 0.00 0.00 0.00 0.00 0.00 0.00 0.00 0.00 0.01 0.02 0.03 0.05 0.05 0.04 0.02 0.01 0.02 0.06 0.09 0.12 0.14 0.13 0.14 0.16 0.16 0.19 0.25
0.19 0.16 0.05 0.00 0.00 0.00 0.00 0.00 0.00 0.00 0.00 0.00 0.00 0.00 0.00 0.00 0.00 0.00 0.00 0.00 0.00 0.00 0.00 0.00 0.00 0.00 0.00 0.00 0.00 0.00 0.00 0.02 0.01 0.02 0.05 0.08 0.11 0.12 0.13 0.16 0.18 0.22 0.25
0.19 0.15 0.09 0.05 0.04 0.01 0.01 0.01 0.00 0.00 0.00 0.00 0.00 0.00 0.00 0.00 0.00 0.00 0.00 0.00 0.00 0.00 0.00 0.00 0.00 0.00 0.00 0.00 0.00 0.00 0.01 0.03 0.03 0.03 0.06 0.09 0.12 0.16 0.22 0.25 0.26 0.33 0.44
0.14 0.13 0.11 0.07 0.06 0.07 0.05 0.02 0.00 0.00 0.00 0.00 0.00 0.00 0.00 0.00 0.00 0.00 0.00 0.00 0.00 0.00 0.00 0.00 0.00 0.00 0.00 0.00 0.00 0.01 0.04 0.02 0.02 0.02 0.03 0.05 0.09 0.19 0.24 0.33 0.48 0.69 0.80
0.12 0.09 0.09 0.09 0.07 0.05 0.04 0.02 0.01 0.00 0.00 0.00 0.00 0.00 0.00 0.00 0.00 0.00 0.00 0.00 0.00 0.00 0.00 0.00 0.00 0.00 0.00 0.00 0.00 0.00 0.00 0.00 0.00 0.00 0.00 0.02 0.07 0.09 0.15 0.28 0.40 0.48 0.71
0.07 0.05 0.07 0.08 0.06 0.04 0.03 0.02 0.02 0.01 0.00 0.00 0.00 0.00 0.00 0.00 0.00 0.00 0.00 0.00 0.00 0.00 0.00 0.00 0.00 0.00 0.00 0.00 0.00 0.00 0.00 0.00 0.00 0.00 0.00 0.00 0.01 0.02 0.01 0.05 0.15 0.17 0.17
0.09 0.06 0.07 0.07 0.05 0.04 0.03 0.02 0.02 0.01 0.01 0.00 0.00 0.00 0.00 0.00 0.00 0.00 0.00 0.00 0.00 0.00 0.00 0.00 0.00 0.00 0.00 0.00 0.00 0.00 0.00 0.00 0.00 0.00 0.00 0.00 0.00 0.00 0.00 0.00 0.03 0.09 0.15
0.07 0.07 0.07 0.06 0.05 0.03 0.02 0.01 0.01 0.01 0.00 0.00 0.00 0.00 0.00 0.00 0.00 0.00 0.00 0.00 0.00 0.00 0.00 0.00 0.00 0.00 0.00 0.00 0.00 0.00 0.00 0.00 0.00 0.00 0.00 0.00 0.00 0.01 0.02 0.02 0.04 0.07 0.08
0.06 0.07 0.06 0.05 0.04 0.02 0.01 0.00 0.01 0.01 0.01 0.01 0.01 0.00 0.00 0.00 0.00 0.00 0.00 0.00 0.00 0.00 0.00 0.00 0.00 0.00 0.00 0.00 0.00 0.00 0.00 0.00 0.00 0.00 0.01 0.01 0.02 0.03 0.02 0.02 0.02 0.02 0.04
0.03 0.03 0.03 0.03 0.02 0.01 0.01 0.02 0.03 0.04 0.04 0.03 0.02 0.01 0.00 0.00 0.00 0.00 0.00 0.00 0.00 0.00 0.00 0.00 0.00 0.00 0.00 0.00 0.00 0.00 0.00 0.01 0.02 0.02 0.02 0.01 0.02 0.00 0.01 0.01 0.03 0.06 0.07
0.05 0.04 0.03 0.02 0.01 0.02 0.05 0.09 0.13 0.12 0.10 0.08 0.07 0.05 0.00 0.00 0.00 0.00 0.00 0.00 0.00 0.00 0.00 0.02 0.00 0.00 0.00 0.00 0.00 0.00 0.01 0.02 0.01 0.00 0.00 0.00 0.00 0.00 0.01 0.02 0.06 0.09 0.13
0.04 0.03 0.02 0.02 0.04 0.07 0.08 0.07 0.05 0.03 0.02 0.02 0.02 0.01 0.00 0.00 0.00 0.00 0.00 0.00 0.00 0.00 0.01 0.03 0.01 0.00 0.00 0.03 0.04 0.01 0.00 0.00 0.00 0.00 0.00 0.00 0.01 0.01 0.02 0.05 0.08 0.10 0.13
0.02 0.02 0.02 0.03 0.02 0.02 0.02 0.02 0.03 0.02 0.02 0.02 0.02 0.02 0.03 0.03 0.01 0.00 0.00 0.00 0.01 0.01 0.01 0.02 0.12 0.13 0.13 0.07 0.03 0.01 0.00 0.00 0.00 0.00 0.00 0.01 0.02 0.04 0.05 0.05 0.03 0.02 0.01
0.01 0.01 0.02 0.04 0.05 0.06 0.07 0.08 0.11 0.16 0.22 0.22 0.18 0.10 0.04 0.01 0.00 0.00 0.01 0.01 0.02 0.04 0.18 0.34 0.30 0.24 0.11 0.03 0.00 0.00 0.01 0.02 0.02 0.01 0.01 0.02 0.03 0.02 0.00 0.00 0.00 0.01 0.02
0.09 0.11 0.12 0.09 0.08 0.11 0.21 0.26 0.28 0.27 0.20 0.13 0.07 0.03 0.01 0.00 0.00 0.00 0.01 0.03 0.06 0.23 0.33 0.42 0.34 0.14 0.02 0.00 0.01 0.05 0.16 0.14 0.10 0.00 0.03 0.02 0.00 0.00 0.00 0.00 0.02 0.03 0.04
0.18 0.23 0.27 0.36 0.43 0.44 0.42 0.32 0.19 0.09 0.04 0.02 0.01 0.00 0.00 0.00 0.00 0.00 0.01 0.06 0.19 0.25 0.24 0.14 0.04 0.01 0.02 0.05 0.23 0.23 0.14 0.15 0.09 0.01 0.05 0.07 0.01 0.01 0.01 0.01 0.01 0.01 0.03
0.47 0.44 0.46 0.43 0.35 0.28 0.18 0.11 0.05 0.03 0.01 0.01 0.00 0.00 0.00 0.00 0.01 0.03 0.08 0.21 0.15 0.09 0.01 0.00 0.01 0.03 0.08 0.09 0.10 0.22 0.19 0.12 0.05 0.01 0.03 0.14 0.02 0.01 0.00 0.00 0.01 0.01 0.03
0.51 0.38 0.28 0.16 0.07 0.03 0.01 0.01 0.00 0.00 0.00 0.00 0.00 0.00 0.02 0.02 0.02 0.10 0.16 0.22 0.07 0.00 0.00 0.01 0.07 0.05 0.02 0.01 0.01 0.13 0.20 0.19 0.13 0.01 0.01 0.09 0.04 0.02 0.01 0.00 0.00 0.04 0.06
0.18 0.10 0.04 0.02 0.00 0.00 0.00 0.00 0.00 0.00 0.00 0.00 0.00 0.00 0.01 0.02 0.05 0.21 0.14 0.04 0.01 0.01 0.07 0.06 0.01 0.00 0.00 0.00 0.01 0.04 0.19 0.56 0.26 0.20 0.01 0.28 0.16 0.11 0.36 0.03 0.01 0.02 0.01

GFSMA_prec_precacc_042.txt.gz
Total_Precipitation_Accumulation
0.00 0.00 0.00 0.00 0.00 0.00 0.00 0.00 0.00 0.00 0.00 0.00 0.00 0.00 0.00 0.00 0.00 0.00 0.00 0.00 0.00 0.00 0.00 0.00 0.01 0.01 0.02 0.04 0.07 0.11 0.10 0.08 0.08 0.07 0.05 0.04 0.05 0.06 0.08 0.10 0.12 0.12 0.12
0.00 0.00 0.00 0.00 0.00 0.00 0.00 0.00 0.00 0.00 0.00 0.00 0.00 0.00 0.00 0.00 0.00 0.00 0.00 0.00 0.00 0.00 0.00 0.00 0.01 0.01 0.02 0.04 0.05 0.08 0.08 0.08 0.07 0.07 0.07 0.07 0.08 0.10 0.11 0.12 0.13 0.13 0.16
0.00 0.00 0.00 0.00 0.00 0.00 0.00 0.00 0.00 0.00 0.00 0.00 0.00 0.00 0.00 0.00 0.00 0.00 0.00 0.00 0.00 0.00 0.00 0.00 0.01 0.02 0.02 0.01 0.02 0.05 0.08 0.09 0.08 0.08 0.08 0.08 0.09 0.11 0.13 0.15 0.16 0.15 0.15
0.00 0.00 0.00 0.00 0.00 0.00 0.00 0.00 0.00 0.00 0.00 0.00 0.00 0.00 0.00 0.00 0.00 0.00 0.00 0.00 0.00 0.00 0.00 0.00 0.01 0.01 0.01 0.01 0.02 0.05 0.08 0.10 0.10 0.09 0.09 0.08 0.09 0.11 0.13 0.15 0.16 0.18 0.20
0.00 0.00 0.00 0.00 0.00 0.00 0.00 0.00 0.00 0.00 0.00 0.00 0.00 0.00 0.00 0.00 0.00 0.00 0.00 0.00 0.00 0.00 0.00 0.00 0.00 0.00 0.01 0.03 0.04 0.04 0.06 0.10 0.12 0.12 0.13 0.13 0.12 0.14 0.19 0.21 0.22 0.21 0.21
0.00 0.00 0.00 0.00 0.00 0.00 0.00 0.00 0.00 0.00 0.00 0.00 0.00 0.00 0.00 0.00 0.00 0.00 0.00 0.00 0.00 0.00 0.00 0.00 0.00 0.00 0.02 0.04 0.08 0.06 0.05 0.07 0.10 0.12 0.14 0.16 0.18 0.18 0.16 0.18 0.20 0.22 0.23
0.09 0.05 0.00 0.00 0.00 0.00 0.00 0.00 0.00 0.00 0.00 0.00 0.00 0.00 0.00 0.00 0.00 0.00 0.00 0.00 0.00 0.00 0.00 0.00 0.00 0.01 0.05 0.07 0.08 0.08 0.09 0.09 0.12 0.17 0.18 0.15 0.13 0.14 0.16 0.18 0.20 0.22 0.22
0.19 0.11 0.03 0.02 0.00 0.00 0.00 0.00 0.00 0.00 0.00 0.00 0.00 0.00 0.00 0.00 0.00 0.00 0.00 0.00 0.00 0.00 0.00 0.00 0.01 0.02 0.03 0.05 0.05 0.04 0.02 0.01 0.02 0.06 0.09 0.12 0.14 0.13 0.14 0.16 0.16 0.19 0.25
0.28 0.25 0.11 0.04 0.02 0.01 0.01 0.00 0.00 0.00 0.00 0.00 0.00 0.00 0.00 0.00 0.00 0.00 0.00 0.00 0.00 0.00 0.00 0.00 0.00 0.00 0.00 0.00 0.00 0.00 0.00 0.02 0.01 0.02 0.05 0.08 0.11 0.12 0.13 0.16 0.18 0.22 0.25
0.27 0.24 0.16 0.10 0.07 0.04 0.03 0.04 0.05 0.04 0.01 0.00 0.00 0.00 0.00 0.00 0.00 0.00 0.00 0.00 0.00 0.00 0.00 0.00 0.00 0.00 0.00 0.00 0.00 0.00 0.01 0.03 0.03 0.03 0.06 0.09 0.12 0.16 0.22 0.25 0.26 0.33 0.44
0.19 0.20 0.18 0.13 0.09 0.09 0.10 0.08 0.04 0.02 0.01 0.00 0.00 0.00 0.00 0.00 0.00 0.00 0.00 0.00 0.00 0.00 0.00 0.00 0.00 0.00 0.00 0.00 0.00 0.01 0.04 0.02 0.02 0.02 0.03 0.05 0.09 0.19 0.24 0.33 0.48 0.69 0.80
0.14 0.12 0.12 0.11 0.11 0.07 0.07 0.08 0.05 0.02 0.01 0.01 0.00 0.00 0.00 0.00 0.00 0.00 0.00 0.00 0.00 0.00 0.00 0.00 0.00 0.00 0.00 0.00 0.00 0.00 0.00 0.00 0.00 0.00 0.00 0.02 0.07 0.09 0.15 0.28 0.40 0.48 0.71
0.08 0.07 0.09 0.10 0.08 0.08 0.07 0.06 0.06 0.04 0.03 0.01 0.01 0.00 0.00 0.00 0.00 0.00 0.00 0.00 0.00 0.00 0.00 0.00 0.00 0.00 0.00 0.00 0.00 0.00 0.00 0.00 0.00 0.00 0.00 0.00 0.01 0.02 0.01 0.05 0.15 0.17 0.17
0.09 0.08 0.09 0.10 0.08 0.07 0.06 0.06 0.06 0.04 0.02 0.02 0.01 0.00 0.00 0.00 0.00 0.00 0.00 0.00 0.00 0.00 0.00 0.00 0.00 0.00 0.00 0.00 0.00 0.00 0.00 0.00 0.00 0.00 0.00 0.00 0.00 0.00 0.00 0.00 0.03 0.09 0.15
0.07 0.08 0.10 0.12 0.12 0.09 0.06 0.05 0.04 0.02 0.01 0.01 0.01 0.01 0.01 0.01 0.00 0.00 0.00 0.00 0.00 0.00 0.00 0.00 0.00 0.00 0.00 0.00 0.00 0.00 0.00 0.00 0.00 0.00 0.00 0.00 0.00 0.01 0.02 0.02 0.04 0.07 0.08
0.06 0.07 0.08 0.08 0.08 0.06 0.04 0.03 0.02 0.01 0.01 0.01 0.01 0.01 0.01 0.01 0.01 0.01 0.00 0.00 0.00 0.00 0.00 0.00 0.00 0.00 0.00 0.00 0.00 0.00 0.00 0.00 0.00 0.00 0.01 0.01 0.02 0.03 0.02 0.02 0.02 0.03 0.04
0.03 0.04 0.03 0.04 0.04 0.04 0.03 0.03 0.03 0.04 0.04 0.04 0.03 0.03 0.04 0.03 0.03 0.03 0.03 0.02 0.01 0.00 0.00 0.00 0.00 0.00 0.00 0.00 0.00 0.00 0.00 0.01 0.02 0.02 0.02 0.01 0.02 0.01 0.01 0.01 0.03 0.06 0.07
0.05 0.05 0.04 0.03 0.02 0.03 0.05 0.09 0.13 0.13 0.11 0.10 0.10 0.11 0.11 0.11 0.09 0.07 0.05 0.04 0.02 0.01 0.00 0.02 0.00 0.00 0.00 0.00 0.00 0.00 0.01 0.02 0.01 0.00 0.00 0.00 0.00 0.00 0.01 0.02 0.06 0.09 0.13
0.04 0.03 0.02 0.03 0.04 0.08 0.09 0.07 0.05 0.03 0.03 0.04 0.04 0.04 0.05 0.05 0.08 0.09 0.09 0.05 0.02 0.01 0.01 0.03 0.01 0.00 0.00 0.03 0.04 0.01 0.00 0.00 0.00 0.00 0.00 0.00 0.01 0.01 0.02 0.05 0.08 0.10 0.13
0.03 0.02 0.02 0.03 0.02 0.02 0.02 0.03 0.04 0.04 0.05 0.06 0.07 0.08 0.12 0.16 0.16 0.13 0.07 0.03 0.02 0.01 0.01 0.02 0.12 0.13 0.13 0.07 0.03 0.01 0.00 0.00 0.00 0.00 0.00 0.01 0.02 0.04 0.05 0.05 0.03 0.02 0.01
0.03 0.02 0.02 0.04 0.05 0.06 0.08 0.10 0.14 0.20 0.27 0.31 0.33 0.31 0.25 0.17 0.09 0.05 0.03 0.02 0.02 0.04 0.18 0.34 0.30 0.24 0.11 0.03 0.00 0.00 0.01 0.02 0.02 0.01 0.01 0.02 0.03 0.02 0.00 0.00 0.00 0.01 0.02
0.11 0.12 0.12 0.10 0.09 0.12 0.26 0.30 0.31 0.31 0.29 0.25 0.20 0.12 0.07 0.04 0.02 0.01 0.01 0.03 0.06 0.23 0.33 0.42 0.34 0.14 0.02 0.00 0.01 0.05 0.16 0.14 0.10 0.00 0.03 0.02 0.00 0.00 0.00 0.00 0.02 0.03 0.04
0.20 0.26 0.28 0.37 0.46 0.49 0.51 0.42 0.31 0.22 0.17 0.13 0.09 0.08 0.05 0.02 0.00 0.00 0.01 0.06 0.19 0.25 0.24 0.14 0.04 0.01 0.02 0.05 0.23 0.23 0.14 0.16 0.10 0.01 0.05 0.07 0.01 0.01 0.01 0.01 0.01 0.01 0.03
0.57 0.52 0.55 0.50 0.43 0.39 0.33 0.22 0.13 0.08 0.06 0.05 0.03 0.02 0.01 0.00 0.01 0.03 0.08 0.21 0.15 0.09 0.01 0.00 0.01 0.03 0.08 0.09 0.10 0.23 0.21 0.13 0.05 0.01 0.03 0.14 0.02 0.01 0.00 0.00 0.01 0.01 0.03
0.67 0.54 0.39 0.32 0.24 0.17 0.11 0.06 0.03 0.02 0.01 0.00 0.00 0.00 0.02 0.02 0.02 0.10 0.16 0.22 0.07 0.00 0.00 0.01 0.07 0.05 0.02 0.01 0.01 0.13 0.20 0.20 0.13 0.01 0.01 0.09 0.04 0.02 0.01 0.00 0.00 0.04 0.06
0.31 0.29 0.19 0.10 0.07 0.05 0.04 0.01 0.00 0.00 0.00 0.00 0.00 0.00 0.01 0.02 0.05 0.21 0.14 0.04 0.01 0.01 0.07 0.06 0.01 0.00 0.00 0.00 0.01 0.04 0.19 0.56 0.27 0.21 0.01 0.28 0.16 0.11 0.37 0.03 0.01 0.02 0.01

GFSMA_prec_precacc_045.txt.gz
Total_Precipitation_Accumulation
0.00 0.00 0.00 0.00 0.00 0.00 0.00 0.00 0.00 0.00 0.00 0.00 0.00 0.00 0.00 0.00 0.00 0.00 0.00 0.00 0.00 0.00 0.00 0.00 0.01 0.01 0.02 0.04 0.07 0.11 0.10 0.08 0.08 0.07 0.05 0.04 0.05 0.06 0.08 0.10 0.12 0.12 0.12
0.00 0.00 0.00 0.00 0.00 0.00 0.00 0.00 0.00 0.00 0.00 0.00 0.00 0.00 0.00 0.00 0.00 0.00 0.00 0.00 0.00 0.00 0.00 0.00 0.01 0.01 0.02 0.04 0.05 0.08 0.08 0.08 0.07 0.07 0.07 0.07 0.08 0.10 0.11 0.12 0.13 0.13 0.16
0.00 0.00 0.00 0.00 0.00 0.00 0.00 0.00 0.00 0.00 0.00 0.00 0.00 0.00 0.00 0.00 0.00 0.00 0.00 0.00 0.00 0.00 0.00 0.00 0.01 0.02 0.02 0.01 0.02 0.05 0.08 0.09 0.08 0.08 0.08 0.08 0.09 0.11 0.13 0.15 0.16 0.15 0.15
0.00 0.00 0.00 0.00 0.00 0.00 0.00 0.00 0.00 0.00 0.00 0.00 0.00 0.00 0.00 0.00 0.00 0.00 0.00 0.00 0.00 0.00 0.00 0.00 0.01 0.01 0.01 0.01 0.02 0.05 0.08 0.10 0.10 0.09 0.09 0.08 0.09 0.11 0.13 0.15 0.16 0.18 0.20
0.00 0.00 0.00 0.00 0.00 0.00 0.00 0.00 0.00 0.00 0.00 0.00 0.00 0.00 0.00 0.00 0.00 0.00 0.00 0.00 0.00 0.00 0.00 0.00 0.00 0.00 0.01 0.03 0.04 0.04 0.06 0.10 0.12 0.12 0.13 0.13 0.12 0.14 0.19 0.21 0.22 0.21 0.21
0.01 0.00 0.00 0.00 0.00 0.00 0.00 0.00 0.00 0.00 0.00 0.00 0.00 0.00 0.00 0.00 0.00 0.00 0.00 0.00 0.00 0.00 0.00 0.00 0.00 0.00 0.02 0.04 0.08 0.06 0.05 0.07 0.10 0.12 0.14 0.16 0.18 0.18 0.16 0.18 0.20 0.22 0.23
0.13 0.06 0.00 0.00 0.00 0.00 0.00 0.00 0.00 0.00 0.00 0.00 0.00 0.00 0.00 0.00 0.00 0.00 0.00 0.00 0.00 0.00 0.00 0.00 0.00 0.01 0.05 0.07 0.08 0.08 0.09 0.09 0.12 0.17 0.18 0.15 0.13 0.14 0.16 0.18 0.20 0.22 0.22
0.21 0.15 0.05 0.03 0.00 0.00 0.00 0.00 0.00 0.00 0.00 0.00 0.00 0.00 0.00 0.00 0.00 0.00 0.00 0.00 0.00 0.00 0.00 0.00 0.01 0.02 0.03 0.05 0.05 0.04 0.02 0.01 0.02 0.06 0.09 0.12 0.14 0.13 0.14 0.16 0.16 0.19 0.25
0.30 0.29 0.13 0.06 0.05 0.02 0.01 0.00 0.00 0.00 0.00 0.00 0.00 0.00 0.00 0.00 0.00 0.00 0.00 0.00 0.00 0.00 0.00 0.00 0.00 0.00 0.00 0.00 0.00 0.00 0.00 0.02 0.01 0.02 0.05 0.08 0.11 0.12 0.13 0.16 0.18 0.22 0.25
0.29 0.28 0.19 0.15 0.12 0.07 0.03 0.06 0.05 0.05 0.03 0.01 0.00 0.00 0.00 0.00 0.00 0.00 0.00 0.00 0.00 0.00 0.00 0.00 0.00 0.00 0.00 0.00 0.00 0.00 0.01 0.03 0.03 0.03 0.06 0.09 0.12 0.16 0.22 0.25 0.26 0.33 0.44
0.21 0.25 0.22 0.17 0.11 0.12 0.13 0.10 0.06 0.04 0.03 0.02 0.00 0.00 0.00 0.00 0.00 0.00 0.00 0.00 0.00 0.00 0.00 0.00 0.00 0.00 0.00 0.00 0.00 0.01 0.04 0.02 0.02 0.02 0.03 0.05 0.09 0.19 0.24 0.33 0.48 0.69 0.80
0.16 0.16 0.16 0.13 0.14 0.09 0.09 0.11 0.10 0.07 0.04 0.03 0.02 0.01 0.00 0.00 0.00 0.00 0.00 0.00 0.00 0.00 0.00 0.00 0.00 0.00 0.00 0.00 0.00 0.00 0.00 0.00 0.00 0.00 0.00 0.02 0.07 0.09 0.15 0.28 0.40 0.48 0.71
0.08 0.08 0.12 0.14 0.11 0.12 0.13 0.15 0.11 0.09 0.06 0.05 0.03 0.01 0.00 0.00 0.00 0.00 0.00 0.00 0.00 0.00 0.00 0.00 0.00 0.00 0.00 0.00 0.00 0.00 0.00 0.00 0.00 0.00 0.00 0.00 0.01 0.02 0.01 0.05 0.15 0.17 0.17
0.09 0.08 0.13 0.15 0.14 0.14 0.11 0.17 0.14 0.08 0.05 0.03 0.01 0.01 0.00 0.00 0.00 0.00 0.02 0.04 0.04 0.01 0.00 0.00 0.00 0.00 0.00 0.00 0.00 0.00 0.00 0.00 0.00 0.00 0.00 0.00 0.00 0.00 0.00 0.00 0.03 0.09 0.15
0.07 0.08 0.11 0.14 0.15 0.14 0.14 0.12 0.12 0.09 0.05 0.02 0.02 0.02 0.02 0.02 0.02 0.02 0.01 0.01 0.00 0.00 0.00 0.00 0.00 0.00 0.00 0.00 0.00 0.00 0.00 0.00 0.00 0.00 0.00 0.00 0.00 0.01 0.02 0.02 0.04 0.07 0.08
0.06 0.07 0.08 0.08 0.08 0.07 0.07 0.07 0.07 0.06 0.06 0.03 0.02 0.01 0.01 0.02 0.02 0.02 0.01 0.01 0.01 0.00 0.00 0.00 0.00 0.00 0.00 0.00 0.00 0.00 0.00 0.00 0.00 0.00 0.01 0.01 0.02 0.03 0.02 0.02 0.02 0.03 0.04
0.03 0.04 0.03 0.04 0.04 0.04 0.04 0.04 0.05 0.05 0.05 0.04 0.03 0.03 0.04 0.05 0.05 0.05 0.06 0.06 0.06 0.05 0.06 0.03 0.03 0.03 0.04 0.02 0.01 0.00 0.00 0.01 0.02 0.02 0.02 0.01 0.02 0.01 0.01 0.01 0.03 0.06 0.07
0.05 0.05 0.04 0.03 0.02 0.03 0.05 0.09 0.13 0.13 0.11 0.11 0.11 0.13 0.14 0.14 0.13 0.12 0.09 0.09 0.09 0.10 0.09 0.06 0.02 0.02 0.03 0.01 0.00 0.00 0.01 0.02 0.01 0.00 0.00 0.00 0.00 0.00 0.01 0.02 0.06 0.09 0.13
0.04 0.03 0.02 0.03 0.04 0.08 0.09 0.07 0.05 0.03 0.04 0.06 0.07 0.08 0.09 0.11 0.15 0.18 0.19 0.17 0.15 0.10 0.07 0.06 0.02 0.01 0.01 0.03 0.04 0.01 0.00 0.00 0.00 0.00 0.00 0.00 0.01 0.01 0.02 0.05 0.08 0.10 0.13
0.03 0.02 0.02 0.03 0.02 0.02 0.03 0.03 0.05 0.06 0.09 0.10 0.14 0.17 0.21 0.26 0.29 0.26 0.20 0.13 0.09 0.05 0.03 0.04 0.12 0.13 0.13 0.07 0.03 0.01 0.00 0.00 0.00 0.00 0.00 0.01 0.02 0.04 0.05 0.05 0.03 0.02 0.01
0.03 0.02 0.03 0.04 0.06 0.06 0.09 0.11 0.15 0.23 0.31 0.38 0.43 0.42 0.36 0.28 0.20 0.13 0.09 0.06 0.05 0.06 0.18 0.34 0.30 0.24 0.11 0.03 0.00 0.00 0.01 0.02 0.02 0.01 0.01 0.02 0.03 0.02 0.00 0.00 0.00 0.01 0.02
0.12 0.13 0.12 0.10 0.10 0.13 0.29 0.32 0.33 0.34 0.32 0.29 0.25 0.18 0.13 0.10 0.08 0.07 0.06 0.05 0.08 0.23 0.33 0.42 0.34 0.14 0.02 0.00 0.01 0.05 0.16 0.14 0.10 0.00 0.03 0.02 0.00 0.00 0.00 0.00 0.02 0.03 0.04
0.21 0.30 0.38 0.43 0.48 0.53 0.56 0.46 0.35 0.27 0.24 0.20 0.16 0.14 0.10 0.06 0.04 0.02 0.01 0.06 0.19 0.25 0.24 0.14 0.04 0.01 0.02 0.05 0.23 0.23 0.14 0.16 0.10 0.01 0.05 0.07 0.01 0.01 0.01 0.01 0.01 0.01 0.03
0.60 0.54 0.61 0.67 0.48 0.46 0.42 0.30 0.19 0.12 0.10 0.09 0.08 0.05 0.03 0.01 0.01 0.03 0.08 0.21 0.15 0.09 0.01 0.00 0.01 0.03 0.08 0.09 0.10 0.23 0.22 0.13 0.05 0.01 0.03 0.14 0.02 0.01 0.00 0.00 0.01 0.01 0.03
0.76 0.65 0.50 0.41 0.35 0.28 0.16 0.09 0.07 0.08 0.07 0.05 0.03 0.01 0.02 0.02 0.02 0.10 0.16 0.22 0.07 0.00 0.00 0.01 0.07 0.05 0.02 0.01 0.01 0.13 0.20 0.20 0.13 0.01 0.01 0.09 0.04 0.02 0.01 0.00 0.00 0.04 0.06
0.44 0.38 0.32 0.24 0.16 0.10 0.07 0.04 0.03 0.03 0.01 0.00 0.00 0.00 0.01 0.02 0.05 0.21 0.14 0.04 0.01 0.01 0.07 0.06 0.01 0.00 0.00 0.00 0.01 0.04 0.19 0.56 0.27 0.22 0.01 0.29 0.16 0.11 0.37 0.03 0.01 0.02 0.01

GFSMA_prec_precacc_048.txt.gz
Total_Precipitation_Accumulation
0.00 0.00 0.00 0.00 0.00 0.00 0.00 0.00 0.00 0.00 0.00 0.00 0.00 0.00 0.00 0.00 0.00 0.00 0.00 0.00 0.00 0.00 0.00 0.00 0.01 0.01 0.02 0.04 0.07 0.11 0.10 0.08 0.08 0.07 0.05 0.04 0.05 0.06 0.08 0.10 0.12 0.12 0.12
0.00 0.00 0.00 0.00 0.00 0.00 0.00 0.00 0.00 0.00 0.00 0.00 0.00 0.00 0.00 0.00 0.00 0.00 0.00 0.00 0.00 0.00 0.00 0.00 0.01 0.01 0.02 0.04 0.05 0.08 0.08 0.08 0.07 0.07 0.07 0.07 0.08 0.10 0.11 0.12 0.13 0.13 0.16
0.00 0.00 0.00 0.00 0.00 0.00 0.00 0.00 0.00 0.00 0.00 0.00 0.00 0.00 0.00 0.00 0.00 0.00 0.00 0.00 0.00 0.00 0.00 0.00 0.01 0.02 0.02 0.01 0.02 0.05 0.08 0.09 0.08 0.08 0.08 0.08 0.09 0.11 0.13 0.15 0.16 0.15 0.15
0.00 0.00 0.00 0.00 0.00 0.00 0.00 0.00 0.00 0.00 0.00 0.00 0.00 0.00 0.00 0.00 0.00 0.00 0.00 0.00 0.00 0.00 0.00 0.00 0.01 0.01 0.01 0.01 0.02 0.05 0.08 0.10 0.10 0.09 0.09 0.08 0.09 0.11 0.13 0.15 0.16 0.18 0.20
0.01 0.00 0.00 0.00 0.00 0.00 0.00 0.00 0.00 0.00 0.00 0.00 0.00 0.00 0.00 0.00 0.00 0.00 0.00 0.00 0.00 0.00 0.00 0.00 0.00 0.00 0.01 0.03 0.04 0.04 0.06 0.10 0.12 0.12 0.13 0.13 0.12 0.14 0.19 0.21 0.22 0.21 0.21
0.04 0.01 0.00 0.00 0.00 0.00 0.00 0.00 0.00 0.00 0.00 0.00 0.00 0.00 0.00 0.00 0.00 0.00 0.00 0.00 0.00 0.00 0.00 0.00 0.00 0.00 0.02 0.04 0.08 0.06 0.05 0.07 0.10 0.12 0.14 0.16 0.18 0.18 0.16 0.18 0.20 0.22 0.23
0.14 0.08 0.01 0.00 0.00 0.00 0.00 0.00 0.00 0.00 0.00 0.00 0.00 0.00 0.00 0.00 0.00 0.00 0.00 0.00 0.00 0.00 0.00 0.00 0.00 0.01 0.05 0.07 0.08 0.08 0.09 0.09 0.12 0.17 0.18 0.15 0.13 0.14 0.16 0.18 0.20 0.22 0.22
0.21 0.15 0.06 0.05 0.02 0.00 0.00 0.00 0.00 0.00 0.00 0.00 0.00 0.00 0.00 0.00 0.00 0.00 0.00 0.00 0.00 0.00 0.00 0.00 0.01 0.02 0.03 0.05 0.05 0.04 0.02 0.01 0.02 0.06 0.09 0.12 0.14 0.13 0.14 0.16 0.16 0.19 0.25
0.30 0.30 0.18 0.10 0.09 0.03 0.01 0.00 0.00 0.00 0.00 0.00 0.00 0.00 0.00 0.00 0.00 0.00 0.00 0.00 0.00 0.00 0.00 0.00 0.00 0.00 0.00 0.00 0.00 0.00 0.00 0.02 0.01 0.02 0.05 0.08 0.11 0.12 0.13 0.16 0.18 0.22 0.25
0.29 0.31 0.24 0.18 0.16 0.11 0.04 0.06 0.05 0.05 0.03 0.01 0.00 0.00 0.00 0.00 0.00 0.00 0.00 0.00 0.00 0.00 0.00 0.00 0.00 0.00 0.00 0.00 0.00 0.00 0.01 0.03 0.03 0.03 0.06 0.09 0.12 0.16 0.22 0.25 0.26 0.33 0.44
0.21 0.27 0.25 0.21 0.13 0.13 0.18 0.13 0.08 0.06 0.05 0.02 0.01 0.00 0.00 0.00 0.00 0.00 0.00 0.00 0.00 0.00 0.00 0.00 0.00 0.00 0.00 0.00 0.00 0.01 0.04 0.02 0.02 0.02 0.03 0.05 0.09 0.19 0.24 0.33 0.48 0.69 0.80
0.16 0.16 0.18 0.14 0.18 0.12 0.13 0.14 0.17 0.13 0.09 0.07 0.04 0.01 0.01 0.00 0.00 0.00 0.00 0.00 0.00 0.00 0.00 0.00 0.00 0.00 0.00 0.00 0.00 0.00 0.00 0.00 0.00 0.00 0.00 0.02 0.07 0.09 0.15 0.28 0.40 0.48 0.71
0.08 0.08 0.12 0.15 0.13 0.16 0.19 0.25 0.20 0.16 0.13 0.10 0.07 0.04 0.03 0.01 0.00 0.00 0.00 0.00 0.00 0.00 0.00 0.00 0.00 0.00 0.00 0.00 0.00 0.00 0.00 0.00 0.00 0.00 0.00 0.00 0.01 0.02 0.01 0.05 0.15 0.17 0.17
0.09 0.08 0.14 0.16 0.16 0.16 0.14 0.21 0.20 0.15 0.12 0.08 0.05 0.03 0.01 0.01 0.00 0.01 0.02 0.04 0.04 0.02 0.01 0.01 0.00 0.00 0.00 0.00 0.00 0.00 0.00 0.00 0.00 0.00 0.00 0.00 0.00 0.00 0.00 0.00 0.03 0.09 0.15
0.08 0.08 0.11 0.14 0.16 0.16 0.16 0.15 0.16 0.16 0.13 0.10 0.07 0.04 0.03 0.03 0.03 0.02 0.02 0.01 0.01 0.01 0.02 0.02 0.01 0.00 0.00 0.00 0.00 0.00 0.00 0.00 0.00 0.00 0.00 0.00 0.00 0.01 0.02 0.02 0.04 0.07 0.08
0.06 0.07 0.08 0.08 0.08 0.08 0.08 0.08 0.08 0.10 0.11 0.09 0.07 0.04 0.03 0.02 0.03 0.03 0.02 0.02 0.02 0.03 0.04 0.03 0.03 0.03 0.02 0.02 0.03 0.03 0.01 0.00 0.00 0.00 0.01 0.01 0.02 0.03 0.02 0.02 0.02 0.03 0.04
0.03 0.04 0.03 0.04 0.04 0.04 0.04 0.04 0.05 0.06 0.07 0.06 0.06 0.06 0.07 0.08 0.09 0.09 0.07 0.06 0.08 0.10 0.14 0.11 0.10 0.11 0.10 0.07 0.05 0.03 0.01 0.02 0.02 0.02 0.02 0.01 0.02 0.01 0.01 0.01 0.03 0.06 0.07
0.05 0.05 0.04 0.03 0.02 0.03 0.05 0.09 0.13 0.13 0.12 0.11 0.12 0.14 0.16 0.16 0.15 0.15 0.15 0.16 0.19 0.21 0.20 0.17 0.12 0.12 0.10 0.06 0.03 0.01 0.01 0.02 0.01 0.00 0.00 0.00 0.00 0.00 0.01 0.02 0.06 0.09 0.13
0.04 0.03 0.02 0.03 0.04 0.08 0.09 0.07 0.05 0.03 0.04 0.06 0.08 0.10 0.14 0.18 0.26 0.31 0.32 0.30 0.30 0.25 0.17 0.14 0.07 0.04 0.02 0.03 0.04 0.01 0.00 0.00 0.00 0.00 0.00 0.00 0.01 0.01 0.02 0.05 0.08 0.10 0.13
0.04 0.04 0.03 0.03 0.03 0.02 0.03 0.03 0.05 0.07 0.09 0.12 0.15 0.20 0.27 0.35 0.39 0.39 0.35 0.31 0.23 0.13 0.07 0.06 0.13 0.14 0.13 0.07 0.03 0.01 0.00 0.00 0.00 0.00 0.00 0.01 0.02 0.04 0.05 0.05 0.03 0.02 0.01
0.05 0.05 0.04 0.05 0.06 0.07 0.09 0.11 0.15 0.23 0.32 0.40 0.46 0.47 0.43 0.38 0.31 0.24 0.19 0.14 0.10 0.10 0.21 0.36 0.31 0.24 0.11 0.03 0.00 0.00 0.01 0.02 0.02 0.01 0.01 0.02 0.03 0.02 0.00 0.00 0.00 0.01 0.02
0.17 0.18 0.16 0.12 0.12 0.15 0.31 0.33 0.34 0.35 0.35 0.34 0.32 0.26 0.21 0.19 0.13 0.10 0.07 0.06 0.08 0.23 0.33 0.42 0.34 0.14 0.02 0.00 0.01 0.05 0.16 0.14 0.10 0.00 0.03 0.02 0.00 0.00 0.00 0.00 0.02 0.03 0.04
0.30 0.33 0.42 0.48 0.53 0.58 0.63 0.50 0.40 0.30 0.27 0.24 0.21 0.18 0.14 0.09 0.05 0.03 0.02 0.06 0.19 0.25 0.24 0.14 0.04 0.01 0.02 0.05 0.23 0.23 0.14 0.16 0.10 0.01 0.05 0.07 0.01 0.01 0.01 0.01 0.01 0.01 0.03
0.81 0.60 0.62 0.78 0.76 0.57 0.48 0.38 0.24 0.15 0.13 0.11 0.09 0.06 0.03 0.01 0.01 0.03 0.08 0.21 0.15 0.09 0.01 0.00 0.01 0.03 0.08 0.09 0.10 0.23 0.22 0.13 0.05 0.01 0.03 0.14 0.02 0.01 0.00 0.00 0.01 0.01 0.03
0.79 0.70 0.54 0.45 0.42 0.36 0.24 0.14 0.10 0.09 0.07 0.05 0.03 0.01 0.02 0.02 0.02 0.10 0.16 0.22 0.07 0.00 0.00 0.01 0.07 0.05 0.02 0.01 0.01 0.13 0.20 0.20 0.13 0.01 0.01 0.09 0.04 0.02 0.01 0.00 0.00 0.04 0.06
0.57 0.46 0.37 0.32 0.23 0.13 0.08 0.05 0.04 0.03 0.02 0.01 0.00 0.00 0.01 0.02 0.05 0.21 0.14 0.04 0.01 0.01 0.07 0.06 0.01 0.00 0.00 0.00 0.01 0.04 0.19 0.56 0.28 0.22 0.01 0.29 0.16 0.12 0.38 0.03 0.01 0.02 0.01

GFSMA_prec_precacc_051.txt.gz
Total_Precipitation_Accumulation
0.00 0.00 0.00 0.00 0.00 0.00 0.00 0.00 0.00 0.00 0.00 0.00 0.00 0.00 0.00 0.00 0.00 0.00 0.00 0.00 0.00 0.00 0.00 0.00 0.01 0.01 0.02 0.04 0.07 0.11 0.10 0.08 0.08 0.07 0.05 0.04 0.05 0.06 0.08 0.10 0.12 0.12 0.12
0.00 0.00 0.00 0.00 0.00 0.00 0.00 0.00 0.00 0.00 0.00 0.00 0.00 0.00 0.00 0.00 0.00 0.00 0.00 0.00 0.00 0.00 0.00 0.00 0.01 0.01 0.02 0.04 0.05 0.08 0.08 0.08 0.07 0.07 0.07 0.07 0.08 0.10 0.11 0.12 0.13 0.13 0.16
0.00 0.00 0.00 0.00 0.00 0.00 0.00 0.00 0.00 0.00 0.00 0.00 0.00 0.00 0.00 0.00 0.00 0.00 0.00 0.00 0.00 0.00 0.00 0.00 0.01 0.02 0.02 0.01 0.02 0.05 0.08 0.09 0.08 0.08 0.08 0.08 0.09 0.11 0.13 0.15 0.16 0.15 0.15
0.00 0.00 0.00 0.00 0.00 0.00 0.00 0.00 0.00 0.00 0.00 0.00 0.00 0.00 0.00 0.00 0.00 0.00 0.00 0.00 0.00 0.00 0.00 0.00 0.01 0.01 0.01 0.01 0.02 0.05 0.08 0.10 0.10 0.09 0.09 0.08 0.09 0.11 0.13 0.15 0.16 0.18 0.20
0.02 0.00 0.00 0.00 0.00 0.00 0.00 0.00 0.00 0.00 0.00 0.00 0.00 0.00 0.00 0.00 0.00 0.00 0.00 0.00 0.00 0.00 0.00 0.00 0.00 0.00 0.01 0.03 0.04 0.04 0.06 0.10 0.12 0.12 0.13 0.13 0.12 0.14 0.19 0.21 0.22 0.21 0.21
0.04 0.02 0.00 0.00 0.00 0.00 0.00 0.00 0.00 0.00 0.00 0.00 0.00 0.00 0.00 0.00 0.00 0.00 0.00 0.00 0.00 0.00 0.00 0.00 0.00 0.00 0.02 0.04 0.08 0.06 0.05 0.07 0.10 0.12 0.14 0.16 0.18 0.18 0.16 0.18 0.20 0.22 0.23
0.14 0.08 0.01 0.00 0.00 0.00 0.00 0.00 0.00 0.00 0.00 0.00 0.00 0.00 0.00 0.00 0.00 0.00 0.00 0.00 0.00 0.00 0.00 0.00 0.00 0.01 0.05 0.07 0.08 0.08 0.09 0.09 0.12 0.17 0.18 0.15 0.13 0.14 0.16 0.18 0.20 0.22 0.22
0.21 0.15 0.06 0.06 0.02 0.00 0.00 0.00 0.00 0.00 0.00 0.00 0.00 0.00 0.00 0.00 0.00 0.00 0.00 0.00 0.00 0.00 0.00 0.00 0.01 0.02 0.03 0.05 0.05 0.04 0.02 0.01 0.02 0.06 0.09 0.12 0.14 0.13 0.14 0.16 0.16 0.19 0.25
0.30 0.30 0.18 0.11 0.09 0.03 0.01 0.00 0.00 0.00 0.00 0.00 0.00 0.00 0.00 0.00 0.00 0.00 0.00 0.00 0.00 0.00 0.00 0.00 0.00 0.00 0.00 0.00 0.00 0.00 0.00 0.02 0.01 0.02 0.05 0.08 0.11 0.12 0.13 0.16 0.18 0.22 0.25
0.29 0.32 0.25 0.20 0.17 0.11 0.04 0.07 0.06 0.07 0.03 0.01 0.00 0.00 0.00 0.00 0.00 0.00 0.00 0.00 0.00 0.00 0.00 0.00 0.00 0.00 0.00 0.00 0.00 0.00 0.01 0.03 0.03 0.03 0.06 0.09 0.12 0.16 0.22 0.25 0.26 0.33 0.44
0.21 0.28 0.26 0.23 0.14 0.14 0.22 0.15 0.09 0.08 0.07 0.04 0.02 0.01 0.00 0.00 0.00 0.00 0.00 0.00 0.00 0.00 0.00 0.00 0.00 0.00 0.00 0.00 0.00 0.01 0.04 0.02 0.02 0.02 0.03 0.05 0.09 0.19 0.24 0.33 0.48 0.69 0.80
0.16 0.16 0.18 0.14 0.18 0.15 0.14 0.17 0.23 0.17 0.12 0.11 0.06 0.04 0.03 0.03 0.01 0.01 0.01 0.00 0.00 0.00 0.00 0.00 0.00 0.00 0.00 0.00 0.00 0.00 0.00 0.00 0.00 0.00 0.00 0.02 0.07 0.09 0.15 0.28 0.40 0.48 0.71
0.08 0.08 0.12 0.15 0.13 0.16 0.21 0.28 0.24 0.20 0.18 0.14 0.11 0.07 0.06 0.04 0.03 0.02 0.01 0.01 0.01 0.00 0.00 0.00 0.00 0.00 0.00 0.00 0.00 0.00 0.00 0.00 0.00 0.00 0.00 0.00 0.01 0.02 0.01 0.05 0.15 0.17 0.17
0.09 0.08 0.15 0.17 0.17 0.16 0.15 0.22 0.21 0.16 0.14 0.11 0.09 0.06 0.04 0.03 0.03 0.02 0.03 0.06 0.06 0.03 0.02 0.01 0.00 0.00 0.00 0.00 0.00 0.00 0.00 0.00 0.00 0.00 0.00 0.00 0.00 0.00 0.00 0.00 0.03 0.09 0.15
0.08 0.08 0.11 0.15 0.17 0.17 0.18 0.18 0.19 0.18 0.16 0.13 0.12 0.10 0.08 0.07 0.07 0.06 0.06 0.07 0.08 0.04 0.03 0.03 0.02 0.00 0.00 0.00 0.00 0.00 0.00 0.00 0.00 0.00 0.00 0.00 0.00 0.01 0.02 0.02 0.04 0.07 0.08
0.06 0.07 0.08 0.08 0.08 0.09 0.11 0.13 0.14 0.16 0.17 0.15 0.11 0.09 0.07 0.06 0.06 0.05 0.05 0.06 0.08 0.10 0.14 0.12 0.10 0.05 0.03 0.04 0.05 0.06 0.02 0.02 0.00 0.00 0.01 0.01 0.02 0.03 0.02 0.02 0.02 0.03 0.04
0.03 0.04 0.03 0.04 0.04 0.05 0.05 0.06 0.07 0.09 0.12 0.11 0.10 0.10 0.10 0.11 0.12 0.12 0.13 0.15 0.16 0.18 0.22 0.16 0.16 0.17 0.18 0.16 0.14 0.10 0.04 0.02 0.02 0.02 0.02 0.01 0.02 0.01 0.01 0.01 0.03 0.06 0.07
0.05 0.05 0.04 0.03 0.02 0.03 0.06 0.10 0.14 0.14 0.13 0.14 0.15 0.16 0.16 0.17 0.16 0.16 0.19 0.23 0.31 0.36 0.38 0.39 0.32 0.29 0.22 0.18 0.11 0.04 0.01 0.02 0.01 0.00 0.00 0.00 0.00 0.00 0.01 0.02 0.06 0.09 0.13
0.04 0.04 0.03 0.04 0.06 0.09 0.10 0.08 0.06 0.04 0.05 0.07 0.09 0.12 0.15 0.19 0.27 0.33 0.36 0.39 0.42 0.39 0.34 0.30 0.21 0.15 0.11 0.08 0.06 0.01 0.00 0.00 0.00 0.00 0.00 0.00 0.01 0.01 0.02 0.05 0.08 0.10 0.13
0.04 0.04 0.03 0.04 0.03 0.04 0.04 0.04 0.05 0.07 0.10 0.12 0.16 0.21 0.28 0.36 0.41 0.42 0.39 0.35 0.28 0.19 0.13 0.10 0.16 0.15 0.14 0.07 0.03 0.01 0.00 0.00 0.00 0.00 0.00 0.01 0.02 0.04 0.05 0.05 0.03 0.02 0.01
0.05 0.05 0.05 0.05 0.06 0.07 0.09 0.11 0.15 0.23 0.32 0.41 0.47 0.47 0.44 0.41 0.36 0.29 0.22 0.16 0.13 0.13 0.24 0.37 0.31 0.24 0.11 0.03 0.00 0.00 0.01 0.02 0.02 0.01 0.01 0.02 0.03 0.02 0.00 0.00 0.00 0.01 0.02
0.17 0.20 0.22 0.16 0.15 0.22 0.36 0.34 0.34 0.36 0.36 0.34 0.32 0.28 0.25 0.25 0.19 0.15 0.12 0.10 0.10 0.24 0.34 0.42 0.34 0.14 0.02 0.00 0.01 0.05 0.16 0.14 0.10 0.00 0.03 0.02 0.00 0.00 0.00 0.00 0.02 0.03 0.04
0.38 0.53 0.56 0.59 0.66 0.73 0.84 0.67 0.46 0.32 0.31 0.26 0.24 0.22 0.16 0.11 0.06 0.04 0.02 0.07 0.19 0.25 0.24 0.14 0.04 0.01 0.02 0.05 0.23 0.23 0.14 0.16 0.10 0.01 0.05 0.07 0.01 0.01 0.01 0.01 0.01 0.01 0.03
0.88 0.78 0.69 0.82 0.88 0.81 0.67 0.50 0.38 0.26 0.20 0.15 0.10 0.06 0.03 0.01 0.01 0.03 0.08 0.21 0.15 0.09 0.01 0.00 0.01 0.03 0.08 0.09 0.10 0.23 0.22 0.13 0.05 0.01 0.03 0.14 0.02 0.01 0.00 0.00 0.01 0.01 0.03
0.81 0.71 0.57 0.48 0.45 0.42 0.29 0.17 0.11 0.10 0.08 0.05 0.03 0.01 0.02 0.02 0.02 0.10 0.16 0.22 0.07 0.00 0.00 0.01 0.07 0.05 0.02 0.01 0.01 0.13 0.20 0.20 0.13 0.01 0.01 0.09 0.04 0.02 0.01 0.00 0.00 0.04 0.06
0.60 0.49 0.38 0.33 0.24 0.14 0.08 0.05 0.04 0.03 0.02 0.01 0.00 0.00 0.01 0.02 0.05 0.21 0.14 0.04 0.01 0.01 0.07 0.06 0.01 0.00 0.00 0.00 0.01 0.04 0.19 0.56 0.28 0.22 0.01 0.29 0.16 0.12 0.39 0.03 0.01 0.02 0.01

GFSMA_prec_precacc_054.txt.gz
Total_Precipitation_Accumulation
0.00 0.00 0.00 0.00 0.00 0.00 0.00 0.00 0.00 0.00 0.00 0.00 0.00 0.00 0.00 0.00 0.00 0.00 0.00 0.00 0.00 0.00 0.00 0.00 0.01 0.01 0.02 0.04 0.07 0.11 0.10 0.08 0.08 0.07 0.05 0.04 0.05 0.06 0.08 0.10 0.12 0.12 0.12
0.00 0.00 0.00 0.00 0.00 0.00 0.00 0.00 0.00 0.00 0.00 0.00 0.00 0.00 0.00 0.00 0.00 0.00 0.00 0.00 0.00 0.00 0.00 0.00 0.01 0.01 0.02 0.04 0.05 0.08 0.08 0.08 0.07 0.07 0.07 0.07 0.08 0.10 0.11 0.12 0.13 0.13 0.16
0.00 0.00 0.00 0.00 0.00 0.00 0.00 0.00 0.00 0.00 0.00 0.00 0.00 0.00 0.00 0.00 0.00 0.00 0.00 0.00 0.00 0.00 0.00 0.00 0.01 0.02 0.02 0.01 0.02 0.05 0.08 0.09 0.08 0.08 0.08 0.08 0.09 0.11 0.13 0.15 0.16 0.15 0.15
0.00 0.00 0.00 0.00 0.00 0.00 0.00 0.00 0.00 0.00 0.00 0.00 0.00 0.00 0.00 0.00 0.00 0.00 0.00 0.00 0.00 0.00 0.00 0.00 0.01 0.01 0.01 0.01 0.02 0.05 0.08 0.10 0.10 0.09 0.09 0.08 0.09 0.11 0.13 0.15 0.16 0.18 0.20
0.02 0.00 0.00 0.00 0.00 0.00 0.00 0.00 0.00 0.00 0.00 0.00 0.00 0.00 0.00 0.00 0.00 0.00 0.00 0.00 0.00 0.00 0.00 0.00 0.00 0.00 0.01 0.03 0.04 0.04 0.06 0.10 0.12 0.12 0.13 0.13 0.12 0.14 0.19 0.21 0.22 0.21 0.21
0.06 0.02 0.00 0.00 0.00 0.00 0.00 0.00 0.00 0.00 0.00 0.00 0.00 0.00 0.00 0.00 0.00 0.00 0.00 0.00 0.00 0.00 0.00 0.00 0.00 0.00 0.02 0.04 0.08 0.06 0.05 0.07 0.10 0.12 0.14 0.16 0.18 0.18 0.16 0.18 0.20 0.22 0.23
0.15 0.11 0.03 0.01 0.00 0.00 0.00 0.00 0.00 0.00 0.00 0.00 0.00 0.00 0.00 0.00 0.00 0.00 0.00 0.00 0.00 0.00 0.00 0.00 0.00 0.01 0.05 0.07 0.08 0.08 0.09 0.09 0.12 0.17 0.18 0.15 0.13 0.14 0.16 0.18 0.20 0.22 0.22
0.23 0.16 0.10 0.10 0.04 0.02 0.00 0.00 0.00 0.00 0.00 0.00 0.00 0.00 0.00 0.00 0.00 0.00 0.00 0.00 0.00 0.00 0.00 0.00 0.01 0.02 0.03 0.05 0.05 0.04 0.02 0.01 0.02 0.06 0.09 0.12 0.14 0.13 0.14 0.16 0.16 0.19 0.25
0.34 0.31 0.19 0.13 0.15 0.08 0.07 0.01 0.05 0.03 0.02 0.01 0.00 0.00 0.00 0.00 0.00 0.00 0.00 0.00 0.00 0.00 0.00 0.00 0.00 0.00 0.00 0.00 0.00 0.00 0.00 0.02 0.01 0.02 0.05 0.08 0.11 0.12 0.13 0.16 0.18 0.22 0.25
0.30 0.35 0.29 0.22 0.17 0.13 0.08 0.11 0.13 0.14 0.07 0.02 0.01 0.00 0.00 0.00 0.00 0.00 0.00 0.00 0.00 0.00 0.00 0.00 0.00 0.00 0.00 0.00 0.00 0.00 0.01 0.03 0.03 0.03 0.06 0.09 0.12 0.16 0.22 0.25 0.26 0.33 0.44
0.21 0.28 0.26 0.24 0.16 0.15 0.24 0.18 0.15 0.15 0.13 0.10 0.04 0.04 0.02 0.00 0.00 0.00 0.00 0.00 0.00 0.00 0.00 0.00 0.00 0.00 0.00 0.00 0.00 0.01 0.04 0.02 0.02 0.02 0.03 0.05 0.09 0.19 0.24 0.33 0.48 0.69 0.80
0.16 0.17 0.19 0.14 0.18 0.16 0.15 0.18 0.26 0.23 0.19 0.17 0.11 0.08 0.07 0.07 0.04 0.03 0.02 0.01 0.01 0.00 0.00 0.00 0.00 0.00 0.00 0.00 0.00 0.00 0.00 0.00 0.00 0.00 0.00 0.02 0.07 0.09 0.15 0.28 0.40 0.48 0.71
0.09 0.09 0.16 0.17 0.14 0.17 0.22 0.29 0.26 0.24 0.26 0.21 0.18 0.12 0.11 0.10 0.09 0.07 0.05 0.03 0.02 0.01 0.01 0.01 0.02 0.03 0.03 0.01 0.01 0.00 0.00 0.00 0.00 0.00 0.00 0.00 0.01 0.02 0.01 0.05 0.15 0.17 0.17
0.09 0.09 0.18 0.21 0.20 0.18 0.17 0.24 0.23 0.18 0.19 0.17 0.16 0.14 0.09 0.08 0.08 0.08 0.08 0.11 0.12 0.10 0.10 0.11 0.13 0.13 0.11 0.05 0.02 0.00 0.00 0.00 0.00 0.00 0.00 0.00 0.00 0.00 0.00 0.00 0.03 0.09 0.15
0.08 0.08 0.12 0.18 0.19 0.18 0.19 0.21 0.22 0.21 0.20 0.19 0.20 0.19 0.15 0.10 0.08 0.10 0.10 0.12 0.19 0.24 0.24 0.23 0.17 0.11 0.08 0.07 0.08 0.05 0.04 0.02 0.00 0.00 0.00 0.00 0.00 0.01 0.02 0.02 0.04 0.07 0.08
0.06 0.07 0.08 0.08 0.09 0.09 0.12 0.15 0.17 0.19 0.23 0.22 0.18 0.18 0.15 0.10 0.10 0.09 0.09 0.11 0.16 0.28 0.39 0.35 0.28 0.21 0.17 0.16 0.16 0.13 0.05 0.05 0.03 0.02 0.02 0.02 0.03 0.03 0.02 0.02 0.02 0.03 0.04
0.03 0.04 0.03 0.04 0.04 0.05 0.06 0.07 0.09 0.12 0.16 0.16 0.17 0.18 0.18 0.17 0.16 0.16 0.18 0.22 0.28 0.35 0.47 0.47 0.45 0.40 0.39 0.35 0.28 0.19 0.10 0.07 0.04 0.04 0.03 0.02 0.02 0.01 0.01 0.01 0.03 0.06 0.07
0.05 0.05 0.04 0.03 0.02 0.03 0.06 0.12 0.16 0.17 0.16 0.17 0.17 0.20 0.21 0.20 0.20 0.21 0.26 0.32 0.43 0.51 0.55 0.49 0.41 0.36 0.31 0.24 0.15 0.07 0.03 0.03 0.01 0.00 0.00 0.00 0.00 0.00 0.01 0.02 0.06 0.09 0.13
0.04 0.04 0.03 0.04 0.06 0.10 0.11 0.11 0.09 0.06 0.07 0.09 0.11 0.14 0.17 0.21 0.29 0.34 0.38 0.40 0.43 0.40 0.35 0.31 0.22 0.16 0.12 0.09 0.06 0.02 0.00 0.00 0.00 0.00 0.00 0.00 0.01 0.01 0.02 0.05 0.08 0.10 0.13
0.04 0.04 0.03 0.04 0.03 0.04 0.04 0.05 0.06 0.08 0.10 0.13 0.17 0.22 0.29 0.37 0.42 0.43 0.40 0.36 0.29 0.20 0.15 0.13 0.18 0.17 0.15 0.08 0.03 0.01 0.00 0.00 0.00 0.00 0.00 0.01 0.02 0.04 0.05 0.05 0.03 0.02 0.01
0.05 0.05 0.05 0.05 0.06 0.07 0.10 0.12 0.15 0.23 0.32 0.41 0.47 0.48 0.45 0.43 0.37 0.30 0.24 0.18 0.14 0.14 0.25 0.38 0.32 0.24 0.11 0.03 0.00 0.00 0.01 0.02 0.02 0.01 0.01 0.02 0.03 0.02 0.00 0.00 0.00 0.01 0.02
0.17 0.20 0.22 0.16 0.16 0.24 0.42 0.36 0.35 0.37 0.37 0.36 0.34 0.30 0.28 0.28 0.21 0.18 0.14 0.11 0.11 0.25 0.34 0.42 0.34 0.14 0.02 0.00 0.01 0.05 0.16 0.14 0.10 0.00 0.03 0.02 0.00 0.00 0.00 0.00 0.02 0.03 0.04
0.38 0.53 0.56 0.60 0.70 0.81 0.89 0.75 0.60 0.46 0.42 0.34 0.30 0.25 0.19 0.13 0.07 0.04 0.02 0.07 0.19 0.25 0.24 0.14 0.04 0.01 0.02 0.05 0.23 0.23 0.14 0.16 0.10 0.01 0.05 0.07 0.01 0.01 0.01 0.01 0.01 0.01 0.03
0.88 0.78 0.69 0.82 0.89 0.82 0.69 0.53 0.48 0.36 0.31 0.28 0.22 0.09 0.03 0.01 0.01 0.03 0.08 0.21 0.15 0.09 0.01 0.00 0.01 0.03 0.08 0.09 0.10 0.23 0.22 0.13 0.05 0.01 0.03 0.14 0.02 0.01 0.00 0.00 0.01 0.01 0.03
0.81 0.71 0.57 0.48 0.45 0.43 0.29 0.17 0.11 0.10 0.08 0.05 0.03 0.01 0.02 0.02 0.02 0.10 0.16 0.22 0.07 0.00 0.00 0.01 0.07 0.05 0.02 0.01 0.01 0.13 0.20 0.20 0.13 0.01 0.01 0.09 0.04 0.02 0.01 0.00 0.00 0.04 0.06
0.60 0.49 0.38 0.33 0.24 0.14 0.08 0.05 0.04 0.03 0.02 0.01 0.00 0.00 0.01 0.02 0.05 0.21 0.14 0.04 0.01 0.01 0.07 0.06 0.01 0.00 0.00 0.00 0.01 0.04 0.19 0.56 0.28 0.22 0.01 0.29 0.16 0.12 0.39 0.03 0.01 0.02 0.01

GFSMA_prec_precacc_057.txt.gz
Total_Precipitation_Accumulation
0.00 0.00 0.00 0.00 0.00 0.00 0.00 0.00 0.00 0.00 0.00 0.00 0.00 0.00 0.00 0.00 0.00 0.00 0.00 0.00 0.00 0.00 0.00 0.00 0.01 0.01 0.02 0.04 0.07 0.11 0.10 0.08 0.08 0.07 0.05 0.04 0.05 0.06 0.08 0.10 0.12 0.12 0.12
0.00 0.00 0.00 0.00 0.00 0.00 0.00 0.00 0.00 0.00 0.00 0.00 0.00 0.00 0.00 0.00 0.00 0.00 0.00 0.00 0.00 0.00 0.00 0.00 0.01 0.01 0.02 0.04 0.05 0.08 0.08 0.08 0.07 0.07 0.07 0.07 0.08 0.10 0.11 0.12 0.13 0.13 0.16
0.00 0.00 0.00 0.00 0.00 0.00 0.00 0.00 0.00 0.00 0.00 0.00 0.00 0.00 0.00 0.00 0.00 0.00 0.00 0.00 0.00 0.00 0.00 0.00 0.01 0.02 0.02 0.01 0.02 0.05 0.08 0.09 0.08 0.08 0.08 0.08 0.09 0.11 0.13 0.15 0.16 0.15 0.15
0.00 0.00 0.00 0.00 0.00 0.00 0.00 0.00 0.00 0.00 0.00 0.00 0.00 0.00 0.00 0.00 0.00 0.00 0.00 0.00 0.00 0.00 0.00 0.00 0.01 0.01 0.01 0.01 0.02 0.05 0.08 0.10 0.10 0.09 0.09 0.08 0.09 0.11 0.13 0.15 0.16 0.18 0.20
0.02 0.00 0.00 0.00 0.00 0.00 0.00 0.00 0.00 0.00 0.00 0.00 0.00 0.00 0.00 0.00 0.00 0.00 0.00 0.00 0.00 0.00 0.00 0.00 0.00 0.00 0.01 0.03 0.04 0.04 0.06 0.10 0.12 0.12 0.13 0.13 0.12 0.14 0.19 0.21 0.22 0.21 0.21
0.06 0.04 0.01 0.00 0.00 0.00 0.00 0.00 0.00 0.00 0.00 0.00 0.00 0.00 0.00 0.00 0.00 0.00 0.00 0.00 0.00 0.00 0.00 0.00 0.00 0.00 0.02 0.04 0.08 0.06 0.05 0.07 0.10 0.12 0.14 0.16 0.18 0.18 0.16 0.18 0.20 0.22 0.23
0.18 0.14 0.04 0.01 0.01 0.00 0.00 0.00 0.00 0.00 0.00 0.00 0.00 0.00 0.00 0.00 0.00 0.00 0.00 0.00 0.00 0.00 0.00 0.00 0.00 0.01 0.05 0.07 0.08 0.08 0.09 0.09 0.12 0.17 0.18 0.15 0.13 0.14 0.16 0.18 0.20 0.22 0.22
0.27 0.20 0.14 0.13 0.08 0.03 0.02 0.01 0.02 0.06 0.02 0.02 0.01 0.00 0.00 0.00 0.00 0.00 0.00 0.00 0.00 0.00 0.00 0.00 0.01 0.02 0.03 0.05 0.05 0.04 0.02 0.01 0.02 0.06 0.09 0.12 0.14 0.13 0.14 0.16 0.16 0.19 0.25
0.36 0.34 0.21 0.16 0.22 0.16 0.13 0.06 0.10 0.12 0.10 0.07 0.03 0.01 0.00 0.00 0.00 0.00 0.00 0.00 0.00 0.00 0.00 0.00 0.00 0.00 0.00 0.00 0.00 0.00 0.00 0.02 0.01 0.02 0.05 0.08 0.11 0.12 0.13 0.16 0.18 0.22 0.25
0.30 0.35 0.31 0.28 0.23 0.17 0.14 0.20 0.24 0.23 0.19 0.10 0.07 0.03 0.02 0.01 0.00 0.00 0.00 0.00 0.00 0.00 0.00 0.00 0.00 0.00 0.00 0.00 0.00 0.00 0.01 0.03 0.03 0.03 0.06 0.09 0.12 0.16 0.22 0.25 0.26 0.33 0.44
0.22 0.28 0.26 0.25 0.18 0.20 0.29 0.23 0.20 0.20 0.17 0.16 0.12 0.11 0.09 0.05 0.02 0.00 0.00 0.02 0.02 0.01 0.00 0.00 0.00 0.00 0.00 0.00 0.00 0.01 0.04 0.02 0.02 0.02 0.03 0.05 0.09 0.19 0.24 0.33 0.48 0.69 0.80
0.16 0.18 0.19 0.15 0.20 0.17 0.17 0.22 0.33 0.31 0.27 0.27 0.18 0.15 0.15 0.16 0.12 0.08 0.05 0.04 0.05 0.03 0.01 0.00 0.00 0.00 0.01 0.00 0.00 0.00 0.00 0.00 0.00 0.00 0.00 0.02 0.07 0.09 0.15 0.28 0.40 0.48 0.71
0.09 0.09 0.16 0.19 0.16 0.18 0.23 0.31 0.28 0.30 0.37 0.32 0.31 0.21 0.20 0.18 0.19 0.16 0.11 0.06 0.06 0.03 0.02 0.02 0.03 0.04 0.06 0.07 0.05 0.04 0.06 0.06 0.03 0.02 0.02 0.02 0.02 0.02 0.01 0.05 0.15 0.17 0.17
0.09 0.09 0.18 0.21 0.20 0.19 0.17 0.24 0.24 0.19 0.24 0.26 0.30 0.32 0.26 0.20 0.20 0.19 0.17 0.19 0.17 0.14 0.12 0.13 0.14 0.16 0.16 0.18 0.23 0.27 0.23 0.16 0.10 0.09 0.10 0.09 0.04 0.01 0.00 0.00 0.03 0.09 0.15
0.08 0.08 0.12 0.18 0.19 0.18 0.20 0.21 0.23 0.22 0.22 0.24 0.30 0.32 0.35 0.25 0.21 0.20 0.18 0.18 0.23 0.29 0.26 0.25 0.25 0.24 0.22 0.23 0.24 0.20 0.22 0.22 0.18 0.18 0.15 0.10 0.05 0.02 0.02 0.02 0.04 0.07 0.08
0.06 0.07 0.08 0.08 0.09 0.09 0.12 0.16 0.18 0.20 0.25 0.25 0.23 0.25 0.25 0.22 0.24 0.25 0.22 0.21 0.21 0.31 0.42 0.37 0.36 0.38 0.40 0.41 0.41 0.37 0.29 0.26 0.19 0.12 0.06 0.05 0.05 0.04 0.03 0.02 0.02 0.03 0.04
0.03 0.04 0.03 0.04 0.04 0.05 0.06 0.07 0.09 0.12 0.16 0.17 0.18 0.20 0.22 0.24 0.26 0.29 0.35 0.42 0.53 0.64 0.64 0.60 0.58 0.58 0.58 0.54 0.43 0.29 0.15 0.10 0.06 0.05 0.04 0.02 0.02 0.01 0.01 0.01 0.03 0.06 0.07
0.05 0.05 0.04 0.03 0.02 0.03 0.06 0.12 0.16 0.18 0.18 0.18 0.18 0.22 0.23 0.22 0.23 0.27 0.36 0.49 0.66 0.83 0.96 0.97 0.81 0.61 0.47 0.33 0.18 0.08 0.04 0.03 0.01 0.01 0.00 0.00 0.00 0.00 0.01 0.02 0.06 0.09 0.13
0.04 0.04 0.03 0.04 0.06 0.10 0.11 0.11 0.09 0.07 0.08 0.11 0.13 0.17 0.20 0.23 0.30 0.35 0.39 0.42 0.45 0.43 0.38 0.33 0.24 0.17 0.13 0.09 0.06 0.02 0.00 0.00 0.00 0.00 0.00 0.00 0.01 0.01 0.02 0.05 0.08 0.10 0.13
0.04 0.04 0.03 0.04 0.03 0.04 0.04 0.05 0.06 0.08 0.10 0.13 0.17 0.22 0.29 0.37 0.42 0.43 0.41 0.36 0.29 0.20 0.16 0.13 0.19 0.18 0.15 0.08 0.03 0.01 0.00 0.00 0.00 0.00 0.00 0.01 0.02 0.04 0.05 0.05 0.03 0.02 0.01
0.05 0.05 0.05 0.05 0.06 0.07 0.10 0.12 0.15 0.23 0.32 0.41 0.48 0.48 0.45 0.43 0.37 0.30 0.24 0.18 0.15 0.14 0.25 0.38 0.32 0.24 0.11 0.03 0.00 0.00 0.01 0.02 0.02 0.01 0.01 0.02 0.03 0.02 0.00 0.00 0.00 0.01 0.02
0.17 0.20 0.22 0.16 0.16 0.24 0.42 0.36 0.35 0.37 0.37 0.36 0.35 0.31 0.30 0.32 0.24 0.19 0.15 0.11 0.12 0.25 0.34 0.42 0.34 0.14 0.02 0.00 0.01 0.05 0.16 0.14 0.10 0.00 0.03 0.02 0.00 0.00 0.00 0.00 0.02 0.03 0.04
0.38 0.53 0.56 0.60 0.70 0.82 0.89 0.75 0.60 0.46 0.43 0.37 0.33 0.29 0.22 0.14 0.09 0.06 0.03 0.07 0.19 0.25 0.24 0.14 0.04 0.01 0.02 0.05 0.23 0.23 0.14 0.16 0.10 0.01 0.05 0.07 0.01 0.01 0.01 0.01 0.01 0.01 0.03
0.88 0.78 0.69 0.82 0.89 0.82 0.69 0.53 0.48 0.36 0.31 0.28 0.24 0.12 0.05 0.02 0.01 0.03 0.08 0.21 0.15 0.09 0.01 0.00 0.01 0.03 0.08 0.09 0.10 0.23 0.22 0.13 0.05 0.01 0.03 0.14 0.02 0.01 0.00 0.00 0.01 0.01 0.03
0.81 0.71 0.57 0.48 0.45 0.43 0.29 0.17 0.11 0.10 0.08 0.05 0.03 0.01 0.02 0.02 0.02 0.10 0.16 0.22 0.07 0.00 0.00 0.01 0.07 0.05 0.02 0.01 0.01 0.13 0.20 0.20 0.13 0.01 0.01 0.09 0.04 0.02 0.01 0.00 0.00 0.04 0.06
0.60 0.49 0.38 0.33 0.24 0.14 0.08 0.05 0.04 0.03 0.02 0.01 0.00 0.00 0.01 0.02 0.05 0.21 0.14 0.04 0.01 0.01 0.07 0.06 0.01 0.00 0.00 0.00 0.01 0.04 0.19 0.56 0.28 0.22 0.01 0.29 0.16 0.12 0.39 0.03 0.01 0.02 0.01

GFSMA_prec_precacc_060.txt.gz
Total_Precipitation_Accumulation
0.00 0.00 0.00 0.00 0.00 0.00 0.00 0.00 0.00 0.00 0.00 0.00 0.00 0.00 0.00 0.00 0.00 0.00 0.00 0.00 0.00 0.00 0.00 0.00 0.01 0.01 0.02 0.04 0.07 0.11 0.10 0.08 0.08 0.07 0.05 0.04 0.05 0.06 0.08 0.10 0.12 0.12 0.12
0.00 0.00 0.00 0.00 0.00 0.00 0.00 0.00 0.00 0.00 0.00 0.00 0.00 0.00 0.00 0.00 0.00 0.00 0.00 0.00 0.00 0.00 0.00 0.00 0.01 0.01 0.02 0.04 0.05 0.08 0.08 0.08 0.07 0.07 0.07 0.07 0.08 0.10 0.11 0.12 0.13 0.13 0.16
0.00 0.00 0.00 0.00 0.00 0.00 0.00 0.00 0.00 0.00 0.00 0.00 0.00 0.00 0.00 0.00 0.00 0.00 0.00 0.00 0.00 0.00 0.00 0.00 0.01 0.02 0.02 0.01 0.02 0.05 0.08 0.09 0.08 0.08 0.08 0.08 0.09 0.11 0.13 0.15 0.16 0.15 0.15
0.00 0.00 0.00 0.00 0.00 0.00 0.00 0.00 0.00 0.00 0.00 0.00 0.00 0.00 0.00 0.00 0.00 0.00 0.00 0.00 0.00 0.00 0.00 0.00 0.01 0.01 0.01 0.01 0.02 0.05 0.08 0.10 0.10 0.09 0.09 0.08 0.09 0.11 0.13 0.15 0.16 0.18 0.20
0.02 0.01 0.00 0.00 0.00 0.00 0.00 0.00 0.00 0.00 0.00 0.00 0.00 0.00 0.00 0.00 0.00 0.00 0.00 0.00 0.00 0.00 0.00 0.00 0.00 0.00 0.01 0.03 0.04 0.04 0.06 0.10 0.12 0.12 0.13 0.13 0.12 0.14 0.19 0.21 0.22 0.21 0.21
0.07 0.07 0.03 0.02 0.01 0.00 0.00 0.00 0.00 0.00 0.00 0.00 0.00 0.00 0.00 0.00 0.00 0.00 0.00 0.00 0.00 0.00 0.00 0.00 0.00 0.00 0.02 0.04 0.08 0.06 0.05 0.07 0.10 0.12 0.14 0.16 0.18 0.18 0.16 0.18 0.20 0.22 0.23
0.24 0.19 0.07 0.04 0.05 0.02 0.01 0.01 0.00 0.00 0.01 0.05 0.02 0.00 0.00 0.00 0.00 0.00 0.00 0.00 0.00 0.00 0.00 0.00 0.00 0.01 0.05 0.07 0.08 0.08 0.09 0.09 0.12 0.17 0.18 0.15 0.13 0.14 0.16 0.18 0.20 0.22 0.22
0.31 0.25 0.17 0.15 0.10 0.07 0.05 0.03 0.04 0.07 0.06 0.11 0.10 0.03 0.00 0.00 0.00 0.00 0.00 0.00 0.00 0.00 0.00 0.00 0.01 0.02 0.03 0.05 0.05 0.04 0.02 0.01 0.02 0.06 0.09 0.12 0.14 0.13 0.14 0.16 0.16 0.19 0.25
0.37 0.35 0.22 0.17 0.23 0.18 0.15 0.09 0.14 0.15 0.14 0.12 0.09 0.08 0.01 0.00 0.00 0.00 0.00 0.00 0.00 0.00 0.00 0.00 0.00 0.00 0.00 0.00 0.00 0.00 0.00 0.02 0.01 0.02 0.05 0.08 0.11 0.12 0.13 0.16 0.18 0.22 0.25
0.30 0.35 0.31 0.28 0.24 0.19 0.16 0.22 0.29 0.28 0.26 0.14 0.12 0.07 0.08 0.03 0.01 0.00 0.00 0.01 0.00 0.00 0.00 0.00 0.00 0.00 0.00 0.00 0.00 0.00 0.01 0.03 0.03 0.03 0.06 0.09 0.12 0.16 0.22 0.25 0.26 0.33 0.44
0.22 0.28 0.26 0.26 0.19 0.21 0.30 0.24 0.21 0.22 0.22 0.22 0.16 0.16 0.15 0.10 0.06 0.03 0.01 0.04 0.05 0.04 0.02 0.01 0.00 0.00 0.00 0.00 0.00 0.01 0.04 0.02 0.02 0.02 0.03 0.05 0.11 0.20 0.25 0.33 0.48 0.69 0.80
0.16 0.18 0.19 0.16 0.20 0.18 0.18 0.24 0.34 0.33 0.31 0.32 0.25 0.22 0.24 0.24 0.19 0.15 0.10 0.07 0.09 0.08 0.04 0.01 0.01 0.01 0.02 0.02 0.03 0.06 0.08 0.05 0.04 0.04 0.05 0.08 0.13 0.15 0.17 0.29 0.40 0.48 0.71
0.09 0.09 0.16 0.19 0.16 0.18 0.23 0.31 0.29 0.31 0.40 0.38 0.36 0.25 0.26 0.26 0.30 0.27 0.19 0.12 0.12 0.10 0.06 0.03 0.04 0.04 0.06 0.08 0.09 0.13 0.18 0.18 0.20 0.24 0.23 0.24 0.19 0.16 0.12 0.13 0.22 0.20 0.18
0.09 0.09 0.18 0.21 0.20 0.19 0.17 0.24 0.24 0.19 0.24 0.28 0.32 0.37 0.29 0.25 0.28 0.28 0.30 0.43 0.52 0.42 0.29 0.23 0.22 0.20 0.19 0.23 0.31 0.39 0.38 0.36 0.31 0.33 0.34 0.32 0.28 0.23 0.20 0.17 0.17 0.17 0.19
0.08 0.08 0.12 0.18 0.19 0.18 0.20 0.21 0.23 0.22 0.22 0.25 0.30 0.32 0.36 0.26 0.24 0.24 0.27 0.38 0.54 0.64 0.51 0.44 0.42 0.35 0.27 0.28 0.29 0.28 0.34 0.41 0.41 0.40 0.36 0.32 0.29 0.24 0.17 0.12 0.09 0.10 0.09
0.06 0.07 0.08 0.08 0.09 0.09 0.12 0.16 0.18 0.20 0.25 0.25 0.23 0.25 0.26 0.23 0.25 0.28 0.29 0.41 0.57 0.72 0.79 0.60 0.53 0.50 0.49 0.49 0.51 0.48 0.44 0.46 0.38 0.28 0.19 0.16 0.14 0.09 0.05 0.04 0.04 0.03 0.05
0.03 0.04 0.03 0.04 0.04 0.05 0.06 0.07 0.09 0.12 0.16 0.17 0.18 0.20 0.23 0.24 0.27 0.30 0.38 0.47 0.60 0.73 0.88 0.85 0.81 0.78 0.75 0.70 0.64 0.49 0.35 0.22 0.12 0.09 0.07 0.05 0.04 0.03 0.03 0.02 0.04 0.06 0.07
0.05 0.05 0.04 0.03 0.02 0.03 0.06 0.12 0.16 0.18 0.18 0.18 0.19 0.23 0.24 0.23 0.24 0.28 0.37 0.49 0.67 0.85 1.02 1.08 1.03 0.94 0.77 0.57 0.37 0.18 0.08 0.04 0.02 0.02 0.03 0.02 0.02 0.02 0.01 0.02 0.06 0.09 0.13
0.04 0.04 0.03 0.04 0.06 0.10 0.11 0.11 0.09 0.07 0.08 0.11 0.14 0.17 0.21 0.24 0.31 0.36 0.39 0.42 0.45 0.43 0.40 0.36 0.27 0.21 0.17 0.15 0.09 0.03 0.01 0.00 0.00 0.01 0.01 0.00 0.01 0.01 0.02 0.05 0.08 0.10 0.13
0.04 0.04 0.03 0.04 0.03 0.04 0.04 0.05 0.06 0.08 0.10 0.13 0.17 0.22 0.30 0.38 0.42 0.43 0.41 0.36 0.29 0.21 0.16 0.13 0.19 0.19 0.16 0.09 0.04 0.01 0.00 0.00 0.00 0.00 0.00 0.01 0.02 0.04 0.05 0.05 0.03 0.02 0.01
0.05 0.05 0.05 0.05 0.06 0.07 0.10 0.12 0.15 0.23 0.32 0.41 0.48 0.48 0.46 0.43 0.38 0.30 0.24 0.18 0.15 0.15 0.26 0.38 0.32 0.25 0.12 0.03 0.00 0.00 0.01 0.02 0.02 0.01 0.01 0.02 0.03 0.02 0.00 0.00 0.00 0.01 0.02
0.17 0.20 0.22 0.16 0.16 0.24 0.42 0.36 0.35 0.37 0.37 0.36 0.35 0.31 0.30 0.33 0.25 0.20 0.16 0.12 0.12 0.25 0.34 0.42 0.34 0.14 0.02 0.00 0.01 0.05 0.16 0.14 0.10 0.00 0.03 0.02 0.00 0.00 0.00 0.00 0.02 0.03 0.04
0.38 0.53 0.56 0.60 0.70 0.82 0.90 0.75 0.60 0.46 0.43 0.37 0.33 0.29 0.22 0.14 0.09 0.06 0.04 0.07 0.19 0.25 0.24 0.14 0.04 0.01 0.02 0.05 0.23 0.23 0.14 0.16 0.10 0.01 0.05 0.07 0.01 0.01 0.01 0.01 0.01 0.01 0.03
0.88 0.78 0.69 0.82 0.89 0.82 0.69 0.53 0.48 0.36 0.31 0.28 0.24 0.12 0.05 0.02 0.01 0.03 0.08 0.21 0.15 0.09 0.01 0.00 0.01 0.03 0.08 0.09 0.10 0.23 0.22 0.13 0.05 0.01 0.03 0.14 0.02 0.01 0.00 0.00 0.01 0.01 0.03
0.81 0.71 0.57 0.48 0.45 0.43 0.29 0.17 0.11 0.10 0.08 0.05 0.03 0.01 0.02 0.02 0.02 0.10 0.16 0.22 0.07 0.00 0.00 0.01 0.07 0.05 0.02 0.01 0.01 0.13 0.20 0.20 0.13 0.01 0.01 0.09 0.04 0.02 0.01 0.00 0.00 0.04 0.06
0.60 0.49 0.38 0.33 0.24 0.14 0.08 0.05 0.04 0.03 0.02 0.01 0.00 0.00 0.01 0.02 0.05 0.21 0.14 0.04 0.01 0.01 0.07 0.06 0.01 0.00 0.00 0.00 0.01 0.04 0.19 0.56 0.28 0.22 0.01 0.29 0.16 0.12 0.39 0.03 0.01 0.02 0.01

GFSMA_prec_precacc_063.txt.gz
Total_Precipitation_Accumulation
0.00 0.00 0.00 0.00 0.00 0.00 0.00 0.00 0.00 0.00 0.00 0.00 0.00 0.00 0.00 0.00 0.00 0.00 0.00 0.00 0.00 0.00 0.00 0.00 0.01 0.01 0.02 0.04 0.07 0.11 0.10 0.08 0.08 0.07 0.05 0.04 0.05 0.06 0.08 0.10 0.12 0.12 0.12
0.00 0.00 0.00 0.00 0.00 0.00 0.00 0.00 0.00 0.00 0.00 0.00 0.00 0.00 0.00 0.00 0.00 0.00 0.00 0.00 0.00 0.00 0.00 0.00 0.01 0.01 0.02 0.04 0.05 0.08 0.08 0.08 0.07 0.07 0.07 0.07 0.08 0.10 0.11 0.12 0.13 0.13 0.16
0.00 0.00 0.00 0.00 0.00 0.00 0.00 0.00 0.00 0.00 0.00 0.00 0.00 0.00 0.00 0.00 0.00 0.00 0.00 0.00 0.00 0.00 0.00 0.00 0.01 0.02 0.02 0.01 0.02 0.05 0.08 0.09 0.08 0.08 0.08 0.08 0.09 0.11 0.13 0.15 0.16 0.15 0.15
0.00 0.00 0.00 0.00 0.00 0.00 0.00 0.00 0.00 0.00 0.00 0.00 0.00 0.00 0.00 0.00 0.00 0.00 0.00 0.00 0.00 0.00 0.00 0.00 0.01 0.01 0.01 0.01 0.02 0.05 0.08 0.10 0.10 0.09 0.09 0.08 0.09 0.11 0.13 0.15 0.16 0.18 0.20
0.02 0.01 0.00 0.00 0.00 0.00 0.00 0.00 0.00 0.00 0.00 0.00 0.00 0.00 0.00 0.00 0.00 0.00 0.00 0.00 0.00 0.00 0.00 0.00 0.00 0.00 0.01 0.03 0.04 0.04 0.06 0.10 0.12 0.12 0.13 0.13 0.12 0.14 0.19 0.21 0.22 0.21 0.21
0.07 0.07 0.03 0.02 0.01 0.00 0.00 0.00 0.00 0.00 0.00 0.00 0.00 0.00 0.00 0.00 0.00 0.00 0.00 0.00 0.00 0.00 0.00 0.00 0.00 0.00 0.02 0.04 0.08 0.06 0.05 0.07 0.10 0.12 0.14 0.16 0.18 0.18 0.16 0.18 0.20 0.22 0.23
0.26 0.21 0.09 0.07 0.07 0.04 0.03 0.01 0.00 0.00 0.01 0.05 0.03 0.00 0.00 0.00 0.00 0.00 0.00 0.00 0.00 0.00 0.00 0.00 0.00 0.01 0.05 0.07 0.08 0.08 0.09 0.09 0.12 0.17 0.18 0.15 0.13 0.14 0.16 0.18 0.20 0.22 0.22
0.33 0.27 0.19 0.16 0.10 0.07 0.06 0.04 0.05 0.08 0.07 0.14 0.14 0.05 0.00 0.00 0.00 0.00 0.00 0.00 0.00 0.00 0.00 0.00 0.01 0.02 0.03 0.05 0.05 0.04 0.02 0.01 0.02 0.06 0.09 0.12 0.14 0.13 0.14 0.16 0.16 0.19 0.25
0.37 0.35 0.22 0.17 0.23 0.18 0.15 0.09 0.14 0.16 0.16 0.14 0.12 0.13 0.03 0.00 0.00 0.00 0.00 0.00 0.00 0.00 0.00 0.01 0.01 0.01 0.01 0.00 0.00 0.00 0.00 0.02 0.01 0.02 0.05 0.08 0.11 0.12 0.13 0.16 0.18 0.22 0.25
0.30 0.35 0.31 0.28 0.24 0.19 0.16 0.22 0.29 0.28 0.26 0.15 0.14 0.09 0.11 0.05 0.03 0.01 0.00 0.01 0.01 0.01 0.02 0.03 0.03 0.02 0.01 0.00 0.00 0.00 0.01 0.03 0.03 0.03 0.06 0.09 0.12 0.16 0.22 0.25 0.26 0.33 0.44
0.22 0.28 0.26 0.26 0.19 0.21 0.30 0.24 0.21 0.22 0.22 0.23 0.16 0.17 0.16 0.11 0.08 0.04 0.02 0.04 0.05 0.06 0.05 0.04 0.02 0.01 0.01 0.01 0.03 0.04 0.06 0.04 0.04 0.03 0.03 0.05 0.11 0.21 0.28 0.36 0.51 0.71 0.82
0.16 0.18 0.19 0.16 0.20 0.18 0.18 0.24 0.35 0.34 0.32 0.33 0.26 0.23 0.26 0.26 0.21 0.18 0.13 0.09 0.11 0.11 0.08 0.05 0.03 0.02 0.02 0.04 0.09 0.16 0.18 0.16 0.19 0.24 0.22 0.21 0.27 0.28 0.31 0.43 0.55 0.64 0.85
0.09 0.09 0.16 0.19 0.16 0.18 0.23 0.31 0.29 0.32 0.40 0.38 0.36 0.26 0.27 0.27 0.32 0.30 0.24 0.15 0.14 0.11 0.08 0.06 0.06 0.07 0.09 0.11 0.15 0.26 0.35 0.41 0.47 0.53 0.54 0.54 0.48 0.38 0.32 0.31 0.39 0.39 0.37
0.09 0.09 0.18 0.21 0.20 0.19 0.17 0.24 0.24 0.19 0.24 0.28 0.32 0.37 0.30 0.26 0.28 0.29 0.33 0.48 0.56 0.43 0.30 0.25 0.25 0.28 0.32 0.37 0.48 0.60 0.60 0.65 0.62 0.68 0.69 0.64 0.50 0.37 0.31 0.28 0.28 0.32 0.38
0.08 0.08 0.12 0.18 0.19 0.18 0.20 0.21 0.23 0.22 0.22 0.25 0.30 0.32 0.36 0.26 0.25 0.25 0.28 0.39 0.58 0.69 0.53 0.46 0.48 0.48 0.46 0.46 0.50 0.53 0.57 0.68 0.65 0.57 0.53 0.51 0.44 0.35 0.29 0.22 0.18 0.19 0.18
0.06 0.07 0.08 0.08 0.09 0.09 0.12 0.16 0.18 0.20 0.25 0.25 0.23 0.25 0.26 0.23 0.25 0.28 0.31 0.43 0.59 0.75 0.81 0.61 0.54 0.55 0.60 0.66 0.73 0.68 0.66 0.73 0.63 0.52 0.41 0.31 0.22 0.15 0.10 0.08 0.07 0.07 0.08
0.03 0.04 0.03 0.04 0.04 0.05 0.06 0.07 0.09 0.12 0.16 0.17 0.18 0.20 0.23 0.24 0.28 0.31 0.38 0.48 0.60 0.74 0.88 0.86 0.81 0.79 0.80 0.79 0.71 0.56 0.49 0.38 0.26 0.21 0.15 0.10 0.07 0.06 0.06 0.05 0.07 0.08 0.08
0.05 0.05 0.04 0.03 0.02 0.03 0.06 0.12 0.16 0.18 0.18 0.18 0.19 0.23 0.24 0.23 0.24 0.28 0.38 0.50 0.67 0.85 1.02 1.08 1.03 0.94 0.79 0.61 0.41 0.25 0.16 0.10 0.05 0.07 0.06 0.04 0.05 0.04 0.03 0.04 0.07 0.09 0.13
0.04 0.04 0.03 0.04 0.06 0.10 0.11 0.11 0.09 0.07 0.08 0.11 0.14 0.17 0.21 0.24 0.32 0.36 0.39 0.42 0.45 0.43 0.40 0.36 0.27 0.22 0.20 0.18 0.12 0.06 0.03 0.02 0.02 0.03 0.03 0.02 0.03 0.02 0.02 0.05 0.08 0.10 0.13
0.04 0.04 0.03 0.04 0.03 0.04 0.04 0.05 0.06 0.08 0.10 0.13 0.17 0.22 0.30 0.38 0.43 0.43 0.41 0.36 0.29 0.21 0.16 0.14 0.20 0.19 0.16 0.09 0.05 0.02 0.01 0.01 0.00 0.00 0.00 0.01 0.02 0.04 0.05 0.05 0.03 0.02 0.01
0.05 0.05 0.05 0.05 0.06 0.07 0.10 0.12 0.15 0.23 0.32 0.41 0.48 0.48 0.46 0.44 0.38 0.31 0.24 0.18 0.15 0.15 0.26 0.38 0.32 0.25 0.12 0.03 0.01 0.00 0.02 0.02 0.02 0.01 0.01 0.02 0.03 0.02 0.00 0.00 0.00 0.01 0.02
0.17 0.20 0.22 0.16 0.16 0.24 0.43 0.37 0.35 0.37 0.37 0.36 0.35 0.31 0.30 0.33 0.25 0.21 0.16 0.12 0.12 0.25 0.34 0.42 0.34 0.14 0.02 0.00 0.01 0.05 0.16 0.14 0.10 0.00 0.03 0.02 0.00 0.00 0.00 0.00 0.02 0.03 0.04
0.38 0.53 0.56 0.60 0.70 0.82 0.90 0.75 0.60 0.46 0.43 0.37 0.33 0.29 0.22 0.14 0.09 0.06 0.04 0.07 0.19 0.25 0.24 0.14 0.04 0.01 0.02 0.05 0.23 0.23 0.14 0.16 0.10 0.01 0.05 0.07 0.01 0.01 0.01 0.01 0.01 0.01 0.03
0.88 0.78 0.69 0.82 0.89 0.82 0.69 0.53 0.48 0.36 0.31 0.28 0.24 0.12 0.05 0.02 0.01 0.03 0.08 0.21 0.15 0.09 0.01 0.00 0.01 0.03 0.08 0.09 0.10 0.23 0.22 0.13 0.05 0.01 0.03 0.14 0.02 0.01 0.00 0.00 0.01 0.01 0.03
0.81 0.71 0.57 0.48 0.45 0.43 0.29 0.17 0.11 0.10 0.08 0.05 0.03 0.01 0.02 0.02 0.02 0.10 0.16 0.22 0.07 0.00 0.00 0.01 0.07 0.05 0.02 0.01 0.01 0.13 0.20 0.20 0.13 0.01 0.01 0.09 0.04 0.02 0.01 0.00 0.00 0.04 0.06
0.60 0.49 0.38 0.33 0.24 0.14 0.08 0.05 0.04 0.03 0.02 0.01 0.00 0.00 0.01 0.02 0.05 0.21 0.14 0.04 0.01 0.01 0.07 0.06 0.01 0.00 0.00 0.00 0.01 0.04 0.19 0.56 0.28 0.22 0.01 0.29 0.16 0.12 0.39 0.03 0.01 0.02 0.01

GFSMA_prec_precacc_066.txt.gz
Total_Precipitation_Accumulation
0.00 0.00 0.00 0.00 0.00 0.00 0.00 0.00 0.00 0.00 0.00 0.00 0.00 0.00 0.00 0.00 0.00 0.00 0.00 0.00 0.00 0.00 0.00 0.00 0.01 0.01 0.02 0.04 0.07 0.11 0.10 0.08 0.08 0.07 0.05 0.04 0.05 0.06 0.08 0.10 0.12 0.12 0.12
0.00 0.00 0.00 0.00 0.00 0.00 0.00 0.00 0.00 0.00 0.00 0.00 0.00 0.00 0.00 0.00 0.00 0.00 0.00 0.00 0.00 0.00 0.00 0.00 0.01 0.01 0.02 0.04 0.05 0.08 0.08 0.08 0.07 0.07 0.07 0.07 0.08 0.10 0.11 0.12 0.13 0.13 0.16
0.00 0.00 0.00 0.00 0.00 0.00 0.00 0.00 0.00 0.00 0.00 0.00 0.00 0.00 0.00 0.00 0.00 0.00 0.00 0.00 0.00 0.00 0.00 0.00 0.01 0.02 0.02 0.01 0.02 0.05 0.08 0.09 0.08 0.08 0.08 0.08 0.09 0.11 0.13 0.15 0.16 0.15 0.15
0.00 0.00 0.00 0.00 0.00 0.00 0.00 0.00 0.00 0.00 0.00 0.00 0.00 0.00 0.00 0.00 0.00 0.00 0.00 0.00 0.00 0.00 0.00 0.00 0.01 0.01 0.01 0.01 0.02 0.05 0.08 0.10 0.10 0.09 0.09 0.08 0.09 0.11 0.13 0.15 0.16 0.18 0.20
0.02 0.01 0.00 0.00 0.00 0.00 0.00 0.00 0.00 0.00 0.00 0.00 0.00 0.00 0.00 0.00 0.00 0.00 0.00 0.00 0.00 0.00 0.00 0.00 0.00 0.00 0.01 0.03 0.04 0.04 0.06 0.10 0.12 0.12 0.13 0.13 0.12 0.14 0.19 0.21 0.22 0.21 0.21
0.07 0.07 0.03 0.02 0.01 0.00 0.00 0.00 0.00 0.00 0.00 0.00 0.00 0.00 0.00 0.00 0.00 0.00 0.00 0.00 0.00 0.00 0.00 0.00 0.00 0.00 0.02 0.04 0.08 0.06 0.05 0.07 0.10 0.12 0.14 0.16 0.18 0.18 0.16 0.18 0.20 0.22 0.23
0.26 0.21 0.09 0.07 0.08 0.04 0.04 0.02 0.01 0.00 0.01 0.05 0.03 0.00 0.00 0.00 0.00 0.00 0.00 0.01 0.01 0.01 0.01 0.01 0.01 0.02 0.05 0.07 0.08 0.08 0.09 0.09 0.13 0.17 0.18 0.15 0.13 0.14 0.16 0.18 0.20 0.22 0.22
0.33 0.27 0.20 0.17 0.11 0.08 0.06 0.04 0.05 0.08 0.07 0.14 0.14 0.05 0.00 0.00 0.00 0.00 0.00 0.00 0.00 0.00 0.01 0.01 0.02 0.03 0.04 0.05 0.06 0.04 0.02 0.02 0.02 0.06 0.09 0.12 0.14 0.13 0.14 0.16 0.16 0.19 0.25
0.37 0.35 0.22 0.17 0.23 0.18 0.15 0.09 0.14 0.16 0.16 0.14 0.12 0.15 0.03 0.00 0.00 0.00 0.00 0.00 0.00 0.00 0.00 0.02 0.02 0.02 0.01 0.01 0.01 0.01 0.01 0.02 0.02 0.03 0.06 0.08 0.11 0.12 0.13 0.16 0.18 0.23 0.25
0.30 0.35 0.31 0.28 0.24 0.19 0.16 0.22 0.29 0.28 0.27 0.15 0.14 0.10 0.11 0.05 0.03 0.01 0.00 0.01 0.01 0.01 0.02 0.03 0.03 0.03 0.02 0.01 0.01 0.01 0.02 0.04 0.06 0.07 0.14 0.15 0.13 0.16 0.22 0.25 0.26 0.33 0.45
0.22 0.28 0.26 0.26 0.19 0.21 0.30 0.24 0.21 0.22 0.22 0.23 0.16 0.18 0.16 0.11 0.08 0.05 0.02 0.04 0.06 0.06 0.05 0.04 0.02 0.01 0.01 0.01 0.03 0.08 0.15 0.17 0.20 0.21 0.21 0.25 0.27 0.30 0.31 0.37 0.52 0.73 0.85
0.16 0.18 0.19 0.16 0.20 0.18 0.18 0.24 0.35 0.34 0.32 0.33 0.27 0.24 0.26 0.27 0.22 0.18 0.13 0.09 0.11 0.11 0.08 0.05 0.03 0.02 0.03 0.04 0.09 0.18 0.27 0.34 0.42 0.51 0.58 0.63 0.62 0.55 0.56 0.65 0.71 0.76 0.96
0.09 0.09 0.16 0.19 0.16 0.18 0.23 0.31 0.29 0.32 0.41 0.38 0.37 0.27 0.27 0.28 0.33 0.31 0.25 0.15 0.14 0.11 0.08 0.06 0.06 0.07 0.09 0.11 0.16 0.27 0.42 0.57 0.66 0.75 0.85 0.94 0.83 0.65 0.56 0.52 0.58 0.55 0.49
0.09 0.09 0.18 0.21 0.20 0.19 0.17 0.24 0.24 0.19 0.25 0.28 0.32 0.37 0.30 0.26 0.29 0.30 0.33 0.49 0.56 0.43 0.30 0.25 0.25 0.28 0.32 0.37 0.48 0.60 0.61 0.69 0.73 0.84 0.94 0.96 0.80 0.55 0.44 0.39 0.39 0.42 0.45
0.08 0.08 0.12 0.18 0.19 0.18 0.20 0.21 0.23 0.22 0.22 0.25 0.31 0.32 0.37 0.27 0.25 0.25 0.28 0.39 0.59 0.70 0.54 0.46 0.48 0.48 0.46 0.46 0.50 0.53 0.58 0.74 0.81 0.80 0.78 0.76 0.71 0.58 0.45 0.34 0.27 0.24 0.24
0.06 0.07 0.08 0.08 0.09 0.09 0.12 0.16 0.18 0.20 0.25 0.25 0.23 0.25 0.26 0.23 0.25 0.28 0.31 0.43 0.59 0.76 0.81 0.61 0.54 0.55 0.60 0.66 0.73 0.68 0.67 0.78 0.78 0.79 0.71 0.61 0.52 0.36 0.23 0.16 0.10 0.09 0.10
0.03 0.04 0.03 0.04 0.04 0.05 0.06 0.07 0.09 0.12 0.16 0.17 0.18 0.20 0.23 0.24 0.28 0.31 0.38 0.48 0.61 0.74 0.88 0.86 0.81 0.79 0.80 0.80 0.73 0.57 0.50 0.41 0.37 0.40 0.34 0.24 0.17 0.12 0.10 0.09 0.10 0.11 0.11
0.05 0.05 0.04 0.03 0.02 0.03 0.06 0.12 0.16 0.18 0.18 0.18 0.19 0.23 0.24 0.23 0.25 0.29 0.38 0.50 0.67 0.85 1.02 1.08 1.03 0.94 0.79 0.61 0.43 0.26 0.17 0.11 0.07 0.11 0.09 0.07 0.08 0.07 0.05 0.06 0.10 0.11 0.13
0.04 0.04 0.03 0.04 0.06 0.10 0.11 0.11 0.09 0.07 0.08 0.11 0.14 0.17 0.21 0.24 0.32 0.36 0.39 0.42 0.45 0.44 0.40 0.36 0.27 0.22 0.20 0.18 0.13 0.06 0.04 0.02 0.02 0.05 0.05 0.03 0.04 0.03 0.03 0.05 0.09 0.10 0.13
0.04 0.04 0.03 0.04 0.03 0.04 0.04 0.05 0.06 0.08 0.10 0.13 0.17 0.23 0.30 0.38 0.43 0.43 0.41 0.36 0.29 0.21 0.16 0.14 0.20 0.19 0.16 0.09 0.05 0.02 0.02 0.01 0.01 0.00 0.02 0.01 0.02 0.04 0.05 0.05 0.03 0.02 0.01
0.05 0.05 0.05 0.05 0.06 0.07 0.10 0.12 0.15 0.23 0.32 0.41 0.48 0.48 0.46 0.44 0.39 0.31 0.24 0.18 0.15 0.15 0.26 0.38 0.32 0.25 0.12 0.03 0.01 0.01 0.02 0.02 0.02 0.01 0.01 0.02 0.03 0.02 0.00 0.00 0.00 0.01 0.02
0.17 0.20 0.22 0.16 0.16 0.24 0.43 0.37 0.35 0.37 0.37 0.36 0.35 0.31 0.30 0.33 0.25 0.21 0.16 0.12 0.12 0.25 0.34 0.42 0.34 0.14 0.02 0.00 0.01 0.05 0.16 0.14 0.10 0.00 0.03 0.02 0.00 0.00 0.00 0.00 0.02 0.03 0.04
0.38 0.53 0.56 0.60 0.70 0.82 0.90 0.75 0.60 0.46 0.43 0.37 0.33 0.29 0.22 0.14 0.09 0.06 0.04 0.07 0.19 0.25 0.24 0.14 0.04 0.01 0.02 0.05 0.23 0.23 0.14 0.16 0.10 0.01 0.05 0.07 0.01 0.01 0.01 0.01 0.01 0.01 0.03
0.88 0.78 0.69 0.82 0.89 0.82 0.69 0.53 0.48 0.36 0.31 0.28 0.24 0.12 0.05 0.02 0.01 0.03 0.08 0.21 0.15 0.09 0.01 0.00 0.01 0.03 0.08 0.09 0.10 0.23 0.22 0.13 0.05 0.01 0.03 0.14 0.02 0.01 0.00 0.00 0.01 0.01 0.03
0.81 0.71 0.57 0.48 0.45 0.43 0.29 0.17 0.11 0.10 0.08 0.05 0.03 0.01 0.02 0.02 0.02 0.10 0.16 0.22 0.07 0.00 0.00 0.01 0.07 0.05 0.02 0.01 0.01 0.13 0.20 0.20 0.13 0.01 0.01 0.09 0.04 0.02 0.01 0.00 0.00 0.04 0.06
0.60 0.49 0.38 0.33 0.24 0.14 0.08 0.05 0.04 0.03 0.02 0.01 0.00 0.00 0.01 0.02 0.05 0.21 0.14 0.04 0.01 0.01 0.07 0.06 0.01 0.00 0.00 0.00 0.01 0.04 0.19 0.56 0.28 0.22 0.01 0.29 0.16 0.12 0.39 0.03 0.01 0.02 0.01

GFSMA_prec_precacc_069.txt.gz
Total_Precipitation_Accumulation
0.00 0.00 0.00 0.00 0.00 0.00 0.00 0.00 0.00 0.00 0.00 0.00 0.00 0.00 0.00 0.00 0.00 0.00 0.00 0.00 0.00 0.00 0.00 0.00 0.01 0.01 0.02 0.04 0.07 0.11 0.10 0.08 0.08 0.07 0.05 0.04 0.05 0.06 0.08 0.10 0.12 0.12 0.12
0.00 0.00 0.00 0.00 0.00 0.00 0.00 0.00 0.00 0.00 0.00 0.00 0.00 0.00 0.00 0.00 0.00 0.00 0.00 0.00 0.00 0.00 0.00 0.00 0.01 0.01 0.02 0.04 0.05 0.08 0.08 0.08 0.07 0.07 0.07 0.07 0.08 0.10 0.11 0.12 0.13 0.13 0.16
0.00 0.00 0.00 0.00 0.00 0.00 0.00 0.00 0.00 0.00 0.00 0.00 0.00 0.00 0.00 0.00 0.00 0.00 0.00 0.00 0.00 0.00 0.00 0.00 0.01 0.02 0.02 0.01 0.02 0.05 0.08 0.09 0.08 0.08 0.08 0.08 0.09 0.11 0.13 0.15 0.16 0.15 0.15
0.00 0.00 0.00 0.00 0.00 0.00 0.00 0.00 0.00 0.00 0.00 0.00 0.00 0.00 0.00 0.00 0.00 0.00 0.00 0.00 0.00 0.00 0.00 0.00 0.01 0.01 0.01 0.01 0.02 0.05 0.08 0.10 0.10 0.09 0.09 0.08 0.09 0.11 0.13 0.15 0.16 0.18 0.20
0.02 0.01 0.00 0.00 0.00 0.00 0.00 0.00 0.00 0.00 0.00 0.00 0.00 0.00 0.00 0.00 0.00 0.00 0.00 0.00 0.00 0.00 0.00 0.00 0.00 0.00 0.01 0.03 0.04 0.04 0.06 0.10 0.12 0.12 0.13 0.13 0.12 0.14 0.19 0.21 0.22 0.21 0.21
0.07 0.07 0.03 0.02 0.01 0.00 0.00 0.00 0.00 0.00 0.00 0.00 0.00 0.00 0.00 0.00 0.00 0.00 0.00 0.00 0.01 0.01 0.00 0.01 0.00 0.00 0.02 0.04 0.08 0.06 0.05 0.08 0.10 0.12 0.14 0.16 0.18 0.18 0.16 0.18 0.20 0.22 0.23
0.26 0.21 0.09 0.07 0.08 0.04 0.04 0.02 0.01 0.00 0.01 0.05 0.03 0.00 0.00 0.00 0.00 0.00 0.00 0.01 0.01 0.02 0.01 0.01 0.01 0.02 0.05 0.07 0.08 0.08 0.09 0.09 0.14 0.18 0.18 0.15 0.13 0.14 0.16 0.18 0.20 0.22 0.22
0.34 0.27 0.20 0.17 0.11 0.08 0.06 0.04 0.05 0.08 0.07 0.14 0.14 0.05 0.00 0.00 0.00 0.00 0.00 0.00 0.00 0.00 0.01 0.01 0.02 0.03 0.04 0.05 0.06 0.04 0.02 0.02 0.03 0.09 0.11 0.13 0.14 0.13 0.14 0.16 0.16 0.19 0.25
0.37 0.35 0.22 0.17 0.23 0.18 0.15 0.09 0.14 0.16 0.16 0.14 0.12 0.15 0.03 0.00 0.00 0.00 0.00 0.00 0.00 0.00 0.00 0.02 0.02 0.02 0.01 0.01 0.01 0.01 0.01 0.02 0.02 0.04 0.13 0.16 0.14 0.13 0.13 0.16 0.18 0.23 0.26
0.30 0.35 0.31 0.28 0.24 0.19 0.16 0.22 0.29 0.28 0.27 0.16 0.14 0.10 0.11 0.05 0.03 0.01 0.00 0.01 0.01 0.01 0.02 0.03 0.03 0.03 0.02 0.01 0.01 0.01 0.02 0.05 0.07 0.10 0.17 0.33 0.46 0.29 0.24 0.26 0.27 0.34 0.46
0.22 0.28 0.26 0.26 0.19 0.21 0.30 0.24 0.21 0.22 0.22 0.24 0.16 0.18 0.16 0.11 0.08 0.05 0.02 0.04 0.06 0.06 0.05 0.04 0.02 0.01 0.01 0.01 0.03 0.08 0.15 0.18 0.21 0.25 0.31 0.43 0.71 0.79 0.48 0.43 0.58 0.79 0.91
0.16 0.18 0.19 0.16 0.20 0.18 0.18 0.24 0.35 0.34 0.32 0.33 0.27 0.24 0.26 0.27 0.22 0.18 0.13 0.09 0.11 0.11 0.08 0.05 0.03 0.02 0.03 0.04 0.09 0.18 0.27 0.34 0.42 0.55 0.68 0.77 0.88 0.99 0.95 0.92 0.93 0.94 1.09
0.09 0.09 0.16 0.19 0.16 0.18 0.23 0.31 0.29 0.32 0.41 0.39 0.38 0.27 0.28 0.28 0.33 0.31 0.25 0.16 0.14 0.11 0.08 0.06 0.06 0.07 0.09 0.11 0.16 0.27 0.42 0.57 0.66 0.77 0.92 1.08 1.06 0.79 0.68 0.72 0.82 0.78 0.69
0.09 0.09 0.18 0.21 0.20 0.19 0.17 0.24 0.24 0.20 0.25 0.29 0.33 0.38 0.31 0.26 0.29 0.30 0.34 0.49 0.57 0.43 0.30 0.25 0.25 0.28 0.32 0.37 0.48 0.60 0.61 0.69 0.73 0.85 0.99 1.08 1.09 0.80 0.50 0.48 0.57 0.65 0.69
0.08 0.08 0.12 0.18 0.19 0.18 0.20 0.21 0.23 0.22 0.22 0.25 0.31 0.32 0.37 0.27 0.25 0.25 0.28 0.39 0.59 0.70 0.54 0.46 0.48 0.48 0.46 0.46 0.50 0.53 0.58 0.74 0.82 0.82 0.84 0.91 1.03 1.00 0.61 0.47 0.42 0.43 0.42
0.06 0.07 0.08 0.08 0.09 0.09 0.12 0.16 0.18 0.20 0.25 0.25 0.23 0.25 0.26 0.23 0.25 0.28 0.31 0.43 0.59 0.76 0.81 0.61 0.54 0.55 0.60 0.66 0.73 0.68 0.67 0.78 0.79 0.80 0.76 0.69 0.68 0.56 0.41 0.37 0.31 0.23 0.20
0.03 0.04 0.03 0.04 0.04 0.05 0.06 0.07 0.09 0.12 0.16 0.17 0.18 0.20 0.23 0.24 0.28 0.31 0.38 0.48 0.61 0.74 0.88 0.86 0.81 0.79 0.80 0.80 0.73 0.57 0.50 0.41 0.38 0.42 0.38 0.31 0.24 0.22 0.19 0.18 0.17 0.17 0.16
0.05 0.05 0.04 0.03 0.02 0.03 0.06 0.12 0.16 0.18 0.18 0.18 0.19 0.23 0.24 0.23 0.25 0.29 0.38 0.50 0.67 0.85 1.02 1.08 1.03 0.94 0.79 0.61 0.43 0.26 0.17 0.11 0.07 0.12 0.10 0.08 0.09 0.09 0.07 0.08 0.11 0.12 0.14
0.04 0.04 0.03 0.04 0.06 0.10 0.11 0.11 0.09 0.07 0.08 0.11 0.14 0.17 0.21 0.24 0.32 0.36 0.39 0.42 0.45 0.44 0.40 0.36 0.27 0.22 0.20 0.18 0.13 0.06 0.04 0.02 0.02 0.05 0.05 0.03 0.04 0.03 0.04 0.05 0.09 0.10 0.13
0.04 0.04 0.03 0.04 0.03 0.04 0.04 0.05 0.06 0.08 0.10 0.13 0.17 0.23 0.30 0.38 0.43 0.43 0.41 0.36 0.29 0.21 0.16 0.14 0.20 0.19 0.16 0.09 0.05 0.02 0.02 0.01 0.01 0.00 0.02 0.01 0.02 0.04 0.05 0.05 0.03 0.02 0.01
0.05 0.05 0.05 0.05 0.06 0.07 0.10 0.12 0.15 0.23 0.32 0.41 0.48 0.48 0.46 0.44 0.39 0.31 0.24 0.18 0.15 0.15 0.26 0.38 0.32 0.25 0.12 0.03 0.01 0.01 0.02 0.02 0.02 0.01 0.01 0.02 0.03 0.02 0.00 0.00 0.00 0.01 0.02
0.17 0.20 0.22 0.16 0.16 0.24 0.43 0.37 0.35 0.37 0.37 0.36 0.35 0.31 0.30 0.33 0.25 0.21 0.16 0.12 0.12 0.25 0.34 0.42 0.34 0.14 0.02 0.00 0.01 0.05 0.16 0.14 0.10 0.00 0.03 0.02 0.00 0.00 0.00 0.00 0.02 0.03 0.04
0.38 0.53 0.56 0.60 0.70 0.82 0.90 0.75 0.60 0.46 0.43 0.37 0.33 0.29 0.22 0.14 0.09 0.06 0.04 0.07 0.19 0.25 0.24 0.14 0.04 0.01 0.02 0.05 0.23 0.23 0.14 0.16 0.10 0.01 0.05 0.07 0.01 0.01 0.01 0.01 0.01 0.01 0.03
0.88 0.78 0.69 0.82 0.89 0.82 0.69 0.53 0.48 0.36 0.31 0.28 0.24 0.12 0.05 0.02 0.01 0.03 0.08 0.21 0.15 0.09 0.01 0.00 0.01 0.03 0.08 0.09 0.10 0.23 0.22 0.13 0.05 0.01 0.03 0.14 0.02 0.01 0.00 0.00 0.01 0.01 0.03
0.81 0.71 0.57 0.48 0.45 0.43 0.29 0.17 0.11 0.10 0.08 0.05 0.03 0.01 0.02 0.02 0.02 0.10 0.16 0.22 0.07 0.00 0.00 0.01 0.07 0.05 0.02 0.01 0.01 0.13 0.20 0.20 0.13 0.01 0.01 0.09 0.04 0.02 0.01 0.00 0.00 0.04 0.06
0.60 0.49 0.38 0.33 0.24 0.14 0.08 0.05 0.04 0.03 0.02 0.01 0.00 0.00 0.01 0.02 0.05 0.21 0.14 0.04 0.01 0.01 0.07 0.06 0.01 0.00 0.00 0.00 0.01 0.04 0.19 0.56 0.28 0.22 0.01 0.29 0.16 0.12 0.39 0.03 0.01 0.02 0.01

GFSMA_prec_precacc_072.txt.gz
Total_Precipitation_Accumulation
0.00 0.00 0.00 0.00 0.00 0.00 0.00 0.00 0.00 0.00 0.00 0.00 0.00 0.00 0.00 0.00 0.00 0.00 0.00 0.00 0.00 0.00 0.00 0.00 0.01 0.01 0.02 0.04 0.07 0.11 0.10 0.08 0.08 0.07 0.05 0.04 0.05 0.06 0.08 0.10 0.12 0.12 0.12
0.00 0.00 0.00 0.00 0.00 0.00 0.00 0.00 0.00 0.00 0.00 0.00 0.00 0.00 0.00 0.00 0.00 0.00 0.00 0.00 0.00 0.00 0.00 0.00 0.01 0.01 0.02 0.04 0.05 0.08 0.08 0.08 0.07 0.07 0.07 0.07 0.08 0.10 0.11 0.12 0.13 0.13 0.16
0.00 0.00 0.00 0.00 0.00 0.00 0.00 0.00 0.00 0.00 0.00 0.00 0.00 0.00 0.00 0.00 0.00 0.00 0.00 0.00 0.00 0.00 0.00 0.00 0.01 0.02 0.02 0.01 0.02 0.05 0.08 0.09 0.08 0.08 0.08 0.08 0.09 0.11 0.13 0.15 0.16 0.15 0.15
0.00 0.00 0.00 0.00 0.00 0.00 0.00 0.00 0.00 0.00 0.00 0.00 0.00 0.00 0.00 0.00 0.00 0.00 0.00 0.00 0.00 0.00 0.00 0.00 0.01 0.01 0.01 0.01 0.02 0.05 0.08 0.10 0.10 0.09 0.09 0.08 0.09 0.11 0.13 0.15 0.16 0.18 0.20
0.02 0.01 0.00 0.00 0.00 0.00 0.00 0.00 0.00 0.00 0.00 0.00 0.00 0.00 0.00 0.00 0.00 0.00 0.00 0.00 0.00 0.00 0.00 0.00 0.00 0.00 0.01 0.03 0.04 0.04 0.07 0.10 0.12 0.12 0.13 0.13 0.12 0.14 0.19 0.21 0.22 0.21 0.21
0.07 0.07 0.03 0.02 0.01 0.00 0.00 0.00 0.00 0.00 0.00 0.00 0.00 0.00 0.00 0.00 0.00 0.00 0.00 0.00 0.01 0.01 0.00 0.01 0.00 0.00 0.02 0.04 0.08 0.07 0.06 0.09 0.11 0.12 0.14 0.16 0.18 0.18 0.16 0.18 0.20 0.22 0.23
0.26 0.21 0.09 0.07 0.08 0.04 0.04 0.02 0.01 0.00 0.01 0.05 0.03 0.00 0.00 0.00 0.00 0.00 0.00 0.01 0.01 0.02 0.01 0.01 0.01 0.02 0.05 0.07 0.08 0.08 0.09 0.10 0.17 0.21 0.18 0.15 0.13 0.14 0.16 0.18 0.20 0.22 0.22
0.34 0.27 0.20 0.17 0.11 0.08 0.06 0.04 0.05 0.08 0.07 0.14 0.14 0.05 0.00 0.00 0.00 0.00 0.00 0.00 0.00 0.00 0.01 0.01 0.02 0.03 0.04 0.05 0.06 0.04 0.02 0.03 0.05 0.14 0.18 0.16 0.15 0.13 0.14 0.16 0.16 0.19 0.25
0.37 0.35 0.22 0.17 0.23 0.18 0.15 0.10 0.15 0.17 0.16 0.14 0.12 0.15 0.04 0.00 0.00 0.00 0.00 0.00 0.00 0.00 0.00 0.02 0.02 0.02 0.01 0.01 0.01 0.01 0.01 0.03 0.05 0.09 0.19 0.28 0.21 0.15 0.14 0.16 0.19 0.23 0.26
0.30 0.35 0.31 0.28 0.24 0.19 0.16 0.22 0.30 0.28 0.27 0.16 0.14 0.10 0.12 0.05 0.04 0.02 0.00 0.01 0.01 0.01 0.02 0.03 0.03 0.03 0.02 0.01 0.01 0.01 0.02 0.05 0.07 0.13 0.24 0.41 0.63 0.55 0.35 0.31 0.29 0.35 0.47
0.22 0.28 0.26 0.26 0.19 0.21 0.30 0.24 0.21 0.22 0.23 0.24 0.17 0.18 0.16 0.11 0.08 0.05 0.03 0.04 0.06 0.06 0.05 0.04 0.02 0.01 0.01 0.01 0.03 0.08 0.15 0.18 0.21 0.26 0.33 0.48 0.87 1.10 0.90 0.69 0.70 0.83 0.96
0.16 0.18 0.19 0.16 0.20 0.18 0.18 0.24 0.35 0.35 0.32 0.34 0.28 0.25 0.27 0.27 0.22 0.18 0.13 0.09 0.11 0.11 0.08 0.05 0.03 0.02 0.03 0.04 0.09 0.18 0.27 0.34 0.42 0.55 0.68 0.81 0.99 1.19 1.25 1.11 1.03 0.99 1.15
0.09 0.09 0.16 0.19 0.16 0.18 0.23 0.31 0.29 0.32 0.41 0.39 0.38 0.28 0.29 0.29 0.34 0.32 0.26 0.16 0.14 0.11 0.08 0.06 0.06 0.07 0.09 0.11 0.16 0.27 0.42 0.57 0.66 0.77 0.92 1.09 1.12 0.94 0.86 0.94 0.96 0.89 0.82
0.09 0.09 0.18 0.21 0.20 0.19 0.17 0.24 0.24 0.20 0.25 0.29 0.34 0.39 0.32 0.27 0.30 0.30 0.34 0.49 0.57 0.43 0.30 0.25 0.25 0.28 0.32 0.37 0.48 0.60 0.61 0.69 0.73 0.85 0.99 1.09 1.10 0.89 0.74 0.72 0.89 0.92 0.97
0.08 0.08 0.12 0.18 0.19 0.18 0.20 0.21 0.23 0.22 0.22 0.25 0.31 0.33 0.37 0.27 0.25 0.25 0.28 0.39 0.59 0.71 0.54 0.46 0.48 0.48 0.46 0.46 0.50 0.53 0.58 0.74 0.82 0.82 0.84 0.93 1.03 1.10 0.88 0.88 0.81 0.65 0.60
0.06 0.07 0.08 0.08 0.09 0.09 0.12 0.16 0.18 0.20 0.25 0.25 0.23 0.25 0.26 0.23 0.25 0.28 0.31 0.43 0.60 0.76 0.82 0.61 0.54 0.55 0.60 0.66 0.73 0.68 0.68 0.79 0.79 0.81 0.77 0.71 0.70 0.60 0.44 0.42 0.42 0.34 0.26
0.03 0.04 0.03 0.04 0.04 0.05 0.06 0.07 0.09 0.12 0.16 0.17 0.18 0.20 0.23 0.24 0.28 0.31 0.38 0.48 0.61 0.74 0.88 0.86 0.81 0.79 0.80 0.80 0.73 0.57 0.50 0.41 0.38 0.42 0.39 0.32 0.25 0.23 0.22 0.21 0.21 0.21 0.19
0.05 0.05 0.04 0.03 0.02 0.03 0.06 0.12 0.16 0.18 0.18 0.18 0.19 0.23 0.24 0.23 0.25 0.29 0.38 0.50 0.67 0.85 1.02 1.08 1.03 0.94 0.79 0.61 0.43 0.26 0.17 0.11 0.07 0.12 0.10 0.08 0.09 0.09 0.07 0.08 0.12 0.13 0.15
0.04 0.04 0.03 0.04 0.06 0.10 0.11 0.11 0.09 0.07 0.08 0.11 0.14 0.17 0.21 0.24 0.32 0.36 0.39 0.42 0.45 0.44 0.40 0.36 0.27 0.22 0.20 0.18 0.13 0.06 0.04 0.02 0.02 0.05 0.05 0.04 0.04 0.03 0.04 0.05 0.09 0.10 0.13
0.04 0.04 0.03 0.04 0.03 0.04 0.04 0.05 0.06 0.08 0.10 0.13 0.17 0.23 0.30 0.38 0.43 0.43 0.41 0.36 0.29 0.21 0.16 0.14 0.20 0.19 0.16 0.09 0.05 0.02 0.02 0.01 0.01 0.00 0.02 0.01 0.02 0.04 0.05 0.05 0.03 0.02 0.01
0.05 0.05 0.05 0.05 0.06 0.07 0.10 0.12 0.15 0.23 0.32 0.41 0.48 0.48 0.46 0.44 0.39 0.31 0.24 0.18 0.15 0.15 0.26 0.38 0.32 0.25 0.12 0.03 0.01 0.01 0.02 0.02 0.02 0.01 0.01 0.02 0.03 0.02 0.00 0.00 0.00 0.01 0.02
0.17 0.20 0.22 0.16 0.16 0.24 0.43 0.37 0.35 0.37 0.37 0.36 0.35 0.31 0.30 0.33 0.25 0.21 0.16 0.12 0.12 0.25 0.34 0.42 0.34 0.14 0.02 0.00 0.01 0.05 0.16 0.14 0.10 0.00 0.03 0.02 0.00 0.00 0.00 0.00 0.02 0.03 0.04
0.38 0.53 0.56 0.60 0.70 0.82 0.90 0.75 0.60 0.46 0.43 0.37 0.33 0.29 0.22 0.14 0.09 0.06 0.04 0.07 0.19 0.25 0.24 0.14 0.04 0.01 0.02 0.05 0.23 0.23 0.14 0.16 0.10 0.01 0.05 0.07 0.01 0.01 0.01 0.01 0.01 0.01 0.03
0.88 0.78 0.69 0.82 0.89 0.82 0.69 0.53 0.48 0.36 0.31 0.28 0.24 0.12 0.05 0.02 0.01 0.03 0.08 0.21 0.15 0.09 0.01 0.00 0.01 0.03 0.08 0.09 0.10 0.23 0.22 0.13 0.05 0.01 0.03 0.14 0.02 0.01 0.00 0.00 0.01 0.01 0.03
0.81 0.71 0.57 0.48 0.45 0.43 0.29 0.17 0.11 0.10 0.08 0.05 0.03 0.01 0.02 0.02 0.02 0.10 0.16 0.22 0.07 0.00 0.00 0.01 0.07 0.05 0.02 0.01 0.01 0.13 0.20 0.20 0.13 0.01 0.01 0.09 0.04 0.02 0.01 0.00 0.00 0.04 0.06
0.60 0.49 0.38 0.33 0.24 0.14 0.08 0.05 0.04 0.03 0.02 0.01 0.00 0.00 0.01 0.02 0.05 0.21 0.14 0.04 0.01 0.01 0.07 0.06 0.01 0.00 0.00 0.00 0.01 0.04 0.19 0.56 0.28 0.22 0.01 0.29 0.16 0.12 0.39 0.03 0.01 0.02 0.01

GFSMA_prec_precacc_075.txt.gz
Total_Precipitation_Accumulation
0.00 0.00 0.00 0.00 0.00 0.00 0.00 0.00 0.00 0.00 0.00 0.00 0.00 0.00 0.00 0.00 0.00 0.00 0.00 0.00 0.00 0.00 0.00 0.00 0.01 0.01 0.02 0.04 0.07 0.11 0.10 0.08 0.08 0.07 0.05 0.04 0.05 0.06 0.08 0.10 0.12 0.12 0.12
0.00 0.00 0.00 0.00 0.00 0.00 0.00 0.00 0.00 0.00 0.00 0.00 0.00 0.00 0.00 0.00 0.00 0.00 0.00 0.00 0.00 0.00 0.00 0.00 0.01 0.01 0.02 0.04 0.06 0.08 0.08 0.08 0.07 0.07 0.07 0.07 0.08 0.10 0.11 0.12 0.13 0.13 0.16
0.00 0.00 0.00 0.00 0.00 0.00 0.00 0.00 0.00 0.00 0.00 0.00 0.00 0.00 0.00 0.00 0.00 0.00 0.00 0.00 0.00 0.00 0.00 0.00 0.01 0.02 0.02 0.01 0.03 0.05 0.08 0.09 0.08 0.08 0.08 0.08 0.09 0.11 0.13 0.15 0.16 0.15 0.15
0.00 0.00 0.00 0.00 0.00 0.00 0.00 0.00 0.00 0.00 0.00 0.00 0.00 0.00 0.00 0.00 0.00 0.00 0.00 0.00 0.00 0.00 0.00 0.00 0.01 0.01 0.01 0.01 0.02 0.06 0.09 0.10 0.10 0.09 0.09 0.08 0.09 0.11 0.13 0.15 0.16 0.18 0.20
0.02 0.01 0.00 0.00 0.00 0.00 0.00 0.00 0.00 0.00 0.00 0.00 0.00 0.00 0.00 0.00 0.00 0.00 0.00 0.00 0.00 0.00 0.00 0.00 0.00 0.00 0.01 0.03 0.04 0.05 0.08 0.12 0.12 0.12 0.13 0.13 0.12 0.14 0.19 0.21 0.22 0.21 0.21
0.07 0.07 0.03 0.02 0.01 0.00 0.00 0.00 0.00 0.00 0.00 0.00 0.00 0.00 0.00 0.00 0.00 0.00 0.00 0.00 0.01 0.01 0.00 0.01 0.00 0.00 0.02 0.04 0.08 0.07 0.06 0.11 0.15 0.13 0.15 0.16 0.18 0.18 0.16 0.18 0.20 0.22 0.23
0.26 0.21 0.09 0.07 0.08 0.04 0.04 0.03 0.02 0.01 0.01 0.05 0.03 0.00 0.00 0.00 0.00 0.00 0.00 0.01 0.01 0.02 0.01 0.01 0.01 0.02 0.05 0.07 0.08 0.08 0.10 0.13 0.21 0.30 0.25 0.16 0.14 0.14 0.16 0.18 0.20 0.22 0.22
0.34 0.27 0.20 0.17 0.12 0.08 0.06 0.04 0.05 0.09 0.07 0.14 0.15 0.06 0.01 0.00 0.00 0.00 0.00 0.00 0.00 0.00 0.01 0.01 0.02 0.03 0.04 0.05 0.06 0.04 0.02 0.04 0.09 0.20 0.29 0.29 0.22 0.15 0.15 0.16 0.16 0.19 0.26
0.37 0.35 0.22 0.18 0.24 0.19 0.16 0.10 0.16 0.18 0.17 0.15 0.13 0.16 0.05 0.01 0.00 0.00 0.00 0.00 0.00 0.00 0.00 0.02 0.02 0.02 0.01 0.01 0.01 0.01 0.01 0.03 0.06 0.10 0.23 0.37 0.35 0.26 0.21 0.19 0.19 0.23 0.26
0.30 0.35 0.31 0.28 0.24 0.19 0.16 0.23 0.30 0.29 0.28 0.16 0.15 0.10 0.13 0.07 0.05 0.03 0.01 0.01 0.01 0.01 0.02 0.03 0.03 0.03 0.02 0.01 0.01 0.01 0.02 0.05 0.07 0.13 0.24 0.42 0.69 0.68 0.55 0.57 0.52 0.47 0.51
0.22 0.28 0.26 0.26 0.19 0.21 0.30 0.24 0.21 0.22 0.23 0.25 0.18 0.19 0.16 0.12 0.09 0.06 0.04 0.05 0.06 0.06 0.05 0.04 0.02 0.01 0.01 0.01 0.03 0.08 0.15 0.18 0.21 0.26 0.33 0.48 0.88 1.16 1.04 0.98 1.08 1.10 1.05
0.16 0.18 0.19 0.16 0.20 0.18 0.18 0.24 0.35 0.35 0.32 0.34 0.28 0.26 0.28 0.28 0.23 0.19 0.14 0.10 0.11 0.11 0.08 0.05 0.03 0.02 0.03 0.04 0.09 0.18 0.27 0.34 0.42 0.55 0.68 0.81 1.00 1.23 1.33 1.27 1.27 1.19 1.27
0.09 0.09 0.16 0.19 0.16 0.18 0.23 0.31 0.29 0.32 0.41 0.40 0.39 0.29 0.29 0.30 0.35 0.33 0.27 0.17 0.15 0.11 0.08 0.06 0.06 0.07 0.09 0.11 0.16 0.27 0.42 0.57 0.66 0.77 0.92 1.09 1.12 0.94 0.87 1.00 1.27 1.46 1.07
0.09 0.09 0.18 0.21 0.20 0.19 0.17 0.24 0.24 0.20 0.26 0.29 0.34 0.39 0.32 0.27 0.31 0.31 0.35 0.50 0.57 0.44 0.30 0.25 0.25 0.28 0.32 0.37 0.48 0.60 0.61 0.69 0.73 0.85 0.99 1.09 1.10 0.89 0.74 0.72 0.96 1.26 1.31
0.08 0.08 0.12 0.18 0.19 0.18 0.20 0.21 0.23 0.22 0.22 0.25 0.31 0.33 0.37 0.27 0.26 0.26 0.28 0.39 0.60 0.71 0.55 0.46 0.48 0.48 0.46 0.46 0.50 0.53 0.58 0.74 0.82 0.83 0.84 0.93 1.03 1.10 0.89 0.91 0.89 0.99 1.18
0.06 0.07 0.08 0.08 0.09 0.09 0.12 0.16 0.18 0.20 0.25 0.25 0.23 0.25 0.26 0.23 0.25 0.28 0.31 0.43 0.60 0.76 0.82 0.61 0.54 0.55 0.60 0.66 0.73 0.68 0.68 0.79 0.79 0.82 0.78 0.72 0.70 0.60 0.45 0.46 0.52 0.46 0.36
0.03 0.04 0.03 0.04 0.04 0.05 0.06 0.07 0.09 0.12 0.16 0.17 0.18 0.20 0.23 0.24 0.28 0.31 0.38 0.48 0.61 0.74 0.88 0.86 0.81 0.79 0.80 0.80 0.73 0.57 0.50 0.41 0.38 0.42 0.39 0.32 0.26 0.24 0.22 0.21 0.22 0.25 0.26
0.05 0.05 0.04 0.03 0.02 0.03 0.06 0.12 0.16 0.18 0.18 0.18 0.19 0.23 0.24 0.23 0.25 0.29 0.38 0.50 0.67 0.85 1.02 1.08 1.03 0.94 0.79 0.61 0.43 0.26 0.17 0.11 0.07 0.12 0.10 0.08 0.09 0.09 0.07 0.08 0.12 0.14 0.16
0.04 0.04 0.03 0.04 0.06 0.10 0.11 0.11 0.09 0.07 0.08 0.11 0.14 0.17 0.21 0.24 0.32 0.36 0.39 0.42 0.45 0.44 0.40 0.36 0.27 0.22 0.20 0.18 0.13 0.06 0.04 0.02 0.02 0.05 0.05 0.04 0.04 0.03 0.04 0.05 0.09 0.10 0.13
0.04 0.04 0.03 0.04 0.03 0.04 0.04 0.05 0.06 0.08 0.10 0.13 0.17 0.23 0.30 0.38 0.43 0.43 0.41 0.36 0.29 0.21 0.16 0.14 0.20 0.19 0.16 0.09 0.05 0.02 0.02 0.01 0.01 0.00 0.02 0.01 0.02 0.04 0.05 0.05 0.03 0.02 0.01
0.05 0.05 0.05 0.05 0.06 0.07 0.10 0.12 0.15 0.23 0.32 0.41 0.48 0.48 0.46 0.44 0.39 0.31 0.24 0.18 0.15 0.15 0.26 0.38 0.32 0.25 0.12 0.03 0.01 0.01 0.02 0.02 0.02 0.01 0.01 0.02 0.03 0.02 0.00 0.00 0.00 0.01 0.02
0.17 0.20 0.22 0.16 0.16 0.24 0.43 0.37 0.35 0.37 0.37 0.36 0.35 0.31 0.30 0.33 0.25 0.21 0.16 0.12 0.12 0.25 0.34 0.42 0.34 0.14 0.02 0.00 0.01 0.05 0.16 0.14 0.10 0.00 0.03 0.02 0.00 0.00 0.00 0.00 0.02 0.03 0.04
0.38 0.53 0.56 0.60 0.70 0.82 0.90 0.75 0.60 0.46 0.43 0.37 0.33 0.29 0.22 0.14 0.09 0.06 0.04 0.07 0.19 0.25 0.24 0.14 0.04 0.01 0.02 0.05 0.23 0.23 0.14 0.16 0.10 0.01 0.05 0.07 0.01 0.01 0.01 0.01 0.01 0.01 0.03
0.88 0.78 0.69 0.82 0.89 0.82 0.69 0.53 0.48 0.36 0.31 0.28 0.24 0.12 0.05 0.02 0.01 0.03 0.08 0.21 0.15 0.09 0.01 0.00 0.01 0.03 0.08 0.09 0.10 0.23 0.22 0.13 0.05 0.01 0.03 0.14 0.02 0.01 0.00 0.00 0.01 0.01 0.03
0.81 0.71 0.57 0.48 0.45 0.43 0.29 0.17 0.11 0.10 0.08 0.05 0.03 0.01 0.02 0.02 0.02 0.10 0.16 0.22 0.07 0.00 0.00 0.01 0.07 0.05 0.02 0.01 0.01 0.13 0.20 0.20 0.13 0.01 0.01 0.09 0.04 0.02 0.01 0.00 0.00 0.04 0.06
0.60 0.49 0.38 0.33 0.24 0.14 0.08 0.05 0.04 0.03 0.02 0.01 0.00 0.00 0.01 0.02 0.05 0.21 0.14 0.04 0.01 0.01 0.07 0.06 0.01 0.00 0.00 0.00 0.01 0.04 0.19 0.56 0.28 0.22 0.01 0.29 0.16 0.12 0.39 0.03 0.01 0.02 0.01

GFSMA_prec_precacc_078.txt.gz
Total_Precipitation_Accumulation
0.00 0.00 0.00 0.00 0.00 0.00 0.00 0.00 0.00 0.00 0.00 0.00 0.00 0.00 0.00 0.00 0.00 0.00 0.00 0.00 0.00 0.00 0.00 0.00 0.01 0.01 0.02 0.04 0.07 0.11 0.10 0.08 0.08 0.07 0.05 0.04 0.05 0.06 0.08 0.10 0.12 0.12 0.12
0.00 0.00 0.00 0.00 0.00 0.00 0.00 0.00 0.00 0.00 0.00 0.00 0.00 0.00 0.00 0.00 0.00 0.00 0.00 0.00 0.00 0.00 0.00 0.00 0.01 0.01 0.02 0.04 0.06 0.08 0.08 0.08 0.07 0.07 0.07 0.07 0.08 0.10 0.11 0.12 0.13 0.13 0.16
0.00 0.00 0.00 0.00 0.00 0.00 0.00 0.00 0.00 0.00 0.00 0.00 0.00 0.00 0.00 0.00 0.00 0.00 0.00 0.00 0.00 0.00 0.00 0.00 0.01 0.02 0.02 0.01 0.03 0.06 0.08 0.09 0.08 0.08 0.08 0.08 0.09 0.11 0.13 0.15 0.16 0.15 0.15
0.00 0.00 0.00 0.00 0.00 0.00 0.00 0.00 0.00 0.00 0.00 0.00 0.00 0.00 0.00 0.00 0.00 0.00 0.00 0.00 0.00 0.00 0.00 0.00 0.01 0.01 0.01 0.01 0.03 0.07 0.11 0.11 0.10 0.09 0.09 0.08 0.09 0.11 0.13 0.15 0.16 0.18 0.20
0.02 0.01 0.00 0.00 0.00 0.00 0.00 0.00 0.00 0.00 0.00 0.00 0.00 0.00 0.00 0.00 0.00 0.00 0.00 0.00 0.00 0.00 0.00 0.00 0.00 0.00 0.01 0.03 0.04 0.06 0.10 0.16 0.15 0.12 0.13 0.13 0.12 0.14 0.19 0.21 0.22 0.21 0.21
0.07 0.07 0.03 0.02 0.01 0.00 0.00 0.00 0.00 0.00 0.00 0.01 0.00 0.00 0.00 0.00 0.00 0.00 0.00 0.00 0.01 0.01 0.00 0.01 0.00 0.00 0.02 0.04 0.08 0.07 0.06 0.12 0.20 0.19 0.19 0.18 0.18 0.18 0.16 0.18 0.20 0.22 0.23
0.26 0.21 0.09 0.07 0.08 0.04 0.04 0.03 0.03 0.01 0.01 0.06 0.04 0.00 0.00 0.00 0.00 0.00 0.00 0.01 0.01 0.02 0.01 0.01 0.01 0.02 0.05 0.07 0.08 0.08 0.10 0.13 0.24 0.36 0.35 0.27 0.20 0.15 0.16 0.18 0.20 0.22 0.23
0.34 0.27 0.20 0.17 0.12 0.08 0.06 0.05 0.06 0.09 0.08 0.15 0.15 0.07 0.01 0.00 0.00 0.00 0.00 0.00 0.00 0.00 0.01 0.01 0.02 0.03 0.04 0.05 0.06 0.04 0.02 0.04 0.09 0.20 0.32 0.38 0.36 0.31 0.22 0.17 0.17 0.19 0.26
0.37 0.35 0.22 0.18 0.24 0.20 0.16 0.11 0.16 0.19 0.17 0.15 0.13 0.18 0.06 0.01 0.00 0.00 0.00 0.00 0.00 0.00 0.00 0.02 0.02 0.02 0.01 0.01 0.01 0.01 0.01 0.03 0.06 0.10 0.23 0.37 0.38 0.34 0.32 0.31 0.34 0.44 0.36
0.30 0.35 0.31 0.28 0.24 0.19 0.16 0.23 0.30 0.29 0.28 0.16 0.15 0.11 0.14 0.08 0.06 0.03 0.01 0.01 0.01 0.01 0.02 0.03 0.03 0.03 0.02 0.01 0.01 0.01 0.02 0.05 0.07 0.13 0.24 0.42 0.69 0.70 0.61 0.68 0.82 1.01 1.09
0.22 0.28 0.26 0.26 0.19 0.21 0.30 0.24 0.21 0.22 0.23 0.25 0.18 0.19 0.17 0.13 0.09 0.07 0.05 0.05 0.06 0.06 0.05 0.04 0.02 0.01 0.01 0.01 0.03 0.08 0.15 0.18 0.21 0.26 0.33 0.49 0.88 1.17 1.06 1.02 1.13 1.29 1.27
0.16 0.18 0.19 0.16 0.20 0.18 0.18 0.24 0.35 0.35 0.32 0.34 0.29 0.26 0.29 0.29 0.24 0.20 0.15 0.10 0.12 0.11 0.08 0.05 0.03 0.02 0.03 0.04 0.09 0.18 0.27 0.34 0.42 0.55 0.68 0.81 1.00 1.23 1.33 1.28 1.29 1.26 1.38
0.09 0.09 0.16 0.19 0.16 0.18 0.23 0.31 0.29 0.32 0.41 0.40 0.40 0.30 0.30 0.31 0.37 0.34 0.29 0.18 0.16 0.12 0.08 0.06 0.06 0.07 0.09 0.11 0.16 0.27 0.42 0.58 0.66 0.77 0.93 1.09 1.13 0.94 0.87 1.00 1.28 1.51 1.39
0.09 0.09 0.18 0.21 0.20 0.19 0.17 0.24 0.24 0.20 0.26 0.29 0.34 0.39 0.33 0.28 0.31 0.32 0.36 0.52 0.59 0.44 0.30 0.25 0.25 0.28 0.32 0.37 0.48 0.60 0.61 0.69 0.74 0.87 1.00 1.10 1.11 0.90 0.74 0.72 0.96 1.26 1.33
0.08 0.08 0.12 0.18 0.19 0.18 0.20 0.21 0.23 0.22 0.22 0.25 0.31 0.33 0.37 0.28 0.26 0.27 0.30 0.41 0.60 0.71 0.55 0.46 0.48 0.48 0.46 0.46 0.50 0.53 0.58 0.75 0.83 0.84 0.86 0.94 1.04 1.10 0.89 0.91 0.90 1.00 1.19
0.06 0.07 0.08 0.08 0.09 0.09 0.12 0.16 0.18 0.20 0.25 0.25 0.23 0.25 0.26 0.23 0.25 0.29 0.31 0.43 0.60 0.76 0.82 0.61 0.54 0.55 0.60 0.66 0.73 0.68 0.68 0.79 0.80 0.83 0.79 0.72 0.70 0.60 0.46 0.46 0.53 0.49 0.39
0.03 0.04 0.03 0.04 0.04 0.05 0.06 0.07 0.09 0.12 0.16 0.17 0.18 0.20 0.23 0.24 0.28 0.31 0.38 0.48 0.61 0.74 0.88 0.86 0.81 0.79 0.80 0.80 0.73 0.57 0.50 0.41 0.38 0.42 0.39 0.32 0.26 0.24 0.22 0.21 0.22 0.26 0.28
0.05 0.05 0.04 0.03 0.02 0.03 0.06 0.12 0.16 0.18 0.18 0.18 0.19 0.23 0.24 0.23 0.25 0.29 0.38 0.50 0.67 0.85 1.02 1.08 1.03 0.94 0.79 0.61 0.43 0.26 0.17 0.11 0.07 0.12 0.10 0.08 0.09 0.10 0.08 0.08 0.12 0.14 0.16
0.04 0.04 0.03 0.04 0.06 0.10 0.11 0.11 0.09 0.07 0.08 0.11 0.14 0.17 0.21 0.24 0.32 0.36 0.39 0.42 0.45 0.44 0.40 0.36 0.27 0.22 0.20 0.18 0.13 0.06 0.04 0.02 0.02 0.05 0.05 0.04 0.04 0.03 0.04 0.05 0.09 0.10 0.13
0.04 0.04 0.03 0.04 0.03 0.04 0.04 0.05 0.06 0.08 0.10 0.13 0.17 0.23 0.30 0.38 0.43 0.43 0.41 0.36 0.29 0.21 0.16 0.14 0.20 0.19 0.16 0.09 0.05 0.02 0.02 0.01 0.01 0.00 0.02 0.01 0.02 0.04 0.05 0.05 0.03 0.02 0.01
0.05 0.05 0.05 0.05 0.06 0.07 0.10 0.12 0.15 0.23 0.32 0.41 0.48 0.48 0.46 0.44 0.39 0.31 0.24 0.18 0.15 0.15 0.26 0.38 0.32 0.25 0.12 0.03 0.01 0.01 0.02 0.02 0.02 0.01 0.01 0.02 0.03 0.02 0.00 0.00 0.00 0.01 0.02
0.17 0.20 0.22 0.16 0.16 0.24 0.43 0.37 0.35 0.37 0.37 0.36 0.35 0.31 0.30 0.33 0.25 0.21 0.16 0.12 0.12 0.25 0.34 0.42 0.34 0.14 0.02 0.00 0.01 0.05 0.16 0.14 0.10 0.00 0.03 0.02 0.00 0.00 0.00 0.00 0.02 0.03 0.04
0.38 0.53 0.56 0.60 0.70 0.82 0.90 0.75 0.60 0.46 0.43 0.37 0.33 0.29 0.22 0.14 0.09 0.06 0.04 0.07 0.19 0.25 0.24 0.14 0.04 0.01 0.02 0.05 0.23 0.23 0.14 0.16 0.10 0.01 0.05 0.07 0.01 0.01 0.01 0.01 0.01 0.01 0.03
0.88 0.78 0.69 0.82 0.89 0.82 0.69 0.53 0.48 0.36 0.31 0.28 0.24 0.12 0.05 0.02 0.01 0.03 0.08 0.21 0.15 0.09 0.01 0.00 0.01 0.03 0.08 0.09 0.10 0.23 0.22 0.13 0.05 0.01 0.03 0.14 0.02 0.01 0.00 0.00 0.01 0.01 0.03
0.81 0.71 0.57 0.48 0.45 0.43 0.29 0.17 0.11 0.10 0.08 0.05 0.03 0.01 0.02 0.02 0.02 0.10 0.16 0.22 0.07 0.00 0.00 0.01 0.07 0.05 0.02 0.01 0.01 0.13 0.20 0.20 0.13 0.01 0.01 0.09 0.04 0.02 0.01 0.00 0.00 0.04 0.06
0.60 0.49 0.38 0.33 0.24 0.14 0.08 0.05 0.04 0.03 0.02 0.01 0.00 0.00 0.01 0.02 0.05 0.21 0.14 0.04 0.01 0.01 0.07 0.06 0.01 0.00 0.00 0.00 0.01 0.04 0.19 0.56 0.28 0.22 0.01 0.29 0.16 0.12 0.39 0.03 0.01 0.02 0.01

GFSMA_prec_precacc_081.txt.gz
Total_Precipitation_Accumulation
0.00 0.00 0.00 0.00 0.00 0.00 0.00 0.00 0.00 0.00 0.00 0.00 0.00 0.00 0.00 0.00 0.00 0.00 0.00 0.00 0.00 0.00 0.00 0.00 0.01 0.01 0.02 0.05 0.07 0.11 0.10 0.08 0.08 0.07 0.05 0.04 0.05 0.06 0.08 0.10 0.12 0.12 0.12
0.00 0.00 0.00 0.00 0.00 0.00 0.00 0.00 0.00 0.00 0.00 0.00 0.00 0.00 0.00 0.00 0.00 0.00 0.00 0.00 0.00 0.00 0.00 0.00 0.01 0.01 0.02 0.05 0.08 0.10 0.09 0.08 0.07 0.07 0.07 0.07 0.08 0.10 0.11 0.12 0.13 0.13 0.16
0.00 0.00 0.00 0.00 0.00 0.00 0.00 0.00 0.00 0.00 0.00 0.00 0.00 0.00 0.00 0.00 0.00 0.00 0.00 0.00 0.00 0.00 0.00 0.00 0.01 0.02 0.02 0.02 0.06 0.09 0.12 0.10 0.08 0.08 0.08 0.08 0.09 0.11 0.13 0.15 0.16 0.15 0.15
0.00 0.00 0.00 0.00 0.00 0.00 0.00 0.00 0.00 0.00 0.00 0.00 0.00 0.00 0.00 0.00 0.00 0.00 0.00 0.00 0.00 0.00 0.00 0.00 0.01 0.01 0.01 0.02 0.05 0.12 0.20 0.19 0.13 0.09 0.09 0.08 0.09 0.11 0.13 0.15 0.16 0.18 0.20
0.02 0.01 0.00 0.00 0.00 0.00 0.00 0.00 0.00 0.00 0.00 0.00 0.00 0.00 0.00 0.00 0.00 0.00 0.00 0.00 0.00 0.00 0.00 0.00 0.00 0.00 0.01 0.03 0.04 0.07 0.16 0.27 0.24 0.19 0.16 0.13 0.12 0.14 0.19 0.21 0.22 0.21 0.21
0.07 0.07 0.03 0.02 0.01 0.00 0.00 0.00 0.00 0.00 0.00 0.01 0.00 0.00 0.00 0.00 0.00 0.00 0.00 0.00 0.01 0.01 0.00 0.01 0.00 0.00 0.02 0.04 0.08 0.07 0.07 0.13 0.24 0.26 0.28 0.28 0.22 0.18 0.16 0.18 0.20 0.22 0.23
0.26 0.21 0.09 0.07 0.08 0.04 0.04 0.03 0.03 0.01 0.01 0.06 0.04 0.01 0.00 0.00 0.00 0.00 0.00 0.01 0.01 0.02 0.01 0.01 0.01 0.02 0.05 0.07 0.08 0.08 0.10 0.13 0.24 0.36 0.38 0.35 0.35 0.27 0.21 0.18 0.20 0.22 0.23
0.34 0.27 0.20 0.17 0.12 0.08 0.06 0.05 0.06 0.09 0.08 0.15 0.16 0.09 0.02 0.00 0.00 0.00 0.00 0.00 0.00 0.00 0.01 0.01 0.02 0.03 0.04 0.05 0.06 0.04 0.02 0.04 0.09 0.20 0.32 0.39 0.39 0.42 0.40 0.31 0.22 0.21 0.26
0.37 0.35 0.22 0.18 0.24 0.20 0.16 0.11 0.16 0.19 0.18 0.15 0.14 0.19 0.06 0.01 0.00 0.00 0.00 0.00 0.00 0.00 0.00 0.02 0.02 0.02 0.01 0.01 0.01 0.01 0.01 0.03 0.06 0.10 0.23 0.37 0.38 0.34 0.35 0.41 0.48 0.62 0.81
0.30 0.35 0.31 0.28 0.24 0.19 0.16 0.23 0.30 0.29 0.28 0.16 0.15 0.11 0.14 0.09 0.07 0.03 0.01 0.01 0.01 0.01 0.02 0.03 0.03 0.03 0.02 0.01 0.01 0.01 0.02 0.05 0.07 0.13 0.24 0.42 0.69 0.70 0.62 0.71 0.87 1.12 1.31
0.22 0.28 0.26 0.26 0.19 0.21 0.30 0.24 0.21 0.22 0.23 0.25 0.18 0.19 0.17 0.13 0.10 0.08 0.05 0.05 0.06 0.06 0.05 0.04 0.02 0.01 0.01 0.01 0.03 0.08 0.15 0.18 0.21 0.26 0.33 0.49 0.88 1.17 1.06 1.03 1.15 1.31 1.32
0.16 0.18 0.19 0.16 0.20 0.18 0.18 0.24 0.35 0.35 0.32 0.34 0.29 0.26 0.29 0.29 0.24 0.20 0.16 0.11 0.12 0.11 0.08 0.05 0.03 0.02 0.03 0.04 0.09 0.18 0.27 0.34 0.42 0.55 0.69 0.82 1.01 1.23 1.33 1.28 1.29 1.26 1.40
0.09 0.09 0.16 0.19 0.16 0.18 0.23 0.31 0.29 0.32 0.41 0.40 0.40 0.30 0.31 0.31 0.37 0.35 0.30 0.19 0.16 0.12 0.08 0.06 0.06 0.07 0.09 0.11 0.16 0.27 0.42 0.58 0.67 0.78 0.94 1.11 1.13 0.94 0.87 1.00 1.28 1.51 1.40
0.09 0.09 0.18 0.21 0.20 0.19 0.17 0.24 0.24 0.20 0.26 0.29 0.34 0.39 0.33 0.28 0.31 0.33 0.37 0.52 0.59 0.44 0.30 0.25 0.25 0.28 0.32 0.37 0.48 0.60 0.61 0.69 0.74 0.88 1.01 1.11 1.11 0.90 0.75 0.73 0.96 1.27 1.33
0.08 0.08 0.12 0.18 0.19 0.18 0.20 0.21 0.23 0.22 0.22 0.25 0.31 0.33 0.37 0.28 0.26 0.27 0.30 0.41 0.61 0.72 0.55 0.46 0.48 0.48 0.46 0.46 0.50 0.53 0.58 0.75 0.83 0.85 0.87 0.95 1.04 1.11 0.90 0.92 0.90 1.00 1.19
0.06 0.07 0.08 0.08 0.09 0.09 0.12 0.16 0.18 0.20 0.25 0.25 0.23 0.25 0.26 0.23 0.25 0.29 0.31 0.43 0.60 0.76 0.82 0.61 0.54 0.55 0.60 0.66 0.73 0.68 0.68 0.79 0.80 0.83 0.80 0.73 0.71 0.61 0.46 0.47 0.54 0.49 0.39
0.03 0.04 0.03 0.04 0.04 0.05 0.06 0.07 0.09 0.12 0.16 0.17 0.18 0.20 0.23 0.24 0.28 0.31 0.38 0.48 0.61 0.74 0.88 0.86 0.81 0.79 0.80 0.80 0.73 0.57 0.50 0.41 0.38 0.42 0.40 0.32 0.26 0.24 0.22 0.21 0.22 0.26 0.28
0.05 0.05 0.04 0.03 0.02 0.03 0.06 0.12 0.16 0.18 0.18 0.18 0.19 0.23 0.24 0.23 0.25 0.29 0.38 0.50 0.67 0.85 1.02 1.08 1.03 0.94 0.79 0.61 0.43 0.26 0.17 0.11 0.07 0.12 0.10 0.08 0.09 0.10 0.08 0.08 0.12 0.14 0.16
0.04 0.04 0.03 0.04 0.06 0.10 0.11 0.11 0.09 0.07 0.08 0.11 0.14 0.17 0.21 0.24 0.32 0.36 0.39 0.42 0.45 0.44 0.40 0.36 0.27 0.22 0.20 0.18 0.13 0.06 0.04 0.02 0.02 0.05 0.05 0.04 0.04 0.03 0.04 0.05 0.09 0.10 0.13
0.04 0.04 0.03 0.04 0.03 0.04 0.04 0.05 0.06 0.08 0.10 0.13 0.17 0.23 0.30 0.38 0.43 0.43 0.41 0.36 0.29 0.21 0.16 0.14 0.20 0.19 0.16 0.09 0.05 0.02 0.02 0.01 0.01 0.00 0.02 0.01 0.02 0.04 0.05 0.05 0.03 0.02 0.01
0.05 0.05 0.05 0.05 0.06 0.07 0.10 0.12 0.15 0.23 0.32 0.41 0.48 0.48 0.46 0.44 0.39 0.31 0.24 0.18 0.15 0.15 0.26 0.38 0.32 0.25 0.12 0.03 0.01 0.01 0.02 0.02 0.02 0.01 0.01 0.02 0.03 0.02 0.00 0.00 0.00 0.01 0.02
0.17 0.20 0.22 0.16 0.16 0.24 0.43 0.37 0.35 0.37 0.37 0.36 0.35 0.31 0.30 0.33 0.25 0.21 0.16 0.12 0.12 0.25 0.34 0.42 0.34 0.14 0.02 0.00 0.01 0.05 0.16 0.14 0.10 0.00 0.03 0.02 0.00 0.00 0.00 0.00 0.02 0.03 0.04
0.38 0.53 0.56 0.60 0.70 0.82 0.90 0.75 0.60 0.46 0.43 0.37 0.33 0.29 0.22 0.14 0.09 0.06 0.04 0.07 0.19 0.25 0.24 0.14 0.04 0.01 0.02 0.05 0.23 0.23 0.14 0.16 0.10 0.01 0.05 0.07 0.01 0.01 0.01 0.01 0.01 0.01 0.03
0.88 0.78 0.69 0.82 0.89 0.82 0.69 0.53 0.48 0.36 0.31 0.28 0.24 0.12 0.05 0.02 0.01 0.03 0.08 0.21 0.15 0.09 0.01 0.00 0.01 0.03 0.08 0.09 0.10 0.23 0.22 0.13 0.05 0.01 0.03 0.14 0.02 0.01 0.00 0.00 0.01 0.01 0.03
0.81 0.71 0.57 0.48 0.45 0.43 0.29 0.17 0.11 0.10 0.08 0.05 0.03 0.01 0.02 0.02 0.02 0.10 0.16 0.22 0.07 0.00 0.00 0.01 0.07 0.05 0.02 0.01 0.01 0.13 0.20 0.20 0.13 0.01 0.01 0.09 0.04 0.02 0.01 0.00 0.00 0.04 0.06
0.60 0.49 0.38 0.33 0.24 0.14 0.08 0.05 0.04 0.03 0.02 0.01 0.00 0.00 0.01 0.02 0.05 0.21 0.14 0.04 0.01 0.01 0.07 0.06 0.01 0.00 0.00 0.00 0.01 0.04 0.19 0.56 0.28 0.22 0.01 0.29 0.16 0.12 0.39 0.03 0.01 0.02 0.01

GFSMA_prec_precacc_084.txt.gz
Total_Precipitation_Accumulation
0.00 0.00 0.00 0.00 0.00 0.00 0.00 0.00 0.00 0.00 0.00 0.00 0.00 0.00 0.00 0.00 0.00 0.00 0.00 0.00 0.00 0.00 0.00 0.00 0.01 0.01 0.03 0.06 0.08 0.11 0.10 0.08 0.08 0.07 0.05 0.04 0.05 0.06 0.08 0.10 0.12 0.12 0.12
0.00 0.00 0.00 0.00 0.00 0.00 0.00 0.00 0.00 0.00 0.00 0.00 0.00 0.00 0.00 0.00 0.00 0.00 0.00 0.00 0.00 0.00 0.00 0.00 0.01 0.01 0.02 0.05 0.11 0.16 0.13 0.08 0.07 0.07 0.07 0.07 0.08 0.10 0.11 0.12 0.13 0.13 0.16
0.00 0.00 0.00 0.00 0.00 0.00 0.00 0.00 0.00 0.00 0.00 0.00 0.00 0.00 0.00 0.00 0.00 0.00 0.00 0.00 0.00 0.00 0.00 0.00 0.01 0.03 0.04 0.03 0.10 0.15 0.24 0.19 0.10 0.08 0.08 0.08 0.09 0.11 0.13 0.15 0.16 0.15 0.15
0.00 0.00 0.00 0.00 0.00 0.00 0.00 0.00 0.00 0.00 0.00 0.00 0.00 0.00 0.00 0.00 0.00 0.00 0.00 0.00 0.00 0.00 0.00 0.00 0.01 0.03 0.03 0.02 0.05 0.13 0.24 0.33 0.26 0.16 0.11 0.08 0.09 0.11 0.13 0.15 0.16 0.18 0.20
0.02 0.01 0.00 0.00 0.00 0.00 0.00 0.00 0.00 0.00 0.00 0.00 0.00 0.00 0.00 0.00 0.00 0.00 0.00 0.00 0.00 0.00 0.00 0.00 0.00 0.00 0.01 0.03 0.04 0.07 0.16 0.30 0.29 0.28 0.26 0.20 0.14 0.14 0.19 0.21 0.22 0.21 0.21
0.07 0.07 0.03 0.02 0.01 0.00 0.00 0.00 0.00 0.00 0.00 0.01 0.01 0.00 0.00 0.00 0.00 0.00 0.00 0.00 0.01 0.01 0.00 0.01 0.00 0.00 0.02 0.04 0.08 0.07 0.07 0.13 0.24 0.27 0.31 0.37 0.37 0.27 0.18 0.18 0.20 0.22 0.23
0.26 0.21 0.09 0.07 0.08 0.04 0.04 0.03 0.03 0.02 0.01 0.06 0.04 0.01 0.00 0.00 0.00 0.00 0.00 0.01 0.01 0.02 0.01 0.01 0.01 0.02 0.05 0.07 0.08 0.08 0.10 0.13 0.24 0.36 0.38 0.36 0.41 0.41 0.39 0.26 0.22 0.22 0.23
0.34 0.27 0.20 0.17 0.12 0.08 0.06 0.05 0.06 0.09 0.08 0.15 0.16 0.09 0.02 0.00 0.00 0.00 0.00 0.00 0.00 0.00 0.01 0.01 0.02 0.03 0.04 0.05 0.06 0.04 0.02 0.04 0.09 0.20 0.32 0.39 0.39 0.43 0.47 0.47 0.39 0.31 0.29
0.45 0.38 0.23 0.18 0.24 0.20 0.16 0.11 0.16 0.19 0.18 0.15 0.14 0.20 0.07 0.01 0.00 0.00 0.00 0.00 0.00 0.00 0.00 0.02 0.02 0.02 0.01 0.01 0.01 0.01 0.01 0.03 0.06 0.10 0.23 0.37 0.38 0.34 0.36 0.42 0.54 0.77 1.03
0.34 0.36 0.31 0.28 0.24 0.19 0.16 0.23 0.30 0.29 0.28 0.16 0.15 0.11 0.14 0.10 0.07 0.04 0.01 0.01 0.01 0.01 0.02 0.03 0.03 0.03 0.02 0.01 0.01 0.01 0.02 0.05 0.07 0.13 0.24 0.42 0.70 0.71 0.63 0.72 0.89 1.14 1.38
0.22 0.28 0.26 0.26 0.19 0.21 0.30 0.24 0.21 0.22 0.23 0.25 0.18 0.19 0.17 0.13 0.10 0.09 0.05 0.05 0.06 0.06 0.05 0.04 0.02 0.01 0.01 0.01 0.03 0.08 0.15 0.18 0.21 0.26 0.33 0.50 0.89 1.18 1.06 1.03 1.15 1.32 1.32
0.16 0.18 0.19 0.16 0.20 0.18 0.18 0.24 0.35 0.35 0.32 0.34 0.29 0.26 0.29 0.29 0.24 0.20 0.16 0.11 0.12 0.11 0.08 0.05 0.03 0.02 0.03 0.04 0.09 0.18 0.27 0.34 0.42 0.55 0.70 0.84 1.02 1.24 1.34 1.29 1.30 1.27 1.40
0.09 0.09 0.16 0.19 0.16 0.18 0.23 0.31 0.29 0.32 0.41 0.40 0.40 0.30 0.31 0.31 0.37 0.35 0.30 0.19 0.17 0.12 0.08 0.06 0.06 0.07 0.09 0.11 0.16 0.27 0.42 0.58 0.67 0.78 0.96 1.12 1.14 0.95 0.88 1.00 1.29 1.51 1.40
0.09 0.09 0.18 0.21 0.20 0.19 0.17 0.24 0.24 0.20 0.26 0.29 0.34 0.39 0.33 0.28 0.31 0.33 0.38 0.53 0.60 0.45 0.31 0.25 0.25 0.28 0.32 0.37 0.48 0.60 0.61 0.69 0.74 0.88 1.02 1.11 1.12 0.91 0.76 0.74 0.97 1.27 1.34
0.08 0.08 0.12 0.18 0.19 0.18 0.20 0.21 0.23 0.22 0.22 0.25 0.31 0.33 0.37 0.28 0.26 0.27 0.30 0.41 0.61 0.72 0.55 0.46 0.48 0.48 0.46 0.46 0.50 0.53 0.58 0.75 0.83 0.85 0.88 0.95 1.05 1.12 0.90 0.93 0.91 1.00 1.20
0.06 0.07 0.08 0.08 0.09 0.09 0.12 0.16 0.18 0.20 0.25 0.25 0.23 0.25 0.26 0.23 0.25 0.29 0.31 0.43 0.60 0.76 0.82 0.61 0.54 0.55 0.60 0.66 0.73 0.68 0.68 0.79 0.80 0.83 0.80 0.73 0.71 0.62 0.46 0.47 0.54 0.50 0.41
0.03 0.04 0.03 0.04 0.04 0.05 0.06 0.07 0.09 0.12 0.16 0.17 0.18 0.20 0.23 0.24 0.28 0.31 0.38 0.48 0.61 0.74 0.88 0.86 0.81 0.79 0.80 0.80 0.73 0.57 0.50 0.41 0.38 0.42 0.40 0.33 0.26 0.24 0.22 0.21 0.22 0.26 0.29
0.05 0.05 0.04 0.03 0.02 0.03 0.06 0.12 0.16 0.18 0.18 0.18 0.19 0.23 0.24 0.23 0.25 0.29 0.38 0.50 0.67 0.85 1.02 1.08 1.03 0.94 0.79 0.61 0.43 0.26 0.17 0.11 0.07 0.12 0.10 0.08 0.09 0.10 0.08 0.08 0.12 0.14 0.16
0.04 0.04 0.03 0.04 0.06 0.10 0.11 0.11 0.09 0.07 0.08 0.11 0.14 0.17 0.21 0.24 0.32 0.36 0.39 0.42 0.45 0.44 0.40 0.36 0.27 0.22 0.20 0.18 0.13 0.06 0.04 0.02 0.02 0.05 0.05 0.04 0.04 0.03 0.04 0.05 0.09 0.10 0.13
0.04 0.04 0.03 0.04 0.03 0.04 0.04 0.05 0.06 0.08 0.10 0.13 0.17 0.23 0.30 0.38 0.43 0.43 0.41 0.36 0.29 0.21 0.16 0.14 0.20 0.19 0.16 0.09 0.05 0.02 0.02 0.01 0.01 0.00 0.02 0.01 0.02 0.04 0.05 0.05 0.03 0.02 0.01
0.05 0.05 0.05 0.05 0.06 0.07 0.10 0.12 0.15 0.23 0.32 0.41 0.48 0.48 0.46 0.44 0.39 0.31 0.24 0.18 0.15 0.15 0.26 0.38 0.32 0.25 0.12 0.03 0.01 0.01 0.02 0.02 0.02 0.01 0.01 0.02 0.03 0.02 0.00 0.00 0.00 0.01 0.02
0.17 0.20 0.22 0.16 0.16 0.24 0.44 0.37 0.35 0.37 0.37 0.36 0.35 0.31 0.30 0.33 0.25 0.21 0.16 0.12 0.12 0.25 0.34 0.42 0.34 0.14 0.02 0.00 0.01 0.05 0.16 0.14 0.10 0.00 0.03 0.02 0.00 0.00 0.00 0.00 0.02 0.03 0.04
0.38 0.53 0.56 0.60 0.70 0.82 0.90 0.75 0.60 0.46 0.43 0.37 0.33 0.29 0.22 0.14 0.09 0.06 0.04 0.07 0.19 0.25 0.24 0.14 0.04 0.01 0.02 0.05 0.23 0.23 0.14 0.16 0.10 0.01 0.05 0.07 0.01 0.01 0.01 0.01 0.01 0.01 0.03
0.88 0.78 0.69 0.82 0.89 0.82 0.70 0.53 0.48 0.36 0.31 0.28 0.24 0.12 0.05 0.02 0.01 0.03 0.08 0.21 0.15 0.09 0.01 0.00 0.01 0.03 0.08 0.09 0.10 0.23 0.22 0.13 0.05 0.01 0.03 0.14 0.02 0.01 0.00 0.00 0.01 0.01 0.03
0.81 0.71 0.57 0.48 0.45 0.43 0.29 0.17 0.11 0.10 0.08 0.05 0.03 0.01 0.02 0.02 0.02 0.10 0.16 0.22 0.07 0.00 0.00 0.01 0.07 0.05 0.02 0.01 0.01 0.13 0.20 0.20 0.13 0.01 0.01 0.09 0.04 0.02 0.01 0.00 0.00 0.04 0.06
0.60 0.49 0.38 0.33 0.24 0.14 0.08 0.05 0.04 0.03 0.02 0.01 0.00 0.00 0.01 0.02 0.05 0.21 0.14 0.04 0.01 0.01 0.07 0.06 0.01 0.00 0.00 0.00 0.01 0.04 0.19 0.56 0.28 0.22 0.01 0.29 0.16 0.12 0.39 0.03 0.01 0.02 0.01

GFSMA_prec_precacc_087.txt.gz
Total_Precipitation_Accumulation
0.00 0.00 0.00 0.00 0.00 0.00 0.00 0.00 0.00 0.00 0.00 0.00 0.00 0.00 0.00 0.00 0.00 0.00 0.00 0.00 0.00 0.00 0.00 0.00 0.01 0.01 0.03 0.06 0.10 0.12 0.10 0.08 0.08 0.07 0.05 0.04 0.05 0.06 0.08 0.10 0.12 0.12 0.12
0.00 0.00 0.00 0.00 0.00 0.00 0.00 0.00 0.00 0.00 0.00 0.00 0.00 0.00 0.00 0.00 0.00 0.00 0.00 0.00 0.00 0.00 0.00 0.00 0.01 0.02 0.02 0.09 0.16 0.21 0.22 0.12 0.08 0.08 0.07 0.07 0.08 0.10 0.11 0.12 0.13 0.13 0.16
0.00 0.00 0.00 0.00 0.00 0.00 0.00 0.00 0.00 0.00 0.00 0.00 0.00 0.00 0.00 0.00 0.00 0.00 0.00 0.00 0.00 0.00 0.00 0.00 0.01 0.04 0.07 0.06 0.13 0.19 0.29 0.26 0.17 0.13 0.10 0.08 0.09 0.11 0.13 0.15 0.16 0.15 0.15
0.00 0.00 0.00 0.00 0.00 0.00 0.00 0.00 0.00 0.00 0.00 0.00 0.00 0.00 0.00 0.00 0.00 0.00 0.00 0.00 0.00 0.00 0.00 0.00 0.02 0.04 0.03 0.02 0.05 0.13 0.25 0.33 0.28 0.24 0.20 0.12 0.09 0.11 0.13 0.15 0.16 0.18 0.20
0.02 0.01 0.00 0.00 0.00 0.00 0.00 0.00 0.00 0.00 0.00 0.00 0.00 0.00 0.00 0.00 0.00 0.00 0.00 0.00 0.00 0.00 0.00 0.00 0.00 0.00 0.01 0.03 0.04 0.07 0.16 0.30 0.29 0.28 0.29 0.31 0.27 0.18 0.19 0.21 0.22 0.21 0.21
0.07 0.07 0.03 0.02 0.01 0.00 0.00 0.00 0.00 0.00 0.00 0.01 0.01 0.00 0.00 0.00 0.00 0.00 0.00 0.00 0.01 0.01 0.00 0.01 0.00 0.00 0.02 0.04 0.08 0.07 0.07 0.13 0.24 0.27 0.31 0.38 0.43 0.39 0.30 0.22 0.20 0.22 0.23
0.26 0.21 0.09 0.07 0.08 0.04 0.04 0.03 0.03 0.02 0.02 0.06 0.04 0.01 0.00 0.00 0.00 0.00 0.00 0.01 0.01 0.02 0.01 0.01 0.01 0.02 0.05 0.07 0.08 0.08 0.10 0.13 0.24 0.36 0.38 0.36 0.41 0.42 0.46 0.40 0.34 0.28 0.23
0.37 0.29 0.20 0.17 0.12 0.08 0.06 0.05 0.06 0.09 0.08 0.15 0.16 0.09 0.02 0.00 0.00 0.00 0.00 0.00 0.00 0.00 0.01 0.01 0.02 0.03 0.04 0.05 0.06 0.04 0.02 0.04 0.09 0.20 0.32 0.39 0.39 0.43 0.47 0.49 0.47 0.54 0.52
0.68 0.57 0.38 0.29 0.31 0.22 0.16 0.11 0.16 0.19 0.18 0.15 0.14 0.20 0.07 0.01 0.00 0.00 0.00 0.00 0.00 0.00 0.00 0.02 0.02 0.02 0.01 0.01 0.01 0.01 0.01 0.03 0.06 0.10 0.23 0.37 0.38 0.35 0.36 0.42 0.54 0.79 1.13
0.48 0.47 0.40 0.36 0.29 0.20 0.16 0.23 0.30 0.29 0.28 0.16 0.15 0.11 0.14 0.10 0.07 0.04 0.01 0.01 0.01 0.01 0.02 0.03 0.03 0.03 0.02 0.01 0.01 0.01 0.02 0.05 0.07 0.13 0.24 0.43 0.70 0.71 0.63 0.72 0.89 1.15 1.39
0.35 0.39 0.34 0.31 0.23 0.22 0.30 0.24 0.21 0.22 0.23 0.25 0.18 0.19 0.17 0.13 0.10 0.09 0.05 0.05 0.06 0.06 0.05 0.04 0.02 0.01 0.01 0.01 0.03 0.08 0.15 0.18 0.21 0.26 0.33 0.51 0.91 1.18 1.07 1.04 1.15 1.32 1.33
0.27 0.24 0.23 0.17 0.21 0.18 0.18 0.24 0.35 0.35 0.32 0.34 0.29 0.26 0.29 0.29 0.24 0.20 0.16 0.11 0.12 0.11 0.08 0.05 0.03 0.02 0.03 0.05 0.09 0.18 0.27 0.34 0.42 0.55 0.72 0.86 1.02 1.25 1.36 1.29 1.30 1.28 1.41
0.11 0.10 0.16 0.19 0.16 0.18 0.23 0.31 0.29 0.32 0.41 0.40 0.40 0.30 0.31 0.31 0.37 0.35 0.31 0.19 0.17 0.12 0.08 0.06 0.06 0.07 0.09 0.11 0.16 0.27 0.42 0.58 0.67 0.78 0.97 1.12 1.14 0.96 0.89 1.02 1.31 1.53 1.41
0.10 0.09 0.18 0.21 0.20 0.19 0.17 0.24 0.24 0.20 0.26 0.29 0.34 0.39 0.33 0.28 0.31 0.33 0.38 0.54 0.61 0.45 0.31 0.26 0.26 0.29 0.32 0.38 0.48 0.60 0.61 0.69 0.74 0.88 1.02 1.11 1.13 0.92 0.76 0.75 0.97 1.28 1.35
0.08 0.08 0.12 0.18 0.19 0.18 0.20 0.21 0.23 0.22 0.22 0.25 0.31 0.33 0.37 0.28 0.26 0.27 0.30 0.41 0.62 0.73 0.56 0.46 0.48 0.48 0.47 0.46 0.50 0.53 0.58 0.75 0.83 0.85 0.88 0.95 1.06 1.12 0.90 0.93 0.91 1.01 1.21
0.06 0.07 0.08 0.08 0.09 0.09 0.12 0.16 0.18 0.20 0.25 0.25 0.23 0.25 0.26 0.23 0.25 0.29 0.31 0.44 0.60 0.77 0.83 0.61 0.55 0.56 0.60 0.66 0.74 0.68 0.68 0.79 0.80 0.83 0.80 0.74 0.72 0.62 0.47 0.47 0.55 0.50 0.42
0.03 0.04 0.04 0.04 0.04 0.05 0.06 0.07 0.09 0.12 0.16 0.17 0.18 0.20 0.23 0.24 0.28 0.31 0.39 0.48 0.61 0.74 0.89 0.86 0.82 0.79 0.81 0.80 0.73 0.57 0.50 0.41 0.38 0.42 0.40 0.33 0.26 0.24 0.22 0.22 0.22 0.26 0.29
0.05 0.05 0.04 0.03 0.02 0.03 0.06 0.12 0.16 0.18 0.18 0.18 0.19 0.23 0.24 0.23 0.25 0.29 0.38 0.50 0.67 0.85 1.02 1.08 1.03 0.94 0.79 0.61 0.43 0.26 0.17 0.11 0.07 0.12 0.10 0.08 0.09 0.10 0.08 0.08 0.12 0.14 0.16
0.04 0.04 0.03 0.04 0.06 0.10 0.11 0.11 0.09 0.07 0.08 0.11 0.14 0.17 0.21 0.24 0.32 0.36 0.39 0.42 0.45 0.44 0.40 0.36 0.27 0.22 0.20 0.18 0.13 0.06 0.04 0.02 0.02 0.05 0.05 0.04 0.04 0.03 0.04 0.05 0.09 0.10 0.13
0.04 0.04 0.03 0.04 0.03 0.04 0.04 0.05 0.06 0.08 0.10 0.13 0.17 0.23 0.30 0.38 0.43 0.43 0.41 0.36 0.29 0.21 0.16 0.14 0.20 0.19 0.16 0.09 0.05 0.02 0.02 0.01 0.01 0.00 0.02 0.01 0.02 0.04 0.05 0.05 0.03 0.02 0.01
0.05 0.05 0.05 0.05 0.06 0.07 0.10 0.12 0.15 0.23 0.32 0.41 0.48 0.48 0.46 0.44 0.39 0.31 0.24 0.18 0.15 0.15 0.26 0.38 0.32 0.25 0.12 0.03 0.01 0.01 0.02 0.02 0.02 0.01 0.01 0.02 0.03 0.02 0.00 0.00 0.00 0.01 0.02
0.17 0.20 0.22 0.16 0.16 0.24 0.44 0.37 0.35 0.37 0.37 0.36 0.35 0.31 0.30 0.33 0.25 0.21 0.16 0.12 0.12 0.25 0.34 0.42 0.34 0.14 0.02 0.00 0.01 0.05 0.16 0.14 0.10 0.00 0.03 0.02 0.00 0.00 0.00 0.00 0.02 0.03 0.04
0.38 0.53 0.56 0.60 0.70 0.82 0.91 0.75 0.61 0.46 0.43 0.37 0.33 0.29 0.22 0.14 0.09 0.06 0.04 0.07 0.19 0.25 0.24 0.14 0.04 0.01 0.02 0.05 0.23 0.23 0.14 0.16 0.10 0.01 0.05 0.07 0.01 0.01 0.01 0.01 0.01 0.01 0.03
0.88 0.78 0.69 0.82 0.89 0.82 0.70 0.53 0.49 0.36 0.31 0.28 0.24 0.12 0.05 0.02 0.01 0.03 0.08 0.21 0.15 0.09 0.01 0.00 0.01 0.03 0.08 0.09 0.10 0.23 0.22 0.13 0.05 0.01 0.03 0.14 0.02 0.01 0.00 0.00 0.01 0.01 0.03
0.81 0.71 0.57 0.48 0.45 0.43 0.29 0.18 0.12 0.10 0.08 0.05 0.03 0.01 0.02 0.02 0.02 0.10 0.16 0.22 0.07 0.00 0.00 0.01 0.07 0.05 0.02 0.01 0.01 0.13 0.20 0.20 0.13 0.01 0.01 0.09 0.04 0.02 0.01 0.00 0.00 0.04 0.06
0.60 0.49 0.38 0.33 0.24 0.14 0.08 0.05 0.04 0.03 0.02 0.01 0.00 0.00 0.01 0.02 0.05 0.21 0.15 0.04 0.01 0.01 0.07 0.06 0.01 0.00 0.00 0.00 0.01 0.04 0.19 0.56 0.28 0.22 0.01 0.29 0.16 0.12 0.39 0.03 0.01 0.02 0.01

GFSMA_prec_precacc_090.txt.gz
Total_Precipitation_Accumulation
0.00 0.00 0.00 0.00 0.00 0.00 0.00 0.00 0.00 0.00 0.00 0.00 0.00 0.00 0.00 0.00 0.00 0.00 0.00 0.00 0.00 0.00 0.00 0.00 0.01 0.01 0.03 0.10 0.18 0.17 0.13 0.10 0.08 0.07 0.05 0.04 0.05 0.06 0.08 0.10 0.12 0.12 0.12
0.00 0.00 0.00 0.00 0.00 0.00 0.00 0.00 0.00 0.00 0.00 0.00 0.00 0.00 0.00 0.00 0.00 0.00 0.00 0.00 0.00 0.00 0.00 0.00 0.01 0.04 0.05 0.14 0.18 0.25 0.26 0.15 0.09 0.08 0.07 0.07 0.08 0.10 0.11 0.12 0.13 0.13 0.16
0.00 0.00 0.00 0.00 0.00 0.00 0.00 0.00 0.00 0.00 0.00 0.00 0.00 0.00 0.00 0.00 0.00 0.00 0.00 0.00 0.00 0.00 0.00 0.00 0.01 0.05 0.10 0.06 0.16 0.22 0.29 0.26 0.20 0.18 0.13 0.09 0.09 0.11 0.13 0.15 0.16 0.15 0.15
0.00 0.00 0.00 0.00 0.00 0.00 0.00 0.00 0.00 0.00 0.00 0.00 0.00 0.00 0.00 0.00 0.00 0.00 0.00 0.00 0.00 0.00 0.00 0.00 0.02 0.05 0.03 0.03 0.06 0.14 0.25 0.33 0.28 0.24 0.24 0.17 0.13 0.12 0.13 0.15 0.16 0.18 0.20
0.02 0.01 0.00 0.00 0.00 0.00 0.00 0.00 0.00 0.00 0.00 0.00 0.00 0.00 0.00 0.00 0.00 0.00 0.00 0.00 0.00 0.00 0.00 0.00 0.00 0.00 0.01 0.03 0.04 0.07 0.16 0.30 0.29 0.28 0.29 0.33 0.33 0.25 0.22 0.22 0.22 0.21 0.21
0.07 0.07 0.03 0.02 0.01 0.00 0.00 0.00 0.00 0.00 0.00 0.01 0.01 0.00 0.00 0.00 0.00 0.00 0.00 0.00 0.01 0.01 0.00 0.01 0.00 0.00 0.02 0.05 0.08 0.07 0.07 0.13 0.24 0.27 0.31 0.38 0.43 0.41 0.35 0.32 0.29 0.23 0.23
0.26 0.21 0.09 0.07 0.08 0.04 0.04 0.03 0.03 0.02 0.02 0.06 0.05 0.01 0.00 0.00 0.00 0.00 0.00 0.01 0.01 0.02 0.01 0.01 0.01 0.02 0.05 0.07 0.08 0.08 0.10 0.13 0.24 0.36 0.38 0.36 0.41 0.42 0.46 0.41 0.43 0.39 0.29
0.55 0.40 0.23 0.19 0.14 0.08 0.06 0.05 0.06 0.09 0.08 0.15 0.16 0.09 0.02 0.00 0.00 0.00 0.00 0.00 0.00 0.00 0.01 0.01 0.02 0.03 0.04 0.05 0.06 0.04 0.02 0.04 0.09 0.20 0.32 0.39 0.39 0.43 0.47 0.49 0.48 0.58 0.67
0.76 0.74 0.58 0.53 0.53 0.35 0.20 0.11 0.16 0.19 0.18 0.15 0.14 0.20 0.07 0.01 0.00 0.00 0.00 0.00 0.00 0.00 0.00 0.02 0.02 0.02 0.01 0.01 0.01 0.01 0.01 0.03 0.06 0.10 0.23 0.38 0.39 0.35 0.38 0.43 0.55 0.80 1.15
0.61 0.69 0.57 0.46 0.38 0.31 0.27 0.30 0.31 0.29 0.28 0.16 0.15 0.11 0.14 0.10 0.08 0.04 0.01 0.01 0.01 0.01 0.02 0.03 0.03 0.03 0.02 0.01 0.01 0.01 0.02 0.05 0.07 0.13 0.24 0.43 0.72 0.72 0.64 0.72 0.89 1.15 1.39
0.55 0.56 0.50 0.45 0.36 0.34 0.38 0.29 0.23 0.22 0.23 0.25 0.18 0.19 0.17 0.13 0.10 0.09 0.05 0.05 0.06 0.06 0.05 0.04 0.02 0.01 0.01 0.01 0.03 0.08 0.15 0.18 0.21 0.26 0.34 0.54 0.93 1.19 1.09 1.05 1.16 1.33 1.33
0.31 0.28 0.27 0.22 0.25 0.20 0.19 0.24 0.35 0.35 0.32 0.34 0.29 0.26 0.29 0.29 0.24 0.20 0.16 0.11 0.12 0.11 0.08 0.05 0.03 0.03 0.04 0.05 0.09 0.18 0.27 0.34 0.42 0.55 0.73 0.87 1.02 1.25 1.38 1.34 1.33 1.29 1.41
0.18 0.11 0.16 0.19 0.16 0.18 0.23 0.31 0.29 0.32 0.41 0.40 0.40 0.30 0.31 0.31 0.37 0.35 0.31 0.19 0.17 0.12 0.08 0.06 0.07 0.07 0.09 0.11 0.16 0.27 0.42 0.58 0.67 0.78 0.98 1.12 1.14 0.97 0.90 1.03 1.32 1.55 1.43
0.17 0.11 0.18 0.21 0.20 0.19 0.17 0.24 0.24 0.20 0.26 0.29 0.34 0.39 0.33 0.28 0.31 0.33 0.38 0.55 0.61 0.46 0.32 0.26 0.26 0.29 0.32 0.38 0.48 0.60 0.61 0.69 0.74 0.88 1.03 1.11 1.13 0.92 0.77 0.76 0.99 1.30 1.37
0.09 0.08 0.12 0.18 0.19 0.18 0.20 0.21 0.23 0.22 0.22 0.25 0.31 0.33 0.37 0.28 0.26 0.27 0.30 0.42 0.63 0.74 0.56 0.46 0.49 0.48 0.47 0.46 0.51 0.53 0.58 0.75 0.83 0.85 0.88 0.95 1.06 1.13 0.91 0.94 0.92 1.02 1.22
0.06 0.07 0.08 0.08 0.09 0.09 0.12 0.16 0.18 0.20 0.25 0.25 0.23 0.25 0.26 0.23 0.25 0.29 0.31 0.44 0.61 0.78 0.84 0.61 0.55 0.56 0.61 0.66 0.74 0.69 0.68 0.79 0.80 0.83 0.80 0.74 0.72 0.62 0.47 0.48 0.55 0.51 0.42
0.03 0.04 0.04 0.04 0.05 0.05 0.06 0.07 0.09 0.12 0.16 0.17 0.18 0.20 0.23 0.24 0.28 0.31 0.39 0.48 0.61 0.75 0.90 0.86 0.82 0.80 0.81 0.80 0.73 0.57 0.50 0.41 0.38 0.42 0.40 0.33 0.26 0.24 0.23 0.22 0.23 0.26 0.29
0.05 0.05 0.04 0.03 0.02 0.03 0.06 0.12 0.16 0.18 0.18 0.18 0.19 0.23 0.24 0.23 0.25 0.29 0.38 0.50 0.67 0.85 1.02 1.09 1.04 0.95 0.80 0.61 0.43 0.26 0.17 0.11 0.07 0.12 0.10 0.08 0.09 0.10 0.08 0.08 0.12 0.14 0.16
0.04 0.04 0.03 0.04 0.06 0.10 0.11 0.11 0.09 0.07 0.08 0.11 0.14 0.17 0.21 0.24 0.32 0.36 0.39 0.42 0.45 0.44 0.40 0.36 0.27 0.22 0.20 0.18 0.13 0.06 0.04 0.02 0.02 0.05 0.05 0.04 0.04 0.03 0.04 0.05 0.09 0.10 0.13
0.04 0.04 0.03 0.04 0.03 0.04 0.04 0.05 0.06 0.08 0.10 0.13 0.17 0.23 0.30 0.38 0.43 0.43 0.41 0.36 0.29 0.21 0.16 0.14 0.21 0.20 0.17 0.09 0.05 0.02 0.02 0.01 0.01 0.00 0.02 0.01 0.02 0.04 0.05 0.05 0.03 0.02 0.01
0.05 0.05 0.05 0.05 0.06 0.07 0.10 0.12 0.15 0.23 0.32 0.41 0.48 0.48 0.46 0.44 0.39 0.31 0.24 0.18 0.15 0.15 0.26 0.38 0.32 0.25 0.12 0.03 0.01 0.01 0.02 0.02 0.02 0.01 0.01 0.02 0.03 0.02 0.00 0.00 0.00 0.01 0.02
0.17 0.20 0.22 0.16 0.16 0.24 0.44 0.37 0.35 0.37 0.37 0.36 0.35 0.31 0.30 0.33 0.25 0.21 0.16 0.12 0.12 0.25 0.34 0.42 0.34 0.14 0.02 0.00 0.01 0.05 0.16 0.14 0.10 0.00 0.03 0.02 0.00 0.00 0.00 0.00 0.02 0.03 0.04
0.38 0.53 0.56 0.60 0.70 0.82 0.91 0.75 0.61 0.46 0.43 0.37 0.33 0.29 0.22 0.14 0.09 0.06 0.04 0.07 0.19 0.25 0.24 0.14 0.04 0.01 0.02 0.05 0.23 0.23 0.14 0.16 0.10 0.01 0.05 0.07 0.01 0.01 0.01 0.01 0.01 0.01 0.03
0.88 0.78 0.69 0.82 0.89 0.82 0.70 0.53 0.49 0.36 0.31 0.29 0.24 0.12 0.05 0.02 0.01 0.03 0.08 0.21 0.15 0.09 0.01 0.00 0.01 0.03 0.08 0.09 0.10 0.23 0.22 0.13 0.05 0.01 0.03 0.14 0.02 0.01 0.00 0.00 0.01 0.01 0.03
0.81 0.71 0.57 0.48 0.45 0.43 0.29 0.18 0.12 0.10 0.08 0.05 0.03 0.01 0.02 0.02 0.02 0.10 0.16 0.22 0.07 0.00 0.00 0.01 0.07 0.05 0.02 0.01 0.01 0.13 0.20 0.20 0.13 0.01 0.01 0.09 0.04 0.02 0.01 0.00 0.00 0.04 0.06
0.60 0.49 0.38 0.33 0.24 0.14 0.08 0.05 0.04 0.03 0.02 0.01 0.00 0.00 0.01 0.02 0.05 0.21 0.15 0.04 0.01 0.01 0.07 0.06 0.01 0.00 0.00 0.00 0.01 0.04 0.19 0.56 0.28 0.22 0.01 0.29 0.16 0.12 0.39 0.03 0.01 0.02 0.01

GFSMA_prec_precacc_093.txt.gz
Total_Precipitation_Accumulation
0.00 0.00 0.00 0.00 0.00 0.00 0.00 0.00 0.00 0.00 0.00 0.00 0.00 0.00 0.00 0.00 0.00 0.00 0.00 0.00 0.00 0.00 0.00 0.00 0.01 0.02 0.04 0.16 0.21 0.19 0.16 0.11 0.08 0.07 0.05 0.04 0.05 0.06 0.08 0.10 0.12 0.12 0.12
0.00 0.00 0.00 0.00 0.00 0.00 0.00 0.00 0.00 0.00 0.00 0.00 0.00 0.00 0.00 0.00 0.00 0.00 0.00 0.00 0.00 0.00 0.00 0.00 0.01 0.04 0.08 0.17 0.20 0.26 0.27 0.16 0.10 0.10 0.08 0.07 0.08 0.10 0.11 0.12 0.13 0.13 0.16
0.00 0.00 0.00 0.00 0.00 0.00 0.00 0.00 0.00 0.00 0.00 0.00 0.00 0.00 0.00 0.00 0.00 0.00 0.00 0.00 0.00 0.00 0.00 0.00 0.02 0.06 0.11 0.07 0.17 0.23 0.31 0.27 0.20 0.18 0.14 0.09 0.09 0.11 0.13 0.15 0.16 0.15 0.15
0.00 0.00 0.00 0.00 0.00 0.00 0.00 0.00 0.00 0.00 0.00 0.00 0.00 0.00 0.00 0.00 0.00 0.00 0.00 0.00 0.00 0.00 0.00 0.00 0.02 0.06 0.04 0.04 0.07 0.15 0.25 0.33 0.28 0.24 0.24 0.18 0.16 0.15 0.14 0.15 0.16 0.18 0.20
0.02 0.01 0.00 0.00 0.00 0.00 0.00 0.00 0.00 0.00 0.00 0.00 0.00 0.00 0.00 0.00 0.00 0.00 0.00 0.00 0.00 0.00 0.00 0.00 0.00 0.00 0.02 0.05 0.06 0.07 0.16 0.30 0.29 0.28 0.29 0.33 0.33 0.27 0.26 0.26 0.25 0.22 0.21
0.07 0.07 0.03 0.02 0.01 0.00 0.00 0.00 0.00 0.00 0.00 0.01 0.01 0.00 0.00 0.00 0.00 0.00 0.00 0.00 0.01 0.01 0.00 0.01 0.00 0.00 0.02 0.06 0.08 0.07 0.07 0.13 0.24 0.27 0.31 0.38 0.43 0.41 0.35 0.33 0.36 0.32 0.25
0.26 0.21 0.09 0.07 0.08 0.04 0.04 0.03 0.03 0.02 0.02 0.06 0.05 0.01 0.00 0.00 0.00 0.00 0.00 0.01 0.01 0.02 0.01 0.01 0.01 0.02 0.05 0.07 0.08 0.08 0.10 0.13 0.24 0.36 0.38 0.36 0.41 0.42 0.46 0.41 0.43 0.42 0.36
0.67 0.51 0.28 0.20 0.15 0.11 0.08 0.05 0.06 0.09 0.08 0.15 0.16 0.09 0.02 0.00 0.00 0.00 0.00 0.00 0.00 0.00 0.01 0.01 0.02 0.03 0.04 0.05 0.06 0.04 0.02 0.04 0.09 0.20 0.32 0.39 0.40 0.43 0.47 0.50 0.49 0.59 0.68
0.90 0.92 0.78 0.73 0.71 0.54 0.38 0.25 0.22 0.20 0.18 0.15 0.14 0.20 0.07 0.01 0.00 0.00 0.00 0.00 0.00 0.00 0.00 0.02 0.02 0.02 0.01 0.01 0.01 0.01 0.01 0.03 0.06 0.10 0.23 0.38 0.39 0.37 0.39 0.43 0.55 0.80 1.15
0.78 0.88 0.85 0.72 0.57 0.40 0.35 0.40 0.41 0.36 0.31 0.17 0.15 0.11 0.14 0.10 0.08 0.04 0.01 0.01 0.01 0.01 0.02 0.03 0.03 0.03 0.02 0.01 0.01 0.01 0.02 0.05 0.07 0.13 0.24 0.44 0.74 0.75 0.65 0.73 0.90 1.16 1.39
1.04 1.06 0.93 0.82 0.62 0.49 0.48 0.38 0.31 0.26 0.24 0.25 0.18 0.19 0.17 0.13 0.10 0.09 0.05 0.05 0.06 0.06 0.05 0.04 0.02 0.01 0.01 0.01 0.03 0.08 0.15 0.18 0.21 0.26 0.34 0.55 0.94 1.19 1.10 1.09 1.20 1.35 1.34
0.88 0.86 0.68 0.47 0.41 0.27 0.23 0.29 0.39 0.36 0.32 0.34 0.29 0.26 0.29 0.29 0.24 0.20 0.16 0.11 0.12 0.11 0.08 0.05 0.03 0.03 0.04 0.05 0.10 0.18 0.27 0.34 0.42 0.55 0.73 0.88 1.02 1.25 1.39 1.37 1.36 1.30 1.42
0.34 0.29 0.31 0.27 0.18 0.19 0.23 0.32 0.29 0.32 0.41 0.40 0.40 0.30 0.31 0.31 0.37 0.35 0.31 0.19 0.17 0.12 0.08 0.06 0.07 0.07 0.09 0.11 0.16 0.29 0.43 0.58 0.67 0.78 0.98 1.13 1.15 0.97 0.90 1.04 1.32 1.55 1.44
0.29 0.21 0.24 0.23 0.20 0.19 0.17 0.24 0.24 0.20 0.26 0.29 0.34 0.39 0.33 0.28 0.31 0.33 0.38 0.55 0.61 0.46 0.32 0.26 0.26 0.29 0.32 0.38 0.49 0.63 0.61 0.69 0.74 0.88 1.03 1.11 1.13 0.92 0.77 0.76 0.99 1.31 1.38
0.12 0.10 0.12 0.18 0.19 0.18 0.20 0.21 0.23 0.22 0.22 0.25 0.31 0.33 0.37 0.28 0.26 0.27 0.30 0.42 0.63 0.74 0.56 0.46 0.49 0.48 0.47 0.46 0.51 0.53 0.58 0.75 0.83 0.85 0.88 0.96 1.06 1.13 0.91 0.94 0.93 1.03 1.22
0.06 0.07 0.08 0.08 0.09 0.09 0.12 0.16 0.18 0.20 0.25 0.25 0.23 0.25 0.26 0.23 0.25 0.29 0.31 0.44 0.61 0.78 0.85 0.61 0.55 0.56 0.61 0.66 0.75 0.69 0.68 0.79 0.80 0.83 0.80 0.74 0.72 0.62 0.47 0.48 0.56 0.51 0.42
0.03 0.04 0.04 0.04 0.05 0.05 0.06 0.07 0.09 0.12 0.16 0.17 0.18 0.20 0.23 0.24 0.28 0.31 0.39 0.48 0.61 0.75 0.90 0.86 0.82 0.80 0.82 0.80 0.74 0.58 0.50 0.41 0.38 0.42 0.40 0.33 0.26 0.24 0.23 0.22 0.23 0.26 0.29
0.05 0.05 0.04 0.03 0.02 0.03 0.06 0.12 0.16 0.18 0.18 0.18 0.19 0.23 0.24 0.23 0.25 0.29 0.38 0.50 0.67 0.85 1.02 1.09 1.04 0.95 0.80 0.62 0.44 0.27 0.17 0.11 0.07 0.12 0.10 0.08 0.09 0.10 0.08 0.08 0.12 0.14 0.16
0.04 0.04 0.03 0.04 0.06 0.10 0.11 0.11 0.09 0.07 0.08 0.11 0.14 0.17 0.21 0.24 0.32 0.36 0.39 0.42 0.45 0.44 0.40 0.36 0.27 0.22 0.20 0.18 0.13 0.07 0.04 0.02 0.02 0.05 0.05 0.04 0.04 0.03 0.04 0.05 0.09 0.10 0.13
0.04 0.04 0.03 0.04 0.03 0.04 0.04 0.05 0.06 0.08 0.10 0.13 0.17 0.23 0.30 0.38 0.43 0.43 0.41 0.36 0.29 0.21 0.16 0.15 0.21 0.20 0.17 0.09 0.05 0.02 0.02 0.01 0.01 0.00 0.02 0.01 0.02 0.04 0.05 0.05 0.03 0.02 0.01
0.05 0.05 0.05 0.05 0.06 0.07 0.10 0.12 0.15 0.23 0.32 0.41 0.48 0.48 0.46 0.44 0.39 0.31 0.24 0.18 0.15 0.15 0.26 0.39 0.32 0.25 0.12 0.04 0.01 0.01 0.02 0.02 0.02 0.01 0.01 0.02 0.03 0.02 0.00 0.00 0.00 0.01 0.02
0.17 0.20 0.22 0.16 0.16 0.24 0.44 0.37 0.35 0.37 0.37 0.36 0.35 0.31 0.30 0.33 0.25 0.21 0.16 0.12 0.12 0.25 0.34 0.42 0.34 0.14 0.02 0.00 0.01 0.05 0.16 0.14 0.10 0.00 0.03 0.02 0.00 0.00 0.00 0.00 0.02 0.03 0.04
0.38 0.53 0.56 0.60 0.70 0.82 0.91 0.75 0.61 0.46 0.43 0.37 0.33 0.29 0.22 0.14 0.09 0.06 0.04 0.07 0.19 0.25 0.24 0.14 0.04 0.01 0.02 0.05 0.23 0.24 0.14 0.16 0.10 0.01 0.05 0.07 0.01 0.01 0.01 0.01 0.01 0.01 0.03
0.88 0.78 0.69 0.82 0.89 0.82 0.70 0.53 0.49 0.36 0.31 0.29 0.24 0.12 0.05 0.02 0.01 0.03 0.08 0.21 0.15 0.09 0.01 0.00 0.01 0.03 0.08 0.09 0.10 0.23 0.22 0.13 0.05 0.01 0.03 0.14 0.02 0.01 0.00 0.00 0.01 0.01 0.03
0.81 0.71 0.57 0.48 0.45 0.43 0.29 0.18 0.12 0.10 0.08 0.05 0.03 0.01 0.02 0.02 0.02 0.10 0.16 0.22 0.07 0.00 0.00 0.01 0.07 0.05 0.02 0.01 0.01 0.13 0.20 0.20 0.13 0.01 0.01 0.09 0.04 0.02 0.01 0.00 0.00 0.04 0.06
0.60 0.49 0.38 0.33 0.24 0.14 0.08 0.05 0.04 0.03 0.02 0.01 0.00 0.00 0.01 0.02 0.05 0.21 0.15 0.04 0.01 0.01 0.07 0.06 0.01 0.00 0.00 0.00 0.01 0.04 0.19 0.56 0.28 0.22 0.01 0.29 0.16 0.12 0.39 0.03 0.01 0.02 0.01

GFSMA_prec_precacc_096.txt.gz
Total_Precipitation_Accumulation
0.00 0.00 0.00 0.00 0.00 0.00 0.00 0.00 0.00 0.00 0.00 0.00 0.00 0.00 0.00 0.00 0.00 0.00 0.00 0.00 0.00 0.00 0.00 0.01 0.01 0.02 0.05 0.19 0.21 0.19 0.16 0.12 0.08 0.07 0.05 0.04 0.05 0.06 0.08 0.10 0.12 0.12 0.12
0.00 0.00 0.00 0.00 0.00 0.00 0.00 0.00 0.00 0.00 0.00 0.00 0.00 0.00 0.00 0.00 0.00 0.00 0.00 0.00 0.00 0.00 0.00 0.00 0.01 0.05 0.10 0.19 0.20 0.26 0.28 0.16 0.10 0.10 0.08 0.07 0.08 0.10 0.11 0.12 0.13 0.13 0.16
0.00 0.00 0.00 0.00 0.00 0.00 0.00 0.00 0.00 0.00 0.00 0.00 0.00 0.00 0.00 0.00 0.00 0.00 0.00 0.00 0.00 0.00 0.00 0.00 0.02 0.09 0.15 0.09 0.17 0.24 0.31 0.27 0.20 0.18 0.14 0.09 0.10 0.11 0.13 0.15 0.16 0.15 0.15
0.00 0.00 0.00 0.00 0.00 0.00 0.00 0.00 0.00 0.00 0.00 0.00 0.00 0.00 0.00 0.00 0.00 0.00 0.00 0.00 0.00 0.00 0.00 0.00 0.02 0.06 0.06 0.06 0.09 0.16 0.25 0.33 0.28 0.24 0.24 0.18 0.17 0.17 0.17 0.17 0.17 0.18 0.20
0.02 0.01 0.00 0.00 0.00 0.00 0.00 0.00 0.00 0.00 0.00 0.00 0.00 0.00 0.00 0.00 0.00 0.00 0.00 0.00 0.00 0.00 0.00 0.00 0.00 0.00 0.02 0.07 0.07 0.08 0.16 0.30 0.29 0.28 0.29 0.33 0.33 0.27 0.26 0.29 0.31 0.26 0.21
0.07 0.07 0.03 0.02 0.01 0.00 0.00 0.00 0.00 0.00 0.00 0.01 0.01 0.00 0.00 0.00 0.00 0.00 0.00 0.00 0.01 0.01 0.00 0.01 0.00 0.00 0.02 0.08 0.10 0.07 0.07 0.13 0.24 0.27 0.31 0.38 0.43 0.41 0.35 0.33 0.37 0.38 0.30
0.27 0.22 0.10 0.07 0.08 0.04 0.04 0.03 0.03 0.02 0.02 0.06 0.05 0.01 0.00 0.00 0.00 0.00 0.00 0.01 0.01 0.02 0.01 0.01 0.01 0.02 0.05 0.08 0.08 0.08 0.10 0.13 0.24 0.36 0.38 0.36 0.41 0.42 0.46 0.41 0.44 0.43 0.39
0.72 0.58 0.34 0.22 0.15 0.11 0.08 0.07 0.09 0.13 0.09 0.15 0.17 0.10 0.02 0.00 0.00 0.00 0.00 0.00 0.00 0.00 0.01 0.01 0.02 0.03 0.04 0.05 0.06 0.04 0.02 0.04 0.09 0.20 0.32 0.39 0.40 0.44 0.48 0.51 0.50 0.59 0.69
0.98 1.04 0.93 0.90 0.82 0.62 0.44 0.31 0.26 0.23 0.25 0.18 0.15 0.21 0.07 0.01 0.00 0.00 0.00 0.00 0.00 0.00 0.00 0.02 0.02 0.02 0.01 0.01 0.01 0.01 0.01 0.03 0.06 0.10 0.23 0.38 0.39 0.38 0.41 0.44 0.55 0.80 1.15
0.83 1.02 1.09 0.98 1.00 0.73 0.48 0.45 0.43 0.37 0.33 0.19 0.15 0.11 0.14 0.10 0.08 0.04 0.01 0.01 0.01 0.01 0.02 0.03 0.03 0.03 0.02 0.01 0.01 0.01 0.02 0.05 0.07 0.13 0.24 0.44 0.75 0.76 0.67 0.73 0.90 1.16 1.39
1.17 1.20 1.20 1.23 1.12 1.10 0.90 0.56 0.40 0.30 0.24 0.25 0.18 0.19 0.17 0.13 0.10 0.09 0.05 0.05 0.06 0.06 0.05 0.04 0.02 0.01 0.01 0.01 0.03 0.08 0.15 0.18 0.21 0.26 0.34 0.55 0.94 1.20 1.10 1.11 1.24 1.38 1.35
1.04 1.21 1.20 1.10 1.04 0.68 0.47 0.42 0.43 0.39 0.34 0.34 0.29 0.26 0.29 0.29 0.24 0.20 0.16 0.11 0.12 0.11 0.08 0.05 0.03 0.03 0.04 0.05 0.10 0.19 0.28 0.34 0.42 0.55 0.73 0.88 1.03 1.25 1.39 1.38 1.37 1.31 1.42
0.43 0.40 0.50 0.53 0.49 0.43 0.31 0.33 0.30 0.33 0.42 0.40 0.40 0.30 0.31 0.31 0.37 0.35 0.31 0.19 0.17 0.12 0.08 0.06 0.07 0.07 0.09 0.11 0.16 0.29 0.43 0.59 0.67 0.78 0.98 1.13 1.15 0.97 0.90 1.04 1.32 1.56 1.44
0.37 0.28 0.30 0.28 0.24 0.21 0.17 0.24 0.24 0.20 0.26 0.29 0.34 0.39 0.33 0.28 0.31 0.33 0.38 0.55 0.61 0.46 0.32 0.26 0.26 0.29 0.32 0.38 0.49 0.63 0.62 0.70 0.74 0.88 1.03 1.11 1.13 0.92 0.77 0.76 1.00 1.31 1.38
0.16 0.14 0.15 0.19 0.20 0.18 0.20 0.21 0.23 0.22 0.22 0.25 0.31 0.33 0.37 0.28 0.26 0.27 0.30 0.42 0.63 0.74 0.56 0.46 0.49 0.48 0.47 0.46 0.51 0.53 0.58 0.76 0.84 0.85 0.88 0.96 1.06 1.13 0.91 0.94 0.93 1.03 1.23
0.08 0.10 0.10 0.09 0.09 0.09 0.12 0.16 0.18 0.20 0.25 0.25 0.23 0.25 0.26 0.23 0.25 0.29 0.31 0.44 0.61 0.78 0.85 0.61 0.55 0.56 0.61 0.66 0.75 0.69 0.68 0.79 0.80 0.83 0.80 0.74 0.72 0.62 0.47 0.48 0.56 0.52 0.43
0.04 0.04 0.04 0.04 0.05 0.05 0.06 0.07 0.09 0.12 0.16 0.17 0.18 0.20 0.23 0.24 0.28 0.31 0.39 0.48 0.61 0.76 0.91 0.87 0.82 0.80 0.82 0.80 0.74 0.58 0.50 0.41 0.38 0.43 0.40 0.33 0.26 0.24 0.23 0.22 0.23 0.26 0.29
0.05 0.05 0.04 0.03 0.02 0.03 0.06 0.12 0.16 0.18 0.18 0.18 0.19 0.23 0.24 0.23 0.25 0.29 0.38 0.50 0.67 0.85 1.02 1.09 1.04 0.95 0.80 0.62 0.44 0.27 0.17 0.11 0.07 0.12 0.10 0.08 0.09 0.10 0.08 0.08 0.12 0.14 0.16
0.04 0.04 0.03 0.04 0.06 0.10 0.11 0.11 0.09 0.07 0.08 0.11 0.14 0.17 0.21 0.24 0.32 0.36 0.39 0.42 0.45 0.44 0.40 0.36 0.27 0.22 0.20 0.18 0.13 0.07 0.04 0.02 0.02 0.05 0.05 0.04 0.04 0.03 0.04 0.05 0.09 0.10 0.13
0.04 0.04 0.03 0.04 0.03 0.04 0.04 0.05 0.06 0.08 0.10 0.13 0.17 0.23 0.30 0.38 0.43 0.43 0.41 0.36 0.29 0.21 0.16 0.15 0.21 0.21 0.17 0.09 0.05 0.02 0.02 0.01 0.01 0.00 0.02 0.01 0.02 0.04 0.05 0.05 0.03 0.02 0.01
0.05 0.05 0.05 0.05 0.06 0.07 0.10 0.12 0.15 0.23 0.32 0.41 0.48 0.48 0.46 0.44 0.39 0.31 0.24 0.18 0.15 0.15 0.26 0.39 0.32 0.25 0.13 0.04 0.01 0.01 0.02 0.02 0.02 0.01 0.01 0.02 0.03 0.02 0.00 0.00 0.00 0.01 0.02
0.17 0.20 0.22 0.16 0.16 0.24 0.44 0.37 0.35 0.37 0.37 0.36 0.35 0.31 0.30 0.33 0.25 0.21 0.16 0.12 0.12 0.25 0.34 0.42 0.35 0.14 0.02 0.00 0.01 0.05 0.16 0.14 0.11 0.00 0.03 0.02 0.00 0.00 0.00 0.00 0.02 0.03 0.04
0.38 0.53 0.56 0.60 0.70 0.82 0.91 0.75 0.61 0.46 0.43 0.37 0.33 0.29 0.22 0.14 0.09 0.06 0.04 0.07 0.19 0.25 0.24 0.14 0.04 0.01 0.02 0.05 0.23 0.24 0.14 0.16 0.11 0.01 0.05 0.07 0.01 0.01 0.01 0.01 0.01 0.01 0.03
0.88 0.78 0.69 0.82 0.89 0.82 0.70 0.53 0.49 0.36 0.31 0.29 0.24 0.12 0.05 0.02 0.01 0.03 0.08 0.21 0.15 0.09 0.01 0.00 0.01 0.03 0.08 0.09 0.10 0.23 0.22 0.13 0.05 0.01 0.03 0.14 0.02 0.01 0.00 0.00 0.01 0.01 0.03
0.81 0.71 0.57 0.48 0.45 0.43 0.29 0.18 0.12 0.10 0.08 0.05 0.03 0.01 0.02 0.02 0.02 0.10 0.16 0.22 0.07 0.00 0.00 0.01 0.07 0.05 0.02 0.01 0.01 0.13 0.20 0.20 0.13 0.01 0.01 0.09 0.04 0.02 0.01 0.00 0.00 0.04 0.06
0.60 0.49 0.38 0.33 0.24 0.14 0.08 0.05 0.04 0.03 0.02 0.01 0.00 0.00 0.01 0.02 0.05 0.21 0.15 0.04 0.01 0.01 0.07 0.06 0.01 0.00 0.00 0.00 0.01 0.04 0.19 0.56 0.28 0.22 0.01 0.29 0.16 0.12 0.39 0.03 0.01 0.02 0.01

GFSMA_prec_precacc_099.txt.gz
Total_Precipitation_Accumulation
0.00 0.00 0.00 0.00 0.00 0.00 0.00 0.00 0.00 0.00 0.00 0.00 0.00 0.00 0.00 0.00 0.00 0.00 0.00 0.00 0.00 0.00 0.00 0.01 0.02 0.04 0.06 0.24 0.22 0.20 0.17 0.13 0.08 0.07 0.06 0.04 0.05 0.06 0.08 0.10 0.12 0.12 0.12
0.00 0.00 0.00 0.00 0.00 0.00 0.00 0.00 0.00 0.00 0.00 0.00 0.00 0.00 0.00 0.00 0.00 0.00 0.00 0.00 0.00 0.00 0.00 0.00 0.02 0.07 0.14 0.23 0.21 0.27 0.28 0.16 0.10 0.10 0.08 0.07 0.08 0.10 0.11 0.12 0.13 0.13 0.16
0.00 0.00 0.00 0.00 0.00 0.00 0.00 0.00 0.00 0.00 0.00 0.00 0.00 0.00 0.00 0.00 0.00 0.00 0.00 0.00 0.00 0.00 0.00 0.00 0.02 0.09 0.19 0.11 0.19 0.26 0.33 0.27 0.20 0.18 0.14 0.09 0.11 0.13 0.16 0.16 0.16 0.15 0.15
0.00 0.00 0.00 0.00 0.00 0.00 0.00 0.00 0.00 0.00 0.00 0.00 0.00 0.00 0.00 0.00 0.00 0.00 0.00 0.00 0.00 0.00 0.00 0.00 0.02 0.06 0.06 0.08 0.11 0.19 0.26 0.33 0.28 0.24 0.24 0.18 0.17 0.17 0.19 0.23 0.22 0.20 0.21
0.02 0.01 0.00 0.00 0.00 0.00 0.00 0.00 0.00 0.00 0.00 0.00 0.00 0.00 0.00 0.00 0.00 0.00 0.00 0.00 0.00 0.00 0.00 0.00 0.00 0.00 0.02 0.08 0.09 0.09 0.16 0.30 0.29 0.28 0.29 0.33 0.33 0.27 0.26 0.30 0.34 0.34 0.28
0.07 0.07 0.03 0.02 0.01 0.00 0.00 0.00 0.00 0.00 0.00 0.01 0.01 0.00 0.00 0.00 0.00 0.00 0.00 0.00 0.01 0.01 0.00 0.01 0.00 0.00 0.02 0.08 0.13 0.07 0.07 0.13 0.24 0.27 0.31 0.38 0.43 0.41 0.35 0.33 0.38 0.39 0.34
0.27 0.22 0.10 0.07 0.08 0.04 0.04 0.03 0.03 0.02 0.02 0.06 0.05 0.01 0.00 0.00 0.00 0.00 0.00 0.01 0.01 0.02 0.01 0.01 0.01 0.02 0.05 0.08 0.08 0.08 0.10 0.13 0.24 0.36 0.38 0.36 0.41 0.42 0.46 0.42 0.45 0.44 0.39
0.72 0.58 0.34 0.24 0.16 0.11 0.08 0.07 0.10 0.16 0.13 0.17 0.18 0.10 0.02 0.00 0.00 0.00 0.00 0.00 0.00 0.00 0.01 0.01 0.02 0.03 0.04 0.05 0.06 0.04 0.02 0.04 0.09 0.20 0.32 0.39 0.40 0.44 0.48 0.53 0.51 0.60 0.69
0.99 1.04 0.93 0.92 0.84 0.64 0.50 0.37 0.31 0.31 0.34 0.26 0.18 0.21 0.07 0.01 0.00 0.00 0.00 0.00 0.00 0.00 0.00 0.02 0.02 0.02 0.01 0.01 0.01 0.01 0.01 0.03 0.06 0.10 0.23 0.38 0.39 0.38 0.42 0.44 0.55 0.80 1.15
0.83 1.02 1.09 0.99 1.07 1.02 0.82 0.68 0.56 0.44 0.37 0.23 0.17 0.11 0.14 0.10 0.08 0.04 0.01 0.01 0.01 0.01 0.02 0.03 0.03 0.03 0.02 0.01 0.01 0.01 0.02 0.05 0.07 0.13 0.24 0.44 0.75 0.76 0.67 0.74 0.91 1.17 1.40
1.20 1.22 1.21 1.26 1.19 1.29 1.39 1.16 0.85 0.56 0.38 0.31 0.20 0.19 0.17 0.13 0.10 0.09 0.05 0.05 0.06 0.06 0.05 0.04 0.02 0.01 0.01 0.01 0.03 0.08 0.15 0.18 0.21 0.26 0.35 0.56 0.94 1.20 1.10 1.11 1.25 1.40 1.36
1.11 1.29 1.29 1.21 1.21 0.99 0.84 0.78 0.69 0.53 0.41 0.37 0.30 0.26 0.29 0.30 0.24 0.21 0.16 0.11 0.12 0.11 0.08 0.05 0.03 0.03 0.04 0.05 0.10 0.19 0.28 0.34 0.43 0.56 0.73 0.89 1.03 1.25 1.39 1.38 1.38 1.32 1.43
0.54 0.50 0.59 0.65 0.66 0.66 0.51 0.46 0.37 0.34 0.42 0.40 0.40 0.30 0.31 0.31 0.37 0.35 0.31 0.19 0.17 0.12 0.08 0.06 0.07 0.07 0.09 0.11 0.16 0.29 0.43 0.59 0.67 0.79 0.98 1.13 1.15 0.97 0.90 1.04 1.33 1.56 1.45
0.54 0.39 0.39 0.35 0.31 0.26 0.21 0.26 0.25 0.20 0.26 0.29 0.34 0.39 0.33 0.28 0.31 0.33 0.38 0.55 0.61 0.46 0.32 0.26 0.26 0.29 0.32 0.38 0.49 0.63 0.62 0.70 0.74 0.88 1.03 1.11 1.13 0.92 0.77 0.77 1.00 1.32 1.39
0.20 0.22 0.27 0.28 0.26 0.22 0.21 0.23 0.23 0.22 0.22 0.25 0.31 0.33 0.37 0.28 0.26 0.27 0.30 0.42 0.63 0.74 0.56 0.46 0.49 0.48 0.47 0.46 0.52 0.53 0.58 0.77 0.84 0.85 0.88 0.96 1.06 1.13 0.91 0.94 0.93 1.03 1.23
0.09 0.12 0.14 0.16 0.11 0.10 0.13 0.16 0.18 0.20 0.25 0.25 0.23 0.25 0.26 0.23 0.25 0.29 0.31 0.44 0.61 0.78 0.85 0.61 0.55 0.56 0.61 0.66 0.75 0.69 0.68 0.80 0.80 0.83 0.80 0.74 0.72 0.62 0.47 0.48 0.56 0.52 0.43
0.04 0.05 0.05 0.06 0.06 0.06 0.06 0.07 0.09 0.12 0.16 0.17 0.18 0.20 0.23 0.24 0.28 0.31 0.39 0.48 0.61 0.76 0.92 0.87 0.82 0.80 0.82 0.80 0.74 0.58 0.50 0.41 0.38 0.43 0.40 0.33 0.26 0.24 0.23 0.22 0.23 0.26 0.29
0.05 0.05 0.06 0.05 0.05 0.05 0.07 0.12 0.16 0.18 0.18 0.18 0.19 0.23 0.24 0.23 0.25 0.29 0.38 0.50 0.67 0.85 1.03 1.09 1.04 0.95 0.80 0.62 0.44 0.27 0.17 0.11 0.07 0.14 0.11 0.08 0.09 0.10 0.08 0.08 0.12 0.14 0.16
0.04 0.04 0.03 0.05 0.07 0.10 0.11 0.11 0.09 0.07 0.08 0.11 0.14 0.17 0.21 0.24 0.32 0.36 0.39 0.42 0.45 0.44 0.40 0.36 0.28 0.22 0.20 0.18 0.13 0.07 0.04 0.02 0.02 0.05 0.05 0.04 0.04 0.03 0.04 0.05 0.09 0.10 0.13
0.04 0.04 0.03 0.04 0.04 0.04 0.04 0.05 0.06 0.08 0.10 0.13 0.17 0.23 0.30 0.38 0.43 0.43 0.41 0.36 0.29 0.21 0.16 0.15 0.21 0.21 0.17 0.09 0.05 0.02 0.02 0.01 0.01 0.00 0.02 0.01 0.02 0.04 0.05 0.05 0.03 0.02 0.01
0.05 0.05 0.05 0.05 0.06 0.07 0.10 0.12 0.15 0.23 0.32 0.41 0.48 0.48 0.46 0.44 0.39 0.31 0.24 0.18 0.15 0.15 0.26 0.39 0.32 0.25 0.13 0.04 0.01 0.01 0.02 0.02 0.02 0.01 0.01 0.02 0.03 0.02 0.00 0.00 0.00 0.01 0.02
0.17 0.20 0.22 0.16 0.16 0.24 0.44 0.37 0.35 0.37 0.37 0.36 0.35 0.31 0.30 0.33 0.25 0.21 0.16 0.12 0.12 0.25 0.34 0.42 0.35 0.14 0.02 0.00 0.01 0.05 0.16 0.14 0.11 0.00 0.03 0.02 0.00 0.00 0.00 0.00 0.02 0.03 0.04
0.38 0.53 0.56 0.60 0.70 0.82 0.91 0.75 0.61 0.46 0.43 0.37 0.33 0.29 0.22 0.14 0.09 0.06 0.04 0.07 0.19 0.25 0.24 0.14 0.04 0.01 0.02 0.05 0.23 0.24 0.14 0.16 0.11 0.01 0.05 0.07 0.01 0.01 0.01 0.01 0.01 0.01 0.03
0.88 0.78 0.69 0.82 0.89 0.82 0.70 0.53 0.49 0.36 0.31 0.29 0.24 0.12 0.05 0.02 0.01 0.03 0.08 0.21 0.15 0.09 0.01 0.00 0.01 0.03 0.08 0.09 0.10 0.23 0.22 0.13 0.05 0.01 0.03 0.14 0.02 0.01 0.00 0.00 0.01 0.01 0.03
0.81 0.71 0.57 0.48 0.45 0.43 0.29 0.18 0.12 0.10 0.08 0.05 0.03 0.01 0.02 0.02 0.02 0.10 0.16 0.22 0.07 0.00 0.00 0.01 0.07 0.05 0.02 0.01 0.01 0.13 0.20 0.20 0.13 0.01 0.01 0.09 0.04 0.02 0.01 0.00 0.00 0.04 0.06
0.60 0.49 0.38 0.33 0.24 0.14 0.08 0.05 0.04 0.03 0.02 0.01 0.00 0.00 0.01 0.02 0.05 0.21 0.15 0.04 0.01 0.01 0.07 0.06 0.01 0.00 0.00 0.00 0.01 0.04 0.19 0.56 0.28 0.22 0.01 0.29 0.16 0.12 0.39 0.03 0.01 0.02 0.01

GFSMA_prec_precacc_102.txt.gz
Total_Precipitation_Accumulation
0.00 0.00 0.00 0.00 0.00 0.00 0.00 0.00 0.00 0.00 0.00 0.00 0.00 0.00 0.00 0.00 0.00 0.00 0.00 0.00 0.00 0.00 0.00 0.01 0.02 0.04 0.08 0.27 0.23 0.21 0.17 0.13 0.08 0.07 0.06 0.04 0.05 0.06 0.08 0.10 0.12 0.12 0.12
0.00 0.00 0.00 0.00 0.00 0.00 0.00 0.00 0.00 0.00 0.00 0.00 0.00 0.00 0.00 0.00 0.00 0.00 0.00 0.00 0.00 0.00 0.00 0.00 0.02 0.07 0.16 0.23 0.22 0.27 0.28 0.16 0.10 0.10 0.08 0.07 0.08 0.10 0.12 0.13 0.13 0.13 0.16
0.00 0.00 0.00 0.00 0.00 0.00 0.00 0.00 0.00 0.00 0.00 0.00 0.00 0.00 0.00 0.00 0.00 0.00 0.00 0.00 0.00 0.00 0.00 0.00 0.02 0.09 0.19 0.12 0.19 0.26 0.33 0.27 0.20 0.18 0.14 0.09 0.11 0.14 0.17 0.19 0.19 0.17 0.15
0.00 0.00 0.00 0.00 0.00 0.00 0.00 0.00 0.00 0.00 0.00 0.00 0.00 0.00 0.00 0.00 0.00 0.00 0.00 0.00 0.00 0.00 0.00 0.00 0.02 0.06 0.06 0.08 0.12 0.20 0.26 0.33 0.28 0.24 0.24 0.18 0.17 0.17 0.19 0.23 0.24 0.24 0.25
0.02 0.01 0.00 0.00 0.00 0.00 0.00 0.00 0.00 0.00 0.00 0.00 0.00 0.00 0.00 0.00 0.00 0.00 0.00 0.00 0.00 0.00 0.00 0.00 0.00 0.00 0.02 0.08 0.10 0.10 0.16 0.30 0.29 0.28 0.29 0.33 0.33 0.27 0.26 0.30 0.34 0.34 0.32
0.07 0.07 0.03 0.02 0.01 0.00 0.00 0.00 0.00 0.00 0.00 0.01 0.01 0.00 0.00 0.00 0.00 0.00 0.00 0.00 0.01 0.01 0.00 0.01 0.00 0.00 0.02 0.08 0.14 0.08 0.07 0.13 0.24 0.27 0.31 0.38 0.43 0.41 0.35 0.33 0.38 0.39 0.35
0.28 0.23 0.10 0.07 0.08 0.04 0.04 0.03 0.03 0.02 0.02 0.06 0.05 0.01 0.00 0.00 0.00 0.00 0.00 0.01 0.01 0.02 0.01 0.01 0.01 0.02 0.05 0.08 0.08 0.08 0.10 0.13 0.24 0.36 0.38 0.36 0.41 0.42 0.46 0.42 0.46 0.45 0.40
0.73 0.59 0.34 0.24 0.16 0.11 0.08 0.07 0.10 0.16 0.14 0.20 0.20 0.10 0.02 0.00 0.00 0.00 0.00 0.00 0.00 0.00 0.01 0.01 0.02 0.03 0.04 0.05 0.06 0.05 0.03 0.04 0.09 0.20 0.32 0.39 0.40 0.44 0.48 0.53 0.51 0.60 0.69
0.99 1.04 0.93 0.92 0.85 0.65 0.50 0.39 0.32 0.35 0.44 0.35 0.24 0.24 0.07 0.01 0.00 0.00 0.00 0.00 0.00 0.00 0.00 0.02 0.02 0.02 0.01 0.01 0.01 0.01 0.01 0.03 0.06 0.10 0.23 0.38 0.39 0.39 0.43 0.45 0.56 0.80 1.16
0.90 1.07 1.13 1.00 1.08 1.04 0.84 0.71 0.63 0.54 0.47 0.36 0.26 0.16 0.17 0.10 0.08 0.04 0.01 0.01 0.01 0.01 0.02 0.03 0.03 0.03 0.02 0.01 0.01 0.01 0.02 0.05 0.07 0.13 0.24 0.44 0.76 0.77 0.67 0.74 0.91 1.18 1.41
1.24 1.27 1.24 1.26 1.19 1.29 1.40 1.17 0.95 0.77 0.65 0.54 0.35 0.25 0.17 0.13 0.10 0.09 0.05 0.05 0.06 0.06 0.05 0.04 0.02 0.01 0.01 0.01 0.03 0.08 0.15 0.18 0.21 0.26 0.36 0.57 0.95 1.20 1.10 1.11 1.25 1.41 1.37
1.15 1.34 1.32 1.23 1.21 1.00 0.86 0.83 0.75 0.65 0.55 0.48 0.37 0.28 0.29 0.30 0.24 0.21 0.16 0.11 0.12 0.11 0.08 0.05 0.03 0.03 0.04 0.05 0.10 0.19 0.28 0.34 0.43 0.56 0.74 0.90 1.03 1.25 1.39 1.38 1.38 1.33 1.43
0.59 0.52 0.61 0.66 0.67 0.69 0.65 0.65 0.49 0.45 0.48 0.43 0.40 0.30 0.31 0.31 0.37 0.35 0.31 0.19 0.17 0.12 0.08 0.06 0.07 0.07 0.09 0.11 0.16 0.29 0.43 0.59 0.67 0.79 0.98 1.13 1.15 0.97 0.90 1.04 1.34 1.57 1.46
0.72 0.56 0.49 0.44 0.38 0.30 0.24 0.29 0.26 0.20 0.26 0.29 0.34 0.39 0.33 0.28 0.31 0.33 0.38 0.55 0.61 0.46 0.32 0.26 0.26 0.29 0.32 0.38 0.49 0.63 0.62 0.70 0.74 0.88 1.03 1.11 1.13 0.92 0.77 0.77 1.00 1.32 1.40
0.36 0.37 0.42 0.43 0.35 0.28 0.25 0.24 0.24 0.23 0.22 0.25 0.31 0.33 0.37 0.28 0.26 0.27 0.30 0.42 0.63 0.74 0.56 0.46 0.49 0.48 0.47 0.46 0.52 0.53 0.58 0.77 0.84 0.85 0.88 0.96 1.06 1.13 0.91 0.94 0.93 1.04 1.23
0.16 0.16 0.19 0.20 0.15 0.16 0.18 0.19 0.21 0.25 0.28 0.26 0.23 0.25 0.26 0.23 0.25 0.29 0.31 0.44 0.61 0.78 0.85 0.61 0.55 0.56 0.61 0.66 0.75 0.69 0.68 0.80 0.80 0.83 0.80 0.74 0.72 0.62 0.47 0.48 0.56 0.52 0.43
0.04 0.05 0.05 0.07 0.08 0.06 0.07 0.08 0.10 0.13 0.16 0.17 0.18 0.20 0.23 0.24 0.28 0.31 0.39 0.48 0.61 0.76 0.92 0.87 0.82 0.80 0.82 0.80 0.74 0.58 0.50 0.41 0.38 0.43 0.40 0.33 0.26 0.24 0.23 0.22 0.23 0.26 0.29
0.05 0.05 0.06 0.05 0.06 0.06 0.08 0.14 0.19 0.19 0.18 0.18 0.19 0.23 0.24 0.23 0.25 0.29 0.38 0.50 0.67 0.85 1.03 1.09 1.04 0.95 0.80 0.62 0.44 0.27 0.17 0.11 0.07 0.14 0.11 0.08 0.09 0.10 0.08 0.08 0.12 0.14 0.16
0.04 0.04 0.03 0.05 0.07 0.11 0.13 0.13 0.12 0.09 0.08 0.11 0.14 0.17 0.21 0.24 0.32 0.36 0.39 0.42 0.45 0.44 0.40 0.36 0.28 0.22 0.20 0.18 0.13 0.07 0.04 0.02 0.02 0.05 0.05 0.04 0.04 0.03 0.04 0.05 0.09 0.10 0.13
0.04 0.04 0.03 0.04 0.04 0.04 0.05 0.06 0.07 0.08 0.10 0.13 0.17 0.23 0.30 0.38 0.43 0.43 0.41 0.36 0.29 0.21 0.16 0.15 0.21 0.21 0.17 0.09 0.05 0.02 0.02 0.01 0.01 0.00 0.02 0.01 0.02 0.04 0.05 0.05 0.03 0.02 0.01
0.05 0.05 0.05 0.05 0.06 0.07 0.10 0.12 0.16 0.24 0.33 0.41 0.48 0.48 0.46 0.44 0.39 0.31 0.24 0.18 0.15 0.15 0.26 0.39 0.32 0.25 0.13 0.04 0.01 0.01 0.02 0.02 0.02 0.01 0.01 0.02 0.03 0.02 0.00 0.00 0.00 0.01 0.02
0.17 0.20 0.22 0.16 0.16 0.24 0.44 0.37 0.35 0.37 0.37 0.36 0.35 0.31 0.30 0.33 0.25 0.21 0.16 0.12 0.12 0.25 0.34 0.42 0.35 0.14 0.02 0.00 0.01 0.05 0.16 0.14 0.11 0.00 0.03 0.02 0.00 0.00 0.00 0.00 0.02 0.03 0.04
0.38 0.53 0.56 0.60 0.70 0.82 0.91 0.75 0.61 0.46 0.43 0.37 0.33 0.29 0.22 0.14 0.09 0.06 0.04 0.07 0.19 0.25 0.24 0.14 0.04 0.01 0.02 0.05 0.23 0.24 0.14 0.16 0.11 0.01 0.05 0.07 0.01 0.01 0.01 0.01 0.01 0.01 0.03
0.88 0.78 0.69 0.82 0.89 0.82 0.70 0.53 0.49 0.36 0.31 0.29 0.24 0.12 0.05 0.02 0.01 0.03 0.08 0.21 0.15 0.09 0.01 0.00 0.01 0.03 0.08 0.09 0.10 0.23 0.22 0.13 0.05 0.01 0.03 0.14 0.02 0.01 0.00 0.00 0.01 0.01 0.03
0.81 0.71 0.57 0.48 0.45 0.43 0.29 0.18 0.12 0.10 0.08 0.05 0.03 0.01 0.02 0.02 0.02 0.10 0.16 0.22 0.07 0.00 0.00 0.01 0.07 0.05 0.02 0.01 0.01 0.13 0.20 0.20 0.13 0.01 0.01 0.09 0.04 0.02 0.01 0.00 0.00 0.04 0.06
0.60 0.49 0.38 0.33 0.24 0.14 0.08 0.05 0.04 0.03 0.02 0.01 0.00 0.00 0.01 0.02 0.05 0.21 0.15 0.04 0.01 0.01 0.07 0.06 0.01 0.00 0.00 0.00 0.01 0.04 0.19 0.56 0.28 0.22 0.01 0.29 0.16 0.12 0.39 0.03 0.01 0.02 0.01

GFSMA_prec_precacc_105.txt.gz
Total_Precipitation_Accumulation
0.00 0.00 0.00 0.00 0.00 0.00 0.00 0.00 0.00 0.00 0.00 0.00 0.00 0.00 0.00 0.00 0.00 0.00 0.00 0.00 0.00 0.00 0.00 0.01 0.02 0.04 0.09 0.27 0.23 0.21 0.17 0.13 0.08 0.07 0.06 0.04 0.05 0.06 0.08 0.10 0.12 0.12 0.12
0.00 0.00 0.00 0.00 0.00 0.00 0.00 0.00 0.00 0.00 0.00 0.00 0.00 0.00 0.00 0.00 0.00 0.00 0.00 0.00 0.00 0.00 0.00 0.00 0.02 0.08 0.16 0.23 0.22 0.27 0.28 0.16 0.10 0.10 0.08 0.07 0.08 0.10 0.13 0.15 0.15 0.14 0.16
0.00 0.00 0.00 0.00 0.00 0.00 0.00 0.00 0.00 0.00 0.00 0.00 0.00 0.00 0.00 0.00 0.00 0.00 0.00 0.00 0.00 0.00 0.00 0.00 0.02 0.09 0.20 0.12 0.19 0.26 0.33 0.27 0.20 0.18 0.14 0.09 0.11 0.14 0.17 0.19 0.20 0.19 0.17
0.00 0.00 0.00 0.00 0.00 0.00 0.00 0.00 0.00 0.00 0.00 0.00 0.00 0.00 0.00 0.00 0.00 0.00 0.00 0.00 0.00 0.00 0.00 0.00 0.02 0.06 0.06 0.08 0.12 0.20 0.26 0.33 0.28 0.24 0.24 0.18 0.17 0.17 0.19 0.23 0.24 0.24 0.27
0.02 0.01 0.00 0.00 0.00 0.00 0.00 0.00 0.00 0.00 0.00 0.00 0.00 0.00 0.00 0.00 0.00 0.00 0.00 0.00 0.00 0.00 0.00 0.00 0.00 0.00 0.02 0.08 0.10 0.11 0.16 0.30 0.29 0.28 0.29 0.33 0.33 0.27 0.26 0.30 0.34 0.34 0.32
0.07 0.07 0.03 0.02 0.01 0.00 0.00 0.00 0.00 0.00 0.00 0.01 0.01 0.00 0.00 0.00 0.00 0.00 0.00 0.00 0.01 0.01 0.00 0.01 0.00 0.00 0.02 0.08 0.15 0.09 0.07 0.13 0.24 0.27 0.31 0.38 0.43 0.41 0.35 0.33 0.38 0.40 0.35
0.28 0.23 0.10 0.07 0.08 0.04 0.04 0.03 0.03 0.02 0.02 0.06 0.05 0.01 0.00 0.00 0.00 0.00 0.00 0.01 0.01 0.02 0.01 0.01 0.01 0.02 0.05 0.08 0.09 0.08 0.11 0.13 0.24 0.36 0.38 0.36 0.41 0.42 0.46 0.42 0.46 0.45 0.40
0.76 0.59 0.34 0.24 0.16 0.11 0.08 0.07 0.10 0.16 0.14 0.20 0.20 0.10 0.02 0.00 0.00 0.00 0.00 0.00 0.00 0.00 0.01 0.01 0.02 0.03 0.04 0.05 0.06 0.05 0.03 0.04 0.09 0.20 0.32 0.39 0.40 0.44 0.48 0.53 0.51 0.60 0.69
1.03 1.05 0.93 0.92 0.85 0.65 0.50 0.40 0.34 0.36 0.44 0.35 0.26 0.26 0.08 0.01 0.00 0.00 0.00 0.00 0.00 0.00 0.00 0.02 0.02 0.02 0.01 0.01 0.01 0.01 0.01 0.03 0.06 0.11 0.23 0.38 0.39 0.39 0.43 0.45 0.56 0.81 1.16
0.96 1.12 1.23 1.13 1.20 1.17 0.97 0.90 0.76 0.61 0.51 0.37 0.30 0.19 0.18 0.10 0.08 0.04 0.01 0.01 0.01 0.01 0.02 0.03 0.03 0.03 0.02 0.01 0.01 0.01 0.02 0.05 0.07 0.13 0.25 0.45 0.77 0.77 0.67 0.74 0.91 1.18 1.41
1.40 1.44 1.43 1.46 1.32 1.39 1.47 1.24 1.08 0.94 0.84 0.65 0.42 0.31 0.20 0.13 0.10 0.09 0.05 0.05 0.06 0.06 0.05 0.04 0.02 0.01 0.01 0.01 0.03 0.08 0.15 0.18 0.21 0.26 0.38 0.59 0.95 1.20 1.10 1.11 1.25 1.41 1.38
1.19 1.35 1.36 1.30 1.28 1.05 0.91 0.87 0.79 0.71 0.66 0.55 0.39 0.30 0.30 0.30 0.24 0.21 0.16 0.11 0.12 0.11 0.08 0.05 0.03 0.03 0.04 0.05 0.10 0.19 0.28 0.34 0.43 0.56 0.75 0.90 1.03 1.25 1.39 1.38 1.38 1.33 1.44
0.66 0.54 0.63 0.70 0.70 0.71 0.66 0.66 0.51 0.49 0.54 0.48 0.42 0.31 0.31 0.31 0.37 0.35 0.31 0.19 0.17 0.12 0.08 0.06 0.07 0.07 0.09 0.11 0.16 0.29 0.43 0.59 0.67 0.79 0.99 1.14 1.15 0.97 0.90 1.04 1.34 1.57 1.46
0.76 0.61 0.54 0.49 0.44 0.35 0.29 0.34 0.29 0.22 0.27 0.30 0.35 0.40 0.33 0.28 0.31 0.33 0.38 0.55 0.61 0.46 0.32 0.26 0.26 0.29 0.32 0.38 0.49 0.63 0.62 0.70 0.75 0.88 1.03 1.11 1.13 0.92 0.77 0.77 1.00 1.32 1.40
0.38 0.46 0.48 0.52 0.48 0.38 0.32 0.30 0.28 0.24 0.22 0.25 0.31 0.33 0.37 0.28 0.26 0.27 0.30 0.42 0.63 0.74 0.56 0.46 0.49 0.48 0.47 0.46 0.52 0.53 0.58 0.77 0.84 0.85 0.88 0.96 1.06 1.13 0.91 0.94 0.93 1.04 1.24
0.19 0.19 0.23 0.23 0.18 0.19 0.21 0.21 0.22 0.26 0.32 0.29 0.25 0.26 0.26 0.23 0.25 0.29 0.31 0.44 0.61 0.78 0.85 0.61 0.55 0.56 0.61 0.66 0.75 0.69 0.68 0.80 0.80 0.83 0.80 0.74 0.72 0.62 0.47 0.48 0.56 0.52 0.43
0.08 0.08 0.08 0.08 0.08 0.07 0.08 0.08 0.10 0.14 0.21 0.21 0.20 0.21 0.23 0.24 0.28 0.31 0.39 0.48 0.61 0.76 0.92 0.87 0.82 0.80 0.82 0.80 0.74 0.58 0.50 0.41 0.38 0.43 0.40 0.33 0.26 0.24 0.23 0.22 0.23 0.26 0.29
0.05 0.05 0.06 0.05 0.06 0.06 0.09 0.15 0.20 0.21 0.21 0.22 0.19 0.23 0.25 0.23 0.25 0.29 0.38 0.50 0.67 0.85 1.03 1.09 1.04 0.95 0.80 0.62 0.44 0.27 0.17 0.11 0.07 0.14 0.11 0.08 0.09 0.10 0.08 0.08 0.12 0.14 0.16
0.04 0.04 0.03 0.05 0.07 0.11 0.13 0.14 0.14 0.11 0.12 0.14 0.15 0.18 0.21 0.24 0.32 0.36 0.39 0.42 0.45 0.44 0.40 0.36 0.28 0.22 0.20 0.18 0.13 0.07 0.04 0.02 0.02 0.05 0.05 0.04 0.04 0.03 0.04 0.05 0.09 0.10 0.13
0.04 0.04 0.03 0.04 0.04 0.04 0.05 0.06 0.08 0.11 0.14 0.16 0.20 0.24 0.30 0.38 0.43 0.43 0.41 0.36 0.29 0.21 0.16 0.15 0.21 0.21 0.17 0.09 0.05 0.02 0.02 0.01 0.01 0.00 0.02 0.01 0.02 0.04 0.05 0.05 0.03 0.02 0.01
0.05 0.05 0.05 0.05 0.06 0.07 0.10 0.12 0.16 0.24 0.35 0.43 0.50 0.50 0.47 0.44 0.39 0.31 0.24 0.18 0.15 0.15 0.26 0.39 0.32 0.25 0.13 0.04 0.01 0.01 0.02 0.02 0.02 0.01 0.01 0.02 0.03 0.02 0.00 0.00 0.00 0.01 0.02
0.17 0.20 0.22 0.16 0.16 0.24 0.44 0.37 0.35 0.37 0.37 0.37 0.35 0.31 0.31 0.33 0.25 0.21 0.16 0.12 0.12 0.25 0.34 0.42 0.35 0.14 0.02 0.00 0.01 0.05 0.16 0.14 0.11 0.00 0.03 0.02 0.00 0.00 0.00 0.00 0.02 0.03 0.04
0.38 0.53 0.56 0.60 0.70 0.82 0.91 0.75 0.61 0.46 0.43 0.37 0.33 0.29 0.22 0.14 0.09 0.06 0.04 0.07 0.19 0.25 0.24 0.14 0.04 0.01 0.02 0.05 0.23 0.24 0.14 0.16 0.11 0.01 0.05 0.07 0.01 0.01 0.01 0.01 0.01 0.01 0.03
0.88 0.78 0.69 0.82 0.89 0.82 0.70 0.53 0.49 0.36 0.31 0.29 0.24 0.12 0.05 0.02 0.01 0.03 0.08 0.21 0.15 0.09 0.01 0.00 0.01 0.03 0.08 0.09 0.10 0.23 0.22 0.13 0.05 0.01 0.03 0.14 0.02 0.01 0.00 0.00 0.01 0.01 0.03
0.81 0.71 0.57 0.48 0.45 0.43 0.29 0.18 0.12 0.10 0.08 0.05 0.03 0.01 0.02 0.02 0.02 0.10 0.16 0.22 0.07 0.00 0.00 0.01 0.07 0.05 0.02 0.01 0.01 0.13 0.20 0.20 0.13 0.01 0.01 0.09 0.04 0.02 0.01 0.00 0.00 0.04 0.06
0.60 0.49 0.38 0.33 0.24 0.14 0.08 0.05 0.04 0.03 0.02 0.01 0.00 0.00 0.01 0.02 0.05 0.21 0.15 0.04 0.01 0.01 0.07 0.06 0.01 0.00 0.00 0.00 0.01 0.04 0.19 0.56 0.28 0.22 0.01 0.29 0.16 0.12 0.39 0.03 0.01 0.02 0.01

GFSMA_prec_precacc_108.txt.gz
Total_Precipitation_Accumulation
0.01 0.00 0.00 0.00 0.00 0.00 0.00 0.00 0.00 0.00 0.00 0.00 0.00 0.00 0.00 0.00 0.00 0.00 0.00 0.00 0.00 0.00 0.00 0.01 0.02 0.04 0.09 0.27 0.23 0.21 0.17 0.13 0.08 0.07 0.06 0.04 0.05 0.06 0.09 0.11 0.12 0.12 0.12
0.00 0.00 0.00 0.00 0.00 0.00 0.00 0.00 0.00 0.00 0.00 0.00 0.00 0.00 0.00 0.00 0.00 0.00 0.00 0.00 0.00 0.00 0.00 0.00 0.02 0.08 0.16 0.23 0.22 0.27 0.28 0.16 0.10 0.10 0.08 0.07 0.08 0.10 0.13 0.15 0.15 0.16 0.17
0.00 0.00 0.00 0.00 0.00 0.00 0.00 0.00 0.00 0.00 0.00 0.00 0.00 0.00 0.00 0.00 0.00 0.00 0.00 0.00 0.00 0.00 0.00 0.00 0.02 0.10 0.20 0.12 0.19 0.27 0.33 0.27 0.20 0.18 0.14 0.09 0.11 0.14 0.17 0.19 0.20 0.19 0.18
0.00 0.00 0.00 0.00 0.00 0.00 0.00 0.00 0.00 0.00 0.00 0.00 0.00 0.00 0.00 0.00 0.00 0.00 0.00 0.00 0.00 0.00 0.00 0.00 0.02 0.06 0.06 0.08 0.12 0.21 0.26 0.33 0.28 0.24 0.24 0.18 0.17 0.17 0.19 0.23 0.24 0.24 0.27
0.03 0.01 0.00 0.00 0.00 0.00 0.00 0.00 0.00 0.00 0.00 0.00 0.00 0.00 0.00 0.00 0.00 0.00 0.00 0.00 0.00 0.00 0.00 0.00 0.00 0.00 0.02 0.08 0.10 0.12 0.17 0.30 0.29 0.28 0.29 0.33 0.33 0.27 0.26 0.30 0.34 0.35 0.33
0.07 0.07 0.03 0.02 0.01 0.00 0.00 0.00 0.00 0.00 0.00 0.01 0.01 0.00 0.00 0.00 0.00 0.00 0.00 0.00 0.01 0.01 0.00 0.01 0.00 0.00 0.02 0.08 0.15 0.10 0.07 0.13 0.24 0.27 0.31 0.38 0.43 0.41 0.35 0.33 0.38 0.40 0.35
0.28 0.23 0.10 0.07 0.08 0.04 0.04 0.03 0.03 0.02 0.02 0.06 0.05 0.01 0.00 0.00 0.00 0.00 0.00 0.01 0.01 0.02 0.01 0.01 0.01 0.02 0.05 0.08 0.09 0.10 0.11 0.13 0.24 0.36 0.38 0.36 0.41 0.42 0.46 0.42 0.46 0.45 0.40
0.76 0.59 0.34 0.24 0.16 0.11 0.08 0.07 0.10 0.16 0.14 0.20 0.20 0.10 0.02 0.00 0.00 0.00 0.00 0.00 0.00 0.00 0.01 0.01 0.02 0.03 0.04 0.05 0.06 0.06 0.03 0.04 0.09 0.20 0.33 0.39 0.40 0.44 0.48 0.53 0.51 0.60 0.70
1.03 1.05 0.93 0.92 0.85 0.65 0.51 0.40 0.35 0.37 0.45 0.35 0.26 0.30 0.11 0.01 0.00 0.00 0.00 0.00 0.00 0.00 0.00 0.02 0.02 0.02 0.01 0.01 0.01 0.01 0.01 0.03 0.06 0.11 0.24 0.38 0.40 0.39 0.43 0.45 0.56 0.81 1.16
1.00 1.13 1.24 1.13 1.21 1.21 1.05 0.99 0.87 0.73 0.59 0.39 0.37 0.28 0.25 0.11 0.08 0.04 0.01 0.01 0.01 0.01 0.02 0.03 0.03 0.03 0.02 0.01 0.01 0.01 0.02 0.05 0.07 0.13 0.25 0.46 0.78 0.77 0.67 0.74 0.91 1.18 1.42
1.66 1.60 1.59 1.64 1.49 1.53 1.64 1.39 1.27 1.12 1.00 0.81 0.56 0.44 0.29 0.17 0.12 0.09 0.05 0.05 0.06 0.06 0.05 0.04 0.02 0.01 0.01 0.01 0.03 0.08 0.15 0.18 0.21 0.26 0.38 0.60 0.95 1.20 1.10 1.11 1.25 1.41 1.38
1.37 1.60 1.58 1.45 1.41 1.15 0.98 0.94 0.88 0.83 0.77 0.66 0.47 0.33 0.31 0.31 0.25 0.21 0.16 0.11 0.12 0.11 0.08 0.05 0.03 0.03 0.04 0.05 0.10 0.19 0.28 0.34 0.43 0.56 0.75 0.92 1.03 1.25 1.39 1.38 1.38 1.33 1.44
0.84 0.71 0.78 0.80 0.76 0.74 0.68 0.68 0.52 0.50 0.60 0.54 0.47 0.33 0.33 0.34 0.42 0.40 0.33 0.20 0.17 0.12 0.08 0.06 0.07 0.07 0.09 0.11 0.16 0.29 0.43 0.59 0.67 0.79 1.00 1.15 1.15 0.97 0.90 1.04 1.34 1.57 1.46
0.97 0.78 0.62 0.52 0.45 0.36 0.31 0.35 0.30 0.24 0.30 0.34 0.38 0.41 0.34 0.30 0.33 0.34 0.40 0.55 0.61 0.46 0.32 0.26 0.26 0.29 0.32 0.38 0.49 0.63 0.62 0.70 0.75 0.88 1.03 1.12 1.13 0.92 0.77 0.77 1.00 1.32 1.40
0.42 0.51 0.51 0.55 0.50 0.40 0.34 0.33 0.30 0.26 0.24 0.27 0.33 0.34 0.38 0.28 0.27 0.27 0.30 0.42 0.63 0.74 0.56 0.46 0.49 0.48 0.47 0.46 0.52 0.53 0.58 0.77 0.84 0.85 0.88 0.96 1.06 1.13 0.91 0.94 0.93 1.04 1.24
0.21 0.20 0.23 0.23 0.19 0.21 0.24 0.22 0.23 0.26 0.32 0.29 0.25 0.26 0.26 0.23 0.25 0.29 0.31 0.44 0.61 0.78 0.85 0.61 0.55 0.56 0.61 0.66 0.75 0.69 0.68 0.80 0.80 0.83 0.80 0.74 0.72 0.62 0.47 0.48 0.56 0.52 0.43
0.09 0.10 0.09 0.09 0.09 0.08 0.09 0.09 0.11 0.15 0.21 0.22 0.21 0.22 0.23 0.24 0.28 0.31 0.39 0.48 0.61 0.76 0.92 0.87 0.82 0.80 0.82 0.80 0.74 0.58 0.50 0.41 0.38 0.43 0.40 0.33 0.26 0.24 0.23 0.22 0.23 0.26 0.29
0.05 0.06 0.07 0.07 0.07 0.07 0.10 0.17 0.22 0.24 0.25 0.26 0.26 0.29 0.30 0.30 0.27 0.31 0.40 0.50 0.67 0.85 1.03 1.09 1.04 0.95 0.80 0.62 0.44 0.27 0.17 0.11 0.07 0.14 0.11 0.08 0.09 0.10 0.08 0.08 0.12 0.14 0.16
0.04 0.04 0.03 0.05 0.07 0.11 0.14 0.16 0.16 0.15 0.17 0.23 0.26 0.29 0.31 0.32 0.34 0.38 0.41 0.42 0.45 0.44 0.40 0.36 0.28 0.22 0.20 0.18 0.13 0.07 0.04 0.02 0.02 0.05 0.05 0.04 0.04 0.03 0.04 0.05 0.09 0.10 0.13
0.04 0.04 0.03 0.04 0.04 0.04 0.05 0.06 0.09 0.12 0.16 0.19 0.25 0.31 0.37 0.45 0.47 0.47 0.42 0.38 0.30 0.21 0.16 0.15 0.21 0.21 0.17 0.09 0.05 0.02 0.02 0.01 0.01 0.00 0.02 0.01 0.02 0.04 0.05 0.05 0.03 0.02 0.01
0.05 0.05 0.05 0.05 0.06 0.07 0.10 0.12 0.16 0.24 0.35 0.44 0.51 0.52 0.50 0.49 0.45 0.37 0.27 0.21 0.18 0.15 0.26 0.39 0.32 0.25 0.13 0.04 0.01 0.01 0.02 0.02 0.02 0.01 0.01 0.02 0.03 0.02 0.00 0.00 0.00 0.01 0.02
0.17 0.20 0.22 0.16 0.16 0.24 0.44 0.37 0.35 0.37 0.37 0.37 0.36 0.31 0.31 0.34 0.26 0.22 0.17 0.14 0.15 0.27 0.35 0.42 0.35 0.14 0.02 0.00 0.01 0.05 0.16 0.14 0.11 0.00 0.03 0.02 0.00 0.00 0.00 0.00 0.02 0.03 0.04
0.38 0.53 0.56 0.60 0.70 0.82 0.91 0.75 0.61 0.46 0.43 0.37 0.33 0.29 0.22 0.14 0.10 0.07 0.04 0.08 0.20 0.27 0.26 0.14 0.04 0.01 0.02 0.05 0.23 0.24 0.14 0.16 0.11 0.01 0.05 0.07 0.01 0.01 0.01 0.01 0.01 0.01 0.03
0.88 0.78 0.69 0.82 0.89 0.82 0.70 0.53 0.49 0.36 0.31 0.29 0.24 0.12 0.05 0.02 0.01 0.03 0.08 0.21 0.15 0.09 0.01 0.00 0.01 0.03 0.08 0.09 0.10 0.23 0.22 0.13 0.05 0.01 0.03 0.14 0.02 0.01 0.00 0.00 0.01 0.01 0.03
0.81 0.71 0.57 0.48 0.45 0.43 0.29 0.18 0.12 0.10 0.08 0.05 0.03 0.01 0.02 0.02 0.02 0.10 0.16 0.22 0.07 0.00 0.00 0.01 0.07 0.05 0.02 0.01 0.01 0.13 0.20 0.20 0.13 0.01 0.01 0.09 0.04 0.02 0.01 0.00 0.00 0.04 0.06
0.60 0.49 0.38 0.33 0.24 0.14 0.08 0.05 0.04 0.03 0.02 0.01 0.00 0.00 0.01 0.02 0.06 0.21 0.15 0.04 0.01 0.01 0.07 0.06 0.01 0.00 0.00 0.00 0.01 0.04 0.19 0.56 0.28 0.22 0.01 0.29 0.16 0.12 0.39 0.03 0.01 0.02 0.01

GFSMA_prec_precacc_111.txt.gz
Total_Precipitation_Accumulation
0.01 0.01 0.00 0.00 0.00 0.00 0.00 0.00 0.00 0.00 0.00 0.00 0.00 0.00 0.00 0.00 0.00 0.00 0.00 0.00 0.00 0.00 0.00 0.01 0.02 0.04 0.10 0.27 0.24 0.22 0.18 0.13 0.08 0.07 0.06 0.04 0.05 0.06 0.09 0.11 0.13 0.13 0.14
0.01 0.01 0.00 0.00 0.00 0.00 0.00 0.00 0.00 0.00 0.00 0.00 0.00 0.00 0.00 0.00 0.00 0.00 0.00 0.00 0.00 0.00 0.00 0.00 0.02 0.08 0.17 0.23 0.22 0.28 0.28 0.16 0.10 0.10 0.08 0.07 0.08 0.10 0.13 0.15 0.15 0.16 0.18
0.02 0.01 0.00 0.00 0.00 0.00 0.00 0.00 0.00 0.00 0.00 0.00 0.00 0.00 0.00 0.00 0.00 0.00 0.00 0.00 0.00 0.00 0.00 0.00 0.02 0.10 0.20 0.12 0.19 0.27 0.34 0.27 0.20 0.18 0.14 0.09 0.11 0.14 0.17 0.19 0.20 0.19 0.18
0.08 0.03 0.01 0.00 0.00 0.00 0.00 0.00 0.00 0.00 0.00 0.00 0.00 0.00 0.00 0.00 0.00 0.00 0.00 0.00 0.00 0.00 0.00 0.00 0.02 0.06 0.06 0.08 0.12 0.21 0.27 0.33 0.28 0.24 0.24 0.18 0.17 0.17 0.19 0.23 0.24 0.24 0.27
0.29 0.08 0.03 0.00 0.00 0.00 0.00 0.00 0.00 0.00 0.00 0.00 0.00 0.00 0.00 0.00 0.00 0.00 0.00 0.00 0.00 0.00 0.00 0.00 0.00 0.00 0.02 0.08 0.10 0.13 0.20 0.30 0.29 0.28 0.29 0.33 0.33 0.27 0.26 0.30 0.34 0.35 0.33
0.55 0.35 0.10 0.03 0.01 0.00 0.00 0.00 0.00 0.00 0.00 0.01 0.01 0.00 0.00 0.00 0.00 0.00 0.00 0.00 0.01 0.01 0.00 0.01 0.00 0.00 0.02 0.08 0.15 0.11 0.09 0.13 0.24 0.27 0.31 0.38 0.43 0.41 0.35 0.33 0.38 0.40 0.35
0.64 0.51 0.18 0.11 0.09 0.04 0.04 0.03 0.03 0.02 0.02 0.06 0.05 0.01 0.00 0.00 0.00 0.00 0.00 0.01 0.01 0.02 0.01 0.01 0.01 0.02 0.05 0.08 0.09 0.10 0.11 0.13 0.24 0.36 0.38 0.36 0.41 0.42 0.46 0.42 0.46 0.45 0.40
0.85 0.75 0.43 0.25 0.16 0.11 0.08 0.07 0.10 0.16 0.14 0.20 0.20 0.10 0.02 0.00 0.00 0.00 0.00 0.00 0.00 0.00 0.01 0.01 0.02 0.03 0.04 0.05 0.06 0.06 0.04 0.04 0.09 0.20 0.33 0.39 0.40 0.44 0.48 0.53 0.51 0.60 0.70
1.13 1.13 1.00 0.97 0.85 0.65 0.51 0.40 0.35 0.37 0.45 0.35 0.26 0.31 0.12 0.02 0.01 0.00 0.00 0.00 0.00 0.00 0.00 0.02 0.02 0.02 0.01 0.01 0.01 0.01 0.01 0.03 0.06 0.11 0.24 0.39 0.40 0.39 0.43 0.45 0.56 0.81 1.17
1.11 1.24 1.32 1.17 1.22 1.22 1.06 1.00 0.87 0.73 0.59 0.41 0.39 0.28 0.25 0.12 0.08 0.04 0.01 0.01 0.01 0.01 0.02 0.03 0.03 0.03 0.02 0.01 0.01 0.01 0.02 0.05 0.07 0.13 0.25 0.47 0.80 0.78 0.68 0.74 0.91 1.18 1.42
1.75 1.71 1.65 1.68 1.51 1.54 1.68 1.46 1.34 1.19 1.06 0.86 0.62 0.51 0.37 0.24 0.15 0.11 0.06 0.05 0.06 0.06 0.05 0.04 0.02 0.01 0.01 0.01 0.03 0.08 0.15 0.18 0.21 0.26 0.39 0.61 0.96 1.20 1.10 1.11 1.25 1.41 1.38
1.42 1.73 1.81 1.69 1.63 1.33 1.17 1.10 0.98 0.90 0.81 0.69 0.51 0.38 0.37 0.37 0.28 0.24 0.18 0.12 0.13 0.12 0.08 0.05 0.03 0.03 0.04 0.05 0.10 0.19 0.28 0.34 0.43 0.56 0.76 0.93 1.03 1.25 1.39 1.38 1.38 1.33 1.44
0.90 0.76 0.87 0.97 0.96 0.92 0.83 0.79 0.58 0.52 0.61 0.56 0.49 0.35 0.34 0.35 0.43 0.41 0.36 0.24 0.20 0.15 0.10 0.07 0.07 0.07 0.09 0.11 0.16 0.29 0.43 0.59 0.67 0.79 1.00 1.16 1.15 0.97 0.90 1.04 1.34 1.57 1.46
1.10 0.90 0.74 0.67 0.61 0.47 0.38 0.42 0.33 0.25 0.31 0.35 0.39 0.43 0.36 0.33 0.37 0.39 0.46 0.64 0.71 0.50 0.34 0.27 0.26 0.29 0.32 0.38 0.49 0.63 0.62 0.70 0.75 0.88 1.03 1.12 1.13 0.92 0.77 0.77 1.00 1.32 1.40
0.51 0.60 0.59 0.62 0.57 0.45 0.37 0.35 0.32 0.28 0.26 0.29 0.36 0.38 0.42 0.31 0.29 0.30 0.38 0.52 0.74 0.82 0.60 0.47 0.49 0.48 0.47 0.46 0.52 0.53 0.58 0.77 0.84 0.85 0.88 0.96 1.06 1.13 0.91 0.94 0.93 1.04 1.24
0.31 0.28 0.27 0.26 0.22 0.22 0.25 0.24 0.26 0.28 0.33 0.30 0.27 0.28 0.29 0.25 0.26 0.29 0.31 0.44 0.62 0.79 0.85 0.61 0.55 0.56 0.61 0.66 0.75 0.69 0.68 0.80 0.80 0.83 0.80 0.74 0.72 0.62 0.47 0.48 0.56 0.52 0.43
0.12 0.13 0.10 0.10 0.10 0.09 0.11 0.11 0.12 0.16 0.22 0.23 0.23 0.24 0.26 0.26 0.29 0.31 0.39 0.49 0.63 0.77 0.92 0.87 0.82 0.80 0.82 0.80 0.74 0.58 0.50 0.41 0.38 0.43 0.40 0.33 0.26 0.24 0.23 0.22 0.23 0.26 0.29
0.05 0.06 0.07 0.07 0.08 0.08 0.11 0.18 0.24 0.25 0.26 0.27 0.26 0.32 0.34 0.37 0.38 0.41 0.48 0.57 0.72 0.88 1.05 1.09 1.04 0.95 0.80 0.62 0.44 0.27 0.17 0.11 0.07 0.14 0.11 0.08 0.09 0.10 0.08 0.08 0.12 0.14 0.16
0.04 0.04 0.03 0.05 0.07 0.11 0.14 0.16 0.16 0.15 0.18 0.24 0.27 0.31 0.35 0.44 0.58 0.70 0.76 0.70 0.62 0.51 0.44 0.38 0.28 0.22 0.20 0.18 0.13 0.07 0.04 0.02 0.02 0.05 0.05 0.04 0.04 0.03 0.04 0.05 0.09 0.10 0.13
0.04 0.04 0.03 0.04 0.04 0.04 0.05 0.06 0.09 0.12 0.16 0.20 0.25 0.31 0.39 0.47 0.52 0.56 0.56 0.55 0.49 0.33 0.21 0.17 0.22 0.21 0.17 0.09 0.05 0.02 0.02 0.01 0.01 0.00 0.02 0.01 0.02 0.04 0.05 0.05 0.03 0.02 0.01
0.05 0.05 0.05 0.05 0.06 0.07 0.10 0.12 0.16 0.24 0.35 0.44 0.51 0.52 0.50 0.50 0.47 0.40 0.36 0.34 0.36 0.39 0.47 0.54 0.41 0.30 0.16 0.05 0.01 0.01 0.02 0.02 0.02 0.01 0.01 0.02 0.03 0.02 0.00 0.00 0.00 0.01 0.02
0.17 0.20 0.22 0.16 0.16 0.24 0.44 0.37 0.35 0.37 0.37 0.37 0.36 0.31 0.31 0.35 0.27 0.23 0.19 0.18 0.21 0.39 0.52 0.60 0.52 0.26 0.10 0.07 0.03 0.05 0.16 0.14 0.11 0.00 0.03 0.02 0.00 0.00 0.00 0.00 0.02 0.03 0.04
0.38 0.53 0.56 0.60 0.70 0.82 0.91 0.75 0.61 0.46 0.43 0.37 0.33 0.29 0.22 0.14 0.10 0.07 0.06 0.10 0.22 0.29 0.28 0.18 0.11 0.08 0.10 0.12 0.26 0.24 0.14 0.16 0.11 0.01 0.05 0.07 0.01 0.01 0.01 0.01 0.01 0.01 0.03
0.88 0.78 0.69 0.82 0.89 0.82 0.70 0.53 0.49 0.36 0.31 0.29 0.24 0.12 0.05 0.02 0.01 0.03 0.08 0.22 0.16 0.10 0.03 0.02 0.02 0.04 0.08 0.09 0.10 0.23 0.22 0.13 0.05 0.01 0.03 0.14 0.02 0.01 0.00 0.00 0.01 0.01 0.03
0.81 0.71 0.57 0.48 0.45 0.43 0.29 0.18 0.12 0.10 0.08 0.05 0.03 0.01 0.02 0.02 0.02 0.11 0.16 0.23 0.08 0.01 0.00 0.01 0.07 0.05 0.02 0.01 0.01 0.13 0.20 0.20 0.13 0.01 0.01 0.09 0.04 0.02 0.01 0.00 0.00 0.04 0.06
0.60 0.49 0.38 0.33 0.24 0.14 0.08 0.05 0.05 0.03 0.02 0.01 0.00 0.00 0.01 0.03 0.06 0.22 0.15 0.04 0.01 0.01 0.09 0.09 0.03 0.00 0.00 0.00 0.01 0.04 0.19 0.56 0.28 0.22 0.01 0.29 0.16 0.12 0.39 0.03 0.01 0.02 0.01

GFSMA_prec_precacc_114.txt.gz
Total_Precipitation_Accumulation
0.02 0.01 0.00 0.00 0.00 0.00 0.00 0.00 0.00 0.00 0.00 0.00 0.00 0.00 0.00 0.00 0.00 0.00 0.00 0.00 0.00 0.00 0.00 0.01 0.02 0.04 0.10 0.28 0.24 0.23 0.19 0.14 0.08 0.07 0.06 0.04 0.05 0.06 0.09 0.11 0.13 0.13 0.14
0.02 0.01 0.00 0.00 0.00 0.00 0.00 0.00 0.00 0.00 0.00 0.00 0.00 0.00 0.00 0.00 0.00 0.00 0.00 0.00 0.00 0.00 0.00 0.00 0.02 0.08 0.17 0.23 0.22 0.28 0.30 0.17 0.10 0.10 0.08 0.07 0.08 0.10 0.13 0.15 0.15 0.16 0.18
0.03 0.02 0.01 0.02 0.02 0.01 0.00 0.00 0.00 0.00 0.00 0.00 0.00 0.00 0.00 0.00 0.00 0.00 0.00 0.00 0.00 0.00 0.00 0.00 0.02 0.10 0.20 0.12 0.19 0.27 0.35 0.27 0.20 0.18 0.14 0.09 0.11 0.14 0.17 0.19 0.20 0.19 0.18
0.16 0.08 0.03 0.03 0.04 0.03 0.00 0.00 0.00 0.00 0.00 0.00 0.00 0.00 0.00 0.00 0.00 0.00 0.00 0.00 0.00 0.00 0.00 0.00 0.02 0.06 0.06 0.08 0.12 0.21 0.28 0.34 0.28 0.24 0.24 0.18 0.17 0.17 0.19 0.23 0.24 0.24 0.27
0.38 0.22 0.12 0.07 0.06 0.07 0.01 0.00 0.00 0.00 0.00 0.00 0.00 0.00 0.00 0.00 0.00 0.00 0.00 0.00 0.00 0.00 0.00 0.00 0.00 0.00 0.02 0.08 0.10 0.13 0.21 0.30 0.29 0.28 0.29 0.33 0.33 0.27 0.26 0.30 0.34 0.35 0.33
0.60 0.68 0.47 0.33 0.31 0.29 0.09 0.00 0.00 0.00 0.00 0.01 0.01 0.00 0.00 0.00 0.00 0.00 0.00 0.00 0.01 0.01 0.00 0.01 0.00 0.00 0.02 0.08 0.15 0.11 0.09 0.13 0.24 0.27 0.31 0.38 0.43 0.41 0.35 0.33 0.38 0.40 0.35
0.66 0.67 0.62 0.63 0.58 0.51 0.23 0.06 0.03 0.02 0.02 0.06 0.05 0.01 0.00 0.00 0.00 0.00 0.00 0.01 0.01 0.02 0.01 0.01 0.01 0.02 0.05 0.08 0.09 0.10 0.12 0.14 0.24 0.36 0.38 0.36 0.41 0.42 0.46 0.42 0.46 0.45 0.40
0.87 0.79 0.53 0.41 0.40 0.37 0.23 0.16 0.13 0.16 0.14 0.20 0.20 0.10 0.02 0.00 0.00 0.00 0.00 0.00 0.00 0.00 0.01 0.01 0.02 0.03 0.04 0.05 0.06 0.06 0.04 0.04 0.09 0.20 0.33 0.39 0.40 0.44 0.49 0.54 0.51 0.60 0.70
1.15 1.18 1.05 0.99 0.89 0.71 0.58 0.46 0.38 0.38 0.45 0.35 0.26 0.31 0.12 0.02 0.01 0.00 0.00 0.00 0.00 0.00 0.00 0.02 0.02 0.02 0.01 0.01 0.01 0.01 0.01 0.03 0.06 0.11 0.24 0.40 0.41 0.40 0.45 0.45 0.56 0.81 1.17
1.15 1.30 1.42 1.28 1.32 1.25 1.07 1.01 0.88 0.73 0.59 0.41 0.39 0.28 0.25 0.12 0.08 0.04 0.01 0.01 0.02 0.01 0.02 0.03 0.03 0.03 0.02 0.01 0.01 0.01 0.02 0.05 0.07 0.13 0.25 0.47 0.81 0.81 0.69 0.75 0.91 1.18 1.42
1.81 1.81 1.81 1.85 1.68 1.66 1.72 1.49 1.35 1.19 1.07 0.87 0.63 0.51 0.37 0.24 0.16 0.11 0.06 0.05 0.06 0.07 0.06 0.05 0.03 0.01 0.01 0.01 0.03 0.08 0.15 0.18 0.21 0.26 0.39 0.61 0.97 1.20 1.10 1.11 1.25 1.41 1.38
1.61 1.89 1.92 1.81 1.78 1.44 1.27 1.21 1.13 1.04 0.94 0.79 0.60 0.45 0.42 0.41 0.29 0.26 0.20 0.13 0.14 0.12 0.09 0.06 0.04 0.03 0.04 0.05 0.10 0.19 0.28 0.34 0.43 0.56 0.76 0.94 1.05 1.26 1.39 1.38 1.38 1.33 1.44
1.03 0.94 1.08 1.10 1.05 1.00 0.93 0.91 0.69 0.64 0.74 0.66 0.58 0.42 0.39 0.38 0.45 0.44 0.38 0.24 0.20 0.15 0.11 0.08 0.08 0.08 0.10 0.11 0.16 0.29 0.43 0.59 0.67 0.79 1.00 1.17 1.15 0.97 0.90 1.04 1.34 1.57 1.46
1.26 1.02 0.83 0.78 0.70 0.55 0.46 0.50 0.42 0.33 0.38 0.41 0.44 0.45 0.37 0.34 0.38 0.41 0.47 0.65 0.74 0.55 0.38 0.30 0.29 0.33 0.37 0.43 0.51 0.63 0.62 0.70 0.75 0.88 1.03 1.12 1.13 0.92 0.77 0.77 1.00 1.32 1.40
0.67 0.76 0.70 0.70 0.66 0.53 0.44 0.39 0.35 0.31 0.30 0.32 0.38 0.39 0.43 0.33 0.31 0.33 0.42 0.59 0.89 1.02 0.71 0.54 0.57 0.55 0.54 0.53 0.56 0.54 0.58 0.77 0.84 0.85 0.88 0.96 1.06 1.13 0.91 0.94 0.93 1.04 1.24
0.41 0.39 0.36 0.31 0.26 0.26 0.29 0.26 0.27 0.31 0.37 0.32 0.28 0.29 0.31 0.29 0.32 0.37 0.41 0.55 0.71 0.85 0.88 0.62 0.57 0.61 0.67 0.72 0.77 0.69 0.68 0.80 0.80 0.83 0.80 0.74 0.72 0.62 0.47 0.48 0.56 0.52 0.43
0.20 0.20 0.16 0.15 0.13 0.11 0.13 0.12 0.13 0.17 0.24 0.25 0.24 0.25 0.26 0.28 0.33 0.37 0.44 0.53 0.65 0.79 0.96 0.91 0.86 0.86 0.86 0.83 0.74 0.58 0.50 0.41 0.38 0.43 0.40 0.33 0.26 0.24 0.23 0.22 0.23 0.26 0.29
0.06 0.06 0.07 0.08 0.09 0.10 0.13 0.20 0.26 0.27 0.29 0.30 0.29 0.34 0.36 0.38 0.40 0.45 0.56 0.68 0.88 1.09 1.27 1.25 1.17 1.09 0.89 0.64 0.45 0.27 0.17 0.11 0.07 0.14 0.11 0.08 0.09 0.10 0.08 0.08 0.12 0.14 0.16
0.04 0.04 0.03 0.05 0.07 0.11 0.14 0.16 0.16 0.15 0.18 0.24 0.27 0.32 0.36 0.44 0.60 0.72 0.80 0.84 0.87 0.84 0.79 0.66 0.48 0.38 0.33 0.30 0.22 0.10 0.04 0.02 0.02 0.05 0.05 0.04 0.04 0.03 0.04 0.05 0.09 0.10 0.13
0.04 0.04 0.03 0.04 0.04 0.04 0.05 0.06 0.09 0.12 0.16 0.20 0.25 0.31 0.39 0.47 0.52 0.56 0.58 0.57 0.53 0.48 0.44 0.40 0.42 0.37 0.32 0.24 0.21 0.15 0.10 0.04 0.01 0.00 0.02 0.01 0.02 0.04 0.05 0.05 0.03 0.02 0.01
0.05 0.05 0.05 0.05 0.06 0.07 0.10 0.12 0.16 0.24 0.35 0.44 0.51 0.52 0.50 0.50 0.47 0.40 0.37 0.35 0.39 0.44 0.56 0.68 0.60 0.50 0.34 0.23 0.20 0.18 0.16 0.09 0.04 0.01 0.01 0.02 0.03 0.02 0.00 0.00 0.00 0.01 0.02
0.17 0.20 0.22 0.16 0.16 0.24 0.44 0.37 0.35 0.37 0.37 0.37 0.36 0.31 0.31 0.35 0.27 0.24 0.21 0.20 0.23 0.40 0.54 0.64 0.57 0.35 0.20 0.19 0.20 0.19 0.27 0.23 0.15 0.01 0.03 0.02 0.00 0.00 0.00 0.00 0.02 0.03 0.04
0.38 0.53 0.56 0.60 0.70 0.82 0.91 0.75 0.61 0.46 0.43 0.37 0.33 0.29 0.22 0.14 0.10 0.07 0.06 0.11 0.23 0.31 0.30 0.20 0.12 0.11 0.13 0.17 0.36 0.34 0.20 0.20 0.12 0.01 0.05 0.07 0.01 0.01 0.01 0.01 0.01 0.01 0.03
0.88 0.78 0.69 0.82 0.89 0.82 0.70 0.53 0.49 0.36 0.31 0.29 0.24 0.12 0.05 0.02 0.01 0.03 0.08 0.22 0.16 0.11 0.04 0.05 0.05 0.08 0.13 0.15 0.15 0.25 0.23 0.13 0.05 0.01 0.03 0.14 0.02 0.01 0.00 0.00 0.01 0.01 0.03
0.81 0.71 0.57 0.48 0.45 0.43 0.29 0.18 0.12 0.10 0.08 0.05 0.03 0.01 0.02 0.02 0.02 0.11 0.16 0.23 0.08 0.01 0.01 0.05 0.09 0.08 0.06 0.05 0.05 0.15 0.21 0.20 0.14 0.01 0.01 0.09 0.04 0.02 0.01 0.00 0.00 0.04 0.06
0.60 0.49 0.38 0.33 0.24 0.14 0.08 0.05 0.05 0.03 0.02 0.01 0.00 0.00 0.02 0.03 0.06 0.22 0.16 0.05 0.03 0.03 0.11 0.15 0.12 0.10 0.05 0.01 0.02 0.04 0.19 0.56 0.28 0.23 0.01 0.29 0.16 0.12 0.39 0.03 0.01 0.02 0.01

GFSMA_prec_precacc_117.txt.gz
Total_Precipitation_Accumulation
0.08 0.04 0.01 0.00 0.00 0.00 0.00 0.00 0.00 0.00 0.00 0.00 0.00 0.00 0.00 0.00 0.00 0.00 0.00 0.00 0.00 0.00 0.00 0.01 0.03 0.05 0.10 0.28 0.25 0.23 0.19 0.15 0.08 0.07 0.06 0.04 0.05 0.06 0.09 0.11 0.13 0.13 0.14
0.06 0.04 0.02 0.00 0.01 0.01 0.01 0.00 0.00 0.00 0.00 0.00 0.00 0.00 0.00 0.00 0.00 0.00 0.00 0.00 0.00 0.00 0.00 0.00 0.02 0.08 0.17 0.24 0.22 0.28 0.30 0.18 0.10 0.10 0.08 0.07 0.08 0.10 0.13 0.15 0.15 0.16 0.18
0.04 0.02 0.02 0.02 0.03 0.03 0.03 0.01 0.00 0.00 0.00 0.00 0.00 0.00 0.00 0.00 0.00 0.00 0.00 0.00 0.00 0.00 0.00 0.00 0.02 0.10 0.20 0.12 0.19 0.27 0.35 0.28 0.20 0.18 0.14 0.09 0.11 0.14 0.17 0.19 0.20 0.19 0.18
0.16 0.08 0.03 0.03 0.06 0.06 0.05 0.02 0.00 0.00 0.00 0.00 0.00 0.00 0.00 0.00 0.00 0.00 0.00 0.00 0.00 0.00 0.00 0.00 0.02 0.06 0.06 0.08 0.12 0.21 0.28 0.34 0.28 0.24 0.24 0.18 0.17 0.17 0.19 0.23 0.24 0.24 0.27
0.38 0.23 0.13 0.08 0.06 0.09 0.08 0.05 0.02 0.00 0.00 0.00 0.00 0.00 0.00 0.00 0.00 0.00 0.00 0.00 0.00 0.00 0.00 0.00 0.00 0.00 0.02 0.08 0.10 0.13 0.21 0.31 0.29 0.28 0.29 0.33 0.33 0.27 0.26 0.30 0.34 0.35 0.33
0.60 0.68 0.47 0.33 0.32 0.35 0.46 0.42 0.16 0.06 0.02 0.01 0.01 0.00 0.00 0.00 0.00 0.00 0.00 0.00 0.01 0.01 0.00 0.01 0.00 0.00 0.02 0.08 0.15 0.11 0.09 0.13 0.24 0.27 0.31 0.38 0.43 0.41 0.35 0.33 0.38 0.40 0.36
0.67 0.68 0.63 0.63 0.60 0.57 0.47 0.45 0.38 0.20 0.09 0.08 0.05 0.01 0.00 0.00 0.00 0.00 0.00 0.01 0.01 0.02 0.01 0.01 0.01 0.02 0.05 0.08 0.09 0.10 0.12 0.14 0.24 0.36 0.38 0.36 0.41 0.42 0.46 0.42 0.46 0.45 0.41
0.87 0.80 0.54 0.43 0.43 0.50 0.45 0.34 0.34 0.34 0.23 0.24 0.21 0.10 0.02 0.00 0.00 0.00 0.00 0.00 0.00 0.00 0.01 0.02 0.02 0.03 0.04 0.05 0.06 0.06 0.04 0.05 0.09 0.20 0.33 0.39 0.40 0.44 0.49 0.54 0.51 0.60 0.70
1.16 1.20 1.08 1.02 0.91 0.74 0.63 0.52 0.48 0.51 0.54 0.40 0.28 0.31 0.13 0.02 0.01 0.00 0.00 0.00 0.00 0.01 0.02 0.03 0.03 0.03 0.02 0.01 0.01 0.01 0.02 0.04 0.06 0.11 0.24 0.40 0.41 0.40 0.46 0.46 0.56 0.81 1.17
1.16 1.32 1.45 1.31 1.35 1.27 1.08 1.02 0.91 0.77 0.65 0.45 0.42 0.31 0.26 0.12 0.08 0.04 0.01 0.02 0.03 0.02 0.03 0.04 0.04 0.04 0.02 0.01 0.01 0.01 0.02 0.05 0.07 0.13 0.25 0.47 0.81 0.81 0.70 0.75 0.91 1.18 1.42
1.81 1.83 1.83 1.87 1.69 1.67 1.73 1.49 1.35 1.20 1.09 0.90 0.66 0.55 0.40 0.26 0.16 0.14 0.07 0.06 0.08 0.09 0.07 0.06 0.03 0.01 0.01 0.02 0.03 0.08 0.15 0.18 0.21 0.26 0.39 0.62 0.97 1.21 1.11 1.12 1.25 1.41 1.38
1.62 1.91 1.97 1.87 1.82 1.48 1.29 1.22 1.16 1.07 0.98 0.86 0.65 0.52 0.52 0.51 0.39 0.36 0.28 0.17 0.16 0.13 0.09 0.07 0.04 0.04 0.04 0.05 0.11 0.20 0.28 0.34 0.43 0.56 0.76 0.94 1.05 1.26 1.40 1.38 1.38 1.33 1.44
1.04 0.99 1.30 1.32 1.15 1.08 1.00 0.98 0.75 0.70 0.80 0.73 0.68 0.53 0.51 0.49 0.56 0.51 0.44 0.28 0.22 0.15 0.11 0.08 0.08 0.08 0.10 0.13 0.18 0.32 0.44 0.60 0.68 0.79 1.00 1.17 1.16 0.97 0.90 1.04 1.34 1.57 1.46
1.28 1.05 0.91 1.12 1.15 0.84 0.62 0.56 0.47 0.39 0.44 0.46 0.48 0.48 0.41 0.37 0.42 0.46 0.54 0.70 0.76 0.56 0.39 0.30 0.29 0.34 0.38 0.47 0.60 0.78 0.71 0.77 0.77 0.88 1.03 1.12 1.14 0.92 0.77 0.77 1.00 1.32 1.40
0.81 0.83 0.77 0.74 0.72 0.63 0.56 0.47 0.41 0.35 0.33 0.35 0.41 0.42 0.46 0.36 0.35 0.39 0.48 0.63 0.94 1.09 0.76 0.56 0.58 0.57 0.57 0.58 0.64 0.64 0.63 0.81 0.85 0.85 0.88 0.96 1.06 1.13 0.91 0.94 0.93 1.04 1.24
0.62 0.56 0.46 0.39 0.35 0.34 0.37 0.37 0.35 0.36 0.42 0.34 0.30 0.31 0.33 0.32 0.35 0.41 0.44 0.58 0.78 0.99 1.01 0.64 0.59 0.63 0.69 0.77 0.86 0.78 0.74 0.85 0.81 0.83 0.80 0.74 0.72 0.62 0.47 0.48 0.56 0.52 0.43
0.35 0.34 0.41 0.43 0.30 0.27 0.30 0.26 0.24 0.26 0.34 0.33 0.29 0.27 0.28 0.33 0.40 0.43 0.49 0.59 0.72 0.87 1.05 0.96 0.89 0.87 0.89 0.89 0.86 0.71 0.60 0.45 0.40 0.45 0.40 0.33 0.26 0.24 0.23 0.22 0.23 0.26 0.29
0.15 0.13 0.13 0.15 0.18 0.18 0.21 0.29 0.35 0.31 0.31 0.31 0.30 0.35 0.37 0.39 0.40 0.46 0.57 0.69 0.92 1.17 1.41 1.40 1.25 1.13 0.96 0.75 0.55 0.37 0.24 0.16 0.11 0.16 0.11 0.08 0.09 0.10 0.08 0.08 0.12 0.14 0.16
0.04 0.04 0.03 0.05 0.07 0.11 0.14 0.16 0.17 0.16 0.18 0.24 0.27 0.32 0.36 0.44 0.60 0.72 0.80 0.85 0.88 0.85 0.81 0.71 0.53 0.44 0.38 0.34 0.30 0.22 0.16 0.12 0.09 0.11 0.08 0.05 0.04 0.03 0.04 0.05 0.09 0.10 0.13
0.04 0.04 0.03 0.04 0.04 0.04 0.05 0.06 0.09 0.12 0.16 0.20 0.25 0.31 0.39 0.47 0.52 0.56 0.59 0.58 0.53 0.49 0.44 0.41 0.45 0.41 0.37 0.29 0.29 0.26 0.25 0.22 0.17 0.12 0.09 0.05 0.03 0.04 0.05 0.05 0.03 0.02 0.01
0.05 0.05 0.05 0.05 0.06 0.07 0.10 0.12 0.16 0.24 0.35 0.44 0.51 0.52 0.50 0.50 0.47 0.40 0.37 0.35 0.39 0.44 0.56 0.69 0.61 0.52 0.37 0.27 0.24 0.22 0.21 0.17 0.15 0.10 0.07 0.05 0.03 0.02 0.00 0.00 0.00 0.01 0.02
0.17 0.20 0.22 0.16 0.16 0.24 0.44 0.37 0.35 0.37 0.37 0.37 0.36 0.31 0.31 0.35 0.27 0.24 0.21 0.20 0.23 0.41 0.54 0.65 0.58 0.37 0.22 0.22 0.24 0.25 0.34 0.27 0.20 0.06 0.10 0.06 0.01 0.00 0.00 0.00 0.02 0.03 0.04
0.38 0.53 0.56 0.60 0.70 0.82 0.91 0.75 0.61 0.46 0.43 0.37 0.33 0.29 0.22 0.14 0.10 0.07 0.06 0.11 0.23 0.32 0.32 0.22 0.14 0.12 0.15 0.19 0.41 0.40 0.29 0.27 0.14 0.03 0.08 0.08 0.02 0.01 0.01 0.01 0.01 0.01 0.03
0.88 0.78 0.69 0.82 0.89 0.82 0.70 0.53 0.49 0.36 0.31 0.29 0.24 0.12 0.05 0.02 0.01 0.03 0.08 0.22 0.16 0.11 0.04 0.06 0.06 0.10 0.18 0.22 0.26 0.38 0.33 0.21 0.10 0.03 0.04 0.14 0.02 0.01 0.00 0.00 0.01 0.01 0.03
0.81 0.71 0.57 0.48 0.45 0.43 0.29 0.18 0.12 0.10 0.08 0.05 0.03 0.01 0.02 0.03 0.02 0.11 0.16 0.23 0.08 0.01 0.02 0.06 0.13 0.13 0.17 0.21 0.24 0.37 0.42 0.35 0.24 0.07 0.05 0.11 0.04 0.02 0.01 0.00 0.00 0.04 0.06
0.60 0.49 0.38 0.33 0.24 0.14 0.08 0.05 0.05 0.03 0.02 0.01 0.00 0.00 0.02 0.03 0.07 0.23 0.16 0.05 0.03 0.03 0.11 0.16 0.15 0.15 0.15 0.14 0.16 0.14 0.30 0.73 0.42 0.33 0.11 0.37 0.17 0.12 0.39 0.03 0.01 0.02 0.01

GFSMA_prec_precacc_120.txt.gz
Total_Precipitation_Accumulation
0.10 0.06 0.06 0.04 0.01 0.00 0.01 0.00 0.00 0.00 0.00 0.00 0.00 0.00 0.00 0.00 0.00 0.00 0.00 0.00 0.00 0.00 0.00 0.02 0.05 0.07 0.11 0.28 0.25 0.24 0.20 0.15 0.09 0.07 0.06 0.04 0.05 0.06 0.09 0.11 0.13 0.13 0.14
0.16 0.08 0.06 0.03 0.01 0.01 0.01 0.01 0.00 0.00 0.00 0.00 0.00 0.00 0.00 0.00 0.00 0.00 0.00 0.00 0.00 0.00 0.00 0.00 0.02 0.09 0.18 0.24 0.23 0.29 0.30 0.18 0.10 0.10 0.08 0.07 0.08 0.10 0.13 0.15 0.15 0.16 0.18
0.06 0.05 0.05 0.05 0.04 0.05 0.03 0.03 0.01 0.00 0.00 0.00 0.00 0.00 0.00 0.00 0.00 0.00 0.00 0.00 0.00 0.00 0.00 0.00 0.02 0.10 0.21 0.13 0.20 0.27 0.35 0.28 0.20 0.18 0.14 0.09 0.11 0.14 0.17 0.19 0.20 0.19 0.18
0.16 0.09 0.03 0.04 0.08 0.09 0.07 0.03 0.01 0.00 0.00 0.00 0.00 0.00 0.00 0.00 0.00 0.00 0.00 0.00 0.00 0.00 0.00 0.00 0.02 0.06 0.06 0.09 0.14 0.21 0.28 0.34 0.28 0.24 0.24 0.18 0.17 0.17 0.19 0.23 0.24 0.24 0.27
0.38 0.23 0.13 0.08 0.06 0.09 0.09 0.06 0.03 0.01 0.00 0.00 0.00 0.00 0.00 0.00 0.00 0.00 0.00 0.00 0.00 0.00 0.00 0.00 0.00 0.00 0.02 0.08 0.10 0.13 0.21 0.31 0.30 0.28 0.29 0.33 0.33 0.27 0.26 0.30 0.34 0.35 0.33
0.60 0.68 0.47 0.33 0.33 0.36 0.47 0.43 0.16 0.06 0.02 0.01 0.01 0.00 0.00 0.00 0.00 0.00 0.00 0.00 0.01 0.01 0.00 0.01 0.00 0.00 0.02 0.08 0.15 0.11 0.09 0.13 0.24 0.27 0.31 0.38 0.43 0.41 0.35 0.33 0.38 0.40 0.36
0.67 0.68 0.63 0.64 0.60 0.57 0.48 0.45 0.41 0.22 0.11 0.10 0.07 0.01 0.00 0.00 0.00 0.00 0.00 0.01 0.01 0.02 0.01 0.01 0.01 0.02 0.05 0.08 0.09 0.10 0.12 0.14 0.24 0.37 0.38 0.36 0.41 0.42 0.46 0.42 0.46 0.45 0.41
0.87 0.80 0.54 0.43 0.43 0.51 0.46 0.35 0.36 0.38 0.25 0.25 0.24 0.12 0.03 0.00 0.00 0.00 0.00 0.00 0.00 0.00 0.01 0.02 0.04 0.07 0.06 0.07 0.08 0.07 0.04 0.05 0.10 0.21 0.33 0.39 0.40 0.44 0.49 0.54 0.52 0.60 0.70
1.16 1.20 1.08 1.03 0.92 0.75 0.64 0.54 0.50 0.54 0.59 0.43 0.30 0.34 0.14 0.02 0.01 0.00 0.00 0.00 0.00 0.01 0.02 0.04 0.09 0.09 0.06 0.03 0.02 0.01 0.04 0.10 0.12 0.13 0.25 0.40 0.41 0.41 0.47 0.47 0.57 0.82 1.17
1.16 1.33 1.46 1.32 1.37 1.30 1.11 1.04 0.93 0.79 0.66 0.46 0.43 0.31 0.28 0.14 0.11 0.06 0.02 0.03 0.05 0.07 0.10 0.12 0.11 0.09 0.04 0.01 0.01 0.01 0.03 0.05 0.10 0.15 0.27 0.49 0.82 0.83 0.71 0.76 0.93 1.19 1.42
1.82 1.83 1.84 1.88 1.70 1.69 1.75 1.51 1.36 1.21 1.09 0.90 0.66 0.55 0.42 0.29 0.21 0.22 0.12 0.10 0.11 0.10 0.10 0.08 0.05 0.02 0.02 0.02 0.04 0.08 0.15 0.18 0.21 0.26 0.39 0.63 0.98 1.22 1.12 1.14 1.28 1.42 1.38
1.63 1.92 1.98 1.88 1.83 1.49 1.31 1.24 1.17 1.08 0.98 0.86 0.65 0.52 0.52 0.52 0.41 0.40 0.32 0.20 0.19 0.15 0.11 0.07 0.04 0.04 0.05 0.06 0.11 0.20 0.28 0.35 0.43 0.56 0.77 0.95 1.06 1.27 1.41 1.40 1.39 1.33 1.44
1.04 0.99 1.30 1.33 1.16 1.09 1.02 0.99 0.77 0.72 0.81 0.74 0.69 0.54 0.53 0.52 0.60 0.57 0.52 0.36 0.30 0.19 0.12 0.09 0.08 0.09 0.11 0.13 0.18 0.33 0.45 0.62 0.71 0.83 1.04 1.19 1.16 0.98 0.91 1.05 1.34 1.57 1.46
1.28 1.05 0.91 1.13 1.17 0.92 0.71 0.70 0.58 0.43 0.47 0.49 0.52 0.54 0.47 0.42 0.47 0.52 0.61 0.80 0.85 0.59 0.39 0.30 0.29 0.34 0.39 0.47 0.61 0.80 0.74 0.84 0.84 0.94 1.06 1.13 1.14 0.92 0.77 0.77 1.00 1.32 1.40
0.84 0.86 0.78 0.75 0.73 0.68 0.72 0.69 0.60 0.47 0.41 0.41 0.48 0.52 0.54 0.43 0.43 0.46 0.56 0.73 1.06 1.18 0.78 0.57 0.59 0.57 0.57 0.59 0.65 0.64 0.64 0.85 0.91 0.88 0.89 0.96 1.07 1.13 0.91 0.94 0.93 1.04 1.24
0.76 0.80 0.68 0.47 0.39 0.37 0.42 0.43 0.44 0.48 0.55 0.47 0.42 0.41 0.42 0.40 0.41 0.45 0.49 0.65 0.89 1.12 1.12 0.66 0.60 0.63 0.70 0.77 0.87 0.78 0.75 0.89 0.84 0.85 0.80 0.74 0.72 0.62 0.47 0.48 0.56 0.52 0.43
0.47 0.41 0.54 0.57 0.36 0.32 0.39 0.35 0.34 0.36 0.42 0.44 0.42 0.39 0.33 0.34 0.42 0.46 0.54 0.65 0.78 0.94 1.12 0.98 0.89 0.88 0.90 0.90 0.88 0.73 0.62 0.48 0.43 0.47 0.41 0.33 0.26 0.24 0.23 0.22 0.23 0.26 0.29
0.29 0.23 0.20 0.25 0.33 0.28 0.28 0.37 0.44 0.40 0.35 0.35 0.33 0.39 0.39 0.41 0.43 0.48 0.60 0.72 0.93 1.17 1.41 1.41 1.25 1.13 0.96 0.75 0.56 0.38 0.25 0.17 0.12 0.18 0.13 0.09 0.09 0.10 0.08 0.08 0.12 0.14 0.16
0.07 0.06 0.05 0.06 0.07 0.12 0.15 0.17 0.19 0.19 0.22 0.26 0.28 0.32 0.36 0.45 0.60 0.72 0.80 0.85 0.88 0.86 0.82 0.72 0.54 0.44 0.38 0.34 0.31 0.24 0.18 0.14 0.10 0.14 0.11 0.07 0.05 0.04 0.04 0.05 0.09 0.10 0.13
0.04 0.04 0.03 0.04 0.04 0.04 0.05 0.06 0.09 0.12 0.16 0.20 0.25 0.31 0.39 0.47 0.52 0.56 0.59 0.58 0.53 0.49 0.44 0.41 0.45 0.41 0.37 0.30 0.31 0.29 0.28 0.25 0.21 0.17 0.13 0.08 0.06 0.06 0.06 0.05 0.03 0.02 0.01
0.05 0.05 0.05 0.05 0.06 0.07 0.10 0.12 0.16 0.24 0.35 0.44 0.51 0.52 0.50 0.50 0.47 0.40 0.37 0.35 0.39 0.44 0.56 0.69 0.61 0.52 0.37 0.27 0.25 0.24 0.25 0.22 0.22 0.17 0.16 0.12 0.09 0.05 0.02 0.02 0.00 0.01 0.02
0.17 0.20 0.22 0.16 0.16 0.24 0.44 0.37 0.35 0.37 0.37 0.37 0.36 0.31 0.31 0.35 0.27 0.24 0.21 0.20 0.23 0.41 0.55 0.65 0.58 0.38 0.22 0.22 0.25 0.28 0.39 0.38 0.34 0.16 0.19 0.14 0.09 0.08 0.04 0.02 0.02 0.03 0.04
0.38 0.53 0.56 0.60 0.70 0.82 0.91 0.75 0.61 0.46 0.43 0.37 0.33 0.29 0.22 0.14 0.10 0.07 0.06 0.11 0.23 0.32 0.32 0.22 0.14 0.13 0.16 0.20 0.44 0.44 0.34 0.35 0.26 0.10 0.16 0.16 0.07 0.05 0.03 0.03 0.03 0.02 0.03
0.88 0.78 0.69 0.82 0.89 0.82 0.70 0.53 0.49 0.36 0.31 0.29 0.24 0.12 0.05 0.02 0.01 0.03 0.08 0.22 0.16 0.11 0.05 0.06 0.07 0.11 0.19 0.23 0.29 0.44 0.42 0.34 0.25 0.15 0.12 0.21 0.05 0.03 0.02 0.03 0.02 0.01 0.03
0.81 0.71 0.57 0.48 0.45 0.43 0.29 0.18 0.12 0.10 0.08 0.05 0.03 0.01 0.02 0.03 0.02 0.11 0.17 0.23 0.08 0.01 0.02 0.06 0.13 0.14 0.19 0.26 0.30 0.46 0.54 0.49 0.41 0.20 0.17 0.26 0.13 0.07 0.03 0.03 0.01 0.04 0.06
0.60 0.49 0.38 0.33 0.24 0.14 0.08 0.05 0.05 0.03 0.02 0.01 0.00 0.00 0.02 0.03 0.07 0.23 0.17 0.05 0.03 0.03 0.12 0.16 0.15 0.15 0.16 0.16 0.23 0.20 0.36 0.83 0.59 0.50 0.29 0.64 0.44 0.35 0.56 0.10 0.04 0.02 0.01

GFSMA_prec_precacc_123.txt.gz
Total_Precipitation_Accumulation
0.13 0.09 0.12 0.10 0.06 0.02 0.02 0.00 0.00 0.00 0.00 0.00 0.00 0.00 0.00 0.00 0.00 0.00 0.00 0.00 0.00 0.00 0.00 0.02 0.06 0.09 0.13 0.29 0.25 0.25 0.21 0.15 0.09 0.07 0.06 0.04 0.05 0.06 0.09 0.11 0.13 0.13 0.14
0.22 0.14 0.12 0.07 0.05 0.07 0.02 0.01 0.00 0.00 0.00 0.00 0.00 0.00 0.00 0.00 0.00 0.00 0.00 0.00 0.00 0.00 0.00 0.00 0.02 0.09 0.21 0.26 0.23 0.30 0.31 0.18 0.10 0.10 0.08 0.07 0.08 0.10 0.13 0.15 0.15 0.16 0.18
0.09 0.11 0.11 0.12 0.13 0.15 0.12 0.05 0.01 0.00 0.00 0.00 0.00 0.00 0.00 0.00 0.00 0.00 0.00 0.00 0.00 0.00 0.00 0.00 0.02 0.10 0.21 0.14 0.20 0.28 0.35 0.28 0.20 0.18 0.14 0.09 0.11 0.14 0.17 0.19 0.20 0.19 0.18
0.16 0.10 0.05 0.05 0.11 0.17 0.16 0.07 0.01 0.00 0.00 0.00 0.00 0.00 0.00 0.00 0.00 0.00 0.00 0.00 0.00 0.00 0.00 0.00 0.02 0.06 0.06 0.09 0.14 0.21 0.28 0.34 0.28 0.25 0.24 0.18 0.17 0.17 0.19 0.23 0.24 0.24 0.27
0.38 0.23 0.13 0.08 0.07 0.12 0.11 0.07 0.03 0.01 0.00 0.00 0.00 0.00 0.00 0.00 0.00 0.00 0.00 0.00 0.00 0.00 0.00 0.00 0.00 0.00 0.02 0.08 0.10 0.13 0.21 0.31 0.30 0.28 0.30 0.33 0.33 0.27 0.26 0.30 0.34 0.35 0.33
0.60 0.68 0.47 0.33 0.33 0.37 0.48 0.44 0.17 0.07 0.02 0.01 0.01 0.00 0.00 0.00 0.00 0.00 0.00 0.00 0.01 0.01 0.00 0.01 0.00 0.00 0.02 0.08 0.15 0.11 0.09 0.14 0.24 0.27 0.31 0.38 0.43 0.41 0.35 0.33 0.38 0.40 0.36
0.67 0.68 0.63 0.64 0.60 0.57 0.48 0.46 0.42 0.24 0.11 0.12 0.08 0.02 0.00 0.00 0.00 0.00 0.00 0.01 0.01 0.02 0.01 0.01 0.01 0.02 0.05 0.09 0.11 0.11 0.12 0.14 0.24 0.37 0.38 0.36 0.41 0.42 0.46 0.42 0.47 0.46 0.41
0.87 0.80 0.54 0.43 0.43 0.51 0.47 0.37 0.39 0.40 0.27 0.27 0.25 0.13 0.03 0.00 0.00 0.00 0.00 0.00 0.00 0.00 0.01 0.02 0.04 0.07 0.08 0.08 0.16 0.12 0.05 0.05 0.10 0.21 0.33 0.39 0.40 0.44 0.49 0.55 0.53 0.61 0.71
1.16 1.20 1.08 1.03 0.92 0.76 0.65 0.54 0.51 0.56 0.61 0.44 0.32 0.36 0.15 0.03 0.01 0.00 0.00 0.00 0.00 0.01 0.02 0.05 0.12 0.19 0.15 0.05 0.05 0.03 0.05 0.10 0.12 0.14 0.27 0.41 0.42 0.41 0.47 0.47 0.58 0.84 1.19
1.16 1.33 1.46 1.32 1.37 1.31 1.12 1.05 0.93 0.80 0.69 0.48 0.45 0.32 0.29 0.15 0.12 0.07 0.02 0.03 0.05 0.07 0.11 0.14 0.15 0.12 0.06 0.03 0.01 0.01 0.03 0.05 0.10 0.15 0.28 0.54 0.89 0.86 0.73 0.79 0.95 1.23 1.45
1.82 1.83 1.84 1.88 1.71 1.70 1.75 1.53 1.39 1.22 1.12 0.94 0.70 0.57 0.43 0.31 0.22 0.22 0.12 0.10 0.11 0.10 0.10 0.08 0.05 0.03 0.02 0.02 0.04 0.08 0.15 0.18 0.21 0.26 0.41 0.68 1.07 1.29 1.18 1.18 1.31 1.46 1.40
1.63 1.92 1.98 1.88 1.84 1.50 1.32 1.25 1.20 1.10 1.00 0.88 0.67 0.54 0.54 0.54 0.44 0.43 0.34 0.20 0.20 0.15 0.11 0.07 0.04 0.04 0.05 0.06 0.11 0.20 0.28 0.35 0.43 0.56 0.78 1.00 1.10 1.30 1.43 1.42 1.41 1.34 1.44
1.05 1.00 1.31 1.33 1.17 1.10 1.03 1.01 0.79 0.73 0.83 0.76 0.70 0.55 0.53 0.52 0.61 0.58 0.53 0.36 0.31 0.19 0.12 0.09 0.08 0.10 0.12 0.14 0.18 0.33 0.45 0.62 0.71 0.83 1.05 1.21 1.18 0.99 0.93 1.06 1.35 1.58 1.46
1.30 1.06 0.92 1.13 1.18 0.92 0.71 0.72 0.61 0.46 0.49 0.50 0.52 0.55 0.49 0.44 0.49 0.54 0.62 0.82 0.87 0.59 0.39 0.30 0.29 0.34 0.39 0.47 0.61 0.80 0.74 0.84 0.84 0.94 1.08 1.15 1.15 0.93 0.78 0.77 1.00 1.32 1.40
0.85 0.87 0.78 0.75 0.73 0.69 0.73 0.70 0.66 0.56 0.46 0.44 0.50 0.53 0.56 0.47 0.48 0.52 0.65 0.83 1.13 1.20 0.79 0.57 0.59 0.57 0.57 0.59 0.65 0.65 0.64 0.85 0.91 0.89 0.90 0.97 1.07 1.13 0.91 0.94 0.93 1.04 1.24
0.77 0.80 0.72 0.54 0.44 0.39 0.43 0.44 0.46 0.50 0.58 0.50 0.45 0.46 0.48 0.48 0.54 0.56 0.56 0.68 0.90 1.15 1.17 0.67 0.60 0.63 0.70 0.77 0.87 0.78 0.75 0.89 0.84 0.85 0.80 0.74 0.72 0.62 0.47 0.48 0.56 0.52 0.43
0.61 0.48 0.62 0.75 0.61 0.45 0.45 0.42 0.38 0.40 0.48 0.51 0.49 0.45 0.43 0.45 0.48 0.49 0.55 0.67 0.80 0.96 1.17 1.01 0.90 0.88 0.90 0.90 0.88 0.73 0.62 0.48 0.44 0.48 0.42 0.34 0.27 0.25 0.23 0.22 0.23 0.26 0.29
0.58 0.47 0.35 0.36 0.45 0.43 0.37 0.45 0.55 0.46 0.40 0.41 0.38 0.43 0.43 0.44 0.45 0.51 0.62 0.74 0.96 1.20 1.44 1.43 1.25 1.13 0.96 0.75 0.56 0.38 0.25 0.17 0.12 0.21 0.18 0.15 0.15 0.13 0.10 0.09 0.12 0.14 0.16
0.23 0.20 0.14 0.13 0.15 0.16 0.19 0.20 0.20 0.21 0.24 0.30 0.33 0.37 0.40 0.47 0.62 0.73 0.81 0.85 0.88 0.86 0.82 0.72 0.54 0.44 0.38 0.34 0.31 0.24 0.18 0.14 0.11 0.18 0.18 0.16 0.16 0.12 0.10 0.10 0.11 0.11 0.13
0.09 0.07 0.06 0.08 0.08 0.05 0.05 0.06 0.09 0.12 0.16 0.20 0.25 0.31 0.39 0.47 0.52 0.56 0.59 0.58 0.53 0.49 0.44 0.41 0.45 0.42 0.37 0.30 0.31 0.29 0.28 0.25 0.22 0.19 0.19 0.18 0.20 0.18 0.14 0.12 0.08 0.04 0.02
0.05 0.05 0.05 0.05 0.06 0.07 0.10 0.12 0.16 0.24 0.35 0.44 0.51 0.52 0.50 0.50 0.47 0.40 0.37 0.35 0.39 0.44 0.57 0.69 0.61 0.52 0.38 0.28 0.26 0.24 0.25 0.22 0.23 0.18 0.17 0.17 0.19 0.18 0.15 0.14 0.10 0.07 0.07
0.17 0.20 0.22 0.16 0.16 0.24 0.44 0.37 0.35 0.37 0.37 0.37 0.36 0.31 0.31 0.35 0.27 0.24 0.21 0.20 0.23 0.41 0.55 0.65 0.59 0.38 0.23 0.24 0.27 0.29 0.40 0.39 0.34 0.16 0.20 0.16 0.14 0.14 0.10 0.09 0.10 0.10 0.11
0.38 0.53 0.56 0.60 0.70 0.82 0.91 0.75 0.61 0.46 0.43 0.37 0.33 0.29 0.22 0.14 0.10 0.07 0.06 0.11 0.23 0.32 0.32 0.23 0.14 0.13 0.16 0.21 0.45 0.46 0.35 0.37 0.27 0.12 0.18 0.20 0.14 0.17 0.17 0.19 0.25 0.20 0.17
0.88 0.78 0.69 0.82 0.89 0.82 0.70 0.53 0.49 0.36 0.31 0.29 0.24 0.12 0.05 0.02 0.01 0.03 0.08 0.22 0.16 0.11 0.05 0.06 0.07 0.11 0.20 0.24 0.30 0.46 0.44 0.36 0.28 0.19 0.18 0.31 0.11 0.11 0.14 0.13 0.21 0.20 0.15
0.81 0.71 0.57 0.48 0.45 0.43 0.29 0.18 0.12 0.10 0.08 0.05 0.03 0.01 0.02 0.03 0.02 0.11 0.17 0.23 0.08 0.01 0.02 0.06 0.14 0.14 0.19 0.26 0.31 0.47 0.56 0.52 0.45 0.23 0.19 0.31 0.21 0.17 0.15 0.15 0.20 0.29 0.23
0.60 0.49 0.38 0.33 0.24 0.14 0.08 0.05 0.05 0.03 0.02 0.01 0.00 0.00 0.02 0.03 0.07 0.23 0.17 0.05 0.03 0.03 0.12 0.16 0.15 0.15 0.16 0.17 0.23 0.21 0.38 0.87 0.65 0.56 0.31 0.71 0.54 0.44 0.71 0.27 0.18 0.19 0.20

GFSMA_prec_precacc_126.txt.gz
Total_Precipitation_Accumulation
0.13 0.10 0.13 0.11 0.07 0.03 0.02 0.00 0.00 0.00 0.00 0.00 0.00 0.00 0.00 0.00 0.00 0.00 0.00 0.00 0.00 0.00 0.00 0.02 0.06 0.09 0.14 0.29 0.26 0.25 0.23 0.16 0.09 0.07 0.06 0.04 0.05 0.06 0.09 0.11 0.13 0.13 0.14
0.23 0.15 0.15 0.09 0.06 0.08 0.04 0.02 0.00 0.00 0.00 0.00 0.00 0.00 0.00 0.00 0.00 0.00 0.00 0.00 0.00 0.00 0.00 0.00 0.02 0.09 0.21 0.26 0.23 0.31 0.31 0.18 0.10 0.10 0.08 0.07 0.08 0.10 0.13 0.15 0.15 0.16 0.18
0.09 0.13 0.14 0.15 0.17 0.23 0.19 0.10 0.02 0.00 0.00 0.00 0.00 0.00 0.00 0.00 0.00 0.00 0.00 0.00 0.00 0.00 0.00 0.00 0.02 0.10 0.21 0.14 0.20 0.29 0.37 0.29 0.20 0.18 0.14 0.10 0.11 0.14 0.17 0.19 0.20 0.19 0.18
0.17 0.10 0.07 0.06 0.16 0.24 0.24 0.12 0.03 0.01 0.00 0.00 0.00 0.00 0.00 0.00 0.00 0.00 0.00 0.00 0.00 0.00 0.00 0.00 0.02 0.06 0.06 0.09 0.14 0.21 0.30 0.37 0.30 0.25 0.25 0.18 0.17 0.17 0.19 0.23 0.24 0.24 0.27
0.39 0.24 0.14 0.10 0.16 0.21 0.18 0.14 0.09 0.03 0.00 0.00 0.00 0.00 0.00 0.00 0.00 0.00 0.00 0.00 0.00 0.00 0.00 0.00 0.00 0.00 0.02 0.08 0.10 0.13 0.24 0.37 0.31 0.28 0.30 0.33 0.33 0.27 0.26 0.30 0.34 0.35 0.33
0.63 0.68 0.48 0.34 0.34 0.41 0.53 0.50 0.19 0.09 0.03 0.02 0.01 0.00 0.00 0.00 0.00 0.00 0.00 0.00 0.01 0.01 0.00 0.01 0.00 0.00 0.02 0.08 0.15 0.11 0.09 0.16 0.26 0.29 0.31 0.40 0.43 0.41 0.35 0.33 0.38 0.40 0.36
0.69 0.69 0.66 0.67 0.61 0.57 0.49 0.48 0.45 0.26 0.13 0.12 0.11 0.03 0.01 0.00 0.00 0.00 0.00 0.01 0.01 0.02 0.01 0.01 0.01 0.02 0.05 0.09 0.11 0.11 0.12 0.14 0.26 0.39 0.39 0.39 0.43 0.43 0.46 0.42 0.47 0.46 0.41
0.88 0.80 0.54 0.43 0.43 0.51 0.47 0.37 0.39 0.41 0.28 0.28 0.27 0.15 0.04 0.00 0.00 0.00 0.00 0.00 0.00 0.00 0.01 0.02 0.04 0.08 0.08 0.09 0.18 0.17 0.07 0.05 0.10 0.21 0.34 0.40 0.41 0.44 0.51 0.56 0.53 0.62 0.72
1.18 1.20 1.08 1.03 0.92 0.76 0.65 0.55 0.51 0.57 0.62 0.45 0.34 0.38 0.16 0.03 0.01 0.00 0.00 0.00 0.00 0.01 0.02 0.05 0.13 0.19 0.15 0.05 0.05 0.03 0.05 0.10 0.12 0.14 0.27 0.41 0.47 0.49 0.53 0.52 0.60 0.85 1.20
1.19 1.33 1.48 1.33 1.37 1.31 1.12 1.06 0.94 0.81 0.71 0.49 0.45 0.34 0.30 0.16 0.12 0.07 0.02 0.03 0.05 0.07 0.11 0.14 0.15 0.12 0.06 0.03 0.01 0.01 0.03 0.05 0.10 0.15 0.28 0.55 0.94 0.95 0.84 0.87 1.01 1.27 1.50
1.87 1.88 1.86 1.89 1.71 1.70 1.75 1.53 1.39 1.23 1.13 0.96 0.73 0.59 0.45 0.33 0.26 0.26 0.13 0.10 0.11 0.10 0.10 0.08 0.06 0.03 0.02 0.02 0.04 0.08 0.15 0.18 0.21 0.26 0.41 0.68 1.09 1.39 1.35 1.40 1.56 1.54 1.46
1.67 1.94 1.98 1.88 1.84 1.50 1.32 1.25 1.20 1.11 1.01 0.90 0.70 0.58 0.57 0.58 0.49 0.52 0.47 0.28 0.23 0.16 0.12 0.07 0.04 0.04 0.05 0.06 0.11 0.20 0.28 0.35 0.43 0.56 0.78 1.00 1.14 1.38 1.55 1.54 1.52 1.39 1.48
1.07 1.05 1.33 1.36 1.17 1.10 1.03 1.01 0.79 0.73 0.84 0.78 0.74 0.58 0.56 0.53 0.61 0.59 0.55 0.38 0.31 0.19 0.13 0.09 0.08 0.10 0.12 0.14 0.18 0.33 0.45 0.62 0.71 0.83 1.05 1.21 1.21 1.03 0.95 1.08 1.36 1.59 1.49
1.35 1.11 0.95 1.17 1.19 0.92 0.71 0.72 0.62 0.47 0.50 0.52 0.55 0.60 0.54 0.46 0.50 0.54 0.63 0.82 0.88 0.59 0.39 0.30 0.29 0.34 0.39 0.47 0.61 0.80 0.75 0.84 0.84 0.94 1.08 1.16 1.16 0.94 0.78 0.77 1.00 1.33 1.42
0.88 0.89 0.79 0.77 0.77 0.70 0.74 0.71 0.67 0.56 0.48 0.48 0.57 0.63 0.65 0.50 0.49 0.53 0.66 0.85 1.16 1.22 0.79 0.57 0.59 0.57 0.57 0.59 0.65 0.65 0.64 0.85 0.91 0.89 0.90 0.97 1.07 1.13 0.91 0.94 0.93 1.04 1.24
0.79 0.83 0.73 0.63 0.47 0.40 0.44 0.47 0.47 0.51 0.59 0.52 0.48 0.50 0.53 0.52 0.56 0.59 0.59 0.71 0.92 1.17 1.19 0.67 0.60 0.64 0.70 0.77 0.87 0.78 0.75 0.89 0.84 0.85 0.80 0.74 0.72 0.62 0.47 0.48 0.56 0.52 0.43
0.62 0.49 0.62 0.76 0.63 0.47 0.48 0.50 0.51 0.56 0.58 0.54 0.53 0.49 0.48 0.49 0.54 0.55 0.59 0.68 0.81 0.98 1.21 1.03 0.92 0.89 0.91 0.90 0.88 0.73 0.62 0.48 0.44 0.48 0.42 0.35 0.28 0.26 0.24 0.23 0.24 0.27 0.30
0.61 0.50 0.38 0.44 0.62 0.67 0.68 0.66 0.82 0.75 0.56 0.50 0.46 0.50 0.49 0.49 0.49 0.53 0.63 0.75 0.97 1.22 1.47 1.45 1.26 1.14 0.96 0.75 0.56 0.38 0.25 0.17 0.12 0.21 0.18 0.15 0.16 0.16 0.13 0.14 0.18 0.19 0.21
0.31 0.34 0.36 0.34 0.33 0.40 0.49 0.46 0.36 0.39 0.45 0.40 0.37 0.40 0.43 0.49 0.64 0.74 0.81 0.85 0.88 0.86 0.82 0.72 0.54 0.44 0.39 0.34 0.31 0.24 0.18 0.14 0.11 0.18 0.18 0.16 0.17 0.14 0.12 0.13 0.16 0.17 0.21
0.23 0.26 0.29 0.30 0.28 0.18 0.18 0.11 0.11 0.12 0.17 0.20 0.25 0.31 0.39 0.47 0.52 0.56 0.59 0.58 0.53 0.49 0.44 0.41 0.45 0.42 0.37 0.30 0.31 0.30 0.28 0.25 0.22 0.19 0.20 0.18 0.20 0.19 0.17 0.15 0.11 0.08 0.06
0.09 0.08 0.08 0.07 0.10 0.10 0.12 0.12 0.16 0.24 0.35 0.44 0.51 0.52 0.50 0.50 0.47 0.40 0.37 0.35 0.39 0.44 0.57 0.69 0.61 0.53 0.38 0.28 0.26 0.25 0.26 0.22 0.23 0.19 0.17 0.17 0.19 0.18 0.16 0.18 0.15 0.13 0.12
0.17 0.20 0.22 0.16 0.16 0.24 0.44 0.37 0.35 0.37 0.37 0.37 0.36 0.31 0.31 0.35 0.27 0.24 0.21 0.20 0.23 0.41 0.55 0.65 0.59 0.39 0.23 0.24 0.27 0.30 0.40 0.39 0.35 0.16 0.20 0.17 0.14 0.14 0.10 0.10 0.15 0.16 0.17
0.38 0.53 0.56 0.60 0.70 0.82 0.91 0.75 0.61 0.46 0.43 0.37 0.33 0.29 0.22 0.14 0.10 0.07 0.06 0.11 0.23 0.32 0.32 0.23 0.14 0.13 0.16 0.21 0.46 0.47 0.36 0.37 0.28 0.13 0.19 0.21 0.15 0.18 0.17 0.19 0.30 0.30 0.30
0.88 0.78 0.69 0.82 0.89 0.82 0.70 0.53 0.49 0.36 0.31 0.29 0.24 0.12 0.05 0.02 0.01 0.03 0.08 0.22 0.16 0.11 0.05 0.06 0.07 0.11 0.20 0.24 0.30 0.46 0.45 0.37 0.29 0.19 0.18 0.32 0.12 0.12 0.15 0.14 0.26 0.33 0.35
0.81 0.71 0.57 0.48 0.45 0.43 0.29 0.18 0.12 0.10 0.08 0.05 0.03 0.01 0.02 0.03 0.02 0.11 0.17 0.23 0.08 0.01 0.02 0.06 0.14 0.14 0.19 0.26 0.31 0.48 0.57 0.53 0.46 0.23 0.19 0.32 0.22 0.19 0.16 0.16 0.25 0.46 0.47
0.60 0.49 0.38 0.33 0.24 0.14 0.08 0.05 0.05 0.03 0.02 0.01 0.00 0.00 0.02 0.03 0.07 0.23 0.17 0.05 0.03 0.03 0.12 0.16 0.15 0.15 0.16 0.17 0.23 0.22 0.39 0.89 0.68 0.58 0.31 0.73 0.56 0.47 0.72 0.27 0.19 0.21 0.31

GFSMA_prec_precacc_129.txt.gz
Total_Precipitation_Accumulation
0.14 0.10 0.13 0.11 0.07 0.03 0.02 0.00 0.00 0.00 0.00 0.00 0.00 0.00 0.00 0.00 0.00 0.00 0.00 0.00 0.00 0.00 0.00 0.02 0.06 0.09 0.14 0.29 0.26 0.26 0.24 0.16 0.09 0.08 0.06 0.05 0.05 0.06 0.09 0.11 0.13 0.13 0.14
0.25 0.16 0.15 0.10 0.06 0.08 0.04 0.02 0.00 0.00 0.00 0.00 0.00 0.00 0.00 0.00 0.00 0.00 0.00 0.00 0.00 0.00 0.00 0.00 0.02 0.09 0.21 0.26 0.23 0.31 0.33 0.18 0.10 0.10 0.08 0.07 0.08 0.10 0.13 0.15 0.15 0.16 0.18
0.12 0.14 0.15 0.16 0.18 0.25 0.21 0.11 0.02 0.00 0.00 0.00 0.00 0.00 0.00 0.00 0.00 0.00 0.00 0.00 0.00 0.00 0.00 0.00 0.02 0.10 0.21 0.14 0.20 0.29 0.38 0.30 0.22 0.19 0.14 0.10 0.11 0.14 0.17 0.19 0.20 0.19 0.18
0.17 0.11 0.07 0.07 0.20 0.35 0.34 0.17 0.06 0.04 0.00 0.00 0.00 0.00 0.00 0.00 0.00 0.00 0.00 0.00 0.00 0.00 0.00 0.00 0.02 0.06 0.06 0.09 0.14 0.21 0.32 0.40 0.32 0.26 0.26 0.19 0.17 0.17 0.19 0.23 0.24 0.24 0.27
0.43 0.27 0.15 0.10 0.18 0.28 0.26 0.21 0.18 0.16 0.09 0.02 0.00 0.00 0.00 0.00 0.00 0.00 0.00 0.00 0.00 0.00 0.00 0.00 0.00 0.00 0.02 0.08 0.10 0.13 0.26 0.43 0.33 0.32 0.34 0.38 0.36 0.27 0.26 0.30 0.34 0.35 0.33
0.66 0.71 0.50 0.34 0.35 0.41 0.56 0.59 0.27 0.24 0.14 0.10 0.04 0.00 0.00 0.00 0.00 0.00 0.00 0.00 0.01 0.01 0.00 0.01 0.00 0.00 0.02 0.08 0.15 0.11 0.10 0.21 0.33 0.35 0.36 0.46 0.45 0.41 0.35 0.33 0.38 0.40 0.36
0.75 0.73 0.69 0.73 0.68 0.62 0.53 0.53 0.51 0.38 0.18 0.17 0.15 0.03 0.01 0.01 0.00 0.00 0.00 0.01 0.01 0.02 0.01 0.01 0.01 0.02 0.05 0.09 0.11 0.11 0.12 0.14 0.28 0.41 0.44 0.43 0.45 0.46 0.47 0.43 0.47 0.46 0.42
0.94 0.88 0.61 0.50 0.53 0.58 0.50 0.38 0.46 0.46 0.31 0.33 0.30 0.16 0.05 0.01 0.00 0.00 0.00 0.00 0.00 0.00 0.01 0.02 0.04 0.08 0.08 0.09 0.18 0.17 0.07 0.05 0.10 0.21 0.34 0.41 0.42 0.46 0.52 0.59 0.57 0.65 0.74
1.23 1.26 1.13 1.08 0.96 0.79 0.66 0.55 0.53 0.59 0.62 0.45 0.36 0.41 0.16 0.03 0.01 0.00 0.00 0.00 0.00 0.01 0.02 0.05 0.13 0.21 0.18 0.09 0.08 0.04 0.05 0.10 0.12 0.14 0.27 0.41 0.47 0.50 0.54 0.56 0.67 0.93 1.27
1.25 1.42 1.54 1.41 1.41 1.39 1.14 1.06 0.94 0.81 0.71 0.50 0.45 0.35 0.31 0.17 0.13 0.07 0.02 0.03 0.05 0.07 0.11 0.14 0.15 0.13 0.09 0.05 0.02 0.01 0.03 0.05 0.10 0.15 0.28 0.55 0.94 0.95 0.87 0.94 1.11 1.40 1.60
1.92 1.97 2.00 2.02 1.80 1.74 1.81 1.54 1.39 1.23 1.13 0.96 0.73 0.59 0.45 0.34 0.28 0.29 0.17 0.11 0.11 0.10 0.10 0.09 0.06 0.03 0.02 0.02 0.04 0.08 0.15 0.18 0.21 0.26 0.41 0.68 1.10 1.40 1.37 1.45 1.72 1.97 1.98
1.68 1.97 2.10 1.98 1.91 1.52 1.34 1.28 1.20 1.11 1.01 0.91 0.71 0.59 0.58 0.59 0.50 0.56 0.55 0.35 0.29 0.19 0.13 0.08 0.05 0.04 0.05 0.06 0.11 0.21 0.29 0.35 0.43 0.56 0.78 1.00 1.14 1.39 1.56 1.57 1.62 1.60 1.69
1.08 1.10 1.37 1.43 1.23 1.15 1.07 1.03 0.81 0.74 0.84 0.78 0.74 0.60 0.60 0.58 0.67 0.66 0.61 0.41 0.33 0.20 0.13 0.09 0.08 0.11 0.12 0.14 0.19 0.35 0.46 0.62 0.71 0.83 1.05 1.21 1.21 1.03 0.96 1.09 1.38 1.62 1.53
1.41 1.21 1.04 1.28 1.33 1.04 0.76 0.76 0.64 0.48 0.50 0.52 0.55 0.60 0.56 0.51 0.60 0.65 0.71 0.87 0.90 0.60 0.39 0.30 0.29 0.35 0.39 0.47 0.62 0.81 0.75 0.84 0.84 0.94 1.08 1.16 1.16 0.94 0.78 0.77 1.01 1.33 1.43
0.94 0.94 0.83 0.78 0.79 0.73 0.76 0.74 0.69 0.58 0.48 0.48 0.57 0.63 0.68 0.57 0.58 0.63 0.75 0.90 1.18 1.24 0.79 0.57 0.59 0.57 0.57 0.60 0.65 0.65 0.64 0.85 0.91 0.89 0.90 0.97 1.07 1.14 0.91 0.94 0.93 1.04 1.24
0.82 0.88 0.75 0.64 0.49 0.41 0.45 0.49 0.49 0.52 0.60 0.53 0.49 0.53 0.57 0.62 0.69 0.74 0.73 0.81 0.99 1.24 1.25 0.71 0.62 0.64 0.70 0.77 0.88 0.79 0.75 0.89 0.84 0.85 0.80 0.74 0.72 0.63 0.47 0.48 0.57 0.52 0.44
0.65 0.54 0.66 0.78 0.63 0.48 0.48 0.51 0.51 0.57 0.68 0.66 0.63 0.64 0.64 0.61 0.60 0.61 0.68 0.80 0.95 1.09 1.28 1.09 0.93 0.89 0.91 0.91 0.88 0.74 0.62 0.48 0.44 0.48 0.42 0.35 0.28 0.26 0.24 0.24 0.25 0.28 0.31
0.62 0.50 0.39 0.44 0.62 0.67 0.68 0.69 0.85 0.80 0.68 0.73 0.80 0.81 0.63 0.58 0.55 0.58 0.68 0.80 0.99 1.23 1.49 1.46 1.27 1.14 0.97 0.75 0.56 0.38 0.25 0.17 0.12 0.21 0.18 0.15 0.16 0.16 0.14 0.15 0.18 0.20 0.23
0.32 0.34 0.36 0.35 0.34 0.40 0.51 0.68 0.72 0.71 0.75 0.72 0.64 0.59 0.56 0.57 0.71 0.81 0.87 0.89 0.89 0.86 0.82 0.73 0.54 0.44 0.39 0.34 0.31 0.24 0.18 0.14 0.11 0.18 0.18 0.16 0.17 0.14 0.12 0.13 0.16 0.18 0.22
0.24 0.26 0.30 0.34 0.35 0.23 0.27 0.29 0.28 0.36 0.38 0.36 0.32 0.34 0.39 0.47 0.52 0.56 0.59 0.58 0.53 0.49 0.44 0.41 0.45 0.42 0.37 0.30 0.31 0.30 0.28 0.25 0.22 0.19 0.20 0.18 0.20 0.19 0.17 0.15 0.12 0.09 0.08
0.16 0.10 0.13 0.11 0.15 0.17 0.28 0.23 0.19 0.25 0.35 0.44 0.51 0.52 0.50 0.50 0.47 0.40 0.37 0.35 0.39 0.44 0.57 0.69 0.61 0.53 0.38 0.28 0.26 0.25 0.26 0.22 0.23 0.19 0.17 0.17 0.19 0.18 0.16 0.18 0.15 0.14 0.14
0.17 0.20 0.22 0.16 0.16 0.26 0.46 0.37 0.35 0.37 0.37 0.37 0.36 0.31 0.31 0.35 0.27 0.24 0.21 0.20 0.23 0.41 0.55 0.65 0.59 0.39 0.23 0.24 0.27 0.30 0.40 0.39 0.35 0.16 0.20 0.17 0.14 0.14 0.10 0.10 0.15 0.17 0.18
0.38 0.53 0.56 0.60 0.70 0.82 0.91 0.75 0.61 0.46 0.43 0.37 0.33 0.29 0.22 0.14 0.10 0.07 0.06 0.11 0.23 0.32 0.32 0.23 0.14 0.13 0.16 0.21 0.46 0.47 0.36 0.37 0.28 0.13 0.20 0.21 0.15 0.18 0.17 0.19 0.30 0.30 0.30
0.88 0.78 0.69 0.82 0.89 0.82 0.70 0.53 0.49 0.36 0.31 0.29 0.24 0.12 0.05 0.02 0.01 0.03 0.08 0.22 0.16 0.11 0.05 0.06 0.07 0.11 0.20 0.24 0.30 0.46 0.46 0.38 0.30 0.19 0.18 0.32 0.12 0.12 0.15 0.14 0.26 0.33 0.35
0.81 0.71 0.57 0.48 0.45 0.43 0.29 0.18 0.12 0.10 0.08 0.05 0.03 0.01 0.02 0.03 0.02 0.11 0.17 0.23 0.08 0.01 0.02 0.06 0.14 0.14 0.19 0.27 0.31 0.49 0.57 0.53 0.47 0.23 0.19 0.32 0.22 0.19 0.16 0.16 0.25 0.46 0.47
0.60 0.49 0.38 0.33 0.24 0.14 0.08 0.05 0.05 0.03 0.02 0.01 0.00 0.00 0.02 0.03 0.07 0.23 0.17 0.05 0.03 0.03 0.12 0.16 0.15 0.15 0.16 0.17 0.24 0.22 0.39 0.90 0.69 0.60 0.31 0.73 0.56 0.47 0.73 0.28 0.19 0.21 0.31

GFSMA_prec_precacc_132.txt.gz
Total_Precipitation_Accumulation
0.14 0.10 0.13 0.11 0.07 0.03 0.02 0.00 0.00 0.00 0.00 0.00 0.00 0.00 0.00 0.00 0.00 0.00 0.00 0.00 0.00 0.00 0.00 0.02 0.06 0.09 0.14 0.29 0.26 0.26 0.24 0.16 0.09 0.08 0.06 0.05 0.06 0.06 0.09 0.11 0.13 0.13 0.14
0.33 0.17 0.15 0.10 0.06 0.09 0.04 0.02 0.00 0.00 0.00 0.00 0.00 0.00 0.00 0.00 0.00 0.00 0.00 0.00 0.00 0.00 0.00 0.00 0.02 0.09 0.21 0.26 0.23 0.31 0.33 0.19 0.10 0.10 0.08 0.08 0.09 0.10 0.13 0.15 0.15 0.16 0.18
0.17 0.16 0.15 0.16 0.18 0.26 0.25 0.14 0.04 0.01 0.00 0.00 0.00 0.00 0.00 0.00 0.00 0.00 0.00 0.00 0.00 0.00 0.00 0.00 0.02 0.10 0.21 0.14 0.20 0.29 0.39 0.32 0.23 0.20 0.15 0.11 0.12 0.14 0.17 0.19 0.20 0.19 0.18
0.23 0.14 0.08 0.07 0.21 0.37 0.40 0.25 0.11 0.06 0.00 0.00 0.00 0.00 0.00 0.00 0.00 0.00 0.00 0.00 0.00 0.00 0.00 0.00 0.02 0.06 0.06 0.09 0.14 0.21 0.34 0.44 0.33 0.27 0.28 0.21 0.20 0.18 0.19 0.23 0.24 0.24 0.27
0.48 0.35 0.20 0.13 0.21 0.32 0.29 0.24 0.25 0.20 0.12 0.08 0.03 0.01 0.00 0.00 0.00 0.00 0.00 0.00 0.00 0.00 0.00 0.00 0.00 0.00 0.02 0.08 0.10 0.13 0.27 0.46 0.35 0.34 0.35 0.42 0.38 0.30 0.26 0.30 0.34 0.35 0.33
0.68 0.75 0.54 0.39 0.40 0.46 0.58 0.59 0.27 0.29 0.27 0.29 0.19 0.06 0.01 0.00 0.00 0.00 0.00 0.00 0.01 0.01 0.00 0.01 0.00 0.00 0.02 0.08 0.15 0.11 0.10 0.22 0.37 0.38 0.39 0.50 0.48 0.44 0.36 0.34 0.39 0.40 0.36
0.75 0.78 0.74 0.78 0.72 0.64 0.55 0.58 0.59 0.45 0.25 0.32 0.32 0.14 0.07 0.02 0.00 0.00 0.00 0.01 0.01 0.02 0.01 0.01 0.01 0.02 0.05 0.09 0.11 0.11 0.12 0.17 0.34 0.47 0.49 0.48 0.48 0.48 0.48 0.43 0.49 0.47 0.42
0.95 0.91 0.65 0.55 0.59 0.65 0.61 0.51 0.52 0.54 0.38 0.39 0.36 0.23 0.08 0.01 0.00 0.00 0.00 0.00 0.00 0.00 0.01 0.02 0.04 0.08 0.08 0.09 0.18 0.19 0.10 0.07 0.15 0.26 0.41 0.53 0.51 0.54 0.60 0.64 0.59 0.68 0.78
1.23 1.27 1.19 1.17 1.03 0.86 0.75 0.64 0.62 0.70 0.68 0.52 0.42 0.45 0.16 0.03 0.01 0.00 0.00 0.00 0.00 0.01 0.02 0.05 0.13 0.21 0.18 0.09 0.11 0.11 0.13 0.14 0.14 0.16 0.31 0.48 0.58 0.58 0.58 0.58 0.71 0.99 1.36
1.26 1.43 1.59 1.50 1.54 1.53 1.24 1.11 0.97 0.92 0.78 0.51 0.47 0.36 0.31 0.17 0.13 0.08 0.02 0.03 0.05 0.07 0.11 0.14 0.15 0.13 0.09 0.06 0.06 0.05 0.05 0.06 0.10 0.15 0.31 0.62 0.99 0.97 0.87 0.97 1.18 1.50 1.70
1.92 1.98 2.00 2.07 1.85 1.83 1.99 1.72 1.53 1.36 1.22 1.00 0.74 0.59 0.46 0.36 0.29 0.30 0.17 0.11 0.11 0.10 0.10 0.09 0.06 0.03 0.03 0.04 0.06 0.10 0.16 0.18 0.21 0.32 0.51 0.72 1.10 1.41 1.40 1.49 1.79 2.04 2.05
1.68 1.98 2.11 2.00 1.93 1.58 1.44 1.49 1.39 1.28 1.14 0.96 0.72 0.59 0.58 0.60 0.51 0.56 0.55 0.36 0.30 0.19 0.13 0.09 0.05 0.05 0.06 0.06 0.12 0.22 0.29 0.35 0.44 0.59 0.81 1.01 1.15 1.41 1.58 1.58 1.63 1.62 1.73
1.08 1.10 1.41 1.48 1.29 1.24 1.17 1.17 0.94 0.86 0.94 0.88 0.78 0.60 0.60 0.59 0.68 0.68 0.67 0.48 0.38 0.22 0.14 0.09 0.09 0.11 0.13 0.15 0.21 0.38 0.48 0.63 0.72 0.83 1.05 1.22 1.22 1.03 0.96 1.09 1.38 1.63 1.54
1.41 1.21 1.05 1.32 1.41 1.12 0.86 0.85 0.69 0.51 0.53 0.52 0.56 0.61 0.56 0.52 0.60 0.66 0.75 0.95 1.00 0.66 0.43 0.32 0.31 0.36 0.40 0.48 0.63 0.83 0.76 0.87 0.85 0.94 1.08 1.16 1.16 0.94 0.78 0.77 1.01 1.34 1.43
0.94 0.94 0.84 0.80 0.81 0.74 0.81 0.82 0.76 0.62 0.51 0.49 0.57 0.64 0.69 0.58 0.59 0.64 0.77 0.97 1.30 1.34 0.85 0.59 0.61 0.59 0.58 0.61 0.69 0.68 0.66 0.88 0.92 0.89 0.90 0.97 1.07 1.14 0.91 0.94 0.94 1.05 1.25
0.82 0.88 0.75 0.65 0.50 0.42 0.46 0.49 0.50 0.55 0.62 0.54 0.50 0.54 0.58 0.63 0.73 0.79 0.81 0.95 1.20 1.44 1.38 0.78 0.68 0.70 0.76 0.83 0.92 0.80 0.75 0.90 0.84 0.85 0.80 0.74 0.73 0.63 0.47 0.49 0.57 0.52 0.44
0.65 0.54 0.67 0.82 0.68 0.51 0.50 0.52 0.52 0.58 0.69 0.66 0.64 0.65 0.65 0.64 0.69 0.69 0.75 0.87 1.05 1.23 1.41 1.22 1.09 1.03 1.01 0.96 0.90 0.74 0.62 0.48 0.44 0.48 0.42 0.35 0.28 0.26 0.24 0.24 0.25 0.28 0.31
0.62 0.51 0.39 0.45 0.62 0.68 0.69 0.69 0.85 0.80 0.69 0.74 0.80 0.86 0.82 0.78 0.76 0.77 0.86 0.95 1.10 1.31 1.55 1.54 1.35 1.20 1.00 0.76 0.56 0.38 0.25 0.17 0.12 0.21 0.18 0.15 0.16 0.16 0.14 0.15 0.19 0.20 0.23
0.32 0.35 0.36 0.35 0.34 0.40 0.51 0.68 0.72 0.72 0.76 0.77 0.69 0.67 0.72 0.85 1.04 1.12 1.16 1.13 1.06 0.97 0.88 0.76 0.55 0.44 0.39 0.34 0.31 0.24 0.18 0.14 0.11 0.18 0.18 0.16 0.17 0.14 0.12 0.13 0.16 0.18 0.22
0.26 0.27 0.31 0.34 0.35 0.23 0.27 0.29 0.28 0.36 0.41 0.47 0.49 0.47 0.49 0.54 0.60 0.62 0.64 0.60 0.54 0.49 0.44 0.41 0.45 0.42 0.37 0.30 0.31 0.30 0.28 0.25 0.22 0.19 0.20 0.18 0.20 0.19 0.17 0.15 0.12 0.09 0.08
0.24 0.16 0.15 0.13 0.18 0.20 0.33 0.28 0.20 0.25 0.36 0.47 0.55 0.53 0.51 0.51 0.47 0.40 0.37 0.35 0.39 0.44 0.57 0.69 0.61 0.53 0.38 0.28 0.26 0.25 0.26 0.22 0.23 0.19 0.17 0.17 0.19 0.18 0.16 0.18 0.15 0.14 0.14
0.18 0.21 0.22 0.16 0.16 0.27 0.53 0.39 0.35 0.37 0.37 0.37 0.36 0.31 0.31 0.35 0.27 0.24 0.21 0.20 0.23 0.41 0.55 0.65 0.59 0.39 0.23 0.24 0.27 0.30 0.40 0.39 0.35 0.16 0.20 0.17 0.14 0.14 0.10 0.10 0.15 0.17 0.18
0.38 0.53 0.56 0.60 0.70 0.82 0.91 0.75 0.61 0.46 0.43 0.37 0.33 0.29 0.22 0.14 0.10 0.07 0.06 0.11 0.23 0.32 0.32 0.23 0.14 0.13 0.16 0.21 0.46 0.47 0.36 0.38 0.28 0.13 0.20 0.22 0.15 0.18 0.17 0.19 0.30 0.30 0.30
0.88 0.78 0.69 0.82 0.89 0.82 0.70 0.53 0.49 0.36 0.31 0.29 0.24 0.12 0.05 0.02 0.01 0.03 0.08 0.22 0.16 0.11 0.05 0.06 0.07 0.11 0.20 0.24 0.31 0.47 0.47 0.38 0.30 0.20 0.18 0.33 0.12 0.12 0.15 0.14 0.26 0.33 0.35
0.81 0.71 0.57 0.48 0.45 0.43 0.29 0.18 0.12 0.10 0.08 0.05 0.03 0.01 0.02 0.03 0.02 0.11 0.17 0.23 0.08 0.01 0.02 0.06 0.14 0.14 0.19 0.27 0.32 0.49 0.57 0.54 0.47 0.24 0.19 0.32 0.22 0.19 0.16 0.16 0.25 0.46 0.47
0.60 0.49 0.38 0.33 0.24 0.14 0.08 0.05 0.05 0.03 0.02 0.01 0.00 0.00 0.02 0.03 0.07 0.23 0.17 0.05 0.03 0.03 0.12 0.16 0.15 0.15 0.16 0.17 0.24 0.22 0.40 0.91 0.69 0.61 0.31 0.74 0.57 0.47 0.73 0.28 0.19 0.21 0.31

GFSMA_prec_precacc_135.txt.gz
Total_Precipitation_Accumulation
0.14 0.10 0.13 0.11 0.07 0.03 0.02 0.00 0.00 0.00 0.00 0.00 0.00 0.00 0.00 0.00 0.00 0.00 0.00 0.00 0.00 0.00 0.00 0.02 0.06 0.09 0.14 0.29 0.26 0.27 0.26 0.17 0.09 0.09 0.07 0.05 0.06 0.06 0.09 0.11 0.13 0.13 0.14
0.34 0.17 0.15 0.10 0.06 0.09 0.04 0.02 0.00 0.00 0.00 0.00 0.00 0.00 0.00 0.00 0.00 0.00 0.00 0.00 0.00 0.00 0.00 0.00 0.02 0.09 0.21 0.26 0.24 0.33 0.35 0.20 0.11 0.11 0.09 0.08 0.10 0.11 0.13 0.15 0.15 0.16 0.18
0.19 0.22 0.17 0.16 0.19 0.31 0.31 0.18 0.08 0.06 0.02 0.01 0.00 0.00 0.00 0.00 0.00 0.00 0.00 0.00 0.00 0.00 0.00 0.00 0.02 0.10 0.21 0.14 0.20 0.29 0.41 0.33 0.24 0.21 0.16 0.12 0.14 0.15 0.17 0.19 0.20 0.19 0.18
0.23 0.18 0.12 0.07 0.22 0.46 0.54 0.36 0.19 0.12 0.02 0.00 0.00 0.00 0.00 0.00 0.00 0.00 0.00 0.00 0.00 0.00 0.00 0.00 0.02 0.06 0.06 0.09 0.14 0.21 0.34 0.45 0.35 0.29 0.30 0.24 0.21 0.19 0.20 0.23 0.24 0.24 0.27
0.48 0.37 0.25 0.16 0.26 0.43 0.42 0.35 0.30 0.23 0.13 0.09 0.05 0.04 0.02 0.01 0.01 0.00 0.00 0.00 0.00 0.00 0.00 0.00 0.00 0.00 0.02 0.08 0.10 0.13 0.27 0.48 0.38 0.39 0.38 0.46 0.41 0.34 0.30 0.32 0.38 0.37 0.34
0.69 0.77 0.58 0.43 0.47 0.54 0.66 0.65 0.30 0.32 0.29 0.33 0.32 0.17 0.08 0.05 0.02 0.01 0.00 0.00 0.01 0.01 0.00 0.01 0.00 0.00 0.02 0.08 0.15 0.11 0.10 0.25 0.41 0.44 0.43 0.54 0.54 0.50 0.42 0.41 0.49 0.51 0.41
0.75 0.78 0.76 0.83 0.79 0.69 0.60 0.67 0.71 0.56 0.31 0.37 0.41 0.21 0.17 0.10 0.03 0.02 0.01 0.01 0.01 0.02 0.01 0.01 0.01 0.02 0.05 0.09 0.11 0.11 0.12 0.18 0.39 0.52 0.52 0.51 0.53 0.53 0.56 0.55 0.60 0.52 0.47
0.95 0.91 0.65 0.57 0.66 0.73 0.66 0.55 0.61 0.64 0.48 0.52 0.47 0.30 0.11 0.03 0.01 0.01 0.01 0.00 0.00 0.00 0.01 0.02 0.04 0.08 0.08 0.09 0.18 0.19 0.10 0.09 0.20 0.34 0.46 0.59 0.55 0.58 0.66 0.68 0.64 0.75 0.89
1.23 1.27 1.19 1.17 1.07 0.93 0.81 0.70 0.69 0.79 0.78 0.64 0.54 0.53 0.17 0.03 0.01 0.00 0.00 0.00 0.00 0.01 0.02 0.05 0.13 0.21 0.18 0.09 0.11 0.11 0.14 0.16 0.17 0.25 0.39 0.53 0.67 0.64 0.62 0.62 0.77 1.09 1.47
1.26 1.43 1.59 1.51 1.56 1.56 1.29 1.21 1.08 1.02 0.90 0.65 0.57 0.44 0.35 0.18 0.13 0.08 0.02 0.03 0.05 0.07 0.11 0.14 0.15 0.13 0.09 0.06 0.06 0.05 0.07 0.08 0.10 0.16 0.33 0.66 1.02 1.01 0.92 1.03 1.28 1.60 1.78
1.92 1.98 2.01 2.07 1.86 1.84 2.02 1.80 1.63 1.47 1.36 1.16 0.88 0.68 0.53 0.39 0.30 0.30 0.17 0.11 0.11 0.10 0.10 0.09 0.06 0.03 0.03 0.04 0.06 0.11 0.16 0.18 0.22 0.34 0.52 0.74 1.13 1.42 1.42 1.52 1.83 2.08 2.07
1.68 1.98 2.11 2.00 1.94 1.59 1.46 1.56 1.52 1.39 1.29 1.12 0.85 0.70 0.63 0.63 0.52 0.57 0.55 0.36 0.30 0.19 0.13 0.09 0.05 0.05 0.06 0.07 0.13 0.24 0.32 0.37 0.45 0.59 0.81 1.01 1.16 1.43 1.59 1.58 1.63 1.62 1.73
1.08 1.10 1.41 1.48 1.29 1.24 1.18 1.19 1.02 0.96 1.05 1.01 0.90 0.71 0.70 0.66 0.70 0.69 0.68 0.49 0.39 0.22 0.14 0.09 0.09 0.11 0.13 0.16 0.22 0.40 0.50 0.66 0.74 0.85 1.06 1.23 1.22 1.04 0.96 1.09 1.38 1.63 1.55
1.41 1.21 1.05 1.32 1.41 1.12 0.86 0.85 0.71 0.55 0.60 0.59 0.61 0.64 0.59 0.55 0.63 0.69 0.76 0.97 1.02 0.67 0.44 0.32 0.32 0.40 0.44 0.50 0.64 0.85 0.76 0.88 0.86 0.97 1.11 1.19 1.18 0.94 0.78 0.77 1.01 1.34 1.44
0.94 0.94 0.84 0.80 0.81 0.74 0.81 0.84 0.79 0.68 0.56 0.51 0.58 0.65 0.70 0.59 0.60 0.65 0.79 0.99 1.33 1.36 0.86 0.61 0.65 0.64 0.64 0.66 0.71 0.69 0.67 0.92 0.96 0.93 0.92 0.97 1.07 1.14 0.91 0.94 0.94 1.05 1.25
0.82 0.88 0.75 0.65 0.50 0.42 0.46 0.50 0.52 0.58 0.65 0.58 0.53 0.55 0.59 0.63 0.73 0.80 0.82 0.96 1.23 1.51 1.44 0.82 0.75 0.78 0.83 0.91 1.06 0.96 0.87 0.99 0.87 0.86 0.80 0.74 0.73 0.63 0.47 0.49 0.57 0.52 0.44
0.65 0.54 0.67 0.82 0.68 0.53 0.52 0.52 0.52 0.58 0.69 0.67 0.64 0.65 0.66 0.65 0.70 0.70 0.76 0.89 1.07 1.28 1.51 1.30 1.18 1.12 1.12 1.11 1.06 0.88 0.71 0.51 0.45 0.48 0.42 0.35 0.28 0.26 0.24 0.24 0.25 0.28 0.31
0.62 0.51 0.40 0.45 0.62 0.68 0.69 0.69 0.85 0.80 0.69 0.74 0.80 0.86 0.82 0.78 0.76 0.78 0.87 0.97 1.17 1.42 1.70 1.70 1.54 1.36 1.13 0.84 0.61 0.41 0.26 0.17 0.12 0.21 0.18 0.15 0.16 0.16 0.14 0.15 0.19 0.21 0.23
0.33 0.35 0.36 0.35 0.34 0.40 0.51 0.68 0.72 0.72 0.76 0.77 0.69 0.67 0.72 0.85 1.04 1.18 1.27 1.30 1.26 1.15 1.04 0.91 0.68 0.55 0.46 0.37 0.31 0.24 0.18 0.14 0.11 0.18 0.18 0.16 0.17 0.14 0.12 0.13 0.16 0.18 0.22
0.27 0.28 0.31 0.35 0.35 0.23 0.27 0.29 0.28 0.36 0.41 0.47 0.49 0.47 0.50 0.57 0.64 0.67 0.70 0.67 0.59 0.51 0.45 0.42 0.45 0.42 0.37 0.30 0.31 0.30 0.28 0.25 0.22 0.19 0.20 0.18 0.20 0.19 0.17 0.15 0.12 0.09 0.08
0.25 0.18 0.17 0.15 0.21 0.24 0.34 0.28 0.20 0.26 0.36 0.47 0.55 0.54 0.51 0.51 0.47 0.40 0.37 0.35 0.39 0.44 0.57 0.69 0.61 0.53 0.38 0.28 0.26 0.25 0.26 0.22 0.23 0.19 0.17 0.17 0.19 0.18 0.16 0.18 0.15 0.14 0.14
0.18 0.21 0.22 0.16 0.16 0.27 0.53 0.39 0.35 0.37 0.37 0.37 0.36 0.31 0.31 0.35 0.27 0.24 0.21 0.20 0.23 0.41 0.55 0.65 0.59 0.39 0.23 0.24 0.27 0.30 0.40 0.39 0.35 0.16 0.20 0.17 0.14 0.14 0.10 0.10 0.15 0.17 0.18
0.38 0.53 0.56 0.60 0.70 0.82 0.91 0.75 0.61 0.46 0.43 0.37 0.33 0.29 0.22 0.14 0.10 0.07 0.06 0.11 0.23 0.32 0.32 0.23 0.14 0.13 0.16 0.21 0.46 0.47 0.36 0.38 0.28 0.13 0.20 0.22 0.15 0.18 0.17 0.19 0.30 0.30 0.30
0.88 0.78 0.69 0.82 0.89 0.82 0.70 0.53 0.49 0.36 0.31 0.29 0.24 0.12 0.05 0.02 0.01 0.03 0.08 0.22 0.16 0.11 0.05 0.06 0.07 0.11 0.20 0.24 0.31 0.47 0.47 0.39 0.30 0.20 0.18 0.33 0.12 0.12 0.15 0.14 0.26 0.33 0.35
0.81 0.71 0.57 0.48 0.45 0.43 0.29 0.18 0.12 0.10 0.08 0.05 0.03 0.01 0.02 0.03 0.02 0.11 0.17 0.23 0.08 0.01 0.02 0.06 0.14 0.14 0.19 0.27 0.32 0.49 0.57 0.54 0.47 0.24 0.19 0.33 0.22 0.19 0.16 0.16 0.25 0.46 0.47
0.60 0.49 0.38 0.33 0.24 0.14 0.08 0.05 0.05 0.03 0.02 0.01 0.00 0.00 0.02 0.03 0.07 0.23 0.17 0.05 0.03 0.03 0.12 0.16 0.15 0.15 0.16 0.17 0.24 0.22 0.40 0.91 0.70 0.62 0.31 0.75 0.57 0.47 0.74 0.28 0.19 0.21 0.31